# Wetter Temperatur Luftdruck Luftfeuchtigkeit Sichtweite Windgeschwindigkeit Windrichtung Zeit
1 Clouds 31 1008 62 10000 2.06 250 11:42 07.10.2022
2 Clouds 32 1007 66 10000 5.14 310 09:25 07.10.2022
3 Clouds 32 1008 64 10000 5.66 320 08:29 07.10.2022
4 Clouds 33 1011 62 10000 4.63 310 05:27 07.10.2022
5 Clouds 27 1011 88 10000 0 0 00:23 07.10.2022
6 Clouds 26 1010 94 10000 0 0 22:50 06.10.2022
7 Clouds 26 1009 94 10000 1.03 180 21:41 06.10.2022
8 Clouds 27 1009 89 10000 3.58 200 20:54 06.10.2022
9 Clouds 27 1010 89 10000 3.6 200 19:46 06.10.2022
10 Clouds 26 1010 89 10000 1.54 200 18:37 06.10.2022
11 Clouds 27 1011 89 10000 1.54 210 16:58 06.10.2022
12 Clouds 28 1010 84 10000 2.06 220 13:51 06.10.2022
13 Clouds 30 1008 69 10000 3.6 360 11:24 06.10.2022
14 Clouds 33 1011 54 10000 2.57 40 05:47 06.10.2022
15 Clouds 32 1013 60 10000 5.66 100 03:24 06.10.2022
16 Clouds 27 1011 89 10000 1.54 140 22:34 05.10.2022
17 Clouds 26 1010 86 10000 1.54 360 19:57 05.10.2022
18 Clear 27 1010 84 10000 2.57 340 17:58 05.10.2022
19 Clear 27 1011 84 10000 2.06 350 17:33 05.10.2022
20 Clouds 28 1012 84 10000 3.09 340 15:54 05.10.2022
21 Clouds 27 1011 82 10000 0.51 240 14:46 05.10.2022
22 Clouds 27 1011 78 10000 0.89 240 13:52 05.10.2022
23 Clouds 28 1010 77 10000 2.57 220 12:19 05.10.2022
24 Clouds 32 1008 61 10000 5.66 360 08:45 05.10.2022
25 Clouds 32 1008 62 10000 4.63 330 07:29 05.10.2022
26 Clouds 33 1011 54 10000 3.09 90 05:35 05.10.2022
27 Clouds 31 1012 67 10000 3.09 50 02:42 05.10.2022
28 Clear 26 1010 83 10000 2.57 110 00:41 05.10.2022
29 Clear 26 1010 83 10000 2.57 110 00:23 05.10.2022
30 Clouds 24 1009 90 10000 1.54 130 21:48 04.10.2022
31 Clouds 25 1009 89 10000 1.54 140 20:29 04.10.2022
32 Clouds 25 1009 89 10000 1.54 150 18:57 04.10.2022
33 Clouds 25 1010 89 10000 1.54 150 18:35 04.10.2022
34 Clouds 25 1011 89 10000 2.06 120 17:41 04.10.2022
35 Clear 25 1011 89 10000 2.06 160 16:28 04.10.2022
36 Rain 26 1011 88 10000 1.03 110 12:24 04.10.2022
37 Clouds 25 1009 94 6000 6.69 180 08:52 04.10.2022
38 Clouds 29 1010 74 10000 3.6 50 06:28 04.10.2022
39 Rain 27 1012 88 10000 1.54 140 01:28 04.10.2022
40 Clouds 27 1010 85 10000 1.54 280 23:37 03.10.2022
41 Clouds 28 1009 83 10000 1.54 270 21:52 03.10.2022
42 Clouds 28 1008 81 10000 1.54 290 20:52 03.10.2022
43 Clouds 28 1009 81 10000 3.09 290 19:34 03.10.2022
44 Clouds 28 1009 83 10000 3.09 280 17:53 03.10.2022
45 Clouds 28 1009 83 10000 2.68 270 16:43 03.10.2022
46 Clear 28 1009 80 10000 2.57 270 15:27 03.10.2022
47 Clear 29 1009 78 10000 3.09 290 13:44 03.10.2022
48 Clear 29 1008 76 10000 4.12 310 12:20 03.10.2022
49 Clouds 30 1011 70 10000 4.47 330 10:38 03.10.2022
50 Clouds 31 1011 63 10000 4.63 330 09:35 03.10.2022
51 Clouds 32 1008 67 10000 5.14 300 05:34 03.10.2022
52 Rain 30 1010 74 10000 3.09 20 02:36 03.10.2022
53 Clear 26 1008 89 10000 0.51 70 22:24 02.10.2022
54 Rain 26 1008 82 10000 1.03 290 20:37 02.10.2022
55 Clouds 27 1008 79 10000 2.06 10 18:31 02.10.2022
56 Clouds 27 1009 79 10000 2.06 350 17:35 02.10.2022
57 Clear 27 1009 76 10000 3.09 360 16:33 02.10.2022
58 Clear 27 1009 76 10000 3.09 360 16:33 02.10.2022
59 Clear 27 1010 77 10000 1.54 320 15:41 02.10.2022
60 Clear 28 1010 73 10000 1.54 270 13:51 02.10.2022
61 Clear 28 1010 75 10000 3.09 300 12:52 02.10.2022
62 Clear 28 1010 75 10000 3.09 300 12:28 02.10.2022
63 Clouds 29 1008 72 10000 4.12 340 11:36 02.10.2022
64 Clouds 30 1008 61 10000 3.6 340 10:37 02.10.2022
65 Clear 32 1007 52 10000 3.09 330 09:27 02.10.2022
66 Clear 32 1008 46 10000 2.06 360 07:30 02.10.2022
67 Clear 28 1011 61 10000 4.63 180 02:55 02.10.2022
68 Clear 25 1011 78 10000 4.12 190 00:46 02.10.2022
69 Clear 24 1011 83 10000 4.12 190 00:20 02.10.2022
70 Clear 23 1009 83 10000 2.06 100 22:37 01.10.2022
71 Clouds 23 1009 83 10000 2.57 130 20:34 01.10.2022
72 Clouds 23 1009 88 10000 3.6 130 18:30 01.10.2022
73 Clear 24 1011 88 10000 3.6 160 16:35 01.10.2022
74 Rain 24 1011 88 10000 5.66 210 14:35 01.10.2022
75 Rain 24 1011 89 10000 5.14 200 13:31 01.10.2022
76 Rain 24 1010 89 10000 4.63 210 12:32 01.10.2022
77 Rain 24 1010 89 10000 4.63 190 11:20 01.10.2022
78 Rain 24 1009 92 10000 4.47 180 10:31 01.10.2022
79 Rain 26 1009 89 10000 4.63 190 09:28 01.10.2022
80 Rain 26 1009 85 10000 4.63 180 08:58 01.10.2022
81 Clouds 28 1013 82 10000 2.57 160 04:27 01.10.2022
82 Clouds 29 1012 75 10000 1.03 90 03:31 01.10.2022
83 Clouds 25 1011 94 10000 3.09 140 00:18 01.10.2022
84 Clouds 24 1013 94 10000 2.06 30 22:37 30.09.2022
85 Rain 24 1010 95 2600 6.69 40 21:29 30.09.2022
86 Clouds 25 1010 86 2400 4.63 40 20:44 30.09.2022
87 Clouds 26 1012 83 10000 2.57 170 20:18 30.09.2022
88 Clouds 28 1011 79 10000 2.57 270 17:38 30.09.2022
89 Clouds 28 1011 84 10000 2.57 260 15:56 30.09.2022
90 Rain 29 1010 73 10000 4.63 10 13:30 30.09.2022
91 Clear 30 1009 61 10000 5.14 20 11:58 30.09.2022
92 Clouds 31 1008 57 10000 0.45 185 10:40 30.09.2022
93 Clear 34 1008 46 10000 8.75 30 08:26 30.09.2022
94 Clear 34 1009 40 10000 4.63 60 05:54 30.09.2022
95 Clouds 31 1012 57 10000 5.14 80 02:39 30.09.2022
96 Clear 26 1011 80 10000 2.06 80 22:40 29.09.2022
97 Clouds 26 1010 80 10000 2.57 90 21:28 29.09.2022
98 Clouds 26 1010 84 10000 3.09 120 20:57 29.09.2022
99 Clouds 28 1011 76 10000 1.54 100 18:45 29.09.2022
100 Clouds 28 1011 76 10000 3.6 50 17:32 29.09.2022
101 Clear 28 1012 75 10000 3.6 40 16:28 29.09.2022
102 Clear 29 1012 73 10000 4.63 50 15:36 29.09.2022
103 Clear 28 1012 76 10000 3.6 50 14:31 29.09.2022
104 Clouds 31 1009 57 10000 6.17 60 10:29 29.09.2022
105 Clouds 32 1010 56 10000 6.71 50 06:58 29.09.2022
106 Clouds 27 1012 78 10000 5.66 70 02:51 29.09.2022
107 Clouds 24 1011 94 10000 3.09 100 23:56 28.09.2022
108 Clear 24 1010 93 10000 2.06 60 22:44 28.09.2022
109 Clouds 25 1009 89 10000 3.09 90 21:29 28.09.2022
110 Clouds 25 1009 90 10000 3.6 80 20:24 28.09.2022
111 Rain 25 1011 94 10000 5.14 80 18:41 28.09.2022
112 Clouds 25 1011 94 10000 2.06 120 15:26 28.09.2022
113 Clouds 24 1009 88 10000 2.57 20 13:26 28.09.2022
114 Thunderstorm 24 1008 88 6000 5.14 90 10:59 28.09.2022
115 Clouds 30 1007 71 10000 3.6 290 09:18 28.09.2022
116 Clouds 31 1007 69 10000 3.6 340 07:20 28.09.2022
117 Clouds 31 1011 62 10000 2.57 130 03:18 28.09.2022
118 Clouds 29 1010 72 10000 3.09 90 01:35 28.09.2022
119 Clouds 26 1008 84 10000 1.54 90 23:27 27.09.2022
120 Clouds 26 1008 80 10000 0 0 21:47 27.09.2022
121 Clouds 26 1008 84 10000 0.51 70 20:39 27.09.2022
122 Clouds 26 1008 80 10000 0 0 19:48 27.09.2022
123 Clouds 26 1008 79 10000 0.51 60 18:45 27.09.2022
124 Clouds 27 1009 76 10000 1.03 270 17:45 27.09.2022
125 Clouds 28 1010 71 10000 1.54 280 15:40 27.09.2022
126 Clear 28 1009 71 10000 2.57 280 14:58 27.09.2022
127 Clear 30 1008 63 10000 3.58 310 12:53 27.09.2022
128 Clear 30 1007 60 10000 3.6 310 11:34 27.09.2022
129 Clouds 32 1006 62 10000 3.92 294 09:34 27.09.2022
130 Smoke 32 1008 51 10000 4.12 330 06:56 27.09.2022
131 Clouds 30 1011 68 10000 3.6 310 02:41 27.09.2022
132 Clouds 29 1010 73 10000 2.06 340 01:35 27.09.2022
133 Clouds 26 1008 83 10000 0 0 23:35 26.09.2022
134 Clouds 26 1008 83 10000 0 0 22:40 26.09.2022
135 Clouds 27 1007 81 10000 1.54 320 20:46 26.09.2022
136 Clear 28 1008 77 10000 2.06 320 19:32 26.09.2022
137 Clouds 27 1008 81 10000 2.57 280 18:34 26.09.2022
138 Clouds 29 1009 76 10000 3.09 270 16:41 26.09.2022
139 Clouds 29 1009 77 10000 3.6 270 14:41 26.09.2022
140 Clear 30 1008 71 10000 5.66 300 11:35 26.09.2022
141 Rain 31 1007 59 10000 4.12 350 10:41 26.09.2022
142 Rain 31 1007 58 10000 4.12 350 10:21 26.09.2022
143 Rain 33 1006 47 10000 4.63 330 09:55 26.09.2022
144 Clouds 34 1006 40 10000 6.17 340 09:24 26.09.2022
145 Clouds 34 1006 40 10000 6.17 340 08:57 26.09.2022
146 Clouds 32 1010 54 10000 3.09 20 02:57 26.09.2022
147 Clouds 26 1010 93 10000 1.54 100 00:35 26.09.2022
148 Clouds 25 1009 94 10000 1.54 80 23:20 25.09.2022
149 Clear 25 1008 90 10000 1.54 140 21:44 25.09.2022
150 Clear 25 1008 93 10000 1.54 140 20:54 25.09.2022
151 Clouds 27 1008 90 10000 1.54 200 19:55 25.09.2022
152 Clouds 26 1009 89 10000 2.06 220 18:44 25.09.2022
153 Clouds 26 1009 89 10000 2.06 220 18:21 25.09.2022
154 Clouds 28 1012 85 10000 1.54 260 16:55 25.09.2022
155 Clouds 28 1013 80 10000 2.06 270 15:46 25.09.2022
156 Clear 28 1009 80 10000 2.06 280 14:31 25.09.2022
157 Clear 29 1009 76 10000 2.57 270 13:45 25.09.2022
158 Clouds 31 1012 60 10000 6.71 300 10:37 25.09.2022
159 Clouds 32 1007 68 10000 7.72 300 09:21 25.09.2022
160 Clouds 33 1009 64 10000 5.66 310 06:28 25.09.2022
161 Clouds 31 1012 75 10000 4.63 310 04:28 25.09.2022
162 Clouds 28 1010 83 10000 2.06 330 23:36 24.09.2022
163 Clouds 27 1009 87 10000 1.03 330 21:19 24.09.2022
164 Clouds 28 1009 80 10000 1.03 330 19:24 24.09.2022
165 Clouds 28 1009 84 10000 2.57 340 18:44 24.09.2022
166 Clouds 28 1010 78 10000 2.57 270 16:43 24.09.2022
167 Clouds 29 1010 76 10000 3.09 280 15:23 24.09.2022
168 Clouds 29 1009 76 10000 3.09 270 14:18 24.09.2022
169 Clouds 30 1008 72 10000 4.12 270 12:59 24.09.2022
170 Clouds 29 1008 73 10000 4.12 280 12:22 24.09.2022
171 Clouds 32 1006 61 10000 5.66 300 09:58 24.09.2022
172 Clouds 34 1006 52 10000 4.63 310 08:51 24.09.2022
173 Clouds 34 1007 52 10000 4.63 320 07:40 24.09.2022
174 Clouds 32 1010 58 10000 3.09 310 04:50 24.09.2022
175 Clouds 31 1011 67 10000 3.09 340 03:48 24.09.2022
176 Clouds 27 1009 83 10000 1.34 320 22:54 23.09.2022
177 Clouds 27 1009 85 10000 1.54 350 21:33 23.09.2022
178 Clouds 27 1009 88 10000 2.06 360 20:57 23.09.2022
179 Clouds 27 1008 89 10000 2.57 10 20:26 23.09.2022
180 Clouds 27 1008 87 10000 2.06 340 19:19 23.09.2022
181 Clouds 29 1010 80 10000 2.57 270 15:31 23.09.2022
182 Clouds 29 1008 75 10000 3.6 250 11:47 23.09.2022
183 Clouds 31 1008 63 10000 6.17 290 09:36 23.09.2022
184 Clouds 32 1009 58 10000 4.92 340 06:51 23.09.2022
185 Clouds 27 1012 79 10000 1.54 60 00:42 23.09.2022
186 Clouds 26 1011 84 10000 0 0 23:23 22.09.2022
187 Clouds 26 1011 83 10000 0 0 22:27 22.09.2022
188 Clouds 26 1010 84 10000 0.51 230 21:23 22.09.2022
189 Clouds 27 1011 79 10000 1.03 290 19:58 22.09.2022
190 Clouds 28 1011 78 10000 2.57 270 17:41 22.09.2022
191 Clear 29 1011 72 10000 2.06 360 13:38 22.09.2022
192 Clear 33 1009 49 10000 5.66 360 10:37 22.09.2022
193 Clear 33 1009 49 10000 5.66 360 10:18 22.09.2022
194 Clouds 34 1010 49 10000 5.66 330 07:36 22.09.2022
195 Clouds 32 1013 49 10000 1.79 110 04:37 22.09.2022
196 Clouds 26 1013 83 10000 0 0 23:46 21.09.2022
197 Clouds 26 1011 83 10000 0.51 20 22:26 21.09.2022
198 Clouds 26 1011 83 10000 1.03 20 20:54 21.09.2022
199 Clouds 28 1012 74 10000 2.57 20 18:30 21.09.2022
200 Clouds 28 1012 80 10000 2.06 350 17:22 21.09.2022
201 Clouds 29 1012 80 10000 5.66 310 15:18 21.09.2022
202 Clear 30 1010 72 10000 4.63 330 13:38 21.09.2022
203 Clear 31 1009 59 10000 5.14 30 11:34 21.09.2022
204 Clear 32 1008 54 10000 6.17 20 10:50 21.09.2022
205 Clear 32 1008 54 10000 6.17 20 10:50 21.09.2022
206 Clear 34 1008 46 10000 8.23 20 09:38 21.09.2022
207 Clear 34 1008 47 10000 8.75 10 08:23 21.09.2022
208 Clouds 32 1012 55 10000 3.09 70 02:51 21.09.2022
209 Clouds 31 1015 59 10000 3.09 100 02:33 21.09.2022
210 Clouds 31 1013 61 10000 3.09 70 01:49 21.09.2022
211 Clouds 26 1012 73 10000 2.06 80 23:50 20.09.2022
212 Clouds 26 1010 69 10000 1.54 160 21:34 20.09.2022
213 Clouds 27 1011 71 10000 2.57 120 20:23 20.09.2022
214 Clouds 28 1012 71 10000 2.06 120 17:53 20.09.2022
215 Clear 29 1012 71 10000 2.06 170 15:18 20.09.2022
216 Clear 30 1011 64 10000 2.57 30 13:59 20.09.2022
217 Clouds 32 1013 53 10000 4.12 20 11:24 20.09.2022
218 Clouds 34 1009 49 10000 4.12 350 08:29 20.09.2022
219 Clouds 34 1009 49 10000 4.12 350 08:29 20.09.2022
220 Clouds 34 1010 49 10000 3.09 340 07:31 20.09.2022
221 Clouds 32 1013 56 10000 2.57 270 04:30 20.09.2022
222 Clouds 29 1014 73 10000 3.09 190 01:28 20.09.2022
223 Clouds 27 1011 85 10000 2.57 190 22:33 19.09.2022
224 Clouds 26 1011 86 10000 2.06 190 21:28 19.09.2022
225 Clouds 27 1011 84 10000 1.54 190 20:39 19.09.2022
226 Clouds 28 1011 79 10000 2.57 240 18:42 19.09.2022
227 Clouds 29 1014 72 10000 3.6 270 16:29 19.09.2022
228 Clouds 29 1011 71 10000 4.12 10 13:44 19.09.2022
229 Clear 31 1009 57 10000 5.14 30 11:43 19.09.2022
230 Clear 34 1008 45 10000 6.17 360 09:35 19.09.2022
231 Clear 33 1009 49 10000 5.66 350 08:20 19.09.2022
232 Clouds 30 1012 64 10000 2.06 230 02:46 19.09.2022
233 Clouds 26 1012 89 10000 2.06 210 23:26 18.09.2022
234 Clouds 25 1011 90 10000 1.03 230 21:53 18.09.2022
235 Clouds 26 1011 87 10000 1.03 100 20:34 18.09.2022
236 Clouds 27 1011 84 10000 1.03 250 19:26 18.09.2022
237 Clouds 28 1012 82 10000 2.06 280 17:49 18.09.2022
238 Clouds 27 1012 83 10000 2.06 270 16:43 18.09.2022
239 Clouds 28 1012 81 10000 2.57 270 14:39 18.09.2022
240 Clear 29 1011 75 10000 4.12 270 12:56 18.09.2022
241 Clouds 30 1012 68 10000 4.12 290 11:51 18.09.2022
242 Clouds 33 1010 52 10000 4.63 310 06:45 18.09.2022
243 Clouds 29 1014 77 10000 1.79 160 01:32 18.09.2022
244 Clouds 28 1013 82 10000 2.06 160 00:49 18.09.2022
245 Clouds 25 1013 88 10000 0 0 22:54 17.09.2022
246 Clouds 25 1012 88 10000 0.89 20 20:50 17.09.2022
247 Clouds 26 1011 88 10000 1.03 340 19:28 17.09.2022
248 Clouds 28 1012 78 10000 2.06 330 17:21 17.09.2022
249 Clouds 29 1012 74 10000 3.09 330 14:18 17.09.2022
250 Clear 29 1011 73 10000 3.09 280 12:33 17.09.2022
251 Clouds 30 1009 65 10000 6.71 300 10:47 17.09.2022
252 Clouds 32 1010 58 10000 5.66 290 06:31 17.09.2022
253 Clouds 31 1012 62 10000 2.06 280 03:55 17.09.2022
254 Clouds 26 1011 89 10000 0 0 23:23 16.09.2022
255 Clouds 26 1010 89 10000 0 0 21:46 16.09.2022
256 Clouds 25 1010 88 10000 1.54 320 20:41 16.09.2022
257 Clear 27 1010 86 10000 1.54 280 18:28 16.09.2022
258 Clouds 28 1011 80 10000 2.57 280 16:21 16.09.2022
259 Clear 27 1011 78 10000 2.24 280 14:44 16.09.2022
260 Clear 28 1010 74 10000 4.63 270 12:35 16.09.2022
261 Clear 31 1008 59 10000 4.47 310 09:37 16.09.2022
262 Clouds 32 1010 58 10000 5.81 310 07:22 16.09.2022
263 Clouds 32 1010 59 10000 6.17 310 06:47 16.09.2022
264 Clouds 31 1011 62 10000 4.63 310 05:43 16.09.2022
265 Clouds 29 1012 76 10000 2.06 290 01:30 16.09.2022
266 Clouds 25 1010 88 10000 1.03 250 21:24 15.09.2022
267 Clouds 26 1009 90 10000 1.03 250 20:28 15.09.2022
268 Clouds 27 1010 84 10000 1.34 250 18:57 15.09.2022
269 Clouds 26 1011 85 10000 1.54 230 17:38 15.09.2022
270 Clouds 26 1011 85 10000 1.54 230 17:18 15.09.2022
271 Clear 28 1011 79 10000 3.09 240 15:22 15.09.2022
272 Clear 29 1010 64 10000 2.57 290 12:49 15.09.2022
273 Clear 31 1009 56 10000 5.36 20 10:42 15.09.2022
274 Clear 32 1009 52 10000 5.36 10 09:42 15.09.2022
275 Clouds 34 1013 46 10000 5.66 340 05:22 15.09.2022
276 Clouds 30 1015 68 10000 3.6 360 02:57 15.09.2022
277 Clouds 25 1013 88 10000 0 0 22:44 14.09.2022
278 Clouds 25 1012 89 10000 0 0 20:24 14.09.2022
279 Clouds 25 1013 93 10000 2.06 60 19:32 14.09.2022
280 Clear 26 1013 83 10000 1.03 190 17:28 14.09.2022
281 Clear 27 1013 84 10000 2.57 200 15:58 14.09.2022
282 Clear 27 1013 81 10000 3.09 200 14:46 14.09.2022
283 Clear 29 1012 72 10000 4.12 270 12:24 14.09.2022
284 Clouds 31 1011 58 10000 4.63 310 09:49 14.09.2022
285 Clouds 33 1012 55 10000 5.14 350 07:47 14.09.2022
286 Clouds 34 1013 57 10000 7.2 340 06:48 14.09.2022
287 Clouds 34 1018 44 10000 2.68 170 05:22 14.09.2022
288 Clouds 30 1016 73 10000 3.09 200 01:53 14.09.2022
289 Clouds 28 1015 79 10000 3.09 170 01:30 14.09.2022
290 Clouds 27 1015 86 10000 2.57 180 00:52 14.09.2022
291 Clouds 26 1015 89 10000 1.54 160 23:54 13.09.2022
292 Fog 26 1019 89 10000 1.54 170 23:36 13.09.2022
293 Fog 26 1014 89 10000 1.54 170 23:18 13.09.2022
294 Clouds 26 1014 89 10000 2.06 190 22:22 13.09.2022
295 Clouds 25 1014 89 10000 2.06 170 20:29 13.09.2022
296 Clouds 27 1014 83 10000 2.24 260 18:21 13.09.2022
297 Clear 28 1014 78 10000 3.58 310 15:58 13.09.2022
298 Clear 29 1014 75 10000 3.6 310 14:50 13.09.2022
299 Clear 28 1014 67 10000 3.6 330 13:25 13.09.2022
300 Clouds 32 1011 52 10000 5.14 20 09:49 13.09.2022
301 Clouds 33 1012 59 10000 5.66 350 07:31 13.09.2022
302 Clouds 27 1015 82 10000 2.06 30 00:52 13.09.2022
303 Clear 25 1013 86 10000 2.06 20 22:52 12.09.2022
304 Clear 26 1013 84 10000 1.54 20 22:26 12.09.2022
305 Clouds 25 1013 85 10000 1.54 360 20:46 12.09.2022
306 Clouds 26 1012 81 10000 2.57 360 19:22 12.09.2022
307 Clouds 26 1013 85 10000 1.54 350 17:42 12.09.2022
308 Clouds 27 1015 84 10000 2.06 340 15:22 12.09.2022
309 Clear 29 1010 75 10000 3.6 290 11:57 12.09.2022
310 Clouds 31 1009 63 10000 3.6 310 10:20 12.09.2022
311 Clouds 32 1013 63 10000 5.14 310 05:50 12.09.2022
312 Clouds 31 1014 65 10000 2.24 320 04:30 12.09.2022
313 Clouds 26 1012 83 10000 1.03 80 23:59 11.09.2022
314 Clear 26 1012 84 10000 1.03 300 22:45 11.09.2022
315 Clouds 27 1011 78 10000 1.03 270 21:19 11.09.2022
316 Clouds 27 1011 82 10000 1.03 240 20:42 11.09.2022
317 Clouds 26 1012 82 10000 1.03 240 19:26 11.09.2022
318 Clouds 26 1012 82 10000 1.54 260 18:38 11.09.2022
319 Clear 27 1013 79 10000 2.57 240 16:58 11.09.2022
320 Clear 27 1012 79 10000 3.09 240 15:44 11.09.2022
321 Clouds 28 1013 76 10000 3.6 270 13:18 11.09.2022
322 Clouds 30 1009 62 10000 4.63 320 10:51 11.09.2022
323 Clouds 32 1011 50 10000 4.12 300 07:49 11.09.2022
324 Clouds 31 1012 55 10000 4.12 320 04:36 11.09.2022
325 Clouds 25 1012 88 10000 1.54 10 23:48 10.09.2022
326 Clouds 26 1011 84 10000 2.06 360 21:38 10.09.2022
327 Clouds 27 1011 80 10000 0.51 350 20:24 10.09.2022
328 Clouds 27 1012 84 10000 1.54 270 19:42 10.09.2022
329 Clouds 26 1012 85 10000 1.54 270 19:24 10.09.2022
330 Clouds 27 1012 83 10000 2.57 280 17:19 10.09.2022
331 Clouds 28 1012 80 10000 3.58 280 15:35 10.09.2022
332 Clear 28 1011 72 10000 3.09 280 13:29 10.09.2022
333 Clouds 28 1010 72 10000 1.54 300 12:26 10.09.2022
334 Clouds 30 1009 65 10000 4.12 340 10:28 10.09.2022
335 Clouds 31 1009 59 10000 5.14 330 08:41 10.09.2022
336 Clouds 31 1009 56 10000 5.14 330 08:20 10.09.2022
337 Clouds 31 1014 50 10000 3.09 290 03:43 10.09.2022
338 Clouds 25 1013 88 10000 0 0 23:36 09.09.2022
339 Clouds 26 1013 83 10000 1.03 350 22:31 09.09.2022
340 Clouds 26 1012 82 10000 2.06 340 20:49 09.09.2022
341 Clouds 27 1013 77 10000 2.06 350 19:58 09.09.2022
342 Clouds 27 1013 81 10000 2.06 340 19:22 09.09.2022
343 Clouds 28 1014 78 10000 3.58 320 16:52 09.09.2022
344 Clouds 27 1013 78 10000 4.02 310 14:47 09.09.2022
345 Clouds 28 1012 76 10000 4.63 300 13:19 09.09.2022
346 Clouds 30 1010 63 10000 4.63 300 10:41 09.09.2022
347 Clouds 31 1011 58 10000 5.66 310 07:25 09.09.2022
348 Clouds 31 1015 56 10000 3.6 350 03:31 09.09.2022
349 Clouds 23 1012 93 10000 0 0 22:34 08.09.2022
350 Clouds 24 1012 88 10000 0 0 21:51 08.09.2022
351 Clouds 24 1012 89 10000 1.54 350 20:46 08.09.2022
352 Clouds 24 1012 89 10000 1.03 340 20:24 08.09.2022
353 Clouds 26 1013 81 10000 2.06 360 18:34 08.09.2022
354 Clear 26 1013 81 10000 2.68 360 17:23 08.09.2022
355 Clouds 26 1013 81 10000 3.09 330 15:18 08.09.2022
356 Clear 27 1012 75 10000 2.06 320 13:28 08.09.2022
357 Clear 27 1011 75 10000 2.57 320 12:39 08.09.2022
358 Clouds 29 1011 67 10000 5.66 310 10:59 08.09.2022
359 Clouds 31 1010 63 10000 6.71 290 09:26 08.09.2022
360 Clouds 32 1012 59 10000 5.66 300 06:53 08.09.2022
361 Clouds 30 1015 65 10000 2.57 260 03:23 08.09.2022
362 Clouds 29 1015 68 10000 2.06 260 02:36 08.09.2022
363 Clouds 28 1015 69 10000 2.06 260 02:18 08.09.2022
364 Clouds 23 1012 89 10000 0 0 22:56 07.09.2022
365 Clouds 23 1012 86 10000 1.03 280 21:44 07.09.2022
366 Clouds 24 1012 83 10000 1.03 260 21:21 07.09.2022
367 Clouds 25 1012 80 10000 2.24 270 20:25 07.09.2022
368 Clouds 25 1013 80 10000 2.06 270 18:54 07.09.2022
369 Clouds 25 1014 80 10000 2.57 270 15:51 07.09.2022
370 Clear 30 1011 57 10000 3.6 330 10:51 07.09.2022
371 Clear 30 1011 56 10000 4.12 310 10:32 07.09.2022
372 Clouds 32 1011 45 10000 4.12 290 08:23 07.09.2022
373 Clouds 30 1017 51 10000 3.09 30 04:59 07.09.2022
374 Clouds 23 1014 91 10000 1.79 100 00:27 07.09.2022
375 Clouds 24 1017 86 10000 2.06 100 21:48 06.09.2022
376 Clouds 24 1017 85 10000 2.06 100 21:30 06.09.2022
377 Clouds 24 1015 86 10000 1.03 260 19:27 06.09.2022
378 Clouds 24 1012 83 10000 1.54 270 18:34 06.09.2022
379 Clouds 25 1012 82 10000 1.54 290 17:37 06.09.2022
380 Clouds 25 1012 81 10000 2.57 290 16:44 06.09.2022
381 Clouds 25 1012 79 10000 2.24 270 15:55 06.09.2022
382 Clear 26 1012 72 10000 2.57 270 13:47 06.09.2022
383 Clear 26 1011 68 10000 2.06 240 13:27 06.09.2022
384 Clear 26 1011 64 10000 2.57 260 12:56 06.09.2022
385 Clear 30 1009 46 10000 3.6 340 10:54 06.09.2022
386 Clouds 31 1009 48 10000 5.14 350 09:18 06.09.2022
387 Clouds 31 1009 51 10000 4.92 330 07:52 06.09.2022
388 Clouds 31 1009 51 10000 4.92 330 07:52 06.09.2022
389 Clouds 31 1011 54 10000 5.14 300 06:18 06.09.2022
390 Clouds 25 1013 82 10000 2.06 100 00:45 06.09.2022
391 Clouds 24 1012 86 10000 2.24 100 22:49 05.09.2022
392 Clouds 24 1011 89 10000 2.06 80 21:38 05.09.2022
393 Clouds 25 1011 85 10000 0.51 240 20:18 05.09.2022
394 Clouds 25 1014 84 10000 1.54 230 18:53 05.09.2022
395 Clouds 26 1012 84 10000 2.06 220 18:24 05.09.2022
396 Clouds 26 1015 82 10000 2.57 260 17:47 05.09.2022
397 Clouds 25 1012 81 10000 2.57 260 15:53 05.09.2022
398 Clear 26 1012 78 10000 2.57 270 14:34 05.09.2022
399 Clear 28 1011 52 10000 2.57 290 12:50 05.09.2022
400 Clear 30 1009 48 10000 4.63 340 10:35 05.09.2022
401 Clouds 31 1009 55 10000 5.14 350 08:36 05.09.2022
402 Clouds 31 1013 56 10000 1.03 50 03:47 05.09.2022
403 Clouds 24 1013 94 8000 1.54 100 00:18 05.09.2022
404 Clouds 24 1011 93 10000 1.54 60 22:28 04.09.2022
405 Clouds 24 1011 88 10000 0 0 21:49 04.09.2022
406 Clouds 26 1011 85 10000 1.79 250 19:50 04.09.2022
407 Clouds 26 1012 84 10000 3.09 240 18:34 04.09.2022
408 Clear 26 1013 84 10000 3.09 260 17:26 04.09.2022
409 Clouds 26 1012 82 10000 2.57 280 15:42 04.09.2022
410 Clear 26 1012 73 10000 2.57 250 14:25 04.09.2022
411 Clear 28 1010 60 10000 3.09 10 12:34 04.09.2022
412 Clouds 29 1009 62 10000 4.12 360 10:59 04.09.2022
413 Clouds 31 1009 54 10000 5.14 10 09:25 04.09.2022
414 Clear 32 1010 53 10000 5.14 260 06:34 04.09.2022
415 Clouds 28 1013 68 10000 4.12 120 02:51 04.09.2022
416 Clear 23 1011 88 10000 0.51 60 22:34 03.09.2022
417 Clear 23 1011 88 10000 0.51 70 21:26 03.09.2022
418 Clear 23 1011 89 10000 1.03 60 20:55 03.09.2022
419 Clouds 26 1012 80 10000 2.57 230 18:31 03.09.2022
420 Clouds 26 1012 84 10000 3.6 240 17:19 03.09.2022
421 Clear 26 1011 84 10000 2.68 230 15:35 03.09.2022
422 Clear 26 1011 83 10000 2.68 240 14:41 03.09.2022
423 Clear 26 1010 83 10000 2.68 270 13:44 03.09.2022
424 Clear 27 1008 79 10000 3.6 330 11:32 03.09.2022
425 Clouds 31 1008 62 10000 4.12 340 09:32 03.09.2022
426 Clear 33 1008 46 10000 4.12 80 07:48 03.09.2022
427 Clouds 28 1012 70 10000 4.63 140 04:50 03.09.2022
428 Clouds 26 1013 88 10000 3.09 150 02:35 03.09.2022
429 Rain 25 1011 94 10000 3.09 50 23:42 02.09.2022
430 Rain 26 1012 94 10000 0.51 90 22:21 02.09.2022
431 Clouds 26 1011 90 10000 0 0 20:42 02.09.2022
432 Clouds 26 1011 89 10000 0.51 330 19:47 02.09.2022
433 Clouds 26 1011 90 10000 0 0 18:50 02.09.2022
434 Clouds 26 1011 88 10000 0.51 230 18:25 02.09.2022
435 Clouds 26 1012 88 10000 1.79 270 17:24 02.09.2022
436 Clouds 27 1012 85 10000 1.54 280 16:31 02.09.2022
437 Clouds 28 1011 70 10000 0.51 270 13:32 02.09.2022
438 Clouds 29 1010 67 10000 4.12 280 10:57 02.09.2022
439 Clouds 30 1009 65 10000 5.14 300 09:45 02.09.2022
440 Clouds 31 1009 62 10000 4.63 340 08:46 02.09.2022
441 Clouds 31 1011 63 10000 5.66 320 06:46 02.09.2022
442 Clouds 31 1011 63 10000 5.14 310 06:21 02.09.2022
443 Clouds 25 1013 90 10000 0.51 90 00:26 02.09.2022
444 Clear 25 1012 88 10000 1.54 40 22:21 01.09.2022
445 Clouds 25 1012 88 10000 1.54 20 21:38 01.09.2022
446 Clear 25 1012 88 10000 1.54 20 21:19 01.09.2022
447 Clouds 25 1012 89 10000 1.54 50 20:23 01.09.2022
448 Clear 26 1012 85 10000 1.79 180 18:20 01.09.2022
449 Clear 25 1012 89 10000 1.03 230 16:54 01.09.2022
450 Clear 26 1011 85 10000 2.57 190 15:22 01.09.2022
451 Clear 27 1011 75 10000 1.54 220 13:27 01.09.2022
452 Clear 28 1011 72 10000 1.54 260 12:55 01.09.2022
453 Clear 28 1010 71 10000 3.58 300 11:51 01.09.2022
454 Clouds 29 1010 70 10000 3.6 300 11:19 01.09.2022
455 Clouds 31 1009 59 10000 6.17 350 09:31 01.09.2022
456 Clouds 32 1011 58 10000 5.14 330 06:41 01.09.2022
457 Clouds 30 1013 66 10000 2.57 60 02:39 01.09.2022
458 Clouds 28 1013 74 10000 2.06 60 01:30 01.09.2022
459 Clouds 28 1013 74 10000 2.06 60 01:30 01.09.2022
460 Clouds 28 1013 74 10000 2.06 60 01:30 01.09.2022
461 Clouds 28 1013 74 10000 2.06 60 01:30 01.09.2022
462 Clouds 28 1013 74 10000 2.06 60 01:30 01.09.2022
463 Clouds 28 1013 74 10000 2.06 60 01:30 01.09.2022
464 Clouds 26 1011 83 10000 1.03 160 22:43 31.08.2022
465 Clouds 25 1010 89 10000 1.34 170 20:43 31.08.2022
466 Clouds 26 1014 89 10000 0.51 170 18:46 31.08.2022
467 Clear 26 1011 89 10000 3.09 190 16:41 31.08.2022
468 Clear 26 1010 85 10000 3.6 190 15:25 31.08.2022
469 Clear 28 1010 72 10000 2.57 250 13:28 31.08.2022
470 Clouds 28 1008 76 10000 3.09 290 11:54 31.08.2022
471 Clouds 32 1007 57 10000 5.14 350 09:36 31.08.2022
472 Clear 32 1009 59 10000 5.66 350 07:39 31.08.2022
473 Clouds 28 1012 72 10000 2.24 160 02:47 31.08.2022
474 Clouds 26 1010 89 10000 2.57 170 22:24 30.08.2022
475 Clouds 26 1010 89 10000 1.54 200 21:28 30.08.2022
476 Clouds 26 1009 90 10000 0 0 20:35 30.08.2022
477 Clouds 27 1010 85 10000 1.54 290 16:58 30.08.2022
478 Clear 27 1009 79 10000 2.06 240 13:51 30.08.2022
479 Clear 28 1007 66 10000 2.06 320 11:58 30.08.2022
480 Clouds 29 1007 63 10000 2.57 340 11:20 30.08.2022
481 Clouds 31 1007 62 10000 5.14 350 09:39 30.08.2022
482 Clouds 32 1008 55 10000 4.63 340 06:48 30.08.2022
483 Clear 23 1011 90 10000 1.91 80 00:33 30.08.2022
484 Clouds 24 1015 83 10000 0 0 22:38 29.08.2022
485 Clear 23 1010 88 10000 0 0 21:53 29.08.2022
486 Clear 23 1010 88 10000 0 0 20:47 29.08.2022
487 Clear 24 1011 87 10000 1.03 230 18:59 29.08.2022
488 Clear 25 1011 82 10000 1.54 240 17:33 29.08.2022
489 Clear 25 1012 84 10000 2.06 250 16:58 29.08.2022
490 Clear 26 1012 81 10000 2.57 200 15:19 29.08.2022
491 Clouds 28 1010 72 10000 0 0 13:54 29.08.2022
492 Clear 28 1009 67 10000 2.06 350 12:24 29.08.2022
493 Clear 30 1008 64 10000 2.36 314 10:43 29.08.2022
494 Clouds 32 1008 51 10000 6.17 350 09:19 29.08.2022
495 Clouds 32 1009 55 10000 4.12 350 07:20 29.08.2022
496 Clouds 29 1013 69 10000 2.57 50 02:31 29.08.2022
497 Fog 23 1011 94 10000 0 0 23:36 28.08.2022
498 Clouds 24 1009 88 10000 0.89 30 21:48 28.08.2022
499 Clouds 24 1009 88 10000 1.03 30 21:27 28.08.2022
500 Clear 24 1010 86 10000 1.79 20 20:19 28.08.2022
501 Clear 24 1011 84 10000 1.03 20 18:22 28.08.2022
502 Clouds 24 1017 84 10000 1.54 30 17:59 28.08.2022
503 Clear 25 1012 80 10000 1.03 170 16:44 28.08.2022
504 Clear 25 1011 83 10000 3.6 200 15:34 28.08.2022
505 Clear 26 1010 79 10000 3.09 220 13:32 28.08.2022
506 Clear 27 1009 67 10000 2.57 290 11:59 28.08.2022
507 Clouds 30 1008 57 10000 4.47 350 10:22 28.08.2022
508 Clouds 31 1008 52 10000 4.63 340 09:24 28.08.2022
509 Clouds 31 1009 51 10000 5.14 340 07:56 28.08.2022
510 Clouds 32 1009 48 10000 4.63 340 07:26 28.08.2022
511 Clouds 23 1013 83 9000 2.06 140 00:37 28.08.2022
512 Clouds 21 1012 84 10000 0 0 23:28 27.08.2022
513 Clouds 22 1012 83 10000 1.03 60 22:27 27.08.2022
514 Clear 24 1011 80 10000 2.57 190 20:35 27.08.2022
515 Clear 24 1011 84 10000 3.09 190 19:29 27.08.2022
516 Clear 26 1011 84 10000 3.6 280 16:30 27.08.2022
517 Clear 25 1011 78 10000 3.58 30 15:31 27.08.2022
518 Clear 27 1010 63 10000 3.09 40 13:30 27.08.2022
519 Clear 27 1009 64 10000 2.57 10 12:20 27.08.2022
520 Clear 30 1009 48 10000 7.2 20 10:30 27.08.2022
521 Clear 32 1008 40 10000 5.66 30 09:36 27.08.2022
522 Clear 33 1010 33 10000 5.14 30 06:54 27.08.2022
523 Clear 25 1013 73 10000 1.54 20 01:21 27.08.2022
524 Clear 19 1012 88 10000 1.03 50 23:49 26.08.2022
525 Clear 18 1011 77 10000 1.54 10 21:49 26.08.2022
526 Clear 18 1012 82 10000 1.54 10 20:22 26.08.2022
527 Clear 22 1013 68 10000 2.06 200 18:19 26.08.2022
528 Clear 23 1013 60 10000 2.57 190 16:36 26.08.2022
529 Clear 24 1013 60 10000 2.06 210 15:25 26.08.2022
530 Clear 25 1012 61 10000 2.06 240 13:20 26.08.2022
531 Clear 26 1010 53 10000 3.09 360 11:48 26.08.2022
532 Clear 27 1010 47 10000 3.09 350 11:22 26.08.2022
533 Clear 30 1009 30 10000 3.09 330 09:45 26.08.2022
534 Clear 29 1012 19 10000 5.14 100 04:56 26.08.2022
535 Clear 19 1013 29 10000 5.66 150 00:44 26.08.2022
536 Clear 19 1012 33 10000 3.6 140 22:45 25.08.2022
537 Clear 20 1016 32 10000 4.12 150 20:57 25.08.2022
538 Clear 19 1013 41 10000 3.09 160 19:36 25.08.2022
539 Clear 19 1014 47 10000 2.57 160 18:36 25.08.2022
540 Clear 19 1014 62 10000 1.03 150 17:32 25.08.2022
541 Clear 19 1014 63 10000 2.06 140 16:45 25.08.2022
542 Clear 20 1014 68 10000 0 0 15:37 25.08.2022
543 Clear 22 1014 60 10000 1.54 270 13:59 25.08.2022
544 Clear 26 1012 44 10000 3.58 350 11:25 25.08.2022
545 Clear 27 1012 41 10000 3.6 350 10:44 25.08.2022
546 Clear 31 1012 15 10000 2.06 210 07:55 25.08.2022
547 Clear 26 1014 16 10000 6.71 130 03:54 25.08.2022
548 Clear 19 1018 26 10000 5.66 130 23:38 24.08.2022
549 Clear 19 1018 26 10000 5.66 130 23:18 24.08.2022
550 Clear 21 1013 21 10000 6.69 140 21:56 24.08.2022
551 Clear 21 1013 23 10000 6.17 140 21:30 24.08.2022
552 Clear 22 1014 25 10000 5.14 150 19:56 24.08.2022
553 Clear 23 1015 29 10000 5.14 150 17:32 24.08.2022
554 Clear 24 1015 34 10000 4.12 170 15:55 24.08.2022
555 Clear 25 1015 33 10000 3.6 160 15:35 24.08.2022
556 Clear 25 1014 31 10000 1.54 150 12:52 24.08.2022
557 Clear 25 1014 31 10000 1.54 150 12:52 24.08.2022
558 Clear 30 1012 23 10000 3.09 150 11:21 24.08.2022
559 Clear 31 1012 21 10000 6.17 150 08:59 24.08.2022
560 Clear 30 1014 20 10000 5.66 170 06:40 24.08.2022
561 Clouds 23 1016 39 10000 6.17 140 00:55 24.08.2022
562 Clouds 22 1013 93 10000 3.6 160 22:41 23.08.2022
563 Clouds 22 1013 93 10000 3.6 160 22:18 23.08.2022
564 Clear 21 1013 93 10000 0 0 20:49 23.08.2022
565 Clear 23 1013 90 10000 1.54 60 19:24 23.08.2022
566 Clear 21 1014 92 10000 1.34 30 18:18 23.08.2022
567 Clear 22 1014 89 10000 1.03 50 17:28 23.08.2022
568 Clear 22 1014 88 10000 1.54 30 16:26 23.08.2022
569 Clear 25 1013 80 10000 2.24 260 14:30 23.08.2022
570 Clear 25 1012 77 10000 3.6 270 12:46 23.08.2022
571 Clear 28 1010 64 10000 5.66 300 11:19 23.08.2022
572 Clear 29 1010 59 10000 5.66 290 10:33 23.08.2022
573 Smoke 30 1009 49 10000 4.63 340 09:38 23.08.2022
574 Clear 34 1009 20 10000 2.06 320 08:47 23.08.2022
575 Clear 34 1010 27 10000 5.66 120 08:19 23.08.2022
576 Smoke 33 1010 27 10000 3.6 100 07:33 23.08.2022
577 Clear 32 1011 31 10000 5.66 120 06:25 23.08.2022
578 Clear 26 1016 70 8000 1.03 60 01:49 23.08.2022
579 Smoke 20 1016 85 5000 1.54 130 00:27 23.08.2022
580 Smoke 19 1014 82 5000 1.03 140 23:32 22.08.2022
581 Clear 20 1013 77 10000 1.54 130 22:25 22.08.2022
582 Clear 19 1014 88 10000 1.03 110 20:53 22.08.2022
583 Clear 20 1014 83 10000 0 0 19:46 22.08.2022
584 Clear 20 1014 83 6000 0 0 18:37 22.08.2022
585 Clear 22 1014 80 10000 0.51 90 16:23 22.08.2022
586 Clear 23 1014 78 10000 1.03 200 15:22 22.08.2022
587 Clear 24 1012 60 10000 1.79 350 12:53 22.08.2022
588 Clear 30 1010 43 10000 5.66 20 09:57 22.08.2022
589 Clear 33 1011 17 10000 5.66 120 07:20 22.08.2022
590 Clear 27 1015 29 10000 5.66 120 02:42 22.08.2022
591 Clear 21 1014 46 10000 2.57 130 00:37 22.08.2022
592 Clear 21 1013 43 10000 3.6 100 23:34 21.08.2022
593 Clear 22 1013 40 10000 3.6 90 21:56 21.08.2022
594 Clear 22 1013 40 9000 3.6 90 21:21 21.08.2022
595 Clear 21 1013 51 10000 3.09 110 20:21 21.08.2022
596 Clear 20 1014 84 10000 1.54 150 18:59 21.08.2022
597 Clear 23 1014 81 10000 3.6 180 16:52 21.08.2022
598 Clear 24 1014 75 10000 2.57 190 15:52 21.08.2022
599 Clear 24 1014 67 10000 2.06 110 14:59 21.08.2022
600 Clear 24 1013 67 10000 1.03 40 13:51 21.08.2022
601 Clear 25 1013 62 10000 3.09 30 12:56 21.08.2022
602 Clear 31 1011 38 10000 4.63 20 10:48 21.08.2022
603 Clear 32 1010 39 10000 5.14 110 09:21 21.08.2022
604 Clear 33 1010 30 10000 5.14 110 08:56 21.08.2022
605 Clear 32 1010 35 10000 0.45 253 08:38 21.08.2022
606 Clear 32 1011 29 10000 7.2 70 06:59 21.08.2022
607 Clear 26 1015 34 10000 5.66 130 02:35 21.08.2022
608 Clear 20 1015 64 10000 4.12 130 23:44 20.08.2022
609 Clear 20 1013 88 10000 3.09 140 22:23 20.08.2022
610 Clear 20 1013 88 10000 3.09 140 21:22 20.08.2022
611 Clear 21 1013 88 10000 2.57 110 19:49 20.08.2022
612 Clear 21 1014 82 10000 1.54 90 19:21 20.08.2022
613 Clear 22 1014 75 10000 2.57 120 18:26 20.08.2022
614 Clear 21 1015 78 10000 2.06 120 17:21 20.08.2022
615 Clear 24 1015 72 10000 2.57 140 16:23 20.08.2022
616 Clear 24 1015 66 10000 2.06 50 14:35 20.08.2022
617 Clear 26 1013 54 10000 4.47 50 12:19 20.08.2022
618 Clear 27 1013 52 10000 4.47 30 11:42 20.08.2022
619 Clear 32 1012 40 10000 6.69 20 09:20 20.08.2022
620 Clear 32 1013 25 10000 3.6 40 07:31 20.08.2022
621 Clear 31 1014 29 10000 7.72 90 05:48 20.08.2022
622 Clear 22 1016 82 10000 2.06 100 00:58 20.08.2022
623 Clear 19 1016 89 10000 2.57 120 23:51 19.08.2022
624 Clear 19 1015 88 10000 2.06 110 22:45 19.08.2022
625 Clear 20 1015 88 10000 1.54 130 21:30 19.08.2022
626 Clouds 20 1015 89 10000 3.09 120 19:22 19.08.2022
627 Clear 21 1015 88 10000 0.51 210 16:28 19.08.2022
628 Clear 23 1014 78 10000 1.54 230 13:56 19.08.2022
629 Clear 24 1013 68 10000 2.06 310 12:19 19.08.2022
630 Clear 28 1011 56 10000 4.12 360 10:39 19.08.2022
631 Clear 29 1011 55 10000 4.63 340 08:48 19.08.2022
632 Clear 30 1014 44 10000 3.09 120 04:43 19.08.2022
633 Clouds 21 1016 78 10000 1.54 70 00:42 19.08.2022
634 Clouds 21 1016 79 10000 1.54 70 00:19 19.08.2022
635 Clear 20 1014 83 10000 2.57 90 22:58 18.08.2022
636 Clear 19 1013 88 10000 2.06 90 22:26 18.08.2022
637 Clear 20 1013 88 10000 1.03 60 21:50 18.08.2022
638 Clear 20 1013 88 10000 1.03 50 20:55 18.08.2022
639 Clouds 20 1014 83 10000 2.06 70 19:39 18.08.2022
640 Clouds 20 1014 83 10000 2.06 70 19:20 18.08.2022
641 Clouds 21 1014 83 10000 2.57 210 17:38 18.08.2022
642 Clear 20 1014 83 10000 1.03 270 16:18 18.08.2022
643 Clear 21 1013 76 10000 0.89 270 14:22 18.08.2022
644 Clear 22 1013 75 10000 1.03 270 13:44 18.08.2022
645 Clear 22 1013 75 10000 1.03 270 13:44 18.08.2022
646 Clear 22 1013 75 10000 1.03 270 13:44 18.08.2022
647 Clear 24 1012 71 10000 1.03 310 12:30 18.08.2022
648 Clear 25 1012 62 10000 2.57 340 11:20 18.08.2022
649 Clear 29 1011 48 10000 5.36 350 09:43 18.08.2022
650 Clear 31 1011 35 10000 4.12 340 07:53 18.08.2022
651 Clear 32 1013 37 10000 4.63 300 06:37 18.08.2022
652 Clouds 25 1017 69 10000 2.57 170 02:22 18.08.2022
653 Clear 18 1014 88 10000 1.03 140 22:47 17.08.2022
654 Clouds 19 1014 82 10000 1.03 190 20:37 17.08.2022
655 Clear 19 1014 85 10000 0 0 19:59 17.08.2022
656 Clear 19 1014 87 10000 1.54 230 18:39 17.08.2022
657 Clear 19 1015 79 10000 0 0 17:21 17.08.2022
658 Clear 19 1015 77 10000 0 0 16:20 17.08.2022
659 Clear 21 1015 74 10000 1.54 230 14:46 17.08.2022
660 Clear 25 1014 53 10000 1.54 290 12:36 17.08.2022
661 Clear 26 1013 49 10000 3.6 10 11:36 17.08.2022
662 Clear 30 1013 34 10000 5.66 350 09:29 17.08.2022
663 Clear 32 1014 13 10000 4.02 80 06:50 17.08.2022
664 Clear 24 1016 44 10000 3.6 90 01:23 17.08.2022
665 Clear 18 1015 72 10000 1.54 100 23:33 16.08.2022
666 Clouds 19 1014 72 10000 2.57 110 21:48 16.08.2022
667 Clouds 20 1014 73 10000 3.09 120 20:25 16.08.2022
668 Clouds 19 1013 82 10000 2.06 160 19:40 16.08.2022
669 Clouds 20 1014 83 10000 1.03 160 18:18 16.08.2022
670 Clouds 19 1014 72 10000 1.79 170 17:28 16.08.2022
671 Clear 20 1014 64 10000 0.51 70 15:46 16.08.2022
672 Clear 21 1013 60 10000 0 0 14:55 16.08.2022
673 Clear 21 1013 60 10000 0 0 14:37 16.08.2022
674 Clear 24 1012 50 10000 2.06 20 12:41 16.08.2022
675 Clear 29 1011 37 10000 5.14 360 10:35 16.08.2022
676 Clear 30 1011 36 10000 6.71 360 09:31 16.08.2022
677 Clear 34 1011 8 10000 1.03 150 08:43 16.08.2022
678 Clear 32 1010 12 10000 3.6 90 07:23 16.08.2022
679 Clear 22 1015 38 10000 2.57 130 01:35 16.08.2022
680 Clear 17 1013 88 10000 2.06 150 22:29 15.08.2022
681 Clouds 17 1013 94 10000 2.57 160 21:53 15.08.2022
682 Clouds 18 1013 87 10000 1.54 150 20:48 15.08.2022
683 Clouds 19 1012 87 10000 2.06 160 20:19 15.08.2022
684 Clouds 20 1013 88 10000 2.57 180 18:36 15.08.2022
685 Clear 20 1013 71 10000 1.79 170 16:47 15.08.2022
686 Clear 20 1013 73 10000 1.54 180 16:21 15.08.2022
687 Clear 23 1012 56 10000 0 0 13:56 15.08.2022
688 Clear 24 1011 56 10000 2.57 10 12:29 15.08.2022
689 Clear 28 1010 44 10000 4.63 10 10:18 15.08.2022
690 Clear 32 1010 27 10000 3.6 330 08:27 15.08.2022
691 Clear 31 1012 29 10000 1.54 0 06:20 15.08.2022
692 Clouds 26 1012 62 10000 4.63 130 02:19 15.08.2022
693 Clouds 23 1014 94 10000 1.54 180 22:39 14.08.2022
694 Clouds 23 1013 93 10000 0.51 30 21:39 14.08.2022
695 Clouds 22 1012 94 10000 0.51 70 20:24 14.08.2022
696 Clouds 23 1012 94 10000 1.54 30 19:31 14.08.2022
697 Clouds 22 1013 93 10000 0 0 18:20 14.08.2022
698 Clear 25 1013 89 10000 2.06 210 16:55 14.08.2022
699 Clear 25 1013 85 10000 2.06 220 15:51 14.08.2022
700 Clear 25 1012 82 10000 2.57 240 14:38 14.08.2022
701 Clear 26 1012 80 10000 2.06 240 13:50 14.08.2022
702 Clear 26 1012 76 10000 1.54 270 13:24 14.08.2022
703 Clear 27 1011 72 10000 3.09 300 12:34 14.08.2022
704 Clear 27 1011 70 10000 4.12 310 11:18 14.08.2022
705 Clouds 31 1009 60 10000 5.66 350 08:56 14.08.2022
706 Clouds 32 1012 44 10000 4.12 120 06:23 14.08.2022
707 Clouds 32 1012 44 10000 4.12 120 06:23 14.08.2022
708 Clouds 32 1012 44 10000 4.12 120 06:23 14.08.2022
709 Clouds 30 1012 54 10000 4.63 120 04:21 14.08.2022
710 Clouds 23 1013 94 10000 0.51 60 00:42 14.08.2022
711 Fog 22 1012 94 10000 0 0 22:56 13.08.2022
712 Clear 23 1012 88 10000 0 0 21:55 13.08.2022
713 Clear 23 1013 90 10000 0 0 20:49 13.08.2022
714 Clear 22 1013 91 10000 1.54 320 19:47 13.08.2022
715 Clear 24 1013 86 10000 1.54 360 18:47 13.08.2022
716 Clear 23 1014 84 10000 1.03 120 16:23 13.08.2022
717 Clear 24 1013 82 10000 0 0 14:41 13.08.2022
718 Clear 26 1012 74 10000 2.24 250 13:48 13.08.2022
719 Clear 27 1012 72 10000 2.57 250 13:25 13.08.2022
720 Clear 27 1010 62 10000 2.57 320 11:27 13.08.2022
721 Clouds 29 1010 62 10000 5.14 350 09:23 13.08.2022
722 Clouds 30 1012 59 10000 5.14 330 06:44 13.08.2022
723 Clouds 26 1014 79 10000 1.54 90 01:37 13.08.2022
724 Clouds 22 1013 88 10000 0 0 23:32 12.08.2022
725 Clear 22 1012 94 10000 1.03 90 21:37 12.08.2022
726 Clear 23 1013 88 10000 0 0 19:48 12.08.2022
727 Clear 23 1013 88 10000 0 0 19:23 12.08.2022
728 Clear 23 1013 86 10000 0.51 90 18:21 12.08.2022
729 Clear 25 1013 81 10000 2.24 180 16:27 12.08.2022
730 Clear 25 1012 80 10000 2.06 190 15:19 12.08.2022
731 Clear 26 1012 72 10000 0.51 250 13:43 12.08.2022
732 Clear 26 1011 72 10000 3.09 10 12:32 12.08.2022
733 Clouds 30 1010 58 10000 5.14 350 08:52 12.08.2022
734 Clouds 31 1010 59 10000 6.17 350 07:45 12.08.2022
735 Clouds 32 1011 55 10000 2.57 340 06:23 12.08.2022
736 Clear 23 1013 94 10000 1.03 70 00:32 12.08.2022
737 Fog 23 1013 93 10000 2.57 70 23:58 11.08.2022
738 Clouds 23 1013 93 10000 2.57 60 23:22 11.08.2022
739 Clear 23 1013 93 10000 1.54 60 21:53 11.08.2022
740 Clear 23 1011 93 10000 1.54 60 21:28 11.08.2022
741 Clear 23 1011 93 10000 1.54 60 21:28 11.08.2022
742 Clouds 23 1013 94 10000 1.03 50 20:31 11.08.2022
743 Clouds 23 1013 94 10000 1.03 50 20:31 11.08.2022
744 Clouds 23 1014 92 10000 0 0 19:33 11.08.2022
745 Clouds 23 1012 91 10000 0.45 280 18:56 11.08.2022
746 Clouds 24 1014 86 10000 1.54 270 17:22 11.08.2022
747 Clouds 24 1012 84 10000 1.79 240 15:48 11.08.2022
748 Clear 26 1013 80 10000 2.06 250 14:40 11.08.2022
749 Clouds 26 1012 74 10000 2.57 320 11:59 11.08.2022
750 Clouds 31 1009 51 10000 4.63 350 09:22 11.08.2022
751 Clouds 29 1011 65 10000 5.14 350 06:52 11.08.2022
752 Clouds 28 1014 70 10000 4.12 60 02:49 11.08.2022
753 Fog 21 1013 89 10000 1.03 110 23:57 10.08.2022
754 Clear 21 1013 93 10000 1.54 160 21:49 10.08.2022
755 Clouds 21 1016 92 10000 1.03 100 21:19 10.08.2022
756 Clouds 21 1016 94 10000 1.03 100 20:36 10.08.2022
757 Clear 23 1017 89 10000 1.34 160 18:53 10.08.2022
758 Clear 24 1017 89 10000 2.57 160 17:28 10.08.2022
759 Clear 24 1012 78 10000 1.79 230 14:57 10.08.2022
760 Clear 25 1012 69 10000 0 0 13:34 10.08.2022
761 Clear 27 1011 62 10000 3.09 10 11:47 10.08.2022
762 Clouds 30 1010 53 10000 6.17 350 08:44 10.08.2022
763 Clouds 31 1011 52 10000 5.66 330 07:36 10.08.2022
764 Clear 30 1012 58 10000 4.63 320 05:46 10.08.2022
765 Clouds 27 1014 69 10000 2.06 60 02:22 10.08.2022
766 Clouds 21 1013 88 10000 0 0 23:33 09.08.2022
767 Clear 21 1012 88 10000 0 0 22:48 09.08.2022
768 Clouds 21 1012 84 10000 0 0 21:34 09.08.2022
769 Clouds 22 1012 83 10000 1.03 100 19:33 09.08.2022
770 Clouds 24 1012 82 10000 1.54 190 17:59 09.08.2022
771 Clouds 24 1012 81 10000 2.06 220 17:26 09.08.2022
772 Clear 24 1012 77 10000 1.54 270 16:40 09.08.2022
773 Clear 25 1012 73 10000 0 0 15:31 09.08.2022
774 Clear 26 1010 63 10000 4.63 40 12:20 09.08.2022
775 Clear 31 1009 46 10000 6.71 20 08:55 09.08.2022
776 Clear 32 1009 44 10000 6.69 20 08:26 09.08.2022
777 Clear 34 1010 27 10000 4.12 110 07:18 09.08.2022
778 Clouds 29 1014 61 10000 4.63 100 02:54 09.08.2022
779 Clear 22 1011 89 10000 1.03 170 23:26 08.08.2022
780 Clear 23 1011 89 10000 0.51 150 22:52 08.08.2022
781 Clear 22 1011 90 10000 1.54 300 21:48 08.08.2022
782 Clear 23 1011 88 10000 0 0 20:52 08.08.2022
783 Clear 23 1015 86 10000 0 0 19:50 08.08.2022
784 Clear 24 1014 83 10000 1.54 150 18:19 08.08.2022
785 Clear 24 1012 74 10000 1.54 130 15:57 08.08.2022
786 Clear 25 1011 72 10000 2.06 160 15:38 08.08.2022
787 Clear 26 1010 67 10000 1.54 40 12:50 08.08.2022
788 Clouds 27 1008 62 10000 4.12 40 11:48 08.08.2022
789 Clouds 31 1008 54 10000 5.66 360 09:29 08.08.2022
790 Clouds 32 1011 45 10000 5.66 100 05:35 08.08.2022
791 Clouds 29 1013 69 10000 3.09 90 02:24 08.08.2022
792 Clear 23 1011 90 10000 0 0 22:20 07.08.2022
793 Clear 23 1013 90 10000 0 0 21:38 07.08.2022
794 Clouds 24 1011 94 10000 1.54 350 20:25 07.08.2022
795 Clouds 24 1011 94 10000 1.54 350 19:54 07.08.2022
796 Clouds 24 1011 90 10000 1.54 360 19:29 07.08.2022
797 Clouds 24 1011 87 10000 1.54 340 18:21 07.08.2022
798 Clear 24 1011 87 10000 2.06 30 16:53 07.08.2022
799 Clear 24 1011 84 10000 1.03 180 15:49 07.08.2022
800 Clear 25 1011 82 10000 1.03 260 14:39 07.08.2022
801 Clear 26 1010 79 10000 1.54 320 12:59 07.08.2022
802 Clouds 29 1009 66 10000 3.09 330 10:57 07.08.2022
803 Clouds 30 1008 61 10000 4.12 340 10:21 07.08.2022
804 Clouds 31 1011 56 10000 2.57 10 04:58 07.08.2022
805 Clear 30 1012 66 10000 2.06 40 03:18 07.08.2022
806 Clear 24 1011 89 10000 1.54 20 23:29 06.08.2022
807 Clouds 24 1010 94 10000 0 0 22:20 06.08.2022
808 Clouds 23 1010 91 10000 0 0 20:20 06.08.2022
809 Clear 23 1010 91 10000 0 0 19:38 06.08.2022
810 Clear 24 1011 90 10000 1.54 360 18:19 06.08.2022
811 Clear 24 1011 86 10000 2.06 350 16:33 06.08.2022
812 Clear 25 1011 81 10000 2.06 270 14:31 06.08.2022
813 Clear 26 1010 77 10000 2.06 290 13:39 06.08.2022
814 Clear 27 1008 69 10000 4.63 320 11:21 06.08.2022
815 Clouds 30 1008 60 10000 5.66 310 09:50 06.08.2022
816 Clouds 32 1008 48 10000 6.17 290 07:51 06.08.2022
817 Clouds 30 1012 58 10000 1.54 200 03:24 06.08.2022
818 Clouds 23 1011 94 10000 1.03 70 23:27 05.08.2022
819 Clouds 23 1010 94 10000 1.03 50 21:54 05.08.2022
820 Clear 23 1010 90 10000 1.03 240 19:32 05.08.2022
821 Clouds 24 1010 93 10000 1.54 210 18:44 05.08.2022
822 Clouds 25 1011 89 10000 2.24 230 17:27 05.08.2022
823 Clear 25 1010 89 10000 2.68 230 16:48 05.08.2022
824 Clear 25 1011 89 10000 2.57 230 15:21 05.08.2022
825 Clear 25 1010 85 10000 1.54 250 13:53 05.08.2022
826 Clear 25 1010 85 10000 2.57 270 13:22 05.08.2022
827 Clear 26 1009 85 10000 2.57 280 12:24 05.08.2022
828 Clouds 29 1008 65 10000 4.63 320 10:35 05.08.2022
829 Clouds 29 1008 61 10000 4.63 320 07:58 05.08.2022
830 Clouds 29 1009 62 10000 4.73 301 05:32 05.08.2022
831 Clouds 24 1011 88 10000 1.54 170 00:30 05.08.2022
832 Clouds 24 1010 94 10000 2.06 200 22:26 04.08.2022
833 Clouds 24 1010 94 10000 1.54 190 21:26 04.08.2022
834 Clouds 23 1010 94 10000 1.03 230 20:42 04.08.2022
835 Clouds 23 1010 94 10000 0.51 210 19:40 04.08.2022
836 Clouds 23 1011 94 10000 0 0 18:36 04.08.2022
837 Clouds 24 1011 90 10000 2.57 230 17:38 04.08.2022
838 Clear 25 1010 81 10000 2.57 230 14:18 04.08.2022
839 Clear 26 1009 74 10000 2.57 260 12:44 04.08.2022
840 Clouds 28 1009 67 10000 3.58 300 11:18 04.08.2022
841 Clouds 30 1009 58 10000 3.6 340 07:53 04.08.2022
842 Clouds 30 1011 61 10000 3.09 330 05:46 04.08.2022
843 Clouds 28 1013 67 10000 1.54 210 02:29 04.08.2022
844 Clear 23 1012 88 10000 0.89 160 23:45 03.08.2022
845 Clear 23 1011 94 10000 1.54 170 22:55 03.08.2022
846 Clouds 23 1011 90 10000 3.09 180 20:50 03.08.2022
847 Clouds 23 1011 90 10000 3.09 190 19:44 03.08.2022
848 Clouds 24 1012 89 10000 2.57 200 18:37 03.08.2022
849 Clouds 24 1011 85 10000 2.06 230 16:25 03.08.2022
850 Clouds 24 1012 83 10000 2.24 250 15:32 03.08.2022
851 Clouds 26 1010 72 10000 2.57 30 12:41 03.08.2022
852 Clouds 30 1012 60 10000 3.6 340 09:46 03.08.2022
853 Clouds 29 1012 64 10000 2.57 50 04:51 03.08.2022
854 Clouds 27 1013 69 10000 2.06 190 03:52 03.08.2022
855 Clouds 26 1013 75 10000 2.57 190 01:45 03.08.2022
856 Clouds 23 1010 88 10000 1.54 160 23:41 02.08.2022
857 Clouds 22 1011 91 10000 1.54 170 21:59 02.08.2022
858 Clouds 22 1011 91 10000 1.54 170 21:40 02.08.2022
859 Clouds 22 1011 94 10000 1.03 220 19:39 02.08.2022
860 Clear 22 1012 86 10000 1.03 110 16:42 02.08.2022
861 Clear 25 1011 70 10000 2.06 20 13:40 02.08.2022
862 Clouds 29 1009 53 10000 4.12 360 10:34 02.08.2022
863 Clouds 30 1009 54 10000 4.12 350 08:27 02.08.2022
864 Clouds 30 1010 56 10000 4.92 350 07:50 02.08.2022
865 Clouds 30 1012 58 10000 4.12 330 04:56 02.08.2022
866 Clear 26 1014 69 10000 2.57 50 01:58 02.08.2022
867 Clear 22 1010 83 10000 1.54 150 23:23 01.08.2022
868 Clouds 21 1012 88 10000 1.03 140 21:37 01.08.2022
869 Clouds 21 1012 87 10000 1.54 130 19:45 01.08.2022
870 Clouds 22 1012 86 10000 2.06 150 18:53 01.08.2022
871 Clear 22 1012 81 10000 1.03 200 16:56 01.08.2022
872 Clear 22 1012 81 10000 1.03 270 16:33 01.08.2022
873 Clear 24 1012 74 10000 1.54 170 15:34 01.08.2022
874 Clear 24 1012 74 10000 1.03 160 14:45 01.08.2022
875 Clear 25 1011 66 10000 2.57 20 13:29 01.08.2022
876 Clouds 28 1009 51 10000 4.63 30 10:48 01.08.2022
877 Clear 30 1008 48 10000 6.17 10 08:53 01.08.2022
878 Clouds 32 1010 48 10000 4.63 30 06:51 01.08.2022
879 Clouds 30 1011 58 10000 4.63 70 04:32 01.08.2022
880 Clouds 25 1013 83 10000 2.06 90 01:23 01.08.2022
881 Clouds 21 1009 94 9000 1.79 90 22:44 31.07.2022
882 Clouds 22 1009 94 9000 2.06 90 22:25 31.07.2022
883 Clouds 22 1011 91 10000 1.03 250 20:28 31.07.2022
884 Clouds 23 1011 85 10000 3.09 350 18:39 31.07.2022
885 Clouds 23 1011 82 10000 1.39 59 16:55 31.07.2022
886 Clouds 23 1011 81 10000 1.72 343 14:37 31.07.2022
887 Clear 25 1011 76 10000 2.06 10 12:58 31.07.2022
888 Clear 26 1010 65 10000 4.12 360 11:38 31.07.2022
889 Clear 30 1009 46 10000 3.6 330 08:46 31.07.2022
890 Clear 31 1011 42 10000 3.6 260 05:38 31.07.2022
891 Clear 23 1013 82 10000 1.03 180 01:21 31.07.2022
892 Clear 20 1012 88 10000 0 0 22:46 30.07.2022
893 Clouds 22 1012 88 10000 2.06 180 21:52 30.07.2022
894 Clouds 22 1012 88 10000 3.09 190 21:33 30.07.2022
895 Clouds 21 1012 91 10000 1.54 200 20:33 30.07.2022
896 Clouds 21 1012 91 10000 2.57 190 19:50 30.07.2022
897 Clouds 22 1012 88 10000 3.09 180 18:19 30.07.2022
898 Clear 21 1012 83 10000 0 0 16:38 30.07.2022
899 Clear 22 1012 81 10000 1.54 230 15:33 30.07.2022
900 Clear 24 1011 70 10000 1.54 250 13:23 30.07.2022
901 Clear 24 1011 68 10000 2.06 360 12:22 30.07.2022
902 Clear 25 1010 61 10000 3.09 360 11:53 30.07.2022
903 Clouds 29 1010 47 10000 3.6 350 10:20 30.07.2022
904 Clouds 30 1010 39 10000 3.6 320 08:55 30.07.2022
905 Clear 31 1011 42 10000 4.12 310 07:33 30.07.2022
906 Clear 27 1014 57 10000 1.03 10 02:33 30.07.2022
907 Clear 19 1013 88 10000 1.03 90 00:30 30.07.2022
908 Clouds 19 1017 94 10000 0 0 21:38 29.07.2022
909 Clouds 20 1017 88 10000 1.03 20 20:51 29.07.2022
910 Clouds 20 1016 90 10000 1.54 80 19:47 29.07.2022
911 Clouds 21 1013 86 10000 1.03 200 17:34 29.07.2022
912 Clear 24 1012 73 10000 1.03 220 14:50 29.07.2022
913 Clear 24 1011 72 10000 2.57 360 12:55 29.07.2022
914 Clear 29 1010 51 10000 5.14 340 09:34 29.07.2022
915 Clear 30 1010 43 10000 6.71 300 08:41 29.07.2022
916 Clear 30 1012 30 10000 4.63 100 06:40 29.07.2022
917 Clear 23 1014 54 10000 4.12 90 01:19 29.07.2022
918 Clouds 20 1016 72 10000 3.09 120 21:45 28.07.2022
919 Clouds 20 1015 80 10000 2.06 150 20:54 28.07.2022
920 Clouds 20 1015 86 10000 2.06 160 20:21 28.07.2022
921 Clouds 20 1017 87 10000 2.24 170 19:40 28.07.2022
922 Clouds 21 1013 86 10000 3.6 190 18:25 28.07.2022
923 Clouds 22 1013 88 10000 2.57 190 17:42 28.07.2022
924 Clear 22 1014 84 10000 1.03 190 16:41 28.07.2022
925 Clear 23 1013 79 10000 3.09 190 14:30 28.07.2022
926 Clear 24 1012 73 10000 2.57 360 12:41 28.07.2022
927 Clear 29 1010 52 10000 5.14 30 09:34 28.07.2022
928 Clear 30 1013 31 10000 6.71 100 05:45 28.07.2022
929 Clear 29 1013 32 10000 7.2 110 05:24 28.07.2022
930 Clear 19 1015 63 10000 3.6 150 00:29 28.07.2022
931 Clear 19 1014 67 10000 3.09 140 22:25 27.07.2022
932 Clouds 19 1013 78 10000 2.57 110 20:20 27.07.2022
933 Clouds 20 1014 88 10000 1.54 130 19:32 27.07.2022
934 Clear 22 1014 83 10000 2.06 210 16:34 27.07.2022
935 Clear 21 1014 76 10000 2.06 200 15:51 27.07.2022
936 Clear 21 1013 73 10000 0 0 14:46 27.07.2022
937 Clear 22 1013 68 10000 0.51 40 14:27 27.07.2022
938 Clear 24 1011 64 10000 1.03 30 12:19 27.07.2022
939 Clear 31 1011 33 10000 6.17 130 07:53 27.07.2022
940 Clear 29 1013 38 10000 7.72 100 05:33 27.07.2022
941 Fog 20 1015 94 10000 2.57 150 00:28 27.07.2022
942 Fog 20 1013 97 10000 2.06 140 22:24 26.07.2022
943 Clouds 20 1012 93 8000 1.54 140 21:19 26.07.2022
944 Clouds 20 1013 92 10000 0 0 19:40 26.07.2022
945 Clouds 21 1013 93 10000 1.54 170 18:41 26.07.2022
946 Clouds 21 1013 92 10000 2.06 160 17:57 26.07.2022
947 Clear 21 1013 84 10000 0 0 15:47 26.07.2022
948 Clear 22 1013 86 10000 0 0 14:44 26.07.2022
949 Clear 24 1012 82 10000 1.54 290 12:50 26.07.2022
950 Clear 27 1010 63 10000 3.6 350 10:57 26.07.2022
951 Clear 30 1010 58 10000 4.12 340 08:43 26.07.2022
952 Clouds 31 1013 45 10000 4.92 90 05:30 26.07.2022
953 Clear 19 1013 91 10000 1.03 50 00:27 26.07.2022
954 Clear 18 1012 94 10000 2.57 60 22:51 25.07.2022
955 Clear 18 1012 94 10000 2.06 40 22:22 25.07.2022
956 Clear 18 1012 89 10000 2.06 70 21:38 25.07.2022
957 Clear 18 1012 90 10000 1.54 130 20:40 25.07.2022
958 Clear 19 1012 88 10000 1.03 120 19:27 25.07.2022
959 Clear 20 1013 88 10000 3.09 180 18:18 25.07.2022
960 Clear 21 1012 89 10000 2.06 200 17:26 25.07.2022
961 Clear 22 1012 89 10000 1.54 340 14:32 25.07.2022
962 Clear 24 1011 78 10000 2.06 340 11:50 25.07.2022
963 Clear 28 1010 58 10000 5.14 360 08:32 25.07.2022
964 Clear 24 1014 54 10000 2.57 180 02:21 25.07.2022
965 Clear 17 1012 88 10000 2.06 140 23:51 24.07.2022
966 Clear 17 1012 88 10000 1.03 170 22:56 24.07.2022
967 Clear 17 1012 91 10000 1.03 170 22:26 24.07.2022
968 Clear 18 1012 88 10000 2.06 180 21:19 24.07.2022
969 Clear 18 1015 83 10000 2.57 190 20:47 24.07.2022
970 Clear 18 1012 89 10000 2.57 180 19:54 24.07.2022
971 Clear 20 1012 84 10000 1.54 200 18:30 24.07.2022
972 Clear 21 1012 79 10000 1.54 200 16:28 24.07.2022
973 Clear 21 1012 88 10000 2.57 200 15:45 24.07.2022
974 Clear 21 1012 85 10000 0.51 360 14:19 24.07.2022
975 Clear 22 1011 73 10000 1.54 350 12:52 24.07.2022
976 Clear 24 1010 64 10000 3.6 10 11:38 24.07.2022
977 Clear 25 1010 56 10000 4.12 10 10:59 24.07.2022
978 Clear 29 1010 34 10000 3.6 310 08:32 24.07.2022
979 Clear 29 1010 32 10000 3.09 290 07:52 24.07.2022
980 Clear 27 1015 36 10000 3.09 300 05:44 24.07.2022
981 Fog 15 1013 94 8000 0 0 00:28 24.07.2022
982 Clouds 16 1012 94 10000 1.54 170 21:37 23.07.2022
983 Clouds 17 1012 89 10000 1.34 200 20:19 23.07.2022
984 Clouds 19 1014 92 10000 2.06 200 18:50 23.07.2022
985 Clouds 19 1012 82 10000 2.57 190 17:28 23.07.2022
986 Clear 18 1012 83 10000 2.06 180 16:35 23.07.2022
987 Clear 19 1012 66 10000 1.79 200 15:22 23.07.2022
988 Clear 20 1012 64 10000 2.06 200 14:58 23.07.2022
989 Clear 20 1012 64 10000 0.51 30 14:28 23.07.2022
990 Clear 20 1012 64 10000 2.57 30 13:26 23.07.2022
991 Clouds 25 1011 50 9000 4.63 10 10:45 23.07.2022
992 Clouds 26 1010 52 9000 5.14 10 10:21 23.07.2022
993 Clear 28 1011 45 10000 4.63 340 08:39 23.07.2022
994 Clear 25 1015 42 10000 3.09 60 03:40 23.07.2022
995 Clear 19 1015 72 10000 3.09 130 01:33 23.07.2022
996 Mist 16 1013 94 1500 1.54 170 22:56 22.07.2022
997 Clouds 16 1013 94 10000 1.54 170 20:56 22.07.2022
998 Clouds 17 1013 88 10000 2.06 170 19:46 22.07.2022
999 Clouds 18 1011 82 10000 1.34 180 18:28 22.07.2022
1000 Clouds 18 1012 82 10000 1.54 180 17:28 22.07.2022
1001 Clear 19 1013 68 10000 1.03 230 14:55 22.07.2022
1002 Clear 25 1012 47 10000 2.57 10 11:36 22.07.2022
1003 Clear 28 1011 33 10000 4.47 350 09:26 22.07.2022
1004 Clear 28 1011 34 10000 4.63 350 08:43 22.07.2022
1005 Clouds 29 1012 46 10000 4.63 300 07:20 22.07.2022
1006 Clouds 27 1016 54 10000 2.06 90 03:43 22.07.2022
1007 Clear 17 1014 94 10000 1.03 60 22:45 21.07.2022
1008 Clouds 21 1013 88 10000 1.34 190 21:34 21.07.2022
1009 Clouds 19 1013 90 10000 1.34 190 19:30 21.07.2022
1010 Clouds 19 1013 91 10000 1.34 190 17:45 21.07.2022
1011 Clear 20 1013 89 10000 1.54 190 17:19 21.07.2022
1012 Clear 22 1013 78 10000 2.06 200 15:22 21.07.2022
1013 Clear 23 1013 73 10000 2.06 200 14:39 21.07.2022
1014 Clear 24 1012 59 10000 1.54 240 12:46 21.07.2022
1015 Clear 26 1011 52 10000 3.6 10 11:19 21.07.2022
1016 Clear 29 1010 42 10000 4.12 350 09:41 21.07.2022
1017 Clear 29 1011 42 10000 4.63 350 08:52 21.07.2022
1018 Clear 31 1011 27 10000 4.63 330 07:50 21.07.2022
1019 Clear 31 1012 29 10000 4.63 120 06:24 21.07.2022
1020 Clear 22 1014 82 10000 1.54 130 01:42 21.07.2022
1021 Clear 19 1013 82 10000 1.03 80 22:22 20.07.2022
1022 Clouds 19 1013 88 10000 2.06 70 21:30 20.07.2022
1023 Clouds 19 1013 88 10000 1.54 80 19:54 20.07.2022
1024 Clouds 19 1013 88 10000 1.54 110 19:25 20.07.2022
1025 Clouds 20 1013 88 10000 1.03 80 18:52 20.07.2022
1026 Clouds 20 1013 88 10000 1.54 50 18:27 20.07.2022
1027 Clear 21 1013 85 10000 2.57 190 16:46 20.07.2022
1028 Clear 22 1013 82 10000 1.54 210 15:32 20.07.2022
1029 Clear 22 1014 84 10000 2.06 190 14:26 20.07.2022
1030 Clear 25 1012 61 10000 1.54 310 11:55 20.07.2022
1031 Clear 29 1011 52 10000 5.14 360 09:43 20.07.2022
1032 Clear 30 1013 46 10000 2.57 270 04:50 20.07.2022
1033 Clear 20 1013 78 10000 2.57 70 00:54 20.07.2022
1034 Clear 19 1013 84 10000 3.09 70 00:25 20.07.2022
1035 Clear 20 1013 88 10000 2.06 170 22:33 19.07.2022
1036 Clouds 19 1012 89 10000 2.57 180 21:53 19.07.2022
1037 Clouds 20 1012 89 10000 2.57 190 20:48 19.07.2022
1038 Clouds 20 1013 84 10000 2.57 190 19:21 19.07.2022
1039 Clouds 21 1013 84 10000 2.57 210 18:34 19.07.2022
1040 Clouds 21 1013 84 10000 2.57 180 17:51 19.07.2022
1041 Clear 22 1013 83 10000 2.57 220 15:21 19.07.2022
1042 Clear 23 1012 69 10000 2.57 270 12:27 19.07.2022
1043 Clear 24 1011 66 10000 2.57 310 11:31 19.07.2022
1044 Clear 27 1011 55 10000 4.12 320 09:44 19.07.2022
1045 Clear 30 1011 42 10000 4.12 330 08:42 19.07.2022
1046 Clear 30 1011 42 10000 3.6 310 07:19 19.07.2022
1047 Clear 29 1012 42 10000 4.12 320 05:50 19.07.2022
1048 Clear 28 1013 44 10000 1.03 150 05:18 19.07.2022
1049 Clear 24 1015 59 10000 3.6 130 02:33 19.07.2022
1050 Clear 19 1013 88 10000 3.09 170 23:52 18.07.2022
1051 Clear 19 1013 88 10000 2.57 160 23:19 18.07.2022
1052 Clear 19 1013 88 10000 2.06 160 22:26 18.07.2022
1053 Clouds 19 1013 90 10000 2.06 160 21:20 18.07.2022
1054 Clouds 19 1013 90 10000 3.09 190 19:54 18.07.2022
1055 Clouds 20 1014 86 10000 2.57 190 18:29 18.07.2022
1056 Clear 21 1014 88 10000 1.54 210 16:30 18.07.2022
1057 Clear 22 1014 83 10000 1.54 190 15:26 18.07.2022
1058 Clear 23 1013 70 10000 2.57 250 13:31 18.07.2022
1059 Clear 25 1012 60 10000 2.57 360 11:43 18.07.2022
1060 Clear 28 1011 53 10000 4.12 350 09:55 18.07.2022
1061 Clear 28 1011 51 10000 5.14 310 07:54 18.07.2022
1062 Clouds 28 1014 46 10000 5.14 90 05:25 18.07.2022
1063 Clear 18 1014 88 10000 2.57 170 22:57 17.07.2022
1064 Clear 18 1013 88 10000 2.06 170 22:31 17.07.2022
1065 Clouds 17 1013 94 10000 1.54 170 21:40 17.07.2022
1066 Clouds 17 1016 88 10000 2.68 170 20:46 17.07.2022
1067 Clouds 18 1013 88 10000 2.57 170 19:50 17.07.2022
1068 Clouds 18 1014 94 10000 1.03 170 19:24 17.07.2022
1069 Clouds 18 1014 91 10000 2.06 170 17:54 17.07.2022
1070 Clouds 18 1014 88 10000 1.54 180 17:36 17.07.2022
1071 Clear 18 1014 88 10000 1.03 180 16:45 17.07.2022
1072 Clear 19 1014 88 10000 2.06 180 16:22 17.07.2022
1073 Clear 21 1014 68 10000 1.03 40 13:58 17.07.2022
1074 Clear 22 1013 68 10000 3.6 40 12:56 17.07.2022
1075 Clear 25 1012 56 10000 5.14 360 10:21 17.07.2022
1076 Clouds 28 1017 47 10000 5.66 340 07:55 17.07.2022
1077 Clouds 23 1020 63 10000 5.14 90 02:35 17.07.2022
1078 Clear 19 1016 72 10000 2.57 110 00:33 17.07.2022
1079 Clouds 18 1013 88 10000 3.58 160 22:43 16.07.2022
1080 Clouds 19 1015 85 10000 2.57 180 20:45 16.07.2022
1081 Clouds 20 1015 83 10000 3.6 180 18:59 16.07.2022
1082 Clouds 20 1015 90 10000 2.57 200 17:48 16.07.2022
1083 Clouds 20 1013 89 10000 1.03 190 16:23 16.07.2022
1084 Clear 21 1014 77 10000 1.54 10 13:35 16.07.2022
1085 Clear 26 1013 51 10000 5.14 30 10:34 16.07.2022
1086 Clear 27 1013 49 10000 4.63 290 09:28 16.07.2022
1087 Clear 29 1013 42 10000 3.6 330 08:41 16.07.2022
1088 Clear 29 1013 40 10000 4.12 100 07:40 16.07.2022
1089 Clear 24 1016 54 10000 6.17 100 03:38 16.07.2022
1090 Clear 20 1016 72 10000 6.71 100 01:39 16.07.2022
1091 Clear 20 1015 68 10000 5.66 110 23:21 15.07.2022
1092 Clouds 20 1015 68 10000 3.6 110 22:37 15.07.2022
1093 Clouds 19 1015 71 10000 2.06 150 20:47 15.07.2022
1094 Clouds 18 1015 82 10000 2.06 170 19:49 15.07.2022
1095 Clouds 19 1015 88 10000 2.06 170 18:30 15.07.2022
1096 Clouds 19 1015 85 10000 2.06 180 17:25 15.07.2022
1097 Clear 19 1015 79 10000 1.54 40 14:35 15.07.2022
1098 Clear 21 1014 64 10000 3.09 40 12:43 15.07.2022
1099 Clear 26 1012 47 10000 5.14 50 10:53 15.07.2022
1100 Clear 28 1012 37 10000 3.6 130 08:42 15.07.2022
1101 Clear 25 1014 39 10000 5.66 110 05:55 15.07.2022
1102 Clear 18 1016 57 10000 4.63 100 00:51 15.07.2022
1103 Clear 18 1015 55 10000 4.63 100 23:35 14.07.2022
1104 Clear 18 1015 55 10000 4.63 100 22:42 14.07.2022
1105 Clear 18 1015 52 10000 4.63 120 21:43 14.07.2022
1106 Clear 18 1015 52 10000 4.63 120 21:24 14.07.2022
1107 Clear 18 1015 52 10000 3.6 130 20:43 14.07.2022
1108 Clouds 18 1015 52 10000 3.6 130 20:19 14.07.2022
1109 Clouds 17 1016 79 10000 3.09 160 18:41 14.07.2022
1110 Clear 17 1016 77 10000 2.06 180 16:21 14.07.2022
1111 Clear 17 1016 77 10000 0 0 15:29 14.07.2022
1112 Clear 19 1015 63 10000 1.54 210 13:53 14.07.2022
1113 Clear 20 1014 66 10000 1.54 30 12:48 14.07.2022
1114 Clear 22 1013 54 10000 2.06 360 11:42 14.07.2022
1115 Clear 22 1013 53 10000 2.06 360 11:22 14.07.2022
1116 Clear 25 1012 40 10000 3.6 330 09:49 14.07.2022
1117 Clear 25 1015 25 10000 6.17 80 05:25 14.07.2022
1118 Clear 17 1015 35 10000 4.63 130 01:24 14.07.2022
1119 Clear 16 1015 37 10000 3.6 140 00:53 14.07.2022
1120 Clear 17 1013 30 10000 4.63 120 22:33 13.07.2022
1121 Clouds 17 1013 30 10000 4.12 120 21:55 13.07.2022
1122 Clouds 18 1013 30 10000 3.6 130 20:53 13.07.2022
1123 Clouds 17 1014 34 10000 5.14 140 19:30 13.07.2022
1124 Clouds 17 1014 37 10000 3.09 150 17:51 13.07.2022
1125 Clouds 19 1014 37 10000 2.68 160 16:39 13.07.2022
1126 Clear 20 1014 37 10000 2.57 160 15:24 13.07.2022
1127 Clear 20 1013 33 10000 2.57 150 12:55 13.07.2022
1128 Clear 24 1012 27 10000 3.6 150 10:46 13.07.2022
1129 Clear 25 1011 26 10000 4.63 150 10:24 13.07.2022
1130 Clear 25 1011 26 10000 4.63 150 10:24 13.07.2022
1131 Clear 27 1011 25 10000 4.12 150 09:24 13.07.2022
1132 Clear 27 1012 24 10000 4.47 130 06:46 13.07.2022
1133 Clear 20 1015 33 10000 6.17 140 02:38 13.07.2022
1134 Clear 16 1013 39 10000 5.66 140 23:52 12.07.2022
1135 Clouds 16 1012 45 10000 3.6 150 21:58 12.07.2022
1136 Clouds 17 1012 43 10000 3.6 150 21:34 12.07.2022
1137 Clouds 17 1012 47 10000 3.6 160 20:42 12.07.2022
1138 Clouds 17 1013 47 10000 3.6 150 19:36 12.07.2022
1139 Clouds 18 1013 72 10000 2.57 170 17:54 12.07.2022
1140 Clear 17 1014 82 10000 0 0 16:20 12.07.2022
1141 Clear 17 1014 82 10000 0 0 16:20 12.07.2022
1142 Clear 18 1013 78 10000 0 0 14:31 12.07.2022
1143 Clear 19 1013 68 10000 1.54 320 13:20 12.07.2022
1144 Clear 22 1012 56 10000 2.57 360 11:37 12.07.2022
1145 Clear 26 1011 37 10000 4.12 340 10:18 12.07.2022
1146 Clear 26 1011 37 10000 4.12 340 10:18 12.07.2022
1147 Clear 28 1011 24 10000 3.58 160 08:26 12.07.2022
1148 Clear 28 1011 23 10000 4.12 160 07:38 12.07.2022
1149 Clear 27 1013 25 10000 5.66 140 05:42 12.07.2022
1150 Clear 23 1015 28 10000 6.71 130 03:29 12.07.2022
1151 Clear 17 1013 69 10000 3.6 170 23:43 11.07.2022
1152 Clear 16 1013 68 10000 3.09 160 22:36 11.07.2022
1153 Clouds 17 1013 65 10000 3.09 160 20:54 11.07.2022
1154 Clouds 16 1013 68 10000 2.57 150 20:25 11.07.2022
1155 Clouds 18 1014 77 10000 2.57 180 18:38 11.07.2022
1156 Clouds 18 1014 78 10000 2.57 180 17:55 11.07.2022
1157 Clear 18 1015 81 10000 1.54 230 16:22 11.07.2022
1158 Clear 20 1015 76 10000 2.06 230 14:52 11.07.2022
1159 Clear 21 1013 74 10000 1.54 330 12:28 11.07.2022
1160 Clear 24 1012 57 10000 2.57 350 10:54 11.07.2022
1161 Clear 26 1012 48 10000 3.6 350 09:54 11.07.2022
1162 Clear 29 1012 34 10000 3.6 310 08:36 11.07.2022
1163 Clear 29 1012 32 10000 3.58 160 07:32 11.07.2022
1164 Clear 18 1015 49 10000 2.57 130 00:47 11.07.2022
1165 Clear 16 1014 52 10000 3.6 130 23:53 10.07.2022
1166 Clear 17 1013 52 10000 3.6 150 22:34 10.07.2022
1167 Clouds 18 1013 56 10000 3.09 150 20:55 10.07.2022
1168 Clouds 18 1013 62 10000 3.09 160 20:00 10.07.2022
1169 Clouds 17 1013 77 10000 3.6 160 19:21 10.07.2022
1170 Clouds 18 1014 88 10000 2.06 180 17:59 10.07.2022
1171 Clear 18 1014 92 10000 2.06 160 16:59 10.07.2022
1172 Clear 18 1014 91 10000 1.54 190 16:20 10.07.2022
1173 Clear 19 1014 77 10000 1.03 260 14:44 10.07.2022
1174 Clear 21 1014 73 10000 1.34 290 13:18 10.07.2022
1175 Clear 23 1013 63 10000 2.06 340 11:36 10.07.2022
1176 Clear 25 1012 51 10000 3.6 350 09:45 10.07.2022
1177 Clear 28 1012 41 10000 4.47 350 08:43 10.07.2022
1178 Clear 28 1013 31 10000 4.63 140 06:39 10.07.2022
1179 Clear 18 1014 49 10000 5.14 140 23:47 09.07.2022
1180 Clear 18 1014 49 10000 5.14 140 22:26 09.07.2022
1181 Clouds 19 1013 49 10000 4.63 140 21:41 09.07.2022
1182 Clouds 19 1013 53 10000 3.6 150 19:44 09.07.2022
1183 Clouds 20 1014 58 10000 3.09 160 18:26 09.07.2022
1184 Clouds 20 1014 58 10000 3.09 160 18:26 09.07.2022
1185 Clouds 19 1014 88 10000 2.06 170 17:27 09.07.2022
1186 Clear 19 1014 88 10000 0 0 16:25 09.07.2022
1187 Clear 19 1014 82 10000 0 0 15:38 09.07.2022
1188 Clear 20 1014 79 10000 0 0 14:23 09.07.2022
1189 Clear 20 1013 79 10000 0 0 13:48 09.07.2022
1190 Clear 23 1012 67 10000 1.54 340 11:54 09.07.2022
1191 Clear 25 1011 55 10000 2.57 340 10:27 09.07.2022
1192 Clear 26 1011 49 10000 3.6 350 09:56 09.07.2022
1193 Clear 29 1011 30 10000 1.54 100 07:44 09.07.2022
1194 Clear 26 1013 38 10000 5.66 110 04:45 09.07.2022
1195 Clear 18 1013 54 10000 6.17 140 00:38 09.07.2022
1196 Clear 18 1012 56 10000 4.63 150 22:34 08.07.2022
1197 Clouds 18 1012 63 10000 4.12 160 21:27 08.07.2022
1198 Clouds 18 1012 63 10000 2.57 160 20:40 08.07.2022
1199 Clouds 19 1012 64 10000 3.6 160 19:48 08.07.2022
1200 Clouds 19 1013 84 10000 2.06 180 17:56 08.07.2022
1201 Clear 20 1014 83 10000 2.57 180 16:37 08.07.2022
1202 Clear 19 1013 77 10000 0 0 14:51 08.07.2022
1203 Clear 21 1012 70 10000 1.54 10 12:42 08.07.2022
1204 Clear 23 1011 59 10000 3.09 30 11:24 08.07.2022
1205 Clear 25 1011 46 10000 4.63 350 10:21 08.07.2022
1206 Clear 29 1011 24 10000 2.06 150 07:55 08.07.2022
1207 Clear 28 1012 28 10000 2.57 190 06:47 08.07.2022
1208 Clear 19 1014 48 10000 3.6 160 01:19 08.07.2022
1209 Clear 17 1013 52 10000 3.6 160 22:57 07.07.2022
1210 Clouds 17 1013 60 10000 3.09 160 21:57 07.07.2022
1211 Clouds 17 1013 69 10000 2.57 170 19:47 07.07.2022
1212 Clouds 19 1013 83 10000 2.06 180 17:56 07.07.2022
1213 Clear 19 1014 84 10000 2.06 190 16:32 07.07.2022
1214 Clear 19 1014 72 10000 0 0 14:32 07.07.2022
1215 Clear 20 1013 68 10000 0.51 40 12:46 07.07.2022
1216 Clear 21 1013 64 10000 0.51 10 12:23 07.07.2022
1217 Clear 23 1013 57 10000 1.03 360 11:34 07.07.2022
1218 Clear 24 1012 51 10000 2.06 340 10:46 07.07.2022
1219 Clear 25 1012 46 10000 2.57 350 10:28 07.07.2022
1220 Clear 26 1012 44 10000 3.6 330 09:32 07.07.2022
1221 Clear 27 1013 29 10000 4.12 50 06:31 07.07.2022
1222 Clouds 17 1014 54 10000 2.68 140 00:31 07.07.2022
1223 Clouds 16 1014 55 10000 2.68 140 23:36 06.07.2022
1224 Clouds 16 1014 53 10000 3.09 140 23:18 06.07.2022
1225 Clouds 16 1014 54 10000 3.58 150 22:52 06.07.2022
1226 Clouds 16 1014 56 10000 3.6 150 22:33 06.07.2022
1227 Clouds 17 1013 54 10000 3.6 150 20:23 06.07.2022
1228 Clouds 17 1014 59 10000 3.09 160 19:22 06.07.2022
1229 Clouds 17 1014 82 10000 1.54 170 17:21 06.07.2022
1230 Clear 17 1014 77 10000 1.54 190 15:57 06.07.2022
1231 Clear 20 1013 64 10000 1.54 350 12:44 06.07.2022
1232 Clear 21 1013 59 10000 1.54 350 11:52 06.07.2022
1233 Clear 23 1012 50 10000 4.12 360 10:55 06.07.2022
1234 Clear 27 1011 33 10000 1.54 280 09:27 06.07.2022
1235 Clear 27 1011 33 10000 1.54 280 09:27 06.07.2022
1236 Clear 27 1012 28 10000 3.6 160 07:44 06.07.2022
1237 Clear 27 1012 28 10000 3.6 160 07:44 06.07.2022
1238 Clear 26 1012 29 10000 3.6 110 06:44 06.07.2022
1239 Clear 16 1015 48 10000 4.63 140 00:38 06.07.2022
1240 Clear 15 1014 45 10000 4.12 130 22:43 05.07.2022
1241 Clouds 16 1014 46 10000 3.09 130 20:49 05.07.2022
1242 Clouds 16 1014 47 10000 3.09 130 20:31 05.07.2022
1243 Clouds 17 1013 48 10000 3.6 150 19:38 05.07.2022
1244 Clouds 17 1014 54 10000 3.09 160 17:51 05.07.2022
1245 Clouds 18 1014 48 10000 3.09 170 17:19 05.07.2022
1246 Clear 17 1014 52 10000 2.06 150 16:32 05.07.2022
1247 Clear 18 1014 62 10000 1.54 130 14:54 05.07.2022
1248 Clear 19 1013 66 10000 0 0 13:36 05.07.2022
1249 Clear 20 1013 60 10000 1.54 360 12:24 05.07.2022
1250 Clear 25 1011 38 10000 2.57 150 10:46 05.07.2022
1251 Clear 25 1011 34 10000 2.57 150 09:57 05.07.2022
1252 Clear 26 1010 30 10000 3.09 160 08:23 05.07.2022
1253 Clear 24 1011 34 10000 3.6 110 06:59 05.07.2022
1254 Clear 22 1013 36 10000 5.66 120 04:37 05.07.2022
1255 Clear 17 1014 45 10000 6.71 140 01:33 05.07.2022
1256 Clear 15 1013 51 10000 6.71 150 23:37 04.07.2022
1257 Clear 16 1013 50 10000 6.71 150 22:57 04.07.2022
1258 Clear 16 1013 50 10000 6.71 150 22:19 04.07.2022
1259 Clear 17 1012 49 10000 7.2 150 20:56 04.07.2022
1260 Clear 17 1013 49 10000 6.71 150 20:36 04.07.2022
1261 Clear 18 1013 50 10000 6.17 150 19:57 04.07.2022
1262 Clear 18 1013 51 10000 5.66 160 19:37 04.07.2022
1263 Clear 19 1013 51 10000 6.17 160 18:51 04.07.2022
1264 Clear 19 1013 54 10000 5.14 170 16:54 04.07.2022
1265 Clear 21 1013 53 10000 4.63 170 15:35 04.07.2022
1266 Clear 21 1013 53 10000 5.14 160 13:47 04.07.2022
1267 Clear 23 1012 51 10000 4.12 170 12:42 04.07.2022
1268 Clear 25 1010 42 10000 4.12 170 10:57 04.07.2022
1269 Clear 26 1010 42 10000 4.63 180 10:27 04.07.2022
1270 Clear 27 1010 38 10000 4.92 190 09:21 04.07.2022
1271 Clear 26 1011 37 10000 6.71 170 06:27 04.07.2022
1272 Clear 20 1013 50 10000 7.72 140 01:49 04.07.2022
1273 Clear 18 1012 57 10000 6.71 150 23:39 03.07.2022
1274 Clear 19 1012 55 10000 5.66 150 22:29 03.07.2022
1275 Clouds 19 1011 55 10000 6.17 160 20:45 03.07.2022
1276 Clouds 20 1011 57 10000 5.81 160 19:43 03.07.2022
1277 Clouds 20 1011 56 10000 6.17 160 19:24 03.07.2022
1278 Clouds 21 1012 60 10000 4.63 160 18:23 03.07.2022
1279 Clouds 21 1012 61 10000 4.12 160 17:31 03.07.2022
1280 Clear 22 1013 60 10000 4.63 170 15:26 03.07.2022
1281 Clear 23 1013 59 10000 4.12 170 14:49 03.07.2022
1282 Clear 23 1012 61 10000 3.6 160 13:49 03.07.2022
1283 Clear 24 1011 59 10000 3.09 150 12:44 03.07.2022
1284 Clear 25 1011 55 10000 3.58 170 11:47 03.07.2022
1285 Clear 27 1010 50 10000 4.02 190 10:51 03.07.2022
1286 Clear 27 1010 49 10000 4.12 190 10:33 03.07.2022
1287 Clear 29 1009 45 10000 4.12 190 07:38 03.07.2022
1288 Clear 26 1011 48 10000 6.17 160 05:34 03.07.2022
1289 Clear 19 1012 68 10000 6.71 150 00:26 03.07.2022
1290 Clear 20 1012 64 10000 6.71 150 23:36 02.07.2022
1291 Clear 20 1012 64 10000 5.66 140 22:31 02.07.2022
1292 Clouds 20 1012 69 10000 5.14 150 20:26 02.07.2022
1293 Clouds 20 1012 70 10000 4.63 150 19:49 02.07.2022
1294 Clouds 21 1012 70 10000 3.6 150 18:20 02.07.2022
1295 Clouds 21 1013 70 10000 3.6 160 17:38 02.07.2022
1296 Clear 22 1013 69 10000 3.6 150 15:46 02.07.2022
1297 Clear 24 1013 62 10000 5.14 160 13:35 02.07.2022
1298 Clear 25 1011 56 10000 3.09 160 11:48 02.07.2022
1299 Clear 26 1010 50 10000 4.12 160 10:50 02.07.2022
1300 Clear 28 1010 45 10000 4.47 110 09:49 02.07.2022
1301 Clear 27 1010 47 10000 5.14 120 08:37 02.07.2022
1302 Clear 27 1010 47 10000 5.36 110 08:19 02.07.2022
1303 Clouds 18 1015 72 10000 6.69 140 02:53 02.07.2022
1304 Clouds 17 1014 77 10000 4.63 140 00:28 02.07.2022
1305 Clouds 17 1013 82 10000 6.71 140 23:21 01.07.2022
1306 Clouds 18 1013 77 10000 6.71 140 22:29 01.07.2022
1307 Clouds 18 1013 82 10000 6.17 140 21:37 01.07.2022
1308 Clouds 19 1013 80 10000 5.14 140 20:58 01.07.2022
1309 Clouds 19 1013 79 10000 6.17 140 20:20 01.07.2022
1310 Clouds 19 1013 80 10000 5.66 140 19:36 01.07.2022
1311 Clouds 20 1014 80 10000 6.71 150 16:42 01.07.2022
1312 Clear 20 1014 79 10000 5.14 150 14:31 01.07.2022
1313 Clear 21 1014 75 10000 6.17 160 13:39 01.07.2022
1314 Clouds 25 1012 68 10000 5.66 150 10:54 01.07.2022
1315 Clouds 25 1011 67 10000 5.66 150 10:19 01.07.2022
1316 Clouds 24 1012 69 10000 8.75 140 06:31 01.07.2022
1317 Clouds 20 1015 84 10000 6.17 140 02:43 01.07.2022
1318 Clouds 20 1015 84 10000 6.17 140 02:43 01.07.2022
1319 Clouds 19 1014 87 10000 8.05 140 23:52 30.06.2022
1320 Drizzle 19 1013 87 10000 7.2 140 22:51 30.06.2022
1321 Rain 19 1017 83 10000 7.72 150 22:32 30.06.2022
1322 Rain 19 1017 83 10000 7.2 150 21:54 30.06.2022
1323 Rain 19 1016 82 10000 8.94 160 20:49 30.06.2022
1324 Rain 19 1016 83 10000 8.94 160 20:21 30.06.2022
1325 Rain 19 1013 83 10000 9.26 160 19:48 30.06.2022
1326 Clouds 19 1014 84 10000 7.72 160 18:54 30.06.2022
1327 Clouds 19 1014 84 10000 7.2 160 18:22 30.06.2022
1328 Rain 19 1014 84 10000 8.75 160 17:34 30.06.2022
1329 Clouds 19 1017 82 10000 7.72 160 16:20 30.06.2022
1330 Clear 21 1014 69 10000 6.17 170 14:20 30.06.2022
1331 Rain 22 1013 66 10000 5.81 170 13:29 30.06.2022
1332 Rain 23 1011 64 10000 5.66 170 12:34 30.06.2022
1333 Rain 23 1011 64 10000 5.66 170 12:34 30.06.2022
1334 Clear 24 1011 61 10000 4.63 150 11:21 30.06.2022
1335 Clear 25 1010 57 10000 5.14 150 09:52 30.06.2022
1336 Clear 25 1010 57 10000 5.14 160 09:26 30.06.2022
1337 Clouds 25 1010 57 10000 6.17 150 07:41 30.06.2022
1338 Clouds 24 1011 61 10000 6.17 150 05:46 30.06.2022
1339 Clear 21 1011 75 10000 5.66 150 00:26 30.06.2022
1340 Clear 21 1011 75 10000 6.17 150 22:54 29.06.2022
1341 Clear 21 1010 79 10000 6.17 150 22:33 29.06.2022
1342 Rain 21 1010 80 10000 5.66 140 21:31 29.06.2022
1343 Rain 21 1011 80 10000 6.17 140 20:33 29.06.2022
1344 Clouds 21 1011 81 10000 5.14 140 19:34 29.06.2022
1345 Clouds 20 1012 88 10000 5.36 160 17:40 29.06.2022
1346 Clouds 20 1012 89 10000 5.14 170 16:33 29.06.2022
1347 Rain 20 1013 89 10000 3.6 130 14:50 29.06.2022
1348 Rain 20 1011 88 10000 6.71 150 12:39 29.06.2022
1349 Rain 21 1011 83 6000 4.63 130 10:25 29.06.2022
1350 Rain 24 1009 62 10000 6.17 150 09:31 29.06.2022
1351 Clouds 25 1010 56 10000 5.66 150 07:30 29.06.2022
1352 Clear 23 1012 55 10000 7.6 140 04:50 29.06.2022
1353 Clear 20 1011 60 10000 7.72 150 00:56 29.06.2022
1354 Clear 20 1011 61 10000 7.72 140 00:35 29.06.2022
1355 Clear 21 1010 58 10000 7.72 150 22:53 28.06.2022
1356 Clear 21 1010 58 10000 7.72 150 22:23 28.06.2022
1357 Clouds 21 1010 56 10000 6.69 150 21:53 28.06.2022
1358 Clouds 22 1010 54 10000 7.2 150 21:31 28.06.2022
1359 Clouds 22 1011 51 10000 6.17 150 20:27 28.06.2022
1360 Clouds 23 1010 49 10000 6.71 150 19:32 28.06.2022
1361 Clouds 23 1010 49 10000 6.71 150 19:32 28.06.2022
1362 Clouds 23 1010 49 10000 6.71 150 18:44 28.06.2022
1363 Clouds 24 1015 46 10000 5.66 150 17:39 28.06.2022
1364 Clear 25 1011 44 10000 5.66 160 15:57 28.06.2022
1365 Clear 25 1011 44 10000 5.66 150 15:21 28.06.2022
1366 Clear 26 1012 44 10000 5.14 150 14:20 28.06.2022
1367 Clear 26 1011 43 10000 4.63 150 13:50 28.06.2022
1368 Clear 26 1011 45 10000 5.14 150 12:54 28.06.2022
1369 Clear 27 1009 45 10000 5.14 150 10:57 28.06.2022
1370 Clear 29 1009 38 10000 6.17 160 09:25 28.06.2022
1371 Clear 29 1009 40 10000 5.66 160 08:43 28.06.2022
1372 Clear 29 1010 41 10000 6.71 150 07:42 28.06.2022
1373 Clouds 28 1017 39 10000 6.17 130 05:58 28.06.2022
1374 Clear 24 1012 44 10000 5.14 150 00:00 28.06.2022
1375 Clear 24 1012 44 10000 5.66 140 23:36 27.06.2022
1376 Clear 24 1012 44 10000 5.14 150 22:51 27.06.2022
1377 Clouds 24 1011 49 10000 6.17 160 21:33 27.06.2022
1378 Clouds 24 1011 49 10000 6.17 150 20:48 27.06.2022
1379 Clouds 25 1016 50 10000 5.66 150 18:58 27.06.2022
1380 Clouds 25 1016 50 10000 5.66 150 18:19 27.06.2022
1381 Clear 25 1013 49 10000 4.63 150 16:19 27.06.2022
1382 Clear 25 1013 50 10000 5.66 150 14:44 27.06.2022
1383 Clear 25 1013 50 10000 4.12 160 13:25 27.06.2022
1384 Clear 25 1012 52 10000 4.47 160 12:52 27.06.2022
1385 Clear 27 1011 51 10000 4.12 150 10:23 27.06.2022
1386 Clear 28 1011 49 10000 5.66 130 08:48 27.06.2022
1387 Clear 28 1011 50 10000 5.81 140 08:19 27.06.2022
1388 Clouds 27 1012 51 10000 8.05 130 06:38 27.06.2022
1389 Clear 26 1013 49 10000 5.14 150 02:23 27.06.2022
1390 Clear 25 1012 53 10000 3.09 130 23:55 26.06.2022
1391 Clouds 25 1012 52 10000 4.63 140 21:58 26.06.2022
1392 Clouds 25 1012 55 10000 4.12 140 20:43 26.06.2022
1393 Clouds 25 1012 55 10000 4.12 150 19:27 26.06.2022
1394 Clouds 25 1012 55 10000 3.09 160 18:28 26.06.2022
1395 Clouds 25 1013 65 10000 3.09 170 16:33 26.06.2022
1396 Clear 25 1012 70 10000 1.54 240 14:40 26.06.2022
1397 Clear 26 1012 73 10000 1.54 250 13:38 26.06.2022
1398 Clear 26 1012 72 10000 2.68 240 13:18 26.06.2022
1399 Clear 26 1011 72 10000 2.57 300 11:26 26.06.2022
1400 Clear 28 1010 61 10000 1.54 330 10:26 26.06.2022
1401 Clear 29 1009 58 10000 2.57 330 09:19 26.06.2022
1402 Clear 32 1009 40 10000 1.54 110 07:41 26.06.2022
1403 Clear 25 1012 56 10000 5.14 110 01:53 26.06.2022
1404 Clear 21 1011 58 10000 3.6 130 00:20 26.06.2022
1405 Clear 21 1011 55 10000 3.6 140 23:41 25.06.2022
1406 Clear 21 1011 58 10000 3.6 140 22:57 25.06.2022
1407 Clear 21 1010 55 10000 3.6 140 22:27 25.06.2022
1408 Clouds 21 1010 56 10000 4.12 140 21:40 25.06.2022
1409 Clouds 21 1010 56 10000 4.12 140 21:18 25.06.2022
1410 Clouds 21 1010 57 10000 4.12 160 20:27 25.06.2022
1411 Clear 23 1010 57 10000 4.12 160 19:20 25.06.2022
1412 Clear 22 1011 89 10000 3.09 180 17:53 25.06.2022
1413 Clear 22 1011 89 10000 2.68 180 17:19 25.06.2022
1414 Clear 23 1011 73 10000 1.54 170 15:26 25.06.2022
1415 Clear 24 1011 74 10000 1.54 50 13:27 25.06.2022
1416 Clear 25 1010 73 10000 2.57 30 12:37 25.06.2022
1417 Clear 30 1009 52 10000 4.12 120 10:34 25.06.2022
1418 Clear 31 1009 44 10000 4.12 100 08:58 25.06.2022
1419 Clear 31 1009 45 10000 4.63 80 08:35 25.06.2022
1420 Clear 31 1009 43 10000 5.66 130 07:45 25.06.2022
1421 Clear 26 1013 64 10000 6.17 80 03:33 25.06.2022
1422 Clear 22 1011 67 10000 4.12 100 00:34 25.06.2022
1423 Clear 19 1010 68 10000 2.06 100 22:53 24.06.2022
1424 Clouds 19 1009 83 10000 2.06 150 21:34 24.06.2022
1425 Clouds 19 1009 84 10000 1.54 130 20:44 24.06.2022
1426 Clouds 20 1009 81 10000 2.57 180 20:18 24.06.2022
1427 Clouds 22 1010 75 10000 2.57 180 19:20 24.06.2022
1428 Clouds 21 1010 76 10000 2.57 190 18:48 24.06.2022
1429 Clouds 22 1011 76 10000 3.09 190 18:30 24.06.2022
1430 Clouds 22 1011 76 10000 4.12 190 17:19 24.06.2022
1431 Clear 23 1012 60 10000 1.03 60 15:29 24.06.2022
1432 Clear 23 1012 64 10000 1.03 60 14:26 24.06.2022
1433 Clear 22 1012 69 10000 2.06 60 13:54 24.06.2022
1434 Clear 25 1011 57 10000 2.57 30 11:43 24.06.2022
1435 Clear 28 1011 46 10000 2.57 90 10:55 24.06.2022
1436 Clear 30 1010 36 10000 4.12 80 09:49 24.06.2022
1437 Clear 30 1010 35 10000 4.63 70 09:28 24.06.2022
1438 Clear 31 1010 34 10000 4.12 70 08:51 24.06.2022
1439 Clear 30 1011 33 10000 5.36 80 06:48 24.06.2022
1440 Clear 30 1011 34 10000 5.66 80 06:30 24.06.2022
1441 Clear 29 1012 36 10000 5.66 90 05:52 24.06.2022
1442 Clear 21 1014 67 10000 5.66 130 01:21 24.06.2022
1443 Clear 21 1012 66 10000 4.63 100 22:44 23.06.2022
1444 Clear 22 1012 61 10000 6.17 110 21:54 23.06.2022
1445 Clear 23 1012 56 10000 5.14 110 20:54 23.06.2022
1446 Clear 23 1012 56 10000 5.14 120 20:32 23.06.2022
1447 Clouds 23 1013 49 10000 4.12 140 18:49 23.06.2022
1448 Clear 23 1013 51 10000 3.6 150 17:45 23.06.2022
1449 Clear 23 1013 58 10000 2.57 170 16:36 23.06.2022
1450 Clear 23 1013 54 10000 2.06 170 15:43 23.06.2022
1451 Clear 23 1013 52 10000 2.06 170 15:23 23.06.2022
1452 Clear 26 1013 41 10000 1.54 120 12:43 23.06.2022
1453 Clear 28 1012 39 10000 2.06 130 11:20 23.06.2022
1454 Clear 30 1011 33 10000 4.63 120 09:30 23.06.2022
1455 Clear 31 1012 33 10000 6.71 150 07:51 23.06.2022
1456 Clear 23 1016 62 10000 4.12 130 01:29 23.06.2022
1457 Clear 21 1015 68 10000 3.6 110 00:25 23.06.2022
1458 Clear 21 1014 67 10000 3.6 110 23:23 22.06.2022
1459 Clouds 22 1014 68 10000 4.12 110 21:45 22.06.2022
1460 Clouds 23 1014 65 10000 5.66 110 20:57 22.06.2022
1461 Clouds 23 1014 62 10000 5.66 110 20:21 22.06.2022
1462 Clouds 24 1014 59 10000 5.66 110 19:48 22.06.2022
1463 Clouds 24 1014 52 10000 4.63 130 18:21 22.06.2022
1464 Clouds 23 1014 52 10000 4.63 140 17:20 22.06.2022
1465 Clear 23 1015 64 10000 2.06 160 15:53 22.06.2022
1466 Clear 23 1015 64 10000 2.06 160 15:24 22.06.2022
1467 Clear 24 1014 73 10000 1.03 50 13:50 22.06.2022
1468 Clear 24 1014 69 10000 1.34 30 13:25 22.06.2022
1469 Clear 25 1014 67 10000 1.54 30 12:44 22.06.2022
1470 Clear 28 1013 44 10000 2.68 90 11:47 22.06.2022
1471 Clear 30 1012 35 10000 4.12 110 10:54 22.06.2022
1472 Clear 31 1011 33 10000 6.17 100 09:44 22.06.2022
1473 Clear 31 1011 37 10000 6.17 130 07:56 22.06.2022
1474 Clear 27 1015 45 10000 7.72 110 03:30 22.06.2022
1475 Clear 21 1015 52 10000 4.12 140 01:22 22.06.2022
1476 Clear 20 1013 50 10000 3.09 120 23:41 21.06.2022
1477 Clouds 22 1012 43 10000 4.12 120 21:32 21.06.2022
1478 Clouds 22 1012 50 10000 3.09 120 19:47 21.06.2022
1479 Clouds 22 1012 57 10000 3.09 150 18:30 21.06.2022
1480 Clear 22 1013 64 10000 2.57 160 16:52 21.06.2022
1481 Clear 24 1012 57 10000 2.06 70 13:33 21.06.2022
1482 Clear 29 1011 45 10000 2.57 90 11:30 21.06.2022
1483 Clear 31 1010 35 10000 5.66 100 09:48 21.06.2022
1484 Clear 32 1010 35 10000 5.66 100 08:22 21.06.2022
1485 Clear 30 1012 41 10000 7.2 110 05:41 21.06.2022
1486 Clear 23 1011 89 10000 1.34 170 00:43 21.06.2022
1487 Clouds 22 1010 88 10000 1.54 170 22:25 20.06.2022
1488 Clouds 22 1010 88 10000 1.54 170 21:50 20.06.2022
1489 Clouds 22 1010 84 10000 2.06 170 20:47 20.06.2022
1490 Clouds 22 1010 86 10000 2.06 170 19:38 20.06.2022
1491 Clouds 23 1011 81 10000 2.06 170 18:44 20.06.2022
1492 Clouds 23 1011 84 10000 1.54 150 17:52 20.06.2022
1493 Clouds 23 1011 82 10000 1.03 160 17:29 20.06.2022
1494 Clear 24 1012 78 10000 1.54 180 15:55 20.06.2022
1495 Clear 26 1010 72 10000 3.09 40 12:44 20.06.2022
1496 Clear 28 1009 60 10000 5.14 40 10:41 20.06.2022
1497 Clear 30 1009 49 10000 4.63 90 09:41 20.06.2022
1498 Clear 30 1009 49 10000 4.63 90 09:41 20.06.2022
1499 Clear 32 1008 38 10000 4.63 80 08:44 20.06.2022
1500 Clear 32 1009 39 10000 4.12 80 05:55 20.06.2022
1501 Clear 26 1011 65 10000 2.57 60 02:27 20.06.2022
1502 Clear 20 1010 89 10000 2.06 90 00:26 20.06.2022
1503 Clear 20 1009 88 10000 1.54 90 22:59 19.06.2022
1504 Clouds 20 1009 87 10000 2.57 180 21:58 19.06.2022
1505 Clouds 20 1009 89 10000 2.06 190 21:40 19.06.2022
1506 Clouds 20 1010 89 10000 0.51 110 20:39 19.06.2022
1507 Clouds 22 1010 85 10000 2.57 180 19:48 19.06.2022
1508 Clouds 23 1010 77 10000 3.09 200 18:57 19.06.2022
1509 Clouds 23 1010 80 10000 3.6 210 18:30 19.06.2022
1510 Clouds 23 1011 88 10000 3.09 220 17:22 19.06.2022
1511 Clear 24 1011 88 10000 2.06 210 16:35 19.06.2022
1512 Clear 23 1011 87 10000 2.57 210 15:42 19.06.2022
1513 Clear 24 1012 85 10000 2.57 220 14:58 19.06.2022
1514 Clear 24 1011 84 10000 1.03 230 14:20 19.06.2022
1515 Clear 24 1011 84 10000 1.03 230 14:20 19.06.2022
1516 Clear 24 1011 79 10000 1.54 340 13:36 19.06.2022
1517 Clear 27 1009 66 10000 2.24 350 11:40 19.06.2022
1518 Clear 29 1009 57 10000 2.57 350 10:47 19.06.2022
1519 Clear 31 1008 52 10000 3.6 350 08:54 19.06.2022
1520 Clear 31 1009 54 10000 4.92 330 08:22 19.06.2022
1521 Clear 32 1011 35 10000 4.12 90 05:44 19.06.2022
1522 Clear 28 1013 51 10000 3.09 60 02:59 19.06.2022
1523 Clear 19 1013 86 10000 2.06 160 00:26 19.06.2022
1524 Fog 21 1012 83 10000 1.54 160 23:36 18.06.2022
1525 Clear 20 1012 84 10000 2.06 170 22:55 18.06.2022
1526 Clear 22 1011 80 10000 3.09 190 21:52 18.06.2022
1527 Clear 22 1012 89 10000 3.09 190 20:49 18.06.2022
1528 Clear 21 1016 87 10000 0.51 190 19:48 18.06.2022
1529 Clear 22 1015 89 10000 2.06 250 18:54 18.06.2022
1530 Clear 23 1015 86 10000 2.06 240 17:54 18.06.2022
1531 Clear 24 1013 87 10000 2.57 230 17:23 18.06.2022
1532 Clear 25 1013 83 10000 2.57 210 15:38 18.06.2022
1533 Clear 25 1012 78 10000 1.54 230 14:49 18.06.2022
1534 Clear 24 1012 78 10000 0.51 10 13:54 18.06.2022
1535 Clear 25 1011 73 10000 1.54 350 12:25 18.06.2022
1536 Clear 28 1010 60 10000 3.6 350 10:59 18.06.2022
1537 Clear 32 1009 42 10000 4.12 300 09:29 18.06.2022
1538 Clear 32 1009 29 10000 3.09 50 08:37 18.06.2022
1539 Clear 33 1009 33 10000 4.12 110 07:33 18.06.2022
1540 Clear 30 1012 34 10000 6.17 80 04:43 18.06.2022
1541 Smoke 24 1012 60 10000 4.12 110 01:27 18.06.2022
1542 Smoke 24 1012 60 10000 4.12 110 01:27 18.06.2022
1543 Clear 23 1012 59 10000 3.6 100 00:55 18.06.2022
1544 Clear 23 1012 53 10000 3.09 110 00:22 18.06.2022
1545 Clear 22 1011 50 10000 4.12 120 23:33 17.06.2022
1546 Clear 21 1011 56 10000 3.09 130 21:57 17.06.2022
1547 Clouds 22 1011 65 10000 2.57 150 20:29 17.06.2022
1548 Clouds 22 1011 77 10000 3.09 180 19:20 17.06.2022
1549 Clouds 23 1012 86 10000 2.06 190 17:47 17.06.2022
1550 Clear 24 1012 82 10000 1.54 220 16:44 17.06.2022
1551 Clear 24 1012 81 10000 2.06 210 16:21 17.06.2022
1552 Clouds 23 1012 85 10000 0.45 240 15:37 17.06.2022
1553 Clear 24 1012 79 10000 1.03 260 14:23 17.06.2022
1554 Clear 25 1012 75 10000 1.03 270 13:58 17.06.2022
1555 Clear 25 1012 72 10000 1.03 270 13:38 17.06.2022
1556 Clear 26 1011 69 10000 1.54 300 12:24 17.06.2022
1557 Clear 27 1011 64 10000 1.03 310 11:54 17.06.2022
1558 Clear 28 1011 56 10000 1.03 100 11:33 17.06.2022
1559 Clear 33 1010 40 10000 5.66 100 08:58 17.06.2022
1560 Clear 32 1010 38 10000 3.6 90 08:25 17.06.2022
1561 Clear 31 1010 40 10000 5.66 90 06:44 17.06.2022
1562 Clear 28 1013 50 10000 6.17 120 03:45 17.06.2022
1563 Clear 25 1013 56 10000 4.12 140 01:55 17.06.2022
1564 Clear 22 1012 57 10000 4.12 140 23:35 16.06.2022
1565 Clear 22 1011 56 10000 3.6 130 22:42 16.06.2022
1566 Clouds 23 1011 56 10000 3.09 140 21:22 16.06.2022
1567 Clouds 22 1011 60 10000 3.6 160 20:51 16.06.2022
1568 Clouds 22 1011 64 10000 3.09 170 20:32 16.06.2022
1569 Clouds 23 1011 64 10000 2.57 180 19:32 16.06.2022
1570 Clouds 23 1012 78 10000 3.09 180 18:24 16.06.2022
1571 Clouds 24 1012 80 10000 2.57 210 17:35 16.06.2022
1572 Clear 25 1012 83 10000 3.09 220 16:30 16.06.2022
1573 Clear 25 1012 85 10000 2.06 220 15:21 16.06.2022
1574 Clear 25 1012 81 10000 1.03 10 14:28 16.06.2022
1575 Clear 25 1012 82 10000 0 0 13:19 16.06.2022
1576 Clear 26 1011 76 10000 1.54 320 12:35 16.06.2022
1577 Clear 27 1011 70 10000 2.06 330 11:49 16.06.2022
1578 Clear 28 1010 64 10000 2.57 330 10:51 16.06.2022
1579 Clear 32 1010 45 10000 2.57 330 09:43 16.06.2022
1580 Clear 32 1010 42 10000 4.12 90 09:20 16.06.2022
1581 Clear 32 1011 43 10000 5.36 90 07:57 16.06.2022
1582 Clear 32 1011 42 10000 5.66 90 07:24 16.06.2022
1583 Clear 29 1014 47 10000 7.72 90 04:33 16.06.2022
1584 Clear 25 1014 44 10000 4.63 130 01:54 16.06.2022
1585 Clear 23 1014 48 10000 4.63 150 01:34 16.06.2022
1586 Clear 23 1014 48 10000 4.63 150 01:34 16.06.2022
1587 Clear 21 1013 59 10000 3.6 140 00:38 16.06.2022
1588 Clear 21 1013 56 10000 3.09 130 23:25 15.06.2022
1589 Clear 21 1013 64 10000 3.09 160 22:35 15.06.2022
1590 Clear 20 1012 77 10000 2.06 170 21:21 15.06.2022
1591 Clear 21 1012 78 10000 1.54 160 20:38 15.06.2022
1592 Clouds 21 1012 78 10000 1.54 160 20:19 15.06.2022
1593 Clouds 21 1012 83 10000 2.57 180 19:19 15.06.2022
1594 Clouds 22 1013 88 6000 1.03 160 17:55 15.06.2022
1595 Clear 23 1013 83 10000 1.54 170 16:40 15.06.2022
1596 Clear 24 1013 78 10000 2.57 180 15:36 15.06.2022
1597 Clear 24 1013 78 10000 0.45 30 13:44 15.06.2022
1598 Clear 25 1013 72 10000 1.54 30 12:54 15.06.2022
1599 Clear 26 1012 64 10000 2.57 30 11:52 15.06.2022
1600 Clear 29 1011 57 10000 4.63 10 10:24 15.06.2022
1601 Clear 31 1011 41 10000 3.09 130 09:42 15.06.2022
1602 Clear 32 1011 31 10000 3.6 100 08:37 15.06.2022
1603 Clear 31 1012 36 10000 4.63 90 06:34 15.06.2022
1604 Clear 28 1014 45 10000 7.2 100 03:59 15.06.2022
1605 Clear 24 1014 58 10000 5.14 100 01:54 15.06.2022
1606 Clear 22 1014 60 10000 3.6 120 00:50 15.06.2022
1607 Clear 21 1013 60 10000 2.06 150 23:39 14.06.2022
1608 Clear 21 1013 57 10000 2.24 140 23:19 14.06.2022
1609 Clear 21 1013 60 10000 2.57 120 22:21 14.06.2022
1610 Clouds 20 1013 69 7000 2.06 150 21:36 14.06.2022
1611 Haze 20 1013 86 4200 2.06 150 20:54 14.06.2022
1612 Haze 20 1013 85 5000 2.06 160 20:28 14.06.2022
1613 Haze 21 1013 85 5000 2.06 180 19:18 14.06.2022
1614 Clouds 22 1014 81 10000 2.57 180 17:54 14.06.2022
1615 Clear 22 1014 77 10000 1.03 200 16:47 14.06.2022
1616 Clear 22 1015 73 10000 1.03 220 15:50 14.06.2022
1617 Clear 22 1015 73 10000 1.54 220 15:28 14.06.2022
1618 Clear 23 1014 68 10000 1.79 60 14:33 14.06.2022
1619 Clear 23 1014 64 10000 2.06 60 13:46 14.06.2022
1620 Clear 24 1013 59 10000 2.24 40 12:45 14.06.2022
1621 Clouds 27 1012 50 9000 2.57 20 11:38 14.06.2022
1622 Smoke 28 1012 45 10000 2.06 360 10:48 14.06.2022
1623 Smoke 29 1012 42 10000 1.54 30 10:22 14.06.2022
1624 Clear 32 1011 22 10000 4.63 80 08:49 14.06.2022
1625 Clear 32 1011 21 10000 4.12 80 07:49 14.06.2022
1626 Clear 30 1012 25 10000 5.66 70 05:46 14.06.2022
1627 Clear 27 1014 35 10000 6.71 90 03:20 14.06.2022
1628 Clear 22 1013 47 10000 4.63 110 00:54 14.06.2022
1629 Clear 21 1012 46 10000 4.63 110 23:41 13.06.2022
1630 Clear 21 1012 43 10000 3.6 120 22:26 13.06.2022
1631 Clouds 21 1011 43 10000 4.12 130 21:54 13.06.2022
1632 Clouds 21 1011 44 10000 4.63 150 20:42 13.06.2022
1633 Clouds 21 1012 46 6000 4.12 150 19:35 13.06.2022
1634 Haze 22 1012 48 5000 3.6 160 18:31 13.06.2022
1635 Clouds 22 1013 54 6000 2.57 160 17:48 13.06.2022
1636 Clear 23 1013 55 10000 2.57 180 16:54 13.06.2022
1637 Clear 22 1013 62 10000 1.54 140 15:41 13.06.2022
1638 Clear 22 1014 56 10000 1.03 150 14:47 13.06.2022
1639 Clear 23 1013 56 10000 1.03 50 13:55 13.06.2022
1640 Clear 24 1013 52 10000 2.06 140 12:59 13.06.2022
1641 Clear 26 1012 45 10000 1.54 70 11:38 13.06.2022
1642 Clear 30 1011 33 10000 3.09 80 10:28 13.06.2022
1643 Clear 30 1011 31 10000 2.06 70 09:42 13.06.2022
1644 Clear 31 1011 30 10000 3.6 70 08:25 13.06.2022
1645 Clear 30 1012 29 10000 4.12 120 06:34 13.06.2022
1646 Clear 27 1014 30 10000 5.66 130 04:18 13.06.2022
1647 Clear 22 1014 40 10000 4.12 140 01:39 13.06.2022
1648 Clear 20 1014 42 10000 4.12 140 00:59 13.06.2022
1649 Clear 20 1013 42 10000 4.63 150 23:33 12.06.2022
1650 Clear 21 1013 38 10000 4.12 140 22:23 12.06.2022
1651 Clear 20 1012 45 10000 3.6 150 21:40 12.06.2022
1652 Clear 20 1012 47 10000 3.6 150 20:40 12.06.2022
1653 Clear 20 1012 55 10000 2.57 170 19:42 12.06.2022
1654 Clear 21 1013 57 10000 3.09 180 18:44 12.06.2022
1655 Clear 22 1013 59 10000 3.09 180 16:57 12.06.2022
1656 Clear 22 1013 78 10000 2.57 190 15:33 12.06.2022
1657 Clear 23 1013 71 10000 2.57 160 14:41 12.06.2022
1658 Clear 23 1013 71 10000 2.57 160 14:18 12.06.2022
1659 Clear 23 1013 72 10000 0.51 360 13:43 12.06.2022
1660 Clear 25 1012 62 10000 2.06 330 11:58 12.06.2022
1661 Clear 28 1011 49 10000 2.06 330 10:46 12.06.2022
1662 Clear 30 1010 36 10000 3.09 150 09:36 12.06.2022
1663 Clear 30 1010 35 10000 1.54 120 08:49 12.06.2022
1664 Clear 31 1011 34 10000 3.09 110 07:47 12.06.2022
1665 Clear 29 1012 32 10000 4.12 110 05:51 12.06.2022
1666 Clear 25 1014 31 10000 6.71 120 03:38 12.06.2022
1667 Clear 21 1015 34 10000 5.14 140 01:49 12.06.2022
1668 Clear 20 1014 34 10000 5.14 140 01:22 12.06.2022
1669 Clouds 19 1013 36 10000 4.12 140 00:36 12.06.2022
1670 Clouds 18 1013 36 10000 4.12 140 00:18 12.06.2022
1671 Clouds 18 1013 35 10000 4.12 150 22:53 11.06.2022
1672 Clouds 19 1013 34 10000 4.12 140 22:29 11.06.2022
1673 Clouds 19 1012 34 10000 4.12 140 21:18 11.06.2022
1674 Clouds 19 1012 34 10000 4.12 150 20:26 11.06.2022
1675 Clouds 19 1012 36 10000 3.6 150 19:33 11.06.2022
1676 Clouds 20 1013 34 10000 3.09 150 18:42 11.06.2022
1677 Clouds 20 1013 34 10000 3.09 150 18:24 11.06.2022
1678 Clouds 21 1013 31 10000 3.09 150 17:38 11.06.2022
1679 Clouds 21 1013 31 10000 3.09 150 17:19 11.06.2022
1680 Clear 22 1013 34 10000 2.57 150 16:42 11.06.2022
1681 Clear 22 1013 34 10000 3.6 160 15:47 11.06.2022
1682 Clear 22 1013 64 10000 2.57 190 14:23 11.06.2022
1683 Clear 21 1013 64 10000 0 0 13:47 11.06.2022
1684 Clear 24 1012 46 10000 1.54 310 11:46 11.06.2022
1685 Clear 28 1011 26 10000 2.57 310 10:30 11.06.2022
1686 Clouds 28 1010 29 10000 0.4 322 09:40 11.06.2022
1687 Clear 30 1011 22 10000 1.54 190 08:21 11.06.2022
1688 Clear 28 1013 25 10000 2.57 90 06:32 11.06.2022
1689 Clear 26 1013 27 10000 4.63 130 05:26 11.06.2022
1690 Clear 22 1014 32 10000 5.14 140 02:42 11.06.2022
1691 Clear 20 1014 37 10000 4.63 140 01:41 11.06.2022
1692 Clear 18 1014 41 10000 4.12 140 00:54 11.06.2022
1693 Clear 18 1013 40 10000 3.6 130 22:55 10.06.2022
1694 Clear 18 1012 40 10000 3.6 140 22:20 10.06.2022
1695 Clouds 19 1012 38 10000 4.63 140 21:22 10.06.2022
1696 Clouds 20 1012 38 10000 4.12 140 20:37 10.06.2022
1697 Clouds 20 1012 38 10000 4.12 140 20:19 10.06.2022
1698 Clouds 20 1013 41 10000 4.12 140 19:19 10.06.2022
1699 Clouds 21 1013 38 10000 4.12 150 18:29 10.06.2022
1700 Clouds 21 1013 39 10000 3.6 150 17:42 10.06.2022
1701 Clear 21 1013 39 10000 3.6 150 16:59 10.06.2022
1702 Clear 22 1013 38 10000 5.14 160 16:25 10.06.2022
1703 Clear 22 1014 38 10000 4.63 160 15:37 10.06.2022
1704 Clear 24 1014 40 10000 3.09 140 13:57 10.06.2022
1705 Clear 25 1013 36 10000 2.57 160 12:50 10.06.2022
1706 Clear 27 1012 31 10000 2.06 150 11:43 10.06.2022
1707 Clear 28 1011 29 10000 4.12 140 10:45 10.06.2022
1708 Clear 30 1010 24 10000 4.12 140 09:54 10.06.2022
1709 Clouds 30 1010 24 10000 5.36 150 08:42 10.06.2022
1710 Clear 31 1010 24 10000 5.14 140 07:26 10.06.2022
1711 Clear 30 1011 25 10000 6.17 140 06:44 10.06.2022
1712 Clear 29 1011 25 10000 5.66 120 06:25 10.06.2022
1713 Clear 26 1014 29 10000 6.17 130 03:55 10.06.2022
1714 Clear 21 1014 37 10000 5.66 150 01:41 10.06.2022
1715 Clouds 20 1013 43 10000 4.02 140 00:32 10.06.2022
1716 Clear 20 1013 44 10000 4.12 140 23:47 09.06.2022
1717 Clear 21 1012 41 10000 5.14 150 22:18 09.06.2022
1718 Clouds 22 1012 39 10000 4.63 130 21:33 09.06.2022
1719 Clouds 22 1012 38 10000 4.63 130 20:54 09.06.2022
1720 Clouds 22 1012 39 10000 3.6 130 20:21 09.06.2022
1721 Clouds 22 1013 43 10000 4.12 130 19:21 09.06.2022
1722 Clouds 22 1013 46 10000 4.12 140 18:28 09.06.2022
1723 Clear 23 1013 48 10000 2.57 150 16:56 09.06.2022
1724 Clear 24 1013 51 10000 4.12 150 15:49 09.06.2022
1725 Clear 23 1013 56 10000 1.54 80 14:35 09.06.2022
1726 Clear 24 1013 53 10000 1.54 70 13:54 09.06.2022
1727 Clear 24 1012 53 10000 2.06 70 13:28 09.06.2022
1728 Clear 27 1011 45 10000 2.06 90 11:54 09.06.2022
1729 Clear 29 1011 37 10000 3.6 110 11:19 09.06.2022
1730 Clear 31 1010 35 10000 5.14 130 09:45 09.06.2022
1731 Clear 31 1009 34 10000 5.14 110 09:24 09.06.2022
1732 Clear 31 1009 34 10000 6.71 120 07:52 09.06.2022
1733 Clear 30 1010 37 10000 6.71 130 06:41 09.06.2022
1734 Clear 26 1013 45 10000 7.2 120 03:19 09.06.2022
1735 Clear 22 1012 59 10000 4.63 140 23:48 08.06.2022
1736 Clear 22 1012 61 10000 4.63 140 22:58 08.06.2022
1737 Clear 23 1011 58 10000 4.12 140 22:27 08.06.2022
1738 Clouds 23 1011 57 10000 3.6 130 21:55 08.06.2022
1739 Clouds 24 1011 57 10000 4.63 130 21:23 08.06.2022
1740 Clouds 24 1011 59 10000 4.63 120 20:22 08.06.2022
1741 Clouds 24 1011 63 10000 3.6 130 19:39 08.06.2022
1742 Clouds 25 1012 64 10000 3.6 130 18:47 08.06.2022
1743 Clouds 27 1013 64 10000 4.02 110 17:25 08.06.2022
1744 Clear 26 1012 78 10000 2.57 120 15:48 08.06.2022
1745 Clear 26 1012 74 10000 2.57 50 13:52 08.06.2022
1746 Clear 28 1011 69 10000 3.6 50 12:22 08.06.2022
1747 Clouds 29 1012 64 10000 4.63 40 11:33 08.06.2022
1748 Clear 31 1009 55 10000 4.63 70 10:20 08.06.2022
1749 Clear 32 1009 48 10000 4.63 90 09:22 08.06.2022
1750 Clear 33 1009 47 10000 4.12 100 08:40 08.06.2022
1751 Clouds 32 1012 49 10000 7.72 90 05:55 08.06.2022
1752 Clouds 30 1013 57 10000 7.2 110 03:58 08.06.2022
1753 Clear 27 1013 81 10000 3.6 90 00:45 08.06.2022
1754 Clear 25 1011 89 10000 2.57 110 23:29 07.06.2022
1755 Clouds 25 1011 94 10000 2.57 130 22:45 07.06.2022
1756 Clouds 25 1013 94 10000 2.06 130 22:26 07.06.2022
1757 Clouds 25 1010 90 10000 2.57 150 21:34 07.06.2022
1758 Clouds 24 1010 94 10000 1.54 110 20:58 07.06.2022
1759 Clouds 25 1011 94 10000 1.54 90 20:32 07.06.2022
1760 Clouds 25 1011 93 10000 1.54 70 19:38 07.06.2022
1761 Clouds 25 1011 91 10000 1.54 70 18:23 07.06.2022
1762 Clouds 26 1013 89 10000 2.06 190 17:27 07.06.2022
1763 Clouds 26 1011 89 10000 1.34 210 16:43 07.06.2022
1764 Clear 26 1011 89 10000 1.54 210 15:54 07.06.2022
1765 Clear 27 1011 86 10000 2.57 210 15:26 07.06.2022
1766 Clouds 26 1011 87 10000 1.89 77 14:51 07.06.2022
1767 Clouds 26 1011 87 10000 1.89 77 14:32 07.06.2022
1768 Clear 28 1011 78 10000 0 0 13:31 07.06.2022
1769 Clear 28 1010 80 10000 2.06 20 12:52 07.06.2022
1770 Clear 28 1010 78 10000 2.06 360 11:47 07.06.2022
1771 Clouds 30 1009 72 10000 4.12 350 10:27 07.06.2022
1772 Clear 33 1008 56 10000 3.6 350 08:50 07.06.2022
1773 Clouds 34 1008 50 10000 0.89 231 07:34 07.06.2022
1774 Clouds 33 1011 52 10000 5.14 140 06:22 07.06.2022
1775 Clear 31 1014 67 10000 2.24 70 03:32 07.06.2022
1776 Clouds 25 1011 94 10000 2.06 100 00:45 07.06.2022
1777 Clouds 25 1011 94 10000 2.06 90 23:46 06.06.2022
1778 Clouds 25 1010 94 10000 2.06 80 22:54 06.06.2022
1779 Clear 25 1010 94 10000 1.54 70 22:28 06.06.2022
1780 Clouds 24 1009 94 10000 1.54 160 20:42 06.06.2022
1781 Clouds 25 1010 94 10000 1.54 140 19:24 06.06.2022
1782 Clouds 25 1010 92 10000 1.54 140 18:48 06.06.2022
1783 Clouds 25 1010 92 10000 0 0 17:59 06.06.2022
1784 Clouds 25 1010 90 10000 0 0 16:57 06.06.2022
1785 Clouds 25 1010 90 10000 0 0 16:57 06.06.2022
1786 Clear 26 1010 87 10000 1.54 230 15:57 06.06.2022
1787 Clear 27 1010 87 10000 2.06 250 14:59 06.06.2022
1788 Clear 27 1010 87 10000 1.54 260 14:26 06.06.2022
1789 Clear 27 1010 83 10000 1.03 280 13:20 06.06.2022
1790 Clear 28 1009 80 10000 2.57 300 12:35 06.06.2022
1791 Clear 28 1009 78 10000 2.57 330 11:49 06.06.2022
1792 Clouds 30 1009 70 10000 4.63 350 09:53 06.06.2022
1793 Clouds 31 1009 69 10000 4.12 350 09:23 06.06.2022
1794 Clouds 32 1007 70 10000 4.02 318 08:31 06.06.2022
1795 Clouds 32 1008 62 10000 2.06 290 07:24 06.06.2022
1796 Clouds 31 1010 66 10000 2.57 170 04:42 06.06.2022
1797 Clouds 29 1010 81 10000 2.57 150 02:27 06.06.2022
1798 Clouds 26 1010 93 10000 2.06 130 00:57 06.06.2022
1799 Clouds 25 1010 93 10000 2.06 130 00:35 06.06.2022
1800 Clouds 25 1010 93 10000 1.03 130 23:28 05.06.2022
1801 Clouds 25 1010 93 10000 2.06 140 22:33 05.06.2022
1802 Clouds 25 1010 91 10000 1.54 210 20:40 05.06.2022
1803 Clouds 26 1011 89 10000 1.03 250 19:26 05.06.2022
1804 Clouds 25 1011 91 10000 1.54 260 18:26 05.06.2022
1805 Clouds 26 1011 89 10000 1.54 260 17:50 05.06.2022
1806 Clouds 26 1011 87 10000 1.54 260 17:23 05.06.2022
1807 Clear 26 1011 87 10000 1.54 270 16:49 05.06.2022
1808 Clouds 26 1011 90 10000 0 0 15:50 05.06.2022
1809 Clouds 26 1011 86 10000 0.51 340 14:22 05.06.2022
1810 Clouds 27 1011 83 10000 0.51 340 12:43 05.06.2022
1811 Clouds 28 1011 78 10000 3.09 350 11:35 05.06.2022
1812 Clouds 29 1011 74 10000 4.63 360 10:25 05.06.2022
1813 Clouds 29 1009 74 10000 4.63 360 09:58 05.06.2022
1814 Clouds 30 1009 71 10000 4.63 360 08:26 05.06.2022
1815 Clouds 32 1011 62 10000 4.63 320 06:54 05.06.2022
1816 Clouds 32 1012 64 10000 2.68 80 05:20 05.06.2022
1817 Clouds 30 1012 72 10000 3.6 90 03:43 05.06.2022
1818 Clouds 27 1014 85 10000 3.09 120 01:32 05.06.2022
1819 Clouds 25 1014 94 10000 1.54 120 23:58 04.06.2022
1820 Clouds 25 1010 93 10000 1.54 160 21:58 04.06.2022
1821 Clouds 25 1012 91 10000 1.03 130 20:21 04.06.2022
1822 Clouds 25 1011 91 10000 0.51 360 18:18 04.06.2022
1823 Clouds 26 1011 89 10000 2.06 360 16:43 04.06.2022
1824 Clouds 26 1012 89 10000 1.54 340 16:18 04.06.2022
1825 Clouds 28 1011 83 10000 3.6 330 14:47 04.06.2022
1826 Clear 28 1010 77 10000 2.57 10 12:28 04.06.2022
1827 Clear 29 1010 77 10000 4.12 360 11:18 04.06.2022
1828 Clouds 29 1011 73 10000 3.6 20 10:43 04.06.2022
1829 Clouds 30 1009 68 10000 5.14 360 09:42 04.06.2022
1830 Thunderstorm 32 1009 61 10000 4.92 360 08:41 04.06.2022
1831 Clouds 32 1009 57 10000 4.12 310 07:40 04.06.2022
1832 Clouds 32 1012 59 10000 2.57 320 04:57 04.06.2022
1833 Clouds 27 1011 82 10000 1.03 140 01:27 04.06.2022
1834 Clouds 25 1012 94 10000 1.34 150 23:59 03.06.2022
1835 Clouds 25 1011 94 10000 1.03 150 22:40 03.06.2022
1836 Clouds 26 1011 89 10000 1.03 160 21:24 03.06.2022
1837 Clouds 26 1011 94 10000 1.54 160 20:33 03.06.2022
1838 Clouds 25 1011 93 10000 1.03 190 18:27 03.06.2022
1839 Clear 26 1011 85 10000 0.51 210 16:47 03.06.2022
1840 Clear 26 1011 83 10000 1.03 10 15:23 03.06.2022
1841 Clear 28 1011 76 10000 2.57 20 13:22 03.06.2022
1842 Clouds 28 1009 76 10000 2.57 360 11:40 03.06.2022
1843 Clouds 32 1008 60 10000 3.09 340 09:45 03.06.2022
1844 Clouds 32 1008 60 10000 3.09 340 09:24 03.06.2022
1845 Clouds 32 1009 51 10000 4.63 250 07:27 03.06.2022
1846 Clouds 32 1010 56 10000 3.09 120 06:35 03.06.2022
1847 Clouds 32 1011 57 10000 3.09 50 05:52 03.06.2022
1848 Clouds 25 1015 89 10000 2.06 110 00:41 03.06.2022
1849 Clouds 25 1015 89 10000 2.06 130 22:47 02.06.2022
1850 Clouds 25 1015 88 10000 2.06 140 21:51 02.06.2022
1851 Clouds 24 1011 91 10000 1.54 100 20:22 02.06.2022
1852 Clouds 24 1011 91 10000 1.54 100 20:22 02.06.2022
1853 Clouds 24 1011 91 10000 1.54 110 19:50 02.06.2022
1854 Clouds 24 1011 91 10000 1.03 150 19:32 02.06.2022
1855 Clear 26 1011 85 10000 1.54 90 17:35 02.06.2022
1856 Clear 25 1011 86 10000 1.54 50 16:28 02.06.2022
1857 Clear 27 1011 79 10000 2.06 40 14:22 02.06.2022
1858 Clear 27 1011 79 10000 2.57 40 13:30 02.06.2022
1859 Clouds 28 1010 70 10000 4.12 40 12:21 02.06.2022
1860 Clear 30 1010 57 10000 4.63 60 10:20 02.06.2022
1861 Clouds 31 1012 53 10000 4.63 60 09:28 02.06.2022
1862 Clouds 32 1012 56 10000 5.14 50 08:27 02.06.2022
1863 Clouds 32 1010 55 10000 5.14 50 07:33 02.06.2022
1864 Clouds 31 1011 63 10000 5.66 60 04:54 02.06.2022
1865 Clouds 30 1012 70 10000 5.66 50 03:45 02.06.2022
1866 Clouds 25 1015 89 10000 3.6 110 23:52 01.06.2022
1867 Clear 25 1011 89 10000 1.54 80 22:51 01.06.2022
1868 Clouds 25 1011 93 10000 1.54 70 21:39 01.06.2022
1869 Clouds 25 1011 92 10000 1.54 70 21:19 01.06.2022
1870 Clouds 25 1011 90 10000 2.57 40 20:37 01.06.2022
1871 Clouds 26 1011 91 10000 1.54 20 19:31 01.06.2022
1872 Clouds 25 1011 92 10000 0 0 17:46 01.06.2022
1873 Clear 26 1011 90 10000 0 0 16:40 01.06.2022
1874 Clear 26 1011 86 10000 2.06 40 15:18 01.06.2022
1875 Clear 27 1011 84 10000 2.57 60 13:54 01.06.2022
1876 Clear 28 1010 77 10000 2.06 60 12:29 01.06.2022
1877 Clear 30 1009 68 10000 4.63 30 10:25 01.06.2022
1878 Clouds 31 1009 66 10000 4.63 10 09:25 01.06.2022
1879 Clouds 32 1009 58 10000 5.14 20 07:25 01.06.2022
1880 Clouds 31 1009 61 10000 5.66 60 06:40 01.06.2022
1881 Clouds 26 1012 89 10000 2.57 120 01:30 01.06.2022
1882 Clouds 25 1011 93 10000 1.54 100 23:41 31.05.2022
1883 Clear 25 1010 93 10000 0 0 22:37 31.05.2022
1884 Clouds 25 1010 93 10000 0 0 21:46 31.05.2022
1885 Clouds 25 1010 91 10000 0 0 20:52 31.05.2022
1886 Clouds 25 1010 91 10000 1.03 340 20:31 31.05.2022
1887 Clouds 26 1011 86 10000 1.54 330 18:54 31.05.2022
1888 Clouds 27 1010 85 10000 2.57 10 17:51 31.05.2022
1889 Clouds 27 1011 85 10000 2.57 360 17:31 31.05.2022
1890 Clouds 26 1011 87 10000 2.06 20 15:42 31.05.2022
1891 Clouds 27 1010 87 10000 3.32 12 14:34 31.05.2022
1892 Clear 28 1009 77 10000 1.54 60 12:22 31.05.2022
1893 Clouds 29 1008 71 10000 3.58 50 11:42 31.05.2022
1894 Clouds 31 1008 61 10000 4.63 30 09:50 31.05.2022
1895 Clouds 29 1009 79 10000 3.09 240 07:41 31.05.2022
1896 Clouds 29 1009 79 10000 3.09 240 07:41 31.05.2022
1897 Clouds 31 1010 68 10000 3.09 360 05:24 31.05.2022
1898 Clouds 30 1011 75 10000 3.09 40 02:33 31.05.2022
1899 Fog 25 1008 93 10000 1.03 40 23:29 30.05.2022
1900 Clouds 25 1009 93 10000 1.03 10 22:59 30.05.2022
1901 Clear 25 1009 89 10000 1.54 10 22:31 30.05.2022
1902 Clouds 25 1009 92 10000 1.54 360 21:35 30.05.2022
1903 Clouds 26 1009 89 10000 2.06 10 20:31 30.05.2022
1904 Clouds 26 1009 89 10000 1.54 350 19:26 30.05.2022
1905 Clouds 26 1010 85 10000 2.06 10 17:44 30.05.2022
1906 Clouds 25 1010 86 10000 2.06 10 17:18 30.05.2022
1907 Clear 26 1010 81 10000 2.06 30 15:44 30.05.2022
1908 Clouds 28 1006 78 10000 2.57 360 12:58 30.05.2022
1909 Clouds 28 1009 71 10000 3.09 340 11:26 30.05.2022
1910 Clouds 31 1008 62 10000 3.6 330 09:39 30.05.2022
1911 Clouds 28 1006 69 10000 2.57 60 07:24 30.05.2022
1912 Clouds 30 1009 66 10000 5.14 340 05:51 30.05.2022
1913 Clouds 30 1011 67 10000 1.03 10 03:18 30.05.2022
1914 Clouds 24 1010 89 10000 1.79 150 23:32 29.05.2022
1915 Clouds 24 1008 89 10000 1.54 150 22:40 29.05.2022
1916 Clouds 24 1009 92 10000 2.57 150 21:40 29.05.2022
1917 Clouds 25 1010 90 10000 2.57 170 20:18 29.05.2022
1918 Clouds 25 1010 88 10000 2.06 180 19:28 29.05.2022
1919 Clouds 25 1010 85 10000 1.79 10 17:56 29.05.2022
1920 Clear 25 1010 82 10000 1.03 40 15:59 29.05.2022
1921 Clear 24 1010 85 10000 1.54 20 15:40 29.05.2022
1922 Clear 25 1010 81 10000 1.54 30 14:49 29.05.2022
1923 Clear 26 1009 73 10000 2.57 30 12:21 29.05.2022
1924 Clouds 28 1008 66 10000 3.6 30 10:56 29.05.2022
1925 Clouds 30 1007 62 10000 4.12 20 09:54 29.05.2022
1926 Clouds 33 1008 54 10000 4.12 10 07:55 29.05.2022
1927 Clouds 31 1011 55 10000 5.36 80 04:58 29.05.2022
1928 Clouds 30 1011 56 10000 5.36 80 04:32 29.05.2022
1929 Clouds 25 1012 77 10000 4.12 110 01:23 29.05.2022
1930 Clouds 23 1011 85 10000 2.57 140 23:47 28.05.2022
1931 Clouds 23 1010 85 10000 2.57 150 23:19 28.05.2022
1932 Clear 21 1010 94 10000 1.03 160 21:52 28.05.2022
1933 Clouds 22 1010 91 10000 1.03 160 20:53 28.05.2022
1934 Clear 22 1010 91 10000 0 0 19:20 28.05.2022
1935 Clear 23 1011 91 10000 2.06 160 18:23 28.05.2022
1936 Clear 23 1011 87 10000 0.51 60 17:33 28.05.2022
1937 Clear 24 1011 83 10000 1.03 40 15:50 28.05.2022
1938 Clear 24 1011 83 10000 1.03 40 15:20 28.05.2022
1939 Clear 25 1010 72 10000 1.54 10 13:36 28.05.2022
1940 Clear 26 1010 73 10000 1.54 10 12:43 28.05.2022
1941 Clear 27 1009 66 10000 2.57 360 11:37 28.05.2022
1942 Clear 29 1009 59 10000 2.57 360 10:39 28.05.2022
1943 Clear 31 1008 54 10000 3.09 10 09:54 28.05.2022
1944 Clear 32 1008 38 10000 2.06 110 08:33 28.05.2022
1945 Clear 32 1009 33 10000 3.6 60 06:50 28.05.2022
1946 Clear 31 1011 39 10000 5.66 90 05:18 28.05.2022
1947 Clear 27 1012 57 10000 5.14 80 02:26 28.05.2022
1948 Clear 22 1011 67 10000 4.12 100 23:57 27.05.2022
1949 Clear 22 1011 67 10000 3.6 130 22:48 27.05.2022
1950 Clouds 21 1011 74 10000 2.57 130 21:29 27.05.2022
1951 Clouds 21 1011 81 10000 1.54 130 20:45 27.05.2022
1952 Clouds 21 1011 84 10000 1.54 120 20:19 27.05.2022
1953 Clouds 21 1011 89 10000 1.54 170 19:38 27.05.2022
1954 Clouds 22 1011 87 10000 1.54 170 19:19 27.05.2022
1955 Clouds 23 1012 78 10000 1.54 200 17:19 27.05.2022
1956 Clear 24 1012 73 10000 1.54 150 15:57 27.05.2022
1957 Clear 24 1012 76 10000 0.51 70 14:57 27.05.2022
1958 Clear 24 1011 71 10000 1.54 70 13:40 27.05.2022
1959 Clear 26 1011 60 10000 1.54 70 12:20 27.05.2022
1960 Clouds 26 1010 61 10000 2.41 3 11:30 27.05.2022
1961 Clear 30 1009 42 10000 3.09 70 10:41 27.05.2022
1962 Clear 31 1009 37 10000 4.12 70 09:59 27.05.2022
1963 Clouds 31 1011 37 10000 3.58 120 09:30 27.05.2022
1964 Clear 32 1010 34 10000 5.66 110 07:39 27.05.2022
1965 Clear 32 1010 34 10000 5.66 110 07:39 27.05.2022
1966 Clear 29 1013 44 10000 5.14 120 03:59 27.05.2022
1967 Clear 26 1012 61 10000 5.14 80 01:27 27.05.2022
1968 Clear 23 1011 78 10000 1.54 90 23:23 26.05.2022
1969 Clouds 23 1010 88 10000 1.54 90 21:57 26.05.2022
1970 Clouds 23 1010 90 10000 2.06 130 21:27 26.05.2022
1971 Clouds 24 1010 92 10000 2.06 190 19:34 26.05.2022
1972 Clouds 24 1010 91 10000 2.57 180 18:51 26.05.2022
1973 Clouds 24 1011 85 10000 1.79 170 17:36 26.05.2022
1974 Clear 24 1011 83 10000 1.54 180 16:30 26.05.2022
1975 Clear 25 1011 73 10000 1.54 180 15:28 26.05.2022
1976 Clear 25 1011 78 10000 1.03 60 14:19 26.05.2022
1977 Clear 26 1009 77 10000 1.54 30 12:18 26.05.2022
1978 Clouds 28 1012 67 10000 3.6 20 11:20 26.05.2022
1979 Clouds 31 1008 61 10000 4.63 350 09:39 26.05.2022
1980 Clouds 31 1009 62 10000 4.12 350 08:48 26.05.2022
1981 Clouds 31 1009 62 10000 4.12 350 08:48 26.05.2022
1982 Clouds 32 1010 43 10000 2.06 280 06:47 26.05.2022
1983 Clouds 28 1013 78 10000 2.57 110 02:51 26.05.2022
1984 Clouds 24 1011 94 10000 1.03 50 23:58 25.05.2022
1985 Clear 24 1010 94 10000 1.03 50 22:53 25.05.2022
1986 Clouds 23 1010 94 10000 1.03 50 21:42 25.05.2022
1987 Clouds 23 1010 93 10000 1.03 50 20:50 25.05.2022
1988 Clouds 24 1010 91 10000 1.34 50 19:45 25.05.2022
1989 Clouds 24 1011 89 10000 1.54 50 18:48 25.05.2022
1990 Clear 25 1011 87 10000 0 0 17:26 25.05.2022
1991 Clear 24 1012 89 10000 0 0 16:34 25.05.2022
1992 Clear 25 1012 87 10000 0.45 10 15:36 25.05.2022
1993 Clouds 25 1012 85 10000 0.51 10 14:50 25.05.2022
1994 Clear 26 1012 82 10000 1.03 360 14:32 25.05.2022
1995 Clear 27 1011 78 10000 1.54 320 13:23 25.05.2022
1996 Clear 28 1009 72 10000 3.58 10 11:50 25.05.2022
1997 Clear 29 1009 66 10000 4.12 360 10:42 25.05.2022
1998 Clear 31 1009 62 10000 4.12 360 09:46 25.05.2022
1999 Clouds 33 1009 53 10000 1.79 160 08:21 25.05.2022
2000 Clouds 34 1009 44 10000 1.54 14 06:37 25.05.2022
2001 Clear 31 1013 63 10000 3.6 180 02:46 25.05.2022
2002 Fog 24 1012 93 10000 1.54 190 23:52 24.05.2022
2003 Fog 25 1012 89 10000 1.03 200 23:23 24.05.2022
2004 Clear 26 1012 88 10000 2.57 190 22:18 24.05.2022
2005 Clouds 26 1012 84 10000 2.57 190 21:38 24.05.2022
2006 Clouds 26 1012 84 10000 2.57 190 21:19 24.05.2022
2007 Clouds 25 1012 91 10000 2.06 200 19:32 24.05.2022
2008 Clouds 25 1013 91 10000 1.54 190 18:40 24.05.2022
2009 Clouds 25 1014 87 10000 3.79 204 16:40 24.05.2022
2010 Clouds 26 1014 83 10000 1.54 180 15:54 24.05.2022
2011 Clouds 26 1014 82 10000 0 0 14:45 24.05.2022
2012 Clear 26 1014 81 10000 1.54 360 13:48 24.05.2022
2013 Clear 27 1012 77 10000 3.09 10 12:35 24.05.2022
2014 Clouds 30 1011 60 10000 3.09 350 10:18 24.05.2022
2015 Clear 32 1010 58 10000 3.6 330 09:41 24.05.2022
2016 Clear 33 1010 51 10000 4.12 330 08:43 24.05.2022
2017 Clear 33 1011 44 10000 2.57 100 06:45 24.05.2022
2018 Clear 31 1013 52 10000 5.14 80 03:48 24.05.2022
2019 Clouds 27 1013 66 10000 5.14 80 01:49 24.05.2022
2020 Clouds 26 1013 76 10000 2.57 100 00:57 24.05.2022
2021 Clouds 23 1012 73 10000 1.54 170 22:50 23.05.2022
2022 Clouds 23 1011 80 10000 1.54 80 21:54 23.05.2022
2023 Clouds 22 1011 89 10000 0.51 80 20:59 23.05.2022
2024 Clouds 22 1011 86 10000 1.03 170 20:26 23.05.2022
2025 Clouds 23 1011 83 10000 1.03 160 19:31 23.05.2022
2026 Clouds 23 1011 86 10000 0 0 18:54 23.05.2022
2027 Clouds 24 1011 83 10000 1.54 160 18:27 23.05.2022
2028 Clouds 25 1012 79 10000 2.06 190 17:18 23.05.2022
2029 Clear 26 1012 73 10000 0 0 14:52 23.05.2022
2030 Clear 26 1011 72 10000 2.57 40 12:50 23.05.2022
2031 Clear 29 1010 54 10000 2.06 80 11:31 23.05.2022
2032 Clear 33 1009 38 10000 4.12 110 09:50 23.05.2022
2033 Clear 33 1009 38 10000 3.09 130 09:28 23.05.2022
2034 Clear 34 1009 39 10000 3.09 120 08:20 23.05.2022
2035 Clear 34 1010 36 10000 3.09 100 06:45 23.05.2022
2036 Clear 32 1011 40 10000 3.6 110 05:25 23.05.2022
2037 Clouds 29 1013 67 10000 4.12 70 02:23 23.05.2022
2038 Clear 27 1013 72 10000 2.57 70 01:37 23.05.2022
2039 Clouds 22 1012 68 10000 2.57 120 23:51 22.05.2022
2040 Clear 23 1011 67 10000 2.06 140 22:36 22.05.2022
2041 Clouds 23 1011 74 10000 2.57 130 21:55 22.05.2022
2042 Clouds 22 1011 86 10000 2.06 90 20:54 22.05.2022
2043 Clouds 22 1010 89 10000 1.54 90 20:31 22.05.2022
2044 Clouds 23 1010 86 10000 1.03 100 19:56 22.05.2022
2045 Clouds 25 1011 80 10000 2.57 160 18:55 22.05.2022
2046 Clouds 25 1011 86 10000 3.09 190 18:25 22.05.2022
2047 Clouds 25 1011 86 10000 3.09 200 17:34 22.05.2022
2048 Clouds 25 1011 80 10000 1.54 170 16:36 22.05.2022
2049 Clear 25 1011 80 10000 2.57 140 14:49 22.05.2022
2050 Clear 26 1011 74 10000 1.54 40 13:48 22.05.2022
2051 Clear 27 1010 69 10000 2.57 40 12:52 22.05.2022
2052 Clear 28 1009 66 10000 3.09 20 11:47 22.05.2022
2053 Clear 32 1008 40 10000 3.6 100 09:45 22.05.2022
2054 Clear 33 1008 37 10000 4.63 90 08:54 22.05.2022
2055 Clear 33 1009 37 10000 4.63 100 07:22 22.05.2022
2056 Clear 33 1010 39 10000 5.14 100 06:24 22.05.2022
2057 Clear 29 1013 58 10000 4.12 130 02:33 22.05.2022
2058 Clouds 25 1012 80 10000 2.57 150 00:44 22.05.2022
2059 Clouds 25 1012 80 10000 2.57 150 00:44 22.05.2022
2060 Clouds 25 1012 83 10000 2.57 150 23:55 21.05.2022
2061 Clear 25 1011 82 10000 1.54 170 23:21 21.05.2022
2062 Clouds 25 1009 81 10000 2.06 80 21:47 21.05.2022
2063 Clouds 25 1009 88 10000 1.03 70 21:26 21.05.2022
2064 Clouds 24 1010 90 10000 0 0 20:25 21.05.2022
2065 Clouds 24 1011 89 10000 1.03 40 19:37 21.05.2022
2066 Clouds 25 1011 89 10000 1.03 40 18:21 21.05.2022
2067 Clear 26 1011 82 10000 1.54 230 16:55 21.05.2022
2068 Clear 26 1011 77 10000 0 0 14:38 21.05.2022
2069 Clear 26 1011 78 10000 0.51 50 13:54 21.05.2022
2070 Clear 27 1010 72 10000 2.57 50 12:57 21.05.2022
2071 Clear 27 1010 72 10000 2.57 40 12:37 21.05.2022
2072 Clouds 30 1009 63 10000 4.63 30 10:53 21.05.2022
2073 Clear 32 1008 45 10000 4.12 90 09:49 21.05.2022
2074 Clear 33 1008 41 10000 5.66 110 08:58 21.05.2022
2075 Clear 33 1009 42 10000 5.36 110 08:34 21.05.2022
2076 Clear 32 1011 51 10000 5.81 110 05:29 21.05.2022
2077 Clouds 27 1013 79 10000 2.57 120 01:24 21.05.2022
2078 Clouds 25 1012 89 10000 1.54 150 23:29 20.05.2022
2079 Clouds 25 1012 93 10000 1.03 140 22:24 20.05.2022
2080 Clear 25 1012 94 10000 1.54 120 21:55 20.05.2022
2081 Clouds 25 1011 90 10000 1.03 140 20:58 20.05.2022
2082 Clouds 25 1011 90 10000 1.03 140 20:58 20.05.2022
2083 Clouds 25 1016 90 10000 1.54 150 20:29 20.05.2022
2084 Clouds 26 1012 90 10000 2.06 160 19:29 20.05.2022
2085 Clouds 25 1012 90 10000 1.54 170 18:47 20.05.2022
2086 Clouds 26 1012 85 10000 1.34 140 17:43 20.05.2022
2087 Clear 26 1012 79 10000 1.54 170 16:21 20.05.2022
2088 Clear 26 1012 83 10000 0 0 15:53 20.05.2022
2089 Clear 27 1012 78 10000 1.54 190 14:31 20.05.2022
2090 Clear 26 1012 80 10000 2.57 180 13:56 20.05.2022
2091 Clear 28 1011 73 10000 3.6 40 11:49 20.05.2022
2092 Clouds 30 1010 64 10000 5.14 40 10:24 20.05.2022
2093 Clear 33 1009 48 10000 5.14 90 08:58 20.05.2022
2094 Clear 32 1010 48 10000 4.63 90 07:40 20.05.2022
2095 Clear 33 1011 50 10000 3.58 70 06:38 20.05.2022
2096 Clouds 32 1012 54 10000 4.12 100 05:28 20.05.2022
2097 Clouds 25 1014 80 10000 1.34 110 00:54 20.05.2022
2098 Clouds 23 1013 84 10000 1.54 80 23:28 19.05.2022
2099 Clear 23 1012 88 10000 1.03 80 22:33 19.05.2022
2100 Clear 23 1012 85 10000 1.03 60 21:49 19.05.2022
2101 Clear 23 1012 85 10000 1.03 60 21:23 19.05.2022
2102 Clear 23 1012 87 10000 0 0 20:40 19.05.2022
2103 Clear 23 1012 86 10000 1.03 60 19:54 19.05.2022
2104 Clear 24 1013 85 10000 2.57 50 18:58 19.05.2022
2105 Clear 24 1013 84 10000 1.03 220 17:35 19.05.2022
2106 Clear 25 1013 83 10000 0 0 15:33 19.05.2022
2107 Clear 25 1013 77 10000 1.23 197 14:30 19.05.2022
2108 Clear 25 1013 76 10000 0 0 13:53 19.05.2022
2109 Clear 27 1012 72 10000 2.06 350 11:52 19.05.2022
2110 Clouds 29 1011 66 10000 3.6 360 10:25 19.05.2022
2111 Clouds 32 1010 57 10000 3.6 320 08:31 19.05.2022
2112 Clouds 32 1012 57 10000 4.12 310 06:39 19.05.2022
2113 Clouds 29 1014 58 10000 2.06 170 02:59 19.05.2022
2114 Clouds 25 1014 90 10000 2.06 140 00:56 19.05.2022
2115 Clouds 24 1013 94 10000 1.03 170 23:00 18.05.2022
2116 Clouds 24 1013 89 10000 0 0 22:40 18.05.2022
2117 Clouds 23 1013 93 10000 1.54 170 21:32 18.05.2022
2118 Clouds 24 1013 92 10000 2.57 170 20:55 18.05.2022
2119 Clouds 24 1013 91 10000 3.09 170 20:19 18.05.2022
2120 Clouds 24 1013 91 10000 2.06 160 18:47 18.05.2022
2121 Clouds 25 1014 87 10000 2.06 170 17:41 18.05.2022
2122 Clouds 25 1014 86 10000 2.06 170 17:23 18.05.2022
2123 Clear 24 1014 86 10000 1.54 170 16:36 18.05.2022
2124 Clear 25 1014 82 10000 0.89 30 15:43 18.05.2022
2125 Clear 25 1014 84 10000 0.51 30 15:19 18.05.2022
2126 Clear 26 1013 76 10000 0 0 13:53 18.05.2022
2127 Clear 26 1013 73 10000 1.54 30 12:53 18.05.2022
2128 Clear 28 1012 68 10000 3.6 40 11:47 18.05.2022
2129 Clear 28 1012 65 10000 4.12 40 11:29 18.05.2022
2130 Clear 31 1011 60 10000 5.66 20 10:36 18.05.2022
2131 Clear 33 1011 41 10000 4.92 70 07:56 18.05.2022
2132 Clear 33 1012 41 10000 6.17 80 06:52 18.05.2022
2133 Clouds 30 1015 61 10000 5.14 90 03:34 18.05.2022
2134 Clear 25 1014 83 10000 2.57 100 00:41 18.05.2022
2135 Clear 25 1013 85 10000 2.06 130 23:21 17.05.2022
2136 Clear 24 1013 86 10000 2.57 140 21:21 17.05.2022
2137 Clear 24 1013 87 10000 2.57 130 20:38 17.05.2022
2138 Clear 24 1013 86 10000 0 0 19:30 17.05.2022
2139 Clear 24 1013 88 10000 0.51 140 18:43 17.05.2022
2140 Clear 25 1013 81 10000 2.06 140 17:31 17.05.2022
2141 Clear 25 1013 80 10000 1.03 160 16:55 17.05.2022
2142 Clear 26 1013 80 10000 0.51 80 15:49 17.05.2022
2143 Clear 26 1013 77 10000 2.06 60 14:52 17.05.2022
2144 Clear 27 1012 78 10000 2.06 50 14:28 17.05.2022
2145 Clear 28 1011 76 10000 3.09 30 12:37 17.05.2022
2146 Clouds 30 1010 69 10000 4.63 10 10:23 17.05.2022
2147 Clouds 31 1009 67 10000 4.63 10 08:51 17.05.2022
2148 Clouds 32 1009 65 10000 4.12 30 07:46 17.05.2022
2149 Clouds 32 1010 58 10000 4.12 40 06:21 17.05.2022
2150 Clouds 28 1012 85 10000 3.6 90 01:23 17.05.2022
2151 Clouds 25 1012 90 10000 2.06 120 23:43 16.05.2022
2152 Clouds 26 1010 90 10000 1.54 130 22:33 16.05.2022
2153 Clear 25 1011 90 10000 1.03 130 21:18 16.05.2022
2154 Clear 25 1011 93 10000 1.54 90 20:37 16.05.2022
2155 Clear 26 1010 90 10000 2.06 210 18:46 16.05.2022
2156 Clear 27 1012 85 10000 1.54 250 17:18 16.05.2022
2157 Clouds 27 1012 84 10000 1.54 260 15:29 16.05.2022
2158 Clear 27 1011 82 10000 1.54 250 13:45 16.05.2022
2159 Clouds 28 1009 78 10000 2.57 260 12:37 16.05.2022
2160 Clouds 30 1009 67 10000 4.63 290 10:36 16.05.2022
2161 Clouds 32 1009 62 10000 4.63 310 07:59 16.05.2022
2162 Clouds 33 1011 55 10000 3.09 290 05:46 16.05.2022
2163 Clouds 26 1011 92 10000 1.34 190 00:49 16.05.2022
2164 Clear 25 1010 89 10000 1.03 250 22:44 15.05.2022
2165 Clear 25 1010 94 10000 1.03 250 22:20 15.05.2022
2166 Clear 25 1010 94 10000 1.03 250 21:37 15.05.2022
2167 Clear 25 1010 94 10000 1.03 260 20:47 15.05.2022
2168 Clear 26 1011 86 10000 2.57 240 18:46 15.05.2022
2169 Clear 26 1012 86 10000 2.06 250 16:54 15.05.2022
2170 Clear 27 1012 82 10000 1.54 240 14:58 15.05.2022
2171 Clear 28 1011 81 10000 2.06 270 13:46 15.05.2022
2172 Clear 28 1010 78 10000 3.09 250 12:19 15.05.2022
2173 Clouds 29 1010 76 10000 3.6 270 11:27 15.05.2022
2174 Clouds 31 1009 69 10000 5.14 290 09:58 15.05.2022
2175 Clouds 33 1009 64 10000 5.14 320 07:25 15.05.2022
2176 Clouds 33 1010 63 10000 4.63 310 06:56 15.05.2022
2177 Clouds 29 1013 74 10000 2.06 270 03:40 15.05.2022
2178 Clouds 26 1012 92 10000 1.54 180 00:42 15.05.2022
2179 Fog 25 1012 92 10000 1.54 180 23:38 14.05.2022
2180 Clouds 25 1011 93 10000 1.54 210 22:41 14.05.2022
2181 Clouds 25 1011 89 10000 1.54 240 21:27 14.05.2022
2182 Clouds 25 1011 90 10000 2.06 270 20:30 14.05.2022
2183 Clouds 25 1012 90 10000 1.54 250 19:21 14.05.2022
2184 Clouds 26 1012 88 10000 2.06 280 18:59 14.05.2022
2185 Clouds 26 1012 89 10000 1.54 300 17:53 14.05.2022
2186 Clouds 26 1012 83 10000 1.03 260 16:23 14.05.2022
2187 Clouds 27 1012 83 10000 1.54 240 14:56 14.05.2022
2188 Clear 26 1012 82 10000 2.06 310 14:30 14.05.2022
2189 Clouds 28 1011 76 10000 2.06 310 12:18 14.05.2022
2190 Clouds 30 1009 69 10000 3.09 340 10:53 14.05.2022
2191 Clouds 30 1009 65 10000 3.6 350 10:20 14.05.2022
2192 Clouds 32 1008 62 10000 4.12 350 09:46 14.05.2022
2193 Clouds 33 1008 52 10000 2.68 310 08:22 14.05.2022
2194 Clouds 31 1011 62 10000 4.12 330 05:26 14.05.2022
2195 Clear 29 1012 64 10000 1.03 40 01:57 14.05.2022
2196 Clear 23 1011 92 10000 1.54 150 23:32 13.05.2022
2197 Clear 24 1011 88 10000 1.54 140 22:57 13.05.2022
2198 Clear 24 1010 93 10000 1.54 130 22:23 13.05.2022
2199 Clouds 24 1010 93 10000 0.51 120 21:35 13.05.2022
2200 Clouds 24 1010 92 10000 1.03 130 20:44 13.05.2022
2201 Clouds 25 1010 89 10000 1.34 160 20:23 13.05.2022
2202 Clouds 25 1011 88 10000 1.54 160 19:21 13.05.2022
2203 Clouds 25 1011 86 10000 2.06 170 17:50 13.05.2022
2204 Clouds 25 1011 86 10000 2.06 150 17:26 13.05.2022
2205 Clouds 26 1012 84 10000 1.54 180 16:18 13.05.2022
2206 Clouds 26 1012 82 10000 1.03 180 14:54 13.05.2022
2207 Clouds 26 1011 79 10000 0.51 180 13:27 13.05.2022
2208 Clouds 27 1010 78 10000 2.06 180 12:25 13.05.2022
2209 Clouds 29 1009 74 10000 2.57 160 10:46 13.05.2022
2210 Clouds 30 1008 71 10000 3.58 160 09:33 13.05.2022
2211 Clouds 30 1008 71 10000 3.6 160 08:23 13.05.2022
2212 Clouds 30 1009 72 10000 2.57 70 07:42 13.05.2022
2213 Clouds 28 1010 78 10000 4.63 90 05:59 13.05.2022
2214 Clouds 30 1011 76 10000 1.54 50 02:44 13.05.2022
2215 Clouds 25 1010 93 10000 1.03 80 23:46 12.05.2022
2216 Clouds 25 1009 93 10000 0 0 22:44 12.05.2022
2217 Clouds 25 1009 90 10000 0 0 21:54 12.05.2022
2218 Clouds 25 1009 90 10000 1.54 120 20:27 12.05.2022
2219 Clouds 25 1009 90 10000 1.54 90 18:50 12.05.2022
2220 Clear 25 1010 89 10000 1.54 70 16:58 12.05.2022
2221 Clear 26 1010 85 10000 1.03 240 15:50 12.05.2022
2222 Clear 27 1010 82 10000 1.54 240 14:40 12.05.2022
2223 Clear 27 1009 81 10000 2.06 260 13:38 12.05.2022
2224 Clouds 30 1007 64 10000 3.6 300 10:45 12.05.2022
2225 Clouds 32 1006 61 10000 4.12 310 09:28 12.05.2022
2226 Clouds 33 1007 57 10000 4.12 310 08:50 12.05.2022
2227 Clouds 33 1007 52 10000 4.12 320 07:40 12.05.2022
2228 Clear 33 1009 44 10000 2.57 280 05:46 12.05.2022
2229 Clouds 30 1011 71 10000 3.09 170 02:49 12.05.2022
2230 Clear 26 1009 89 10000 2.06 180 00:35 12.05.2022
2231 Clear 26 1008 89 10000 3.09 190 22:35 11.05.2022
2232 Clouds 26 1007 90 10000 2.57 190 21:46 11.05.2022
2233 Clouds 26 1007 89 10000 2.06 200 21:21 11.05.2022
2234 Clouds 25 1008 86 10000 1.54 270 18:34 11.05.2022
2235 Clear 26 1009 82 10000 1.54 240 16:53 11.05.2022
2236 Clear 26 1009 83 10000 1.54 250 15:31 11.05.2022
2237 Clear 26 1009 83 10000 1.54 250 15:31 11.05.2022
2238 Clear 26 1009 83 10000 1.54 250 15:31 11.05.2022
2239 Clear 26 1009 83 10000 1.54 250 15:31 11.05.2022
2240 Clear 26 1009 83 10000 1.54 250 15:31 11.05.2022
2241 Clear 27 1009 82 10000 1.03 220 14:38 11.05.2022
2242 Clear 27 1009 82 10000 1.03 220 14:18 11.05.2022
2243 Clear 29 1006 72 10000 2.24 350 11:54 11.05.2022
2244 Clouds 30 1006 62 10000 3.6 320 10:44 11.05.2022
2245 Clear 33 1005 52 10000 4.63 350 08:40 11.05.2022
2246 Clear 33 1008 43 10000 3.6 190 05:28 11.05.2022
2247 Clear 26 1008 73 10000 2.06 200 00:43 11.05.2022
2248 Clear 26 1007 70 10000 2.57 210 22:32 10.05.2022
2249 Clouds 26 1007 70 10000 2.06 220 21:57 10.05.2022
2250 Clouds 26 1007 73 10000 3.09 220 20:57 10.05.2022
2251 Clouds 26 1007 78 10000 2.57 230 19:37 10.05.2022
2252 Clouds 26 1008 79 10000 1.54 240 17:58 10.05.2022
2253 Clouds 26 1008 78 10000 2.06 240 17:29 10.05.2022
2254 Clear 27 1008 75 10000 2.57 250 15:31 10.05.2022
2255 Clear 28 1007 78 10000 3.6 280 12:45 10.05.2022
2256 Clear 28 1007 78 10000 2.57 280 11:51 10.05.2022
2257 Clouds 29 1006 74 10000 2.57 330 11:20 10.05.2022
2258 Clouds 30 1006 72 10000 2.57 330 10:53 10.05.2022
2259 Clouds 33 1005 59 10000 3.6 290 09:26 10.05.2022
2260 Clouds 33 1006 51 10000 3.09 90 07:22 10.05.2022
2261 Clear 30 1009 40 10000 5.81 150 03:57 10.05.2022
2262 Clear 26 1009 42 10000 6.17 150 01:18 10.05.2022
2263 Clear 26 1007 48 10000 3.6 170 22:57 09.05.2022
2264 Clouds 25 1007 63 10000 3.6 170 21:51 09.05.2022
2265 Clouds 25 1007 67 10000 3.6 190 20:54 09.05.2022
2266 Clouds 26 1007 69 10000 3.6 200 19:29 09.05.2022
2267 Clouds 26 1008 65 10000 2.57 200 17:52 09.05.2022
2268 Clear 26 1008 70 10000 1.54 220 16:38 09.05.2022
2269 Clear 27 1009 70 10000 2.57 220 15:52 09.05.2022
2270 Clear 26 1009 77 10000 1.03 210 15:27 09.05.2022
2271 Clear 26 1009 80 10000 1.03 290 14:31 09.05.2022
2272 Clear 27 1009 76 10000 0 0 13:50 09.05.2022
2273 Clear 29 1008 64 10000 2.57 270 12:26 09.05.2022
2274 Clear 30 1008 60 10000 3.6 280 11:37 09.05.2022
2275 Clear 32 1007 49 10000 3.09 190 10:43 09.05.2022
2276 Clear 34 1006 40 10000 2.06 120 08:51 09.05.2022
2277 Clear 34 1006 38 10000 3.58 80 07:54 09.05.2022
2278 Clear 30 1010 42 10000 5.14 130 03:36 09.05.2022
2279 Clear 24 1009 53 10000 4.63 150 00:20 09.05.2022
2280 Clear 23 1009 60 10000 3.6 160 22:56 08.05.2022
2281 Clear 24 1009 58 10000 3.6 150 21:56 08.05.2022
2282 Clear 24 1009 65 10000 2.57 170 20:37 08.05.2022
2283 Clear 24 1009 64 10000 2.57 170 19:45 08.05.2022
2284 Clear 25 1009 59 10000 3.09 170 18:54 08.05.2022
2285 Clear 25 1009 58 10000 2.57 180 18:18 08.05.2022
2286 Clear 26 1009 55 10000 2.06 170 16:44 08.05.2022
2287 Clear 25 1009 74 10000 2.06 200 15:40 08.05.2022
2288 Clear 27 1009 69 10000 2.24 200 14:57 08.05.2022
2289 Clear 27 1009 60 10000 1.54 120 12:33 08.05.2022
2290 Clear 31 1008 47 10000 4.12 90 10:32 08.05.2022
2291 Clear 32 1007 43 10000 4.63 80 09:58 08.05.2022
2292 Clear 32 1007 43 10000 4.63 80 09:58 08.05.2022
2293 Clear 33 1007 39 10000 5.14 90 08:57 08.05.2022
2294 Clear 32 1008 38 10000 5.66 110 07:25 08.05.2022
2295 Clear 28 1011 34 10000 7.2 130 03:55 08.05.2022
2296 Clear 27 1012 38 10000 7.72 140 02:47 08.05.2022
2297 Clear 22 1011 53 10000 4.63 150 00:28 08.05.2022
2298 Clear 22 1011 55 10000 4.12 150 23:51 07.05.2022
2299 Clear 22 1010 56 10000 3.6 150 22:48 07.05.2022
2300 Clear 23 1010 52 10000 4.63 150 21:59 07.05.2022
2301 Clear 23 1009 52 10000 3.09 130 21:34 07.05.2022
2302 Clear 24 1009 53 10000 5.14 140 20:34 07.05.2022
2303 Clear 24 1010 53 10000 5.14 140 19:57 07.05.2022
2304 Clear 24 1010 57 10000 4.12 150 17:43 07.05.2022
2305 Clear 25 1011 54 10000 3.6 150 15:47 07.05.2022
2306 Clear 26 1011 54 10000 2.57 150 14:19 07.05.2022
2307 Clear 30 1009 40 10000 3.6 110 10:56 07.05.2022
2308 Clear 32 1008 35 10000 6.17 100 09:20 07.05.2022
2309 Clear 32 1009 34 10000 6.71 90 07:51 07.05.2022
2310 Clear 32 1009 37 10000 6.71 130 06:43 07.05.2022
2311 Clear 30 1011 37 10000 7.2 120 04:59 07.05.2022
2312 Clear 26 1012 52 10000 6.17 130 01:46 07.05.2022
2313 Clear 24 1011 62 10000 5.14 140 23:38 06.05.2022
2314 Clear 25 1010 60 10000 4.63 110 22:28 06.05.2022
2315 Clouds 25 1010 59 10000 4.63 110 21:43 06.05.2022
2316 Clouds 26 1010 56 10000 5.66 100 20:34 06.05.2022
2317 Clouds 26 1010 53 10000 5.14 130 19:31 06.05.2022
2318 Clouds 26 1010 54 10000 4.63 130 18:59 06.05.2022
2319 Clouds 26 1011 61 10000 4.12 140 18:19 06.05.2022
2320 Clear 26 1011 80 10000 3.6 160 16:44 06.05.2022
2321 Clear 26 1011 81 10000 2.57 170 15:41 06.05.2022
2322 Clear 26 1011 82 10000 2.06 140 14:50 06.05.2022
2323 Clear 28 1010 74 10000 2.06 50 12:55 06.05.2022
2324 Clear 28 1010 74 10000 2.06 60 12:36 06.05.2022
2325 Clouds 29 1009 73 10000 2.68 40 11:42 06.05.2022
2326 Clouds 31 1007 62 10000 4.02 70 10:30 06.05.2022
2327 Clouds 31 1007 56 10000 4.02 70 09:45 06.05.2022
2328 Clouds 32 1007 52 10000 5.36 100 08:27 06.05.2022
2329 Clouds 31 1008 58 10000 5.36 80 06:48 06.05.2022
2330 Clouds 31 1009 56 10000 6.71 100 05:23 06.05.2022
2331 Clear 29 1011 58 10000 6.17 120 02:47 06.05.2022
2332 Clear 26 1010 82 10000 4.12 100 00:25 06.05.2022
2333 Clear 26 1009 80 10000 4.63 100 22:28 05.05.2022
2334 Clouds 26 1009 85 10000 4.12 110 21:22 05.05.2022
2335 Clouds 26 1009 86 10000 2.57 130 19:54 05.05.2022
2336 Clouds 27 1010 85 10000 2.06 80 18:34 05.05.2022
2337 Clear 27 1010 82 10000 1.03 70 16:33 05.05.2022
2338 Clear 27 1010 78 10000 1.54 60 14:50 05.05.2022
2339 Clear 28 1009 74 10000 2.57 60 13:22 05.05.2022
2340 Clear 29 1009 73 10000 2.57 50 12:49 05.05.2022
2341 Clear 31 1008 61 10000 4.63 50 10:48 05.05.2022
2342 Clouds 33 1007 54 10000 4.12 70 09:40 05.05.2022
2343 Clouds 32 1008 56 10000 4.47 60 07:35 05.05.2022
2344 Clouds 32 1009 58 10000 3.6 90 05:19 05.05.2022
2345 Clear 28 1010 77 10000 1.34 50 01:56 05.05.2022
2346 Clear 27 1010 81 10000 1.54 50 01:27 05.05.2022
2347 Clear 25 1010 93 10000 2.57 130 23:52 04.05.2022
2348 Clear 25 1009 89 10000 2.57 120 22:42 04.05.2022
2349 Clear 25 1009 89 10000 2.24 150 21:50 04.05.2022
2350 Clear 25 1009 89 10000 2.57 150 21:29 04.05.2022
2351 Clear 25 1009 92 10000 2.06 130 20:25 04.05.2022
2352 Clear 25 1009 92 10000 2.06 140 19:53 04.05.2022
2353 Clear 25 1009 92 10000 2.06 180 19:18 04.05.2022
2354 Clear 26 1009 92 10000 1.54 80 18:22 04.05.2022
2355 Clear 25 1010 93 10000 2.06 70 17:51 04.05.2022
2356 Clear 26 1010 85 10000 0.89 20 15:42 04.05.2022
2357 Clear 26 1010 84 10000 1.03 20 15:23 04.05.2022
2358 Clear 27 1011 74 10000 2.06 40 14:21 04.05.2022
2359 Clear 27 1010 73 10000 2.06 50 13:35 04.05.2022
2360 Clear 29 1009 68 10000 3.09 40 12:33 04.05.2022
2361 Clear 29 1009 68 10000 3.09 40 12:33 04.05.2022
2362 Clouds 31 1008 58 10000 5.14 60 10:41 04.05.2022
2363 Clear 33 1008 54 10000 4.12 60 09:44 04.05.2022
2364 Clear 33 1007 49 10000 4.92 100 08:48 04.05.2022
2365 Clear 34 1008 46 10000 6.17 90 06:49 04.05.2022
2366 Clouds 31 1011 68 10000 4.12 70 02:59 04.05.2022
2367 Clear 27 1010 83 10000 2.06 70 00:48 04.05.2022
2368 Clouds 25 1013 90 10000 1.54 90 22:50 03.05.2022
2369 Clear 25 1009 90 10000 1.54 80 21:47 03.05.2022
2370 Clear 25 1009 90 10000 2.06 60 20:56 03.05.2022
2371 Clear 25 1009 90 10000 2.57 70 20:31 03.05.2022
2372 Clouds 25 1009 91 10000 1.03 70 18:54 03.05.2022
2373 Clouds 26 1009 88 10000 1.03 60 18:34 03.05.2022
2374 Clear 27 1009 84 10000 2.24 230 17:19 03.05.2022
2375 Clear 28 1009 79 10000 2.06 210 15:43 03.05.2022
2376 Clear 28 1010 77 10000 1.54 20 13:32 03.05.2022
2377 Clear 28 1009 74 10000 2.06 360 12:30 03.05.2022
2378 Clouds 30 1008 66 10000 3.09 350 10:58 03.05.2022
2379 Clouds 32 1008 56 10000 3.6 350 09:58 03.05.2022
2380 Clear 34 1008 45 10000 3.09 110 07:59 03.05.2022
2381 Clear 33 1008 47 10000 3.09 110 06:45 03.05.2022
2382 Clouds 29 1011 67 10000 3.09 80 01:53 03.05.2022
2383 Clear 25 1009 80 10000 1.54 90 22:45 02.05.2022
2384 Clear 25 1009 80 10000 1.54 100 22:25 02.05.2022
2385 Clouds 25 1009 78 10000 1.54 140 21:26 02.05.2022
2386 Clouds 25 1013 83 10000 1.54 170 18:57 02.05.2022
2387 Clouds 25 1013 83 10000 1.03 170 18:25 02.05.2022
2388 Clouds 25 1014 80 10000 0 0 17:38 02.05.2022
2389 Clear 25 1009 83 10000 0 0 16:25 02.05.2022
2390 Clear 25 1009 83 10000 0.45 60 15:40 02.05.2022
2391 Clear 26 1009 78 10000 1.54 70 14:19 02.05.2022
2392 Clear 27 1009 70 10000 1.03 60 12:45 02.05.2022
2393 Clear 29 1008 59 10000 2.06 80 11:24 02.05.2022
2394 Clear 33 1007 42 10000 5.14 100 09:32 02.05.2022
2395 Clear 34 1008 38 10000 5.66 130 07:57 02.05.2022
2396 Clear 32 1009 42 10000 8.23 120 05:37 02.05.2022
2397 Clouds 26 1011 73 10000 5.66 80 00:40 02.05.2022
2398 Clouds 26 1011 74 10000 5.66 90 00:21 02.05.2022
2399 Clear 25 1009 85 10000 3.09 100 22:49 01.05.2022
2400 Clouds 25 1009 91 10000 1.03 90 21:41 01.05.2022
2401 Clouds 26 1009 90 10000 2.06 160 20:23 01.05.2022
2402 Clouds 27 1009 86 10000 2.57 190 19:19 01.05.2022
2403 Clouds 27 1009 86 10000 2.06 190 18:50 01.05.2022
2404 Clouds 27 1009 81 10000 2.57 220 17:47 01.05.2022
2405 Clear 27 1010 82 10000 2.57 230 16:26 01.05.2022
2406 Clear 27 1013 81 10000 1.79 250 15:45 01.05.2022
2407 Clear 26 1010 84 10000 0.45 20 14:41 01.05.2022
2408 Clear 29 1008 72 10000 1.54 360 11:53 01.05.2022
2409 Clear 33 1007 52 10000 3.6 100 09:33 01.05.2022
2410 Clear 33 1007 49 10000 4.63 110 08:49 01.05.2022
2411 Clouds 33 1009 47 10000 7.2 90 05:42 01.05.2022
2412 Clear 29 1011 76 10000 3.09 130 01:32 01.05.2022
2413 Clouds 25 1008 93 10000 2.06 150 21:59 30.04.2022
2414 Clouds 26 1012 89 10000 1.54 150 21:30 30.04.2022
2415 Clouds 26 1012 89 10000 1.54 150 21:30 30.04.2022
2416 Clear 26 1009 89 10000 1.54 160 19:48 30.04.2022
2417 Clear 26 1010 86 10000 2.06 170 18:52 30.04.2022
2418 Clouds 26 1011 86 10000 1.54 130 17:26 30.04.2022
2419 Clear 27 1011 83 10000 0 0 15:51 30.04.2022
2420 Clear 27 1011 80 10000 1.03 50 14:58 30.04.2022
2421 Clear 28 1010 78 10000 2.24 40 13:41 30.04.2022
2422 Clouds 30 1009 71 10000 4.47 40 11:39 30.04.2022
2423 Clouds 31 1008 66 10000 5.14 40 10:55 30.04.2022
2424 Clouds 32 1008 59 10000 6.17 20 09:54 30.04.2022
2425 Clouds 34 1008 46 10000 3.6 80 07:36 30.04.2022
2426 Clouds 32 1011 61 10000 4.12 70 03:53 30.04.2022
2427 Clouds 25 1011 93 10000 0 0 23:54 29.04.2022
2428 Clear 25 1009 85 10000 2.06 90 22:36 29.04.2022
2429 Rain 25 1010 85 10000 1.54 50 21:55 29.04.2022
2430 Rain 25 1010 85 10000 2.57 60 21:21 29.04.2022
2431 Clouds 26 1009 92 10000 1.54 90 19:55 29.04.2022
2432 Clouds 26 1010 92 10000 1.03 60 19:26 29.04.2022
2433 Clouds 26 1010 90 10000 0 0 17:34 29.04.2022
2434 Clouds 26 1010 89 10000 0.51 230 16:36 29.04.2022
2435 Clouds 28 1015 77 10000 2.06 260 14:34 29.04.2022
2436 Clouds 28 1009 79 10000 1.54 300 13:27 29.04.2022
2437 Clouds 28 1008 78 10000 1.54 300 12:36 29.04.2022
2438 Clouds 31 1008 63 10000 3.6 340 10:29 29.04.2022
2439 Clouds 32 1013 58 10000 3.09 330 07:52 29.04.2022
2440 Clouds 33 1009 60 10000 3.6 320 07:25 29.04.2022
2441 Clouds 32 1013 59 10000 2.06 160 06:30 29.04.2022
2442 Clear 27 1012 80 10000 3.09 190 01:47 29.04.2022
2443 Rain 25 1011 81 10000 4.63 220 23:55 28.04.2022
2444 Rain 24 1011 92 10000 8.75 150 23:25 28.04.2022
2445 Clouds 26 1010 93 10000 2.57 120 22:24 28.04.2022
2446 Clouds 26 1009 91 10000 1.54 130 21:41 28.04.2022
2447 Clouds 26 1009 91 10000 1.03 180 20:45 28.04.2022
2448 Clouds 26 1009 90 10000 1.54 210 19:52 28.04.2022
2449 Clouds 26 1010 91 10000 1.54 230 19:24 28.04.2022
2450 Clouds 27 1010 91 10000 2.06 250 18:51 28.04.2022
2451 Clouds 27 1011 90 10000 2.57 280 17:42 28.04.2022
2452 Clouds 27 1010 86 10000 2.06 270 16:51 28.04.2022
2453 Clouds 27 1010 85 10000 2.06 270 16:20 28.04.2022
2454 Clouds 27 1010 85 10000 2.06 270 16:20 28.04.2022
2455 Clouds 27 1011 86 10000 1.03 260 15:48 28.04.2022
2456 Clouds 27 1010 91 10000 2.06 280 14:58 28.04.2022
2457 Clouds 28 1013 88 10000 0 0 13:33 28.04.2022
2458 Clouds 28 1009 85 10000 1.03 250 12:29 28.04.2022
2459 Clouds 29 1008 80 10000 0 0 10:59 28.04.2022
2460 Rain 28 1008 83 10000 1.54 40 10:26 28.04.2022
2461 Rain 28 1007 74 10000 1.54 70 09:50 28.04.2022
2462 Clouds 28 1008 89 10000 1.54 290 07:41 28.04.2022
2463 Clouds 28 1008 83 2000 3.6 300 06:43 28.04.2022
2464 Clouds 33 1009 61 10000 3.6 290 05:52 28.04.2022
2465 Clouds 32 1010 67 10000 2.57 290 04:42 28.04.2022
2466 Clouds 30 1010 72 10000 2.06 80 01:53 28.04.2022
2467 Clouds 27 1009 89 10000 2.06 90 23:25 27.04.2022
2468 Clouds 26 1013 89 10000 1.54 120 22:18 27.04.2022
2469 Clouds 27 1013 89 10000 0 0 21:43 27.04.2022
2470 Rain 27 1013 89 10000 2.57 90 20:45 27.04.2022
2471 Clouds 27 1013 89 10000 0 0 19:55 27.04.2022
2472 Clouds 27 1013 88 10000 0.51 290 19:34 27.04.2022
2473 Clouds 28 1008 84 10000 1.54 290 18:39 27.04.2022
2474 Clouds 28 1008 84 10000 1.34 230 17:55 27.04.2022
2475 Clouds 28 1009 78 10000 1.54 240 15:57 27.04.2022
2476 Clouds 30 1007 74 10000 2.57 290 12:59 27.04.2022
2477 Clouds 30 1006 69 10000 2.06 290 11:25 27.04.2022
2478 Clouds 31 1006 63 10000 2.06 300 10:45 27.04.2022
2479 Clouds 32 1006 62 10000 4.12 300 08:22 27.04.2022
2480 Clouds 32 1007 62 10000 4.63 300 06:41 27.04.2022
2481 Clouds 31 1010 66 10000 1.03 300 02:31 27.04.2022
2482 Clouds 29 1009 80 10000 0 0 01:21 27.04.2022
2483 Rain 27 1009 89 10000 3.6 210 00:27 27.04.2022
2484 Clouds 27 1007 85 10000 3.6 310 23:24 26.04.2022
2485 Clouds 26 1007 89 10000 1.03 310 22:45 26.04.2022
2486 Clouds 27 1007 89 10000 0 0 21:59 26.04.2022
2487 Clouds 27 1007 89 10000 0 0 21:19 26.04.2022
2488 Clouds 27 1007 88 10000 1.03 310 20:37 26.04.2022
2489 Clouds 27 1007 88 10000 1.54 320 19:45 26.04.2022
2490 Clouds 27 1007 88 10000 1.54 320 19:26 26.04.2022
2491 Clouds 27 1007 87 10000 2.06 310 18:31 26.04.2022
2492 Clouds 28 1007 84 10000 0.51 290 17:39 26.04.2022
2493 Clouds 29 1007 80 10000 1.54 300 15:32 26.04.2022
2494 Clouds 30 1007 76 10000 2.06 280 13:40 26.04.2022
2495 Clouds 30 1006 76 10000 2.57 270 12:57 26.04.2022
2496 Clouds 30 1005 74 10000 4.12 300 11:23 26.04.2022
2497 Clouds 31 1005 69 10000 4.63 300 10:30 26.04.2022
2498 Clouds 31 1005 69 10000 4.63 300 10:30 26.04.2022
2499 Rain 32 1005 63 10000 3.6 310 08:33 26.04.2022
2500 Clouds 33 1007 61 10000 3.09 330 04:53 26.04.2022
2501 Clouds 33 1008 58 10000 2.57 330 03:59 26.04.2022
2502 Clouds 28 1007 84 10000 0.89 300 00:46 26.04.2022
2503 Clouds 26 1006 89 10000 0 0 23:48 25.04.2022
2504 Clouds 27 1005 80 10000 1.54 270 21:51 25.04.2022
2505 Clouds 27 1005 84 10000 1.03 300 21:23 25.04.2022
2506 Clouds 28 1006 84 10000 2.06 270 19:47 25.04.2022
2507 Clouds 28 1006 84 10000 2.06 290 18:31 25.04.2022
2508 Clouds 28 1006 84 10000 1.54 340 17:39 25.04.2022
2509 Clear 29 1007 80 10000 2.57 320 16:30 25.04.2022
2510 Clear 29 1007 80 10000 3.09 330 15:19 25.04.2022
2511 Clear 29 1007 76 10000 2.06 340 14:23 25.04.2022
2512 Clouds 30 1006 61 10000 2.57 340 12:40 25.04.2022
2513 Clouds 32 1005 54 10000 4.12 330 10:29 25.04.2022
2514 Clouds 33 1004 55 10000 4.12 340 09:39 25.04.2022
2515 Clouds 33 1005 58 10000 3.6 340 07:34 25.04.2022
2516 Clear 35 1006 34 10000 2.06 80 05:53 25.04.2022
2517 Clouds 30 1008 75 10000 2.06 240 01:28 25.04.2022
2518 Clear 27 1007 89 10000 1.54 250 23:54 24.04.2022
2519 Clear 27 1006 87 10000 2.24 270 23:22 24.04.2022
2520 Clear 28 1006 84 10000 2.06 280 22:38 24.04.2022
2521 Clouds 28 1006 85 10000 2.06 280 21:54 24.04.2022
2522 Clouds 27 1006 89 10000 1.54 290 21:21 24.04.2022
2523 Clouds 27 1006 89 10000 1.54 290 21:21 24.04.2022
2524 Clouds 27 1006 85 10000 2.06 260 20:41 24.04.2022
2525 Clouds 27 1014 81 10000 1.54 270 19:57 24.04.2022
2526 Clouds 26 1008 80 10000 2.06 270 18:37 24.04.2022
2527 Clouds 26 1007 84 10000 1.54 270 17:41 24.04.2022
2528 Clouds 26 1007 84 10000 1.54 270 17:20 24.04.2022
2529 Clear 26 1007 84 10000 1.54 280 16:51 24.04.2022
2530 Clear 26 1007 80 10000 2.57 270 16:22 24.04.2022
2531 Clear 26 1007 83 10000 1.03 290 15:39 24.04.2022
2532 Clear 26 1007 83 10000 1.54 310 14:31 24.04.2022
2533 Clear 27 1007 78 10000 2.06 300 13:26 24.04.2022
2534 Clear 28 1006 69 10000 2.06 290 12:46 24.04.2022
2535 Clear 30 1006 57 10000 3.58 310 11:46 24.04.2022
2536 Clouds 31 1005 56 10000 4.12 310 10:37 24.04.2022
2537 Clouds 32 1005 51 10000 6.17 300 09:42 24.04.2022
2538 Clouds 34 1005 54 10000 4.63 300 07:41 24.04.2022
2539 Clouds 33 1007 62 10000 4.12 310 05:32 24.04.2022
2540 Clouds 30 1009 79 10000 0.51 220 01:51 24.04.2022
2541 Clouds 27 1009 85 10000 1.54 210 00:45 24.04.2022
2542 Clear 25 1008 88 10000 0 0 23:46 23.04.2022
2543 Clear 25 1008 88 10000 0 0 23:25 23.04.2022
2544 Clouds 25 1008 88 10000 0.51 270 21:56 23.04.2022
2545 Clouds 26 1007 89 10000 1.54 280 21:36 23.04.2022
2546 Clouds 26 1007 89 10000 2.06 290 20:58 23.04.2022
2547 Clouds 26 1007 89 10000 2.06 290 19:55 23.04.2022
2548 Clouds 26 1008 89 10000 2.06 310 19:20 23.04.2022
2549 Clouds 26 1008 89 10000 2.06 310 18:53 23.04.2022
2550 Clouds 26 1008 89 10000 2.06 340 18:31 23.04.2022
2551 Clouds 26 1008 89 10000 1.54 330 17:44 23.04.2022
2552 Clear 26 1009 89 10000 1.54 250 16:44 23.04.2022
2553 Clouds 27 1009 78 10000 0 0 15:35 23.04.2022
2554 Clouds 30 1008 64 10000 2.24 360 12:54 23.04.2022
2555 Clear 32 1007 55 10000 2.57 350 11:24 23.04.2022
2556 Clear 34 1006 36 10000 3.6 80 09:38 23.04.2022
2557 Clouds 35 1008 40 10000 3.58 90 07:52 23.04.2022
2558 Clear 32 1009 47 10000 4.47 130 03:56 23.04.2022
2559 Clear 28 1009 54 10000 3.6 150 01:55 23.04.2022
2560 Clear 25 1008 78 10000 3.09 190 23:33 22.04.2022
2561 Clear 26 1008 75 10000 3.09 180 22:32 22.04.2022
2562 Clear 26 1008 74 10000 3.6 190 21:44 22.04.2022
2563 Clouds 26 1008 74 10000 3.6 200 21:20 22.04.2022
2564 Clouds 26 1008 82 10000 3.09 210 20:28 22.04.2022
2565 Clouds 26 1008 87 10000 2.06 190 19:23 22.04.2022
2566 Clouds 26 1008 88 10000 1.03 250 18:52 22.04.2022
2567 Clouds 26 1009 87 10000 1.79 250 18:20 22.04.2022
2568 Clear 27 1010 88 10000 1.03 260 16:53 22.04.2022
2569 Clear 28 1010 77 10000 1.54 250 15:56 22.04.2022
2570 Clear 29 1010 80 10000 2.06 260 15:22 22.04.2022
2571 Clear 29 1010 79 10000 2.06 280 14:21 22.04.2022
2572 Clear 30 1010 75 10000 3.09 280 13:27 22.04.2022
2573 Clear 30 1009 75 10000 3.09 280 12:30 22.04.2022
2574 Clouds 30 1008 71 10000 3.09 290 11:23 22.04.2022
2575 Clouds 31 1008 68 10000 4.12 290 10:53 22.04.2022
2576 Clouds 31 1008 65 10000 4.12 300 10:32 22.04.2022
2577 Clouds 33 1008 62 10000 4.63 300 09:54 22.04.2022
2578 Clear 33 1008 55 10000 3.6 320 08:56 22.04.2022
2579 Clear 35 1008 36 10000 2.57 310 08:29 22.04.2022
2580 Clouds 33 1010 59 10000 2.57 280 05:31 22.04.2022
2581 Clouds 28 1011 89 10000 1.03 120 00:53 22.04.2022
2582 Clouds 26 1010 93 10000 0 0 23:29 21.04.2022
2583 Clouds 26 1009 93 10000 0 0 22:34 21.04.2022
2584 Clear 26 1009 91 10000 0.51 40 21:22 21.04.2022
2585 Clear 26 1008 93 10000 0 0 20:27 21.04.2022
2586 Clear 27 1009 89 10000 1.54 180 18:49 21.04.2022
2587 Clear 27 1009 87 10000 1.34 170 18:19 21.04.2022
2588 Clear 27 1009 89 10000 0 0 16:53 21.04.2022
2589 Clear 27 1009 84 10000 0 0 15:24 21.04.2022
2590 Clear 27 1009 88 10000 0.51 360 14:51 21.04.2022
2591 Clear 28 1009 80 10000 0 0 13:56 21.04.2022
2592 Clear 28 1009 80 10000 0.51 350 13:20 21.04.2022
2593 Clear 30 1008 62 10000 2.57 60 11:37 21.04.2022
2594 Clouds 33 1007 49 10000 5.66 100 09:23 21.04.2022
2595 Clear 34 1008 45 10000 5.14 120 08:29 21.04.2022
2596 Clouds 33 1009 52 10000 4.63 90 06:26 21.04.2022
2597 Clear 30 1011 64 10000 6.17 100 03:37 21.04.2022
2598 Clouds 30 1011 70 10000 5.14 120 02:56 21.04.2022
2599 Clouds 29 1011 73 10000 4.63 130 02:38 21.04.2022
2600 Clouds 26 1010 88 10000 2.57 140 00:25 21.04.2022
2601 Clear 25 1009 89 10000 1.54 120 23:24 20.04.2022
2602 Clear 25 1009 89 10000 2.06 150 22:58 20.04.2022
2603 Rain 25 1009 89 10000 1.54 110 22:32 20.04.2022
2604 Clouds 26 1008 90 10000 2.57 100 21:35 20.04.2022
2605 Clouds 26 1009 90 10000 2.57 100 20:43 20.04.2022
2606 Clouds 26 1009 90 10000 1.54 90 20:20 20.04.2022
2607 Clouds 25 1009 90 10000 2.57 50 19:38 20.04.2022
2608 Clouds 25 1010 94 10000 4.63 70 18:43 20.04.2022
2609 Clouds 28 1013 81 10000 1.54 60 16:59 20.04.2022
2610 Clouds 29 1013 79 10000 2.06 70 16:39 20.04.2022
2611 Clear 29 1010 84 10000 1.54 50 14:55 20.04.2022
2612 Clear 30 1008 76 10000 3.6 40 12:18 20.04.2022
2613 Clear 30 1007 73 10000 3.09 40 11:36 20.04.2022
2614 Clouds 31 1007 66 10000 4.12 60 10:30 20.04.2022
2615 Clouds 31 1010 64 10000 6.69 50 09:28 20.04.2022
2616 Clouds 33 1007 55 10000 5.66 80 08:25 20.04.2022
2617 Clouds 33 1010 52 10000 6.17 110 07:44 20.04.2022
2618 Clouds 32 1009 60 10000 4.63 90 05:19 20.04.2022
2619 Clouds 28 1010 85 10000 3.6 140 01:35 20.04.2022
2620 Clouds 26 1013 91 10000 2.06 150 00:21 20.04.2022
2621 Clear 26 1009 89 10000 2.57 160 22:44 19.04.2022
2622 Clear 26 1009 85 10000 2.06 170 22:23 19.04.2022
2623 Clouds 27 1011 88 10000 3.09 180 21:46 19.04.2022
2624 Clouds 27 1011 93 10000 2.57 190 20:57 19.04.2022
2625 Clouds 27 1011 93 10000 2.57 190 20:37 19.04.2022
2626 Clouds 28 1008 89 10000 3.6 190 19:32 19.04.2022
2627 Clouds 28 1009 89 10000 2.57 180 18:27 19.04.2022
2628 Clear 28 1009 83 10000 2.06 230 16:50 19.04.2022
2629 Clear 28 1009 83 10000 2.06 230 16:25 19.04.2022
2630 Clear 28 1009 83 10000 2.57 220 15:57 19.04.2022
2631 Clear 29 1009 76 10000 2.57 230 14:40 19.04.2022
2632 Clear 29 1008 83 10000 2.57 270 12:52 19.04.2022
2633 Clear 30 1008 80 10000 2.57 270 12:31 19.04.2022
2634 Clouds 30 1012 73 10000 3.6 280 11:27 19.04.2022
2635 Clouds 32 1007 68 10000 4.63 300 09:31 19.04.2022
2636 Clouds 33 1012 62 10000 3.09 340 07:43 19.04.2022
2637 Clouds 32 1014 63 10000 3.6 190 04:24 19.04.2022
2638 Clouds 29 1010 89 10000 2.57 170 01:24 19.04.2022
2639 Clouds 26 1014 94 10000 0.51 200 23:49 18.04.2022
2640 Clouds 26 1014 93 10000 1.54 270 22:46 18.04.2022
2641 Clouds 26 1008 93 10000 0 0 21:25 18.04.2022
2642 Clouds 26 1008 93 10000 0 0 20:39 18.04.2022
2643 Clouds 26 1009 92 10000 1.03 270 19:59 18.04.2022
2644 Clouds 27 1009 89 10000 1.54 260 19:32 18.04.2022
2645 Clouds 27 1009 89 10000 2.06 250 18:43 18.04.2022
2646 Clouds 27 1010 82 10000 2.06 240 17:40 18.04.2022
2647 Clouds 27 1010 81 10000 2.06 240 17:19 18.04.2022
2648 Clear 27 1010 87 10000 2.57 240 16:38 18.04.2022
2649 Clear 27 1010 83 10000 1.34 180 15:32 18.04.2022
2650 Clear 28 1010 79 10000 1.54 180 14:27 18.04.2022
2651 Clouds 27 1009 81 10000 1.03 230 12:56 18.04.2022
2652 Rain 27 1009 78 10000 3.6 260 12:24 18.04.2022
2653 Rain 31 1008 72 10000 5.36 300 10:46 18.04.2022
2654 Clouds 32 1012 69 10000 5.14 310 09:32 18.04.2022
2655 Clouds 32 1012 68 10000 5.66 300 08:46 18.04.2022
2656 Clouds 33 1013 63 10000 4.12 290 06:52 18.04.2022
2657 Clouds 31 1010 74 10000 3.09 340 02:29 18.04.2022
2658 Clouds 26 1009 93 10000 1.54 30 23:23 17.04.2022
2659 Clouds 26 1009 93 10000 2.57 60 22:37 17.04.2022
2660 Clouds 26 1009 93 10000 1.54 70 21:34 17.04.2022
2661 Clouds 26 1009 90 10000 1.03 90 20:52 17.04.2022
2662 Rain 27 1009 89 10000 1.03 70 20:19 17.04.2022
2663 Clouds 27 1009 88 10000 1.54 330 18:45 17.04.2022
2664 Clouds 27 1010 88 10000 0 0 17:31 17.04.2022
2665 Clear 28 1009 80 10000 1.03 350 15:37 17.04.2022
2666 Clear 28 1009 79 10000 1.54 10 14:45 17.04.2022
2667 Clear 28 1009 79 10000 3.09 30 13:37 17.04.2022
2668 Clear 28 1008 79 10000 3.09 30 12:49 17.04.2022
2669 Clouds 30 1012 73 10000 4.12 20 10:58 17.04.2022
2670 Clouds 30 1012 69 10000 4.63 10 10:29 17.04.2022
2671 Clouds 31 1007 67 10000 4.63 20 09:55 17.04.2022
2672 Clouds 32 1007 63 10000 3.6 20 09:21 17.04.2022
2673 Clouds 33 1007 56 10000 3.6 20 08:41 17.04.2022
2674 Clear 33 1008 55 10000 4.63 60 06:32 17.04.2022
2675 Clouds 29 1010 70 10000 1.54 130 02:31 17.04.2022
2676 Clouds 25 1009 88 10000 2.57 110 00:42 17.04.2022
2677 Clouds 25 1009 89 10000 3.6 130 23:38 16.04.2022
2678 Clouds 25 1008 88 10000 2.57 100 21:54 16.04.2022
2679 Clouds 25 1008 88 10000 2.06 90 21:19 16.04.2022
2680 Clouds 25 1008 91 10000 1.54 110 19:30 16.04.2022
2681 Clouds 25 1009 90 10000 1.54 80 18:44 16.04.2022
2682 Rain 25 1009 93 10000 1.54 120 17:21 16.04.2022
2683 Clouds 25 1010 90 10000 4.63 110 16:30 16.04.2022
2684 Clouds 29 1009 81 10000 1.54 250 14:59 16.04.2022
2685 Clouds 29 1009 81 10000 2.06 270 14:41 16.04.2022
2686 Clouds 29 1008 80 10000 2.24 270 13:50 16.04.2022
2687 Clear 29 1008 80 10000 2.68 280 13:18 16.04.2022
2688 Clouds 30 1006 76 10000 4.12 300 11:50 16.04.2022
2689 Clouds 30 1006 73 10000 5.66 300 10:35 16.04.2022
2690 Clouds 32 1006 70 10000 5.14 310 09:38 16.04.2022
2691 Clouds 33 1006 58 10000 4.63 310 08:52 16.04.2022
2692 Clouds 33 1007 58 10000 2.68 220 07:23 16.04.2022
2693 Clouds 32 1012 59 10000 2.06 160 05:45 16.04.2022
2694 Clouds 29 1010 84 10000 2.57 130 01:52 16.04.2022
2695 Clouds 26 1009 93 10000 1.03 150 23:53 15.04.2022
2696 Clouds 26 1013 93 10000 1.79 160 22:51 15.04.2022
2697 Clouds 26 1008 93 10000 2.06 160 22:31 15.04.2022
2698 Clouds 26 1008 93 10000 2.06 140 21:34 15.04.2022
2699 Clouds 26 1008 90 10000 1.54 130 20:44 15.04.2022
2700 Clouds 26 1009 92 10000 1.03 190 19:49 15.04.2022
2701 Clouds 26 1009 89 10000 0.51 190 19:30 15.04.2022
2702 Clouds 26 1009 89 10000 1.03 190 18:45 15.04.2022
2703 Clouds 26 1009 89 10000 1.03 190 18:23 15.04.2022
2704 Clouds 26 1009 88 10000 0 0 17:28 15.04.2022
2705 Clouds 27 1010 88 10000 1.34 20 16:25 15.04.2022
2706 Clouds 27 1010 88 10000 1.34 20 16:25 15.04.2022
2707 Clear 27 1010 88 10000 1.54 20 15:54 15.04.2022
2708 Clear 28 1009 80 10000 2.57 50 14:22 15.04.2022
2709 Clear 28 1009 76 10000 2.06 40 12:53 15.04.2022
2710 Clear 29 1008 79 10000 2.57 50 12:28 15.04.2022
2711 Clouds 29 1007 79 10000 2.57 40 11:54 15.04.2022
2712 Clear 30 1013 67 10000 3.6 30 10:48 15.04.2022
2713 Clouds 31 1012 65 10000 3.6 30 10:21 15.04.2022
2714 Clouds 32 1012 59 10000 3.09 80 09:23 15.04.2022
2715 Clouds 33 1007 59 10000 3.6 70 08:57 15.04.2022
2716 Clouds 33 1008 57 10000 4.12 90 06:55 15.04.2022
2717 Clouds 32 1009 63 10000 3.6 80 05:56 15.04.2022
2718 Clouds 28 1010 86 10000 3.09 140 01:33 15.04.2022
2719 Clouds 26 1009 94 10000 1.54 140 23:30 14.04.2022
2720 Clouds 26 1008 93 10000 2.57 150 22:46 14.04.2022
2721 Clouds 26 1008 93 10000 2.06 160 22:27 14.04.2022
2722 Clouds 26 1008 93 10000 2.06 160 22:27 14.04.2022
2723 Clouds 26 1013 93 10000 2.06 140 21:53 14.04.2022
2724 Clouds 26 1009 92 10000 2.06 140 19:57 14.04.2022
2725 Rain 26 1009 92 10000 2.57 110 19:22 14.04.2022
2726 Clouds 26 1010 93 10000 0.51 360 17:58 14.04.2022
2727 Clouds 26 1010 93 10000 1.54 350 17:27 14.04.2022
2728 Clouds 27 1014 92 10000 1.79 350 16:33 14.04.2022
2729 Clouds 27 1011 90 10000 3.09 350 14:20 14.04.2022
2730 Clouds 27 1014 92 10000 1.54 360 13:31 14.04.2022
2731 Clouds 27 1009 94 10000 3.09 50 12:42 14.04.2022
2732 Clouds 27 1009 94 10000 3.09 50 12:22 14.04.2022
2733 Rain 27 1009 93 10000 3.09 20 11:21 14.04.2022
2734 Clouds 29 1009 82 1500 4.63 20 10:36 14.04.2022
2735 Clouds 30 1007 77 10000 2.06 70 09:56 14.04.2022
2736 Clouds 32 1007 64 10000 3.6 60 08:40 14.04.2022
2737 Clouds 33 1007 60 10000 3.6 100 06:50 14.04.2022
2738 Clear 29 1010 76 10000 3.58 130 02:45 14.04.2022
2739 Clear 25 1008 94 10000 2.57 150 22:52 13.04.2022
2740 Clouds 25 1008 94 10000 2.06 150 21:44 13.04.2022
2741 Clouds 24 1008 94 10000 2.06 150 20:55 13.04.2022
2742 Clouds 24 1008 94 10000 3.09 160 20:22 13.04.2022
2743 Clouds 25 1007 88 10000 2.57 110 19:24 13.04.2022
2744 Clouds 25 1008 93 10000 3.6 100 18:19 13.04.2022
2745 Clouds 25 1008 94 10000 2.06 120 17:23 13.04.2022
2746 Rain 24 1010 100 10000 3.09 140 16:33 13.04.2022
2747 Rain 24 1011 94 10000 4.12 140 15:35 13.04.2022
2748 Rain 24 1011 94 10000 5.14 140 14:50 13.04.2022
2749 Rain 24 1011 94 10000 5.14 140 14:19 13.04.2022
2750 Rain 25 1010 88 10000 7.72 90 13:19 13.04.2022
2751 Rain 24 1010 88 9000 12.86 80 12:25 13.04.2022
2752 Clouds 28 1006 85 10000 2.06 350 10:49 13.04.2022
2753 Clouds 27 1007 78 10000 3.6 120 09:41 13.04.2022
2754 Clouds 27 1007 83 3000 2.06 310 08:42 13.04.2022
2755 Clouds 33 1007 65 10000 4.12 80 06:51 13.04.2022
2756 Clouds 33 1007 65 10000 4.63 70 06:25 13.04.2022
2757 Clouds 32 1008 69 10000 5.66 100 05:20 13.04.2022
2758 Clouds 25 1009 94 10000 3.6 140 00:22 13.04.2022
2759 Clouds 25 1009 94 10000 3.09 140 23:45 12.04.2022
2760 Clouds 25 1008 94 10000 4.12 130 22:19 12.04.2022
2761 Clouds 25 1007 94 10000 3.09 150 21:18 12.04.2022
2762 Clouds 24 1008 94 10000 2.06 140 20:41 12.04.2022
2763 Rain 24 1008 94 10000 2.57 140 19:50 12.04.2022
2764 Rain 24 1008 94 10000 3.6 140 19:31 12.04.2022
2765 Rain 25 1008 98 10000 3.09 150 18:31 12.04.2022
2766 Rain 25 1009 94 10000 2.57 160 17:28 12.04.2022
2767 Rain 25 1009 94 10000 2.57 160 17:28 12.04.2022
2768 Rain 25 1012 94 10000 2.57 150 16:22 12.04.2022
2769 Rain 25 1010 94 10000 2.57 170 15:33 12.04.2022
2770 Rain 26 1010 92 10000 1.79 360 14:26 12.04.2022
2771 Rain 26 1010 94 10000 5.14 360 13:36 12.04.2022
2772 Rain 25 1009 94 10000 3.09 50 12:52 12.04.2022
2773 Thunderstorm 24 1009 100 7000 5.66 40 11:47 12.04.2022
2774 Clouds 31 1010 67 10000 4.63 40 10:47 12.04.2022
2775 Clouds 32 1005 61 10000 5.14 50 09:21 12.04.2022
2776 Clouds 33 1006 64 10000 4.02 340 07:56 12.04.2022
2777 Clouds 34 1006 55 10000 3.09 90 06:24 12.04.2022
2778 Clouds 34 1007 56 10000 1.54 300 05:31 12.04.2022
2779 Clouds 29 1008 84 10000 1.03 120 00:46 12.04.2022
2780 Clouds 26 1006 90 10000 0 0 22:47 11.04.2022
2781 Clouds 27 1006 93 10000 0 0 21:41 11.04.2022
2782 Clouds 26 1006 90 10000 1.54 110 20:57 11.04.2022
2783 Clouds 27 1006 90 10000 1.54 120 20:29 11.04.2022
2784 Clouds 27 1007 89 10000 1.54 90 19:54 11.04.2022
2785 Clouds 27 1007 92 10000 2.06 90 19:18 11.04.2022
2786 Clouds 27 1007 89 10000 2.06 70 18:47 11.04.2022
2787 Clouds 27 1007 89 10000 1.54 220 17:57 11.04.2022
2788 Clear 28 1007 82 10000 2.57 230 16:54 11.04.2022
2789 Clear 29 1008 81 10000 3.6 240 15:56 11.04.2022
2790 Clear 29 1008 78 10000 2.57 240 14:24 11.04.2022
2791 Clouds 29 1008 76 10000 2.68 270 12:53 11.04.2022
2792 Clouds 29 1007 75 10000 3.09 270 12:33 11.04.2022
2793 Clouds 30 1007 71 10000 3.09 270 11:33 11.04.2022
2794 Clouds 32 1006 65 10000 3.6 300 10:28 11.04.2022
2795 Clouds 33 1006 58 10000 5.66 300 09:20 11.04.2022
2796 Clouds 34 1007 58 10000 5.66 290 06:24 11.04.2022
2797 Clear 30 1009 71 10000 2.06 260 01:55 11.04.2022
2798 Clear 26 1007 89 10000 2.57 180 22:37 10.04.2022
2799 Clouds 26 1007 89 10000 1.54 190 21:55 10.04.2022
2800 Clouds 26 1007 90 10000 2.57 210 21:29 10.04.2022
2801 Clouds 27 1007 90 10000 2.06 210 20:31 10.04.2022
2802 Clouds 26 1008 91 10000 1.03 230 19:44 10.04.2022
2803 Clouds 26 1008 89 10000 1.54 230 19:20 10.04.2022
2804 Clouds 27 1008 88 10000 1.54 240 18:42 10.04.2022
2805 Clear 27 1008 87 10000 1.54 250 17:52 10.04.2022
2806 Clear 27 1009 86 10000 1.54 260 17:33 10.04.2022
2807 Clear 27 1009 86 10000 2.06 260 16:21 10.04.2022
2808 Clear 28 1009 83 10000 1.54 260 15:19 10.04.2022
2809 Clear 28 1009 77 10000 2.57 270 13:58 10.04.2022
2810 Clouds 29 1009 70 10000 3.09 280 12:33 10.04.2022
2811 Clouds 29 1007 70 10000 3.09 280 11:46 10.04.2022
2812 Clouds 30 1007 70 10000 4.12 300 11:28 10.04.2022
2813 Clouds 31 1007 64 10000 4.12 310 10:48 10.04.2022
2814 Clouds 32 1011 64 10000 4.63 300 09:55 10.04.2022
2815 Clouds 33 1011 61 10000 4.63 300 09:21 10.04.2022
2816 Clouds 33 1006 59 10000 5.36 300 08:21 10.04.2022
2817 Clouds 33 1007 60 10000 4.63 300 07:21 10.04.2022
2818 Clouds 33 1008 55 10000 2.06 250 05:27 10.04.2022
2819 Clouds 29 1010 78 10000 3.09 170 02:20 10.04.2022
2820 Clouds 26 1009 94 10000 1.54 180 23:55 09.04.2022
2821 Clouds 25 1008 94 10000 1.03 210 23:35 09.04.2022
2822 Clouds 25 1007 93 10000 0.51 210 22:43 09.04.2022
2823 Clouds 25 1007 94 10000 0.51 210 21:34 09.04.2022
2824 Clouds 25 1007 93 10000 1.03 210 20:48 09.04.2022
2825 Clouds 25 1007 93 10000 0 0 20:23 09.04.2022
2826 Clouds 26 1007 90 10000 2.06 210 19:41 09.04.2022
2827 Clouds 26 1007 88 10000 2.57 230 18:54 09.04.2022
2828 Clouds 26 1011 85 10000 2.06 230 18:18 09.04.2022
2829 Clouds 26 1011 88 10000 1.54 210 17:34 09.04.2022
2830 Clear 27 1008 86 10000 1.54 210 16:47 09.04.2022
2831 Clear 27 1008 88 10000 1.54 230 15:55 09.04.2022
2832 Clear 28 1008 84 10000 1.54 230 15:28 09.04.2022
2833 Clouds 27 1008 89 10000 1.54 280 14:27 09.04.2022
2834 Clouds 27 1008 89 10000 1.54 280 14:27 09.04.2022
2835 Clouds 27 1008 86 10000 1.54 290 13:54 09.04.2022
2836 Clouds 28 1007 83 10000 1.54 310 12:59 09.04.2022
2837 Clouds 28 1007 82 10000 1.54 300 12:34 09.04.2022
2838 Clouds 30 1007 69 10000 2.06 290 11:21 09.04.2022
2839 Clouds 30 1006 66 10000 4.02 300 10:20 09.04.2022
2840 Clouds 31 1006 70 10000 4.63 300 09:37 09.04.2022
2841 Clouds 33 1006 67 10000 4.12 320 08:51 09.04.2022
2842 Clouds 33 1007 61 10000 5.66 300 06:48 09.04.2022
2843 Clouds 29 1010 83 10000 2.06 140 01:31 09.04.2022
2844 Clouds 26 1009 93 10000 0 0 23:25 08.04.2022
2845 Clouds 25 1007 93 10000 0 0 21:58 08.04.2022
2846 Clouds 25 1007 93 10000 1.03 310 20:48 08.04.2022
2847 Clouds 26 1007 89 10000 1.54 310 20:23 08.04.2022
2848 Clouds 27 1007 87 10000 2.06 320 19:18 08.04.2022
2849 Clouds 26 1008 86 10000 2.06 340 18:28 08.04.2022
2850 Clouds 26 1011 87 10000 1.54 310 17:46 08.04.2022
2851 Clouds 26 1008 87 10000 1.03 300 17:22 08.04.2022
2852 Clear 26 1008 88 10000 1.03 300 16:47 08.04.2022
2853 Clear 27 1008 85 10000 1.54 300 15:56 08.04.2022
2854 Clear 27 1008 85 10000 1.54 300 15:25 08.04.2022
2855 Clear 28 1007 82 10000 1.54 310 14:26 08.04.2022
2856 Clear 29 1007 78 10000 1.54 320 13:45 08.04.2022
2857 Clear 29 1007 77 10000 2.06 330 13:27 08.04.2022
2858 Clouds 31 1006 72 10000 2.57 340 11:54 08.04.2022
2859 Clouds 32 1006 66 10000 3.6 340 10:33 08.04.2022
2860 Clouds 33 1005 59 10000 3.6 330 09:37 08.04.2022
2861 Clouds 33 1005 55 10000 4.12 320 08:44 08.04.2022
2862 Clouds 34 1006 49 10000 4.63 300 06:54 08.04.2022
2863 Clouds 33 1007 57 10000 2.06 230 05:18 08.04.2022
2864 Clouds 29 1008 88 10000 1.54 160 01:27 08.04.2022
2865 Clouds 27 1008 94 10000 0.51 170 00:25 08.04.2022
2866 Clouds 26 1007 94 10000 1.03 90 22:59 07.04.2022
2867 Clouds 26 1006 94 10000 0 0 22:39 07.04.2022
2868 Clouds 26 1006 94 10000 0 0 22:21 07.04.2022
2869 Clouds 26 1007 91 10000 1.34 270 21:51 07.04.2022
2870 Clouds 26 1006 91 10000 1.54 270 21:19 07.04.2022
2871 Clouds 26 1006 94 10000 1.03 270 20:31 07.04.2022
2872 Clouds 27 1006 90 10000 2.06 240 18:34 07.04.2022
2873 Clouds 27 1007 89 10000 1.54 260 17:26 07.04.2022
2874 Clear 28 1007 86 10000 2.06 240 16:44 07.04.2022
2875 Clear 28 1007 85 10000 2.06 240 16:22 07.04.2022
2876 Clouds 29 1008 83 10000 2.57 240 14:50 07.04.2022
2877 Clouds 29 1007 79 10000 2.57 270 13:43 07.04.2022
2878 Clouds 29 1007 82 10000 2.57 280 12:46 07.04.2022
2879 Clouds 31 1006 76 10000 3.6 290 11:34 07.04.2022
2880 Clouds 32 1005 67 10000 3.6 340 09:37 07.04.2022
2881 Clouds 35 1005 49 10000 2.57 170 08:38 07.04.2022
2882 Clear 33 1006 60 10000 2.57 180 06:42 07.04.2022
2883 Clear 28 1010 82 10000 3.09 160 02:54 07.04.2022
2884 Clear 27 1010 88 10000 2.57 150 02:25 07.04.2022
2885 Clear 25 1008 94 10000 0.51 290 00:27 07.04.2022
2886 Clear 24 1008 94 10000 1.54 210 22:51 06.04.2022
2887 Clouds 24 1009 94 10000 1.03 80 22:27 06.04.2022
2888 Rain 24 1009 94 10000 4.63 70 21:45 06.04.2022
2889 Clouds 25 1008 90 10000 2.57 90 20:40 06.04.2022
2890 Clouds 25 1008 88 10000 1.54 50 19:54 06.04.2022
2891 Rain 25 1008 88 10000 3.09 360 18:52 06.04.2022
2892 Clouds 24 1009 94 10000 1.54 30 18:32 06.04.2022
2893 Clouds 24 1010 88 3300 8.75 70 17:35 06.04.2022
2894 Clouds 25 1011 89 10000 2.57 60 16:38 06.04.2022
2895 Rain 25 1010 92 10000 2.06 70 15:48 06.04.2022
2896 Clouds 25 1010 89 10000 4.02 60 15:21 06.04.2022
2897 Clouds 25 1010 89 10000 4.02 60 15:21 06.04.2022
2898 Clouds 28 1008 80 10000 3.58 200 13:28 06.04.2022
2899 Clouds 29 1008 80 10000 3.6 200 12:27 06.04.2022
2900 Clouds 30 1007 71 10000 4.63 290 10:52 06.04.2022
2901 Clouds 30 1006 71 10000 4.12 300 10:30 06.04.2022
2902 Clouds 32 1006 66 10000 5.14 310 09:41 06.04.2022
2903 Clouds 33 1006 58 10000 4.63 310 08:36 06.04.2022
2904 Clouds 33 1006 58 10000 4.12 310 07:54 06.04.2022
2905 Clear 31 1010 68 10000 2.06 240 04:31 06.04.2022
2906 Clouds 24 1009 94 10000 2.06 130 23:56 05.04.2022
2907 Clouds 24 1011 91 10000 1.79 140 23:22 05.04.2022
2908 Rain 24 1009 88 10000 6.17 70 21:29 05.04.2022
2909 Clouds 26 1008 83 10000 7.72 90 20:26 05.04.2022
2910 Clouds 25 1008 85 10000 1.54 40 19:52 05.04.2022
2911 Clouds 26 1009 88 10000 1.03 230 18:18 05.04.2022
2912 Clouds 26 1010 91 10000 1.54 230 16:55 05.04.2022
2913 Clouds 26 1010 88 10000 0 0 16:35 05.04.2022
2914 Clear 26 1010 87 10000 0 0 15:43 05.04.2022
2915 Clear 26 1010 87 10000 0 0 15:43 05.04.2022
2916 Clear 26 1010 87 10000 0 0 15:24 05.04.2022
2917 Clouds 25 1009 86 10000 3.6 260 13:38 05.04.2022
2918 Clouds 30 1007 71 10000 4.02 300 11:51 05.04.2022
2919 Clouds 30 1007 68 10000 4.02 300 11:33 05.04.2022
2920 Clouds 31 1007 61 10000 4.12 300 10:52 05.04.2022
2921 Clouds 33 1007 55 10000 3.6 330 08:55 05.04.2022
2922 Clouds 32 1008 58 10000 3.09 330 07:25 05.04.2022
2923 Clouds 30 1012 74 10000 2.57 60 02:43 05.04.2022
2924 Clouds 26 1010 94 10000 1.54 70 23:18 04.04.2022
2925 Clouds 26 1010 94 10000 1.03 70 22:29 04.04.2022
2926 Clear 26 1011 94 10000 1.03 70 21:22 04.04.2022
2927 Clear 26 1011 94 10000 1.03 70 20:53 04.04.2022
2928 Clouds 26 1010 92 10000 1.03 30 20:35 04.04.2022
2929 Clouds 26 1010 93 10000 1.03 30 19:26 04.04.2022
2930 Clouds 26 1010 92 10000 1.03 330 18:39 04.04.2022
2931 Clouds 27 1012 89 10000 1.54 340 16:41 04.04.2022
2932 Clouds 27 1012 89 10000 1.54 340 16:23 04.04.2022
2933 Clouds 27 1010 89 10000 2.57 330 15:33 04.04.2022
2934 Rain 26 1010 90 10000 3.09 330 14:46 04.04.2022
2935 Rain 26 1009 94 10000 0 0 13:58 04.04.2022
2936 Clouds 26 1009 89 10000 0.51 360 12:41 04.04.2022
2937 Clouds 26 1009 83 10000 6.69 100 11:29 04.04.2022
2938 Clouds 32 1007 67 10000 4.12 290 09:53 04.04.2022
2939 Clouds 30 1010 78 10000 3.6 320 05:33 04.04.2022
2940 Clouds 31 1011 70 10000 1.03 120 02:47 04.04.2022
2941 Clouds 26 1009 93 10000 0 0 22:49 03.04.2022
2942 Clouds 26 1008 92 10000 0.51 230 21:59 03.04.2022
2943 Clouds 26 1009 94 10000 0.51 230 21:25 03.04.2022
2944 Clouds 26 1008 93 10000 2.06 270 20:21 03.04.2022
2945 Clouds 27 1008 88 10000 2.57 270 18:37 03.04.2022
2946 Clouds 27 1009 87 10000 3.09 270 17:50 03.04.2022
2947 Clouds 27 1009 85 10000 2.57 270 17:32 03.04.2022
2948 Clouds 27 1011 86 10000 2.06 270 16:49 03.04.2022
2949 Clear 27 1009 89 10000 1.54 270 15:46 03.04.2022
2950 Clear 28 1009 78 10000 2.68 290 14:20 03.04.2022
2951 Clear 28 1008 73 10000 3.09 290 12:59 03.04.2022
2952 Clouds 30 1011 68 10000 2.57 300 11:39 03.04.2022
2953 Clouds 31 1007 65 10000 3.6 20 09:52 03.04.2022
2954 Clouds 31 1007 60 10000 1.54 260 08:57 03.04.2022
2955 Clouds 33 1011 58 10000 3.58 290 05:45 03.04.2022
2956 Clouds 31 1011 70 10000 3.09 210 02:55 03.04.2022
2957 Clouds 27 1008 89 10000 0 0 23:48 02.04.2022
2958 Clouds 28 1010 85 10000 3.6 270 22:45 02.04.2022
2959 Clouds 27 1007 86 10000 3.6 280 21:56 02.04.2022
2960 Clouds 27 1007 86 10000 3.6 270 21:20 02.04.2022
2961 Clouds 27 1008 86 10000 3.09 280 20:36 02.04.2022
2962 Clouds 27 1008 86 10000 3.09 280 20:36 02.04.2022
2963 Clouds 28 1008 87 10000 4.63 310 18:47 02.04.2022
2964 Clouds 28 1009 85 10000 4.63 310 18:19 02.04.2022
2965 Clouds 28 1009 85 10000 4.12 320 17:23 02.04.2022
2966 Clouds 29 1009 84 10000 2.57 330 15:55 02.04.2022
2967 Clouds 29 1009 83 10000 3.09 320 15:20 02.04.2022
2968 Clouds 29 1009 82 10000 3.09 340 14:31 02.04.2022
2969 Clouds 29 1008 78 10000 2.57 330 13:34 02.04.2022
2970 Rain 28 1007 76 10000 2.57 350 12:21 02.04.2022
2971 Thunderstorm 27 1006 78 10000 2.57 190 10:31 02.04.2022
2972 Clouds 33 1006 67 10000 4.63 270 08:26 02.04.2022
2973 Clouds 33 1008 65 10000 4.12 250 05:24 02.04.2022
2974 Clouds 31 1010 74 10000 2.57 230 02:56 02.04.2022
2975 Clouds 27 1009 89 10000 1.54 250 23:54 01.04.2022
2976 Clouds 28 1008 84 10000 2.57 250 22:51 01.04.2022
2977 Clouds 28 1010 84 10000 2.68 270 21:27 01.04.2022
2978 Clouds 27 1009 87 10000 3.09 270 20:49 01.04.2022
2979 Clouds 26 1008 90 10000 3.09 270 19:50 01.04.2022
2980 Clouds 26 1008 90 10000 3.09 270 19:26 01.04.2022
2981 Clouds 26 1009 90 10000 2.24 280 18:42 01.04.2022
2982 Clouds 26 1009 89 10000 2.06 310 17:43 01.04.2022
2983 Clear 27 1009 83 10000 1.03 170 16:33 01.04.2022
2984 Clouds 26 1009 84 10000 2.06 280 15:18 01.04.2022
2985 Clear 28 1009 80 10000 3.09 230 14:18 01.04.2022
2986 Clear 27 1008 82 10000 2.57 290 13:32 01.04.2022
2987 Clouds 27 1007 74 10000 2.06 270 12:30 01.04.2022
2988 Rain 24 1007 88 10000 6.17 320 10:54 01.04.2022
2989 Thunderstorm 31 1007 74 10000 7.2 300 09:53 01.04.2022
2990 Clouds 32 1007 69 10000 6.17 310 07:50 01.04.2022
2991 Clouds 32 1008 70 10000 4.63 310 06:30 01.04.2022
2992 Clouds 31 1010 72 10000 4.12 320 04:44 01.04.2022
2993 Clouds 31 1011 74 10000 3.6 240 03:21 01.04.2022
2994 Clouds 30 1011 79 10000 4.63 230 01:52 01.04.2022
2995 Clouds 28 1008 88 10000 2.57 240 22:56 31.03.2022
2996 Clouds 28 1008 84 10000 2.06 260 21:49 31.03.2022
2997 Clear 27 1007 86 10000 2.06 260 21:22 31.03.2022
2998 Clouds 27 1007 86 10000 3.09 270 20:28 31.03.2022
2999 Clouds 27 1007 86 10000 3.09 280 19:46 31.03.2022
3000 Clouds 28 1008 85 10000 2.57 270 18:38 31.03.2022
3001 Clouds 28 1009 84 10000 2.57 270 17:32 31.03.2022
3002 Clouds 28 1009 84 10000 2.57 270 16:18 31.03.2022
3003 Clouds 28 1010 82 10000 1.54 280 15:33 31.03.2022
3004 Clouds 29 1009 84 10000 2.06 250 14:52 31.03.2022
3005 Clear 28 1009 85 10000 2.24 260 14:20 31.03.2022
3006 Clouds 29 1008 83 10000 3.6 240 11:32 31.03.2022
3007 Clouds 30 1007 73 10000 4.63 270 10:41 31.03.2022
3008 Clouds 30 1007 75 10000 2.06 290 09:44 31.03.2022
3009 Clouds 32 1008 63 10000 5.66 270 07:49 31.03.2022
3010 Clouds 31 1011 69 10000 2.57 310 03:57 31.03.2022
3011 Clouds 28 1007 84 10000 2.57 260 23:34 30.03.2022
3012 Clouds 28 1009 85 10000 2.06 250 22:23 30.03.2022
3013 Clouds 28 1006 85 10000 3.09 280 21:33 30.03.2022
3014 Clouds 27 1008 86 10000 2.57 280 20:44 30.03.2022
3015 Clouds 28 1008 89 10000 3.09 290 19:57 30.03.2022
3016 Clouds 28 1009 89 10000 3.6 300 18:50 30.03.2022
3017 Clouds 28 1009 88 10000 3.09 300 17:52 30.03.2022
3018 Clouds 28 1009 88 10000 3.09 300 17:52 30.03.2022
3019 Clouds 28 1010 86 10000 3.09 310 17:32 30.03.2022
3020 Clouds 28 1010 85 10000 2.57 300 16:42 30.03.2022
3021 Clouds 28 1010 85 10000 2.68 300 16:19 30.03.2022
3022 Clear 27 1010 88 10000 2.06 290 14:55 30.03.2022
3023 Clear 27 1009 83 10000 1.03 270 13:32 30.03.2022
3024 Clouds 28 1008 74 10000 1.54 260 12:36 30.03.2022
3025 Clouds 31 1007 66 10000 3.6 250 10:48 30.03.2022
3026 Clouds 31 1007 59 10000 3.6 230 09:58 30.03.2022
3027 Clouds 31 1007 65 10000 3.6 250 08:29 30.03.2022
3028 Rain 29 1004 72 10000 4.12 240 07:29 30.03.2022
3029 Clouds 33 1010 67 10000 3.6 310 05:40 30.03.2022
3030 Clouds 31 1011 66 10000 1.54 290 03:20 30.03.2022
3031 Clear 25 1009 93 10000 0 0 22:56 29.03.2022
3032 Clouds 25 1008 92 10000 2.06 320 21:58 29.03.2022
3033 Clouds 25 1008 92 10000 0.51 360 21:37 29.03.2022
3034 Clouds 25 1005 91 10000 2.06 330 20:39 29.03.2022
3035 Clouds 26 1008 89 10000 1.03 320 19:35 29.03.2022
3036 Clouds 26 1008 84 10000 2.06 320 18:54 29.03.2022
3037 Clouds 27 1008 87 10000 2.06 330 17:57 29.03.2022
3038 Clouds 27 1009 83 10000 2.57 330 17:20 29.03.2022
3039 Clear 27 1009 82 10000 2.57 330 16:54 29.03.2022
3040 Clear 27 1009 86 10000 2.57 270 15:44 29.03.2022
3041 Clear 27 1009 83 10000 2.57 280 14:43 29.03.2022
3042 Clear 27 1009 83 10000 2.57 280 14:43 29.03.2022
3043 Clear 27 1008 84 10000 2.57 310 13:36 29.03.2022
3044 Clear 27 1008 82 10000 3.09 310 12:39 29.03.2022
3045 Clear 28 1008 77 10000 3.6 330 11:24 29.03.2022
3046 Clouds 29 1007 75 10000 4.47 300 10:20 29.03.2022
3047 Clouds 30 1007 71 10000 5.66 310 08:52 29.03.2022
3048 Clouds 32 1008 64 10000 3.6 290 06:53 29.03.2022
3049 Rain 26 1010 86 10000 5.66 260 02:55 29.03.2022
3050 Clouds 27 1008 93 10000 1.54 230 23:40 28.03.2022
3051 Clouds 27 1008 89 10000 1.54 200 22:57 28.03.2022
3052 Clouds 27 1007 89 10000 2.06 260 22:33 28.03.2022
3053 Clouds 27 1007 89 10000 2.24 280 21:43 28.03.2022
3054 Clouds 26 1007 90 10000 2.57 240 20:37 28.03.2022
3055 Clouds 26 1007 90 10000 2.24 270 19:57 28.03.2022
3056 Clouds 26 1007 90 10000 2.57 270 19:38 28.03.2022
3057 Clouds 26 1007 91 10000 2.24 280 18:51 28.03.2022
3058 Clouds 26 1008 89 10000 2.57 240 17:41 28.03.2022
3059 Clear 26 1009 93 10000 2.57 240 16:56 28.03.2022
3060 Rain 25 1009 90 10000 2.06 290 15:22 28.03.2022
3061 Rain 25 1007 92 10000 0.51 140 14:24 28.03.2022
3062 Rain 25 1008 92 10000 0 0 13:19 28.03.2022
3063 Rain 25 1009 84 500 7.2 150 11:52 28.03.2022
3064 Clouds 30 1007 79 10000 3.09 300 09:58 28.03.2022
3065 Clouds 30 1006 74 10000 4.47 260 09:21 28.03.2022
3066 Clouds 30 1006 70 10000 4.63 260 08:39 28.03.2022
3067 Clouds 30 1006 71 10000 4.63 260 08:18 28.03.2022
3068 Clouds 33 1007 59 10000 1.54 130 06:31 28.03.2022
3069 Clouds 26 1009 93 10000 1.79 170 00:30 28.03.2022
3070 Clear 26 1007 90 10000 1.54 180 22:36 27.03.2022
3071 Clouds 26 1007 90 10000 1.03 230 21:47 27.03.2022
3072 Clouds 25 1007 92 10000 2.06 260 21:25 27.03.2022
3073 Clouds 25 1007 94 10000 0.51 300 20:24 27.03.2022
3074 Clouds 25 1007 94 10000 1.03 340 19:37 27.03.2022
3075 Clouds 26 1007 91 10000 0.45 290 18:44 27.03.2022
3076 Clouds 26 1007 90 10000 0 0 18:23 27.03.2022
3077 Clouds 26 1007 90 10000 0 0 18:23 27.03.2022
3078 Clouds 26 1008 89 10000 2.06 290 17:35 27.03.2022
3079 Clear 25 1010 90 10000 3.6 80 15:51 27.03.2022
3080 Clear 26 1009 89 10000 2.06 160 13:58 27.03.2022
3081 Clear 26 1009 89 10000 1.54 180 13:21 27.03.2022
3082 Clouds 26 1007 85 10000 2.57 220 11:35 27.03.2022
3083 Rain 27 1006 85 10000 3.6 260 09:37 27.03.2022
3084 Rain 29 1008 80 9000 8.23 290 07:31 27.03.2022
3085 Clouds 30 1010 79 10000 3.09 190 03:45 27.03.2022
3086 Clouds 28 1009 83 10000 1.54 180 00:26 27.03.2022
3087 Clouds 26 1008 94 10000 0.51 210 22:52 26.03.2022
3088 Clear 26 1007 94 10000 1.03 210 21:57 26.03.2022
3089 Clear 26 1007 94 10000 1.34 190 21:30 26.03.2022
3090 Clouds 26 1007 91 10000 0.51 200 19:32 26.03.2022
3091 Clouds 26 1007 91 10000 0.51 200 19:32 26.03.2022
3092 Clouds 26 1007 90 10000 2.06 220 18:44 26.03.2022
3093 Clouds 26 1008 90 10000 2.06 200 17:36 26.03.2022
3094 Clouds 26 1008 90 10000 1.54 250 16:34 26.03.2022
3095 Clear 27 1009 89 10000 1.54 230 15:39 26.03.2022
3096 Clouds 27 1009 89 10000 1.03 240 13:56 26.03.2022
3097 Clouds 27 1011 87 10000 0.51 250 13:36 26.03.2022
3098 Clouds 28 1008 84 10000 2.24 230 11:50 26.03.2022
3099 Clouds 28 1008 81 10000 2.57 220 10:48 26.03.2022
3100 Clouds 30 1007 79 10000 4.12 300 08:48 26.03.2022
3101 Clouds 30 1007 77 1500 4.02 340 06:39 26.03.2022
3102 Clouds 31 1008 70 10000 3.09 280 05:30 26.03.2022
3103 Rain 28 1010 81 10000 0.51 340 01:47 26.03.2022
3104 Rain 25 1008 89 10000 3.09 30 22:21 25.03.2022
3105 Rain 25 1008 88 10000 2.57 20 20:57 25.03.2022
3106 Rain 26 1008 84 10000 4.63 40 20:26 25.03.2022
3107 Clouds 27 1007 87 10000 1.34 240 19:18 25.03.2022
3108 Clouds 27 1008 89 10000 0 0 18:34 25.03.2022
3109 Clouds 28 1008 84 10000 1.03 260 17:29 25.03.2022
3110 Clouds 29 1008 81 10000 2.06 270 16:27 25.03.2022
3111 Clear 28 1009 82 10000 2.57 270 15:26 25.03.2022
3112 Clear 28 1009 78 10000 2.57 260 13:28 25.03.2022
3113 Clouds 29 1007 73 10000 3.58 310 10:50 25.03.2022
3114 Clouds 31 1006 70 10000 3.6 320 09:28 25.03.2022
3115 Clouds 32 1006 67 10000 4.12 320 08:43 25.03.2022
3116 Clouds 32 1006 65 10000 4.63 320 07:32 25.03.2022
3117 Clouds 31 1007 70 10000 3.6 350 06:29 25.03.2022
3118 Clear 30 1010 72 10000 1.54 40 02:28 25.03.2022
3119 Clear 25 1009 89 10000 1.54 140 22:56 24.03.2022
3120 Clear 25 1008 89 10000 1.54 140 21:56 24.03.2022
3121 Clouds 24 1008 91 10000 1.54 100 20:51 24.03.2022
3122 Rain 24 1010 91 10000 1.54 110 19:49 24.03.2022
3123 Clouds 24 1008 94 10000 2.06 110 18:34 24.03.2022
3124 Clouds 24 1009 94 10000 2.06 100 17:32 24.03.2022
3125 Clouds 24 1010 94 10000 2.57 80 16:24 24.03.2022
3126 Rain 25 1009 91 10000 2.24 200 14:51 24.03.2022
3127 Rain 25 1009 88 10000 2.68 240 14:21 24.03.2022
3128 Clear 25 1009 93 10000 1.54 200 13:31 24.03.2022
3129 Rain 25 1008 88 10000 2.57 260 12:23 24.03.2022
3130 Rain 24 1008 94 8000 6.69 170 10:32 24.03.2022
3131 Clouds 27 1007 83 10000 2.06 240 09:24 24.03.2022
3132 Clouds 28 1008 77 2500 8.05 290 07:42 24.03.2022
3133 Clouds 32 1008 66 10000 4.63 300 04:43 24.03.2022
3134 Clouds 28 1008 89 10000 2.06 200 23:41 23.03.2022
3135 Clouds 28 1007 84 10000 2.06 230 22:18 23.03.2022
3136 Clouds 28 1007 84 10000 2.24 270 21:21 23.03.2022
3137 Clouds 27 1007 86 10000 1.54 250 19:51 23.03.2022
3138 Clouds 27 1007 87 10000 1.03 260 19:25 23.03.2022
3139 Clouds 28 1007 83 10000 1.54 240 17:47 23.03.2022
3140 Clouds 28 1008 83 10000 2.06 240 16:55 23.03.2022
3141 Rain 28 1008 80 10000 2.06 260 15:21 23.03.2022
3142 Clouds 29 1008 76 10000 1.54 260 14:42 23.03.2022
3143 Clouds 29 1009 80 10000 4.12 240 13:30 23.03.2022
3144 Rain 29 1006 78 10000 3.09 290 10:50 23.03.2022
3145 Clouds 31 1006 69 10000 3.6 340 08:21 23.03.2022
3146 Clouds 32 1008 62 10000 2.57 320 05:50 23.03.2022
3147 Clouds 30 1009 68 10000 0.51 290 01:59 23.03.2022
3148 Clouds 27 1009 81 10000 2.06 150 00:25 23.03.2022
3149 Clouds 27 1009 81 10000 2.06 150 00:25 23.03.2022
3150 Clear 24 1008 88 10000 1.03 120 21:36 22.03.2022
3151 Clouds 24 1008 85 10000 2.06 140 20:57 22.03.2022
3152 Clouds 25 1009 84 10000 3.6 110 20:18 22.03.2022
3153 Clouds 25 1008 83 10000 3.6 80 19:26 22.03.2022
3154 Clouds 26 1007 83 10000 0.45 201 18:46 22.03.2022
3155 Rain 26 1008 81 10000 3.6 220 17:43 22.03.2022
3156 Rain 26 1009 76 10000 2.06 150 16:37 22.03.2022
3157 Rain 26 1010 82 10000 5.66 130 15:40 22.03.2022
3158 Clouds 26 1010 82 10000 5.66 130 15:19 22.03.2022
3159 Clouds 26 1010 80 10000 5.14 70 14:42 22.03.2022
3160 Clear 28 1009 78 10000 2.06 270 13:42 22.03.2022
3161 Clear 29 1007 70 10000 5.14 320 11:53 22.03.2022
3162 Rain 29 1006 74 10000 2.06 330 10:54 22.03.2022
3163 Clouds 29 1006 67 10000 3.6 350 09:21 22.03.2022
3164 Clouds 33 1005 58 10000 3.6 290 07:30 22.03.2022
3165 Clouds 32 1010 68 10000 2.06 260 03:55 22.03.2022
3166 Clouds 29 1009 83 10000 1.54 140 00:46 22.03.2022
3167 Clouds 27 1009 90 10000 1.03 160 22:48 21.03.2022
3168 Clouds 27 1008 90 10000 0 0 21:30 21.03.2022
3169 Clouds 26 1009 90 10000 1.79 320 20:43 21.03.2022
3170 Clouds 26 1009 89 10000 1.79 320 20:23 21.03.2022
3171 Clouds 27 1008 89 10000 1.54 350 19:35 21.03.2022
3172 Clouds 27 1008 84 10000 2.57 290 18:47 21.03.2022
3173 Clouds 27 1008 83 10000 2.06 10 17:36 21.03.2022
3174 Clouds 27 1009 80 10000 4.47 50 16:59 21.03.2022
3175 Clouds 27 1009 80 10000 4.63 50 16:27 21.03.2022
3176 Clear 26 1009 80 10000 4.47 50 15:43 21.03.2022
3177 Clear 26 1008 80 10000 0.51 160 14:36 21.03.2022
3178 Clear 26 1009 76 10000 4.12 170 13:20 21.03.2022
3179 Clear 27 1008 76 10000 1.54 220 11:58 21.03.2022
3180 Clouds 27 1007 76 10000 4.63 200 11:25 21.03.2022
3181 Clouds 29 1006 75 10000 4.12 280 09:49 21.03.2022
3182 Clouds 31 1005 79 10000 5.66 310 07:39 21.03.2022
3183 Clouds 32 1006 76 10000 5.14 310 06:18 21.03.2022
3184 Clouds 31 1009 66 10000 2.06 190 01:42 21.03.2022
3185 Clear 26 1008 90 10000 1.54 160 22:57 20.03.2022
3186 Clear 26 1008 90 10000 0.51 170 22:25 20.03.2022
3187 Clear 26 1007 93 10000 0.51 180 21:38 20.03.2022
3188 Clouds 26 1007 93 10000 1.03 160 20:56 20.03.2022
3189 Clouds 26 1007 91 10000 0.45 210 20:36 20.03.2022
3190 Clouds 26 1007 93 10000 0.51 210 19:54 20.03.2022
3191 Clouds 26 1007 90 10000 1.03 210 19:24 20.03.2022
3192 Clouds 26 1007 89 10000 2.06 170 17:49 20.03.2022
3193 Clouds 27 1010 88 10000 1.54 190 17:27 20.03.2022
3194 Clouds 26 1008 89 10000 0.51 70 16:38 20.03.2022
3195 Rain 27 1008 84 10000 0 0 14:50 20.03.2022
3196 Rain 27 1008 79 10000 2.06 280 13:39 20.03.2022
3197 Clear 27 1007 81 10000 4.63 290 12:19 20.03.2022
3198 Clouds 29 1007 67 10000 9.26 140 10:28 20.03.2022
3199 Clouds 32 1005 66 10000 3.09 310 08:26 20.03.2022
3200 Clouds 34 1006 55 10000 3.6 300 06:39 20.03.2022
3201 Clouds 33 1011 60 10000 1.54 290 03:25 20.03.2022
3202 Clear 31 1009 72 10000 1.03 170 00:54 20.03.2022
3203 Clear 31 1009 72 10000 1.03 170 00:54 20.03.2022
3204 Clear 30 1008 73 10000 1.54 190 00:34 20.03.2022
3205 Clouds 25 1007 93 10000 1.54 210 22:39 19.03.2022
3206 Clear 26 1006 89 10000 0 0 21:27 19.03.2022
3207 Clear 25 1006 89 10000 0 0 19:42 19.03.2022
3208 Clouds 26 1006 85 10000 1.03 190 18:44 19.03.2022
3209 Clouds 26 1006 81 10000 1.54 200 17:55 19.03.2022
3210 Clouds 26 1007 81 10000 2.06 220 17:33 19.03.2022
3211 Clear 27 1007 80 10000 1.54 220 15:41 19.03.2022
3212 Clear 28 1007 81 10000 3.09 240 14:21 19.03.2022
3213 Clear 29 1007 77 10000 3.09 240 12:56 19.03.2022
3214 Clouds 29 1007 76 10000 2.57 240 12:37 19.03.2022
3215 Clouds 29 1005 75 10000 1.54 310 11:47 19.03.2022
3216 Clouds 31 1004 66 10000 0 0 09:55 19.03.2022
3217 Clouds 32 1008 68 10000 5.14 310 05:48 19.03.2022
3218 Clouds 32 1008 62 10000 2.06 260 02:37 19.03.2022
3219 Clouds 30 1007 74 10000 2.57 270 00:54 19.03.2022
3220 Clouds 28 1007 90 10000 0.51 230 23:22 18.03.2022
3221 Clouds 27 1006 89 10000 1.03 180 22:23 18.03.2022
3222 Clouds 26 1006 92 10000 1.54 220 20:48 18.03.2022
3223 Clouds 27 1006 88 10000 1.54 240 19:48 18.03.2022
3224 Clouds 26 1006 90 10000 1.54 250 19:19 18.03.2022
3225 Clouds 26 1006 90 10000 1.54 250 19:19 18.03.2022
3226 Clouds 28 1006 86 10000 1.54 240 17:27 18.03.2022
3227 Clouds 28 1006 85 10000 2.06 250 16:45 18.03.2022
3228 Clouds 28 1006 85 10000 1.54 240 14:30 18.03.2022
3229 Clear 29 1006 82 10000 2.06 260 13:41 18.03.2022
3230 Clear 30 1005 81 10000 4.63 290 12:19 18.03.2022
3231 Clouds 31 1004 70 10000 3.6 270 10:38 18.03.2022
3232 Clouds 31 1004 69 10000 4.63 280 09:21 18.03.2022
3233 Clouds 33 1004 66 10000 6.17 300 07:45 18.03.2022
3234 Clouds 32 1005 70 10000 5.66 310 05:39 18.03.2022
3235 Clouds 31 1008 74 10000 3.09 210 02:44 18.03.2022
3236 Clouds 30 1008 79 10000 1.03 230 00:21 18.03.2022
3237 Clouds 28 1007 89 10000 1.54 220 22:56 17.03.2022
3238 Clouds 27 1010 94 10000 2.06 250 22:22 17.03.2022
3239 Clouds 27 1007 89 10000 1.34 230 21:47 17.03.2022
3240 Clouds 26 1006 91 10000 1.54 230 21:19 17.03.2022
3241 Clouds 26 1006 91 10000 2.06 240 20:32 17.03.2022
3242 Clouds 26 1006 91 10000 1.54 250 19:41 17.03.2022
3243 Clouds 26 1006 91 10000 1.54 270 18:57 17.03.2022
3244 Clouds 26 1006 91 10000 1.03 310 17:55 17.03.2022
3245 Clouds 27 1007 87 10000 1.54 220 16:34 17.03.2022
3246 Clouds 27 1007 87 10000 1.54 210 15:44 17.03.2022
3247 Clouds 27 1007 89 10000 1.54 210 15:21 17.03.2022
3248 Clouds 27 1007 87 10000 1.54 280 13:49 17.03.2022
3249 Clear 27 1007 86 10000 1.03 290 12:49 17.03.2022
3250 Clear 28 1006 85 10000 2.24 290 11:53 17.03.2022
3251 Clouds 28 1006 84 10000 2.24 290 11:22 17.03.2022
3252 Clouds 29 1006 79 10000 2.57 300 09:48 17.03.2022
3253 Clouds 30 1006 74 10000 2.06 350 08:31 17.03.2022
3254 Clouds 31 1006 69 10000 2.57 20 07:32 17.03.2022
3255 Clouds 31 1007 71 10000 4.12 30 05:47 17.03.2022
3256 Clouds 27 1009 82 10000 2.06 50 00:45 17.03.2022
3257 Clear 26 1007 78 10000 3.6 60 22:59 16.03.2022
3258 Clear 25 1007 83 10000 2.57 70 22:40 16.03.2022
3259 Clear 25 1007 83 10000 2.57 70 22:19 16.03.2022
3260 Clouds 25 1010 78 10000 3.6 130 21:29 16.03.2022
3261 Clouds 27 1006 72 10000 7.2 70 19:27 16.03.2022
3262 Clouds 26 1007 78 10000 6.17 50 18:58 16.03.2022
3263 Clouds 26 1007 78 10000 6.17 50 18:24 16.03.2022
3264 Clouds 28 1010 83 10000 3.6 30 17:37 16.03.2022
3265 Clouds 28 1008 84 10000 2.57 40 16:50 16.03.2022
3266 Clouds 28 1008 84 10000 2.06 70 15:53 16.03.2022
3267 Clear 28 1008 84 10000 2.06 40 14:24 16.03.2022
3268 Clear 29 1008 80 10000 3.09 40 13:22 16.03.2022
3269 Clear 29 1006 79 10000 3.09 60 11:53 16.03.2022
3270 Clouds 29 1006 79 10000 2.57 70 11:20 16.03.2022
3271 Clouds 30 1005 71 10000 4.12 70 10:18 16.03.2022
3272 Clouds 32 1005 62 10000 5.66 80 08:38 16.03.2022
3273 Clouds 31 1007 66 10000 6.71 90 04:35 16.03.2022
3274 Clouds 27 1007 82 10000 4.63 90 00:42 16.03.2022
3275 Clouds 26 1006 89 10000 3.6 90 22:37 15.03.2022
3276 Clear 26 1006 89 10000 2.57 120 21:50 15.03.2022
3277 Clouds 26 1005 94 10000 2.06 130 19:53 15.03.2022
3278 Clouds 26 1006 87 10000 2.24 140 18:45 15.03.2022
3279 Clouds 27 1007 84 10000 3.09 110 16:53 15.03.2022
3280 Clouds 27 1007 87 10000 3.6 110 16:18 15.03.2022
3281 Clear 27 1007 88 10000 1.54 80 14:57 15.03.2022
3282 Clouds 28 1007 85 10000 1.03 70 14:31 15.03.2022
3283 Clouds 28 1007 83 10000 3.58 50 13:27 15.03.2022
3284 Clear 29 1006 79 10000 5.14 40 11:57 15.03.2022
3285 Clouds 29 1006 79 10000 5.14 40 11:19 15.03.2022
3286 Clouds 33 1004 58 10000 3.09 50 09:37 15.03.2022
3287 Clouds 33 1004 55 10000 4.12 100 08:32 15.03.2022
3288 Clouds 33 1004 55 10000 5.66 100 07:50 15.03.2022
3289 Clouds 33 1005 61 10000 4.63 90 06:51 15.03.2022
3290 Clouds 30 1008 74 10000 3.6 100 02:38 15.03.2022
3291 Clouds 25 1007 94 10000 2.57 180 23:38 14.03.2022
3292 Clouds 25 1007 94 10000 2.57 180 23:20 14.03.2022
3293 Clouds 25 1006 89 10000 2.06 170 21:59 14.03.2022
3294 Clear 25 1006 94 10000 2.06 170 21:20 14.03.2022
3295 Clouds 25 1006 89 10000 2.06 150 20:34 14.03.2022
3296 Clouds 24 1006 90 10000 2.06 190 19:59 14.03.2022
3297 Clouds 24 1007 90 10000 2.06 130 18:31 14.03.2022
3298 Clouds 24 1010 91 10000 2.57 150 17:44 14.03.2022
3299 Clouds 24 1008 91 10000 2.57 170 16:57 14.03.2022
3300 Clouds 24 1009 95 10000 1.03 140 15:29 14.03.2022
3301 Rain 24 1008 94 10000 1.54 10 14:33 14.03.2022
3302 Rain 24 1007 94 10000 2.57 50 11:53 14.03.2022
3303 Thunderstorm 24 1007 94 4000 1.54 100 10:35 14.03.2022
3304 Rain 27 1010 78 500 7.72 50 09:39 14.03.2022
3305 Clouds 31 1008 70 10000 5.66 300 09:20 14.03.2022
3306 Clouds 31 1004 70 10000 5.66 310 08:49 14.03.2022
3307 Clouds 32 1005 67 10000 4.63 300 07:21 14.03.2022
3308 Clouds 31 1008 72 10000 1.03 150 04:27 14.03.2022
3309 Clouds 29 1010 81 10000 1.03 190 01:52 14.03.2022
3310 Clouds 26 1012 94 10000 1.79 200 00:40 14.03.2022
3311 Fog 25 1007 94 10000 2.06 150 21:56 13.03.2022
3312 Clouds 25 1007 97 10000 1.54 150 21:28 13.03.2022
3313 Rain 25 1007 99 10000 2.57 160 20:53 13.03.2022
3314 Rain 25 1007 99 10000 1.54 150 20:29 13.03.2022
3315 Clouds 24 1007 95 10000 1.54 170 19:43 13.03.2022
3316 Clouds 25 1008 94 10000 1.54 170 19:25 13.03.2022
3317 Rain 24 1008 95 10000 0.89 270 18:50 13.03.2022
3318 Rain 25 1008 94 10000 1.03 270 18:27 13.03.2022
3319 Rain 24 1009 94 10000 0.51 200 17:40 13.03.2022
3320 Rain 24 1010 94 10000 1.03 200 16:48 13.03.2022
3321 Rain 24 1011 100 10000 1.03 200 16:27 13.03.2022
3322 Rain 24 1011 94 10000 1.54 230 15:44 13.03.2022
3323 Rain 24 1011 94 10000 0 0 14:50 13.03.2022
3324 Rain 24 1011 94 10000 0 0 14:50 13.03.2022
3325 Rain 23 1010 100 10000 1.54 250 13:30 13.03.2022
3326 Rain 26 1009 91 2000 11.32 140 12:37 13.03.2022
3327 Clouds 29 1007 89 10000 3.09 320 11:51 13.03.2022
3328 Clouds 30 1007 85 10000 2.06 330 11:30 13.03.2022
3329 Clouds 30 1006 80 10000 2.06 300 10:46 13.03.2022
3330 Clouds 31 1006 74 10000 1.54 340 09:53 13.03.2022
3331 Clouds 31 1006 72 10000 2.68 350 09:29 13.03.2022
3332 Clouds 31 1006 71 10000 2.06 350 08:40 13.03.2022
3333 Clouds 29 1006 85 10000 2.06 330 07:37 13.03.2022
3334 Clouds 32 1008 72 10000 4.63 300 05:39 13.03.2022
3335 Clouds 31 1010 73 10000 1.54 130 01:48 13.03.2022
3336 Clouds 26 1009 87 10000 3.09 150 23:30 12.03.2022
3337 Clouds 25 1008 90 10000 1.54 150 21:49 12.03.2022
3338 Clouds 25 1007 90 10000 1.54 100 20:29 12.03.2022
3339 Clouds 25 1007 92 10000 1.54 140 19:47 12.03.2022
3340 Rain 25 1011 90 10000 1.03 190 18:47 12.03.2022
3341 Rain 25 1011 90 10000 2.06 160 18:20 12.03.2022
3342 Clouds 25 1012 93 10000 2.57 160 16:32 12.03.2022
3343 Clouds 26 1009 93 10000 3.6 160 15:55 12.03.2022
3344 Clouds 26 1008 90 10000 1.54 90 15:22 12.03.2022
3345 Clouds 26 1008 90 10000 1.54 90 15:22 12.03.2022
3346 Rain 28 1008 81 7000 8.75 100 13:55 12.03.2022
3347 Clear 29 1007 76 10000 2.06 60 12:33 12.03.2022
3348 Clear 30 1006 74 10000 2.06 20 11:55 12.03.2022
3349 Clouds 30 1005 77 10000 2.06 350 11:34 12.03.2022
3350 Clouds 31 1005 71 10000 2.57 340 10:43 12.03.2022
3351 Clouds 32 1005 66 10000 2.57 340 09:44 12.03.2022
3352 Clouds 32 1005 66 10000 4.47 340 08:41 12.03.2022
3353 Clouds 33 1006 58 10000 2.68 280 06:44 12.03.2022
3354 Clear 30 1010 72 10000 2.57 140 01:44 12.03.2022
3355 Clear 26 1008 82 10000 2.57 160 23:46 11.03.2022
3356 Clear 25 1007 88 10000 1.03 110 22:45 11.03.2022
3357 Rain 25 1007 88 10000 2.57 140 21:26 11.03.2022
3358 Rain 25 1007 88 10000 2.57 130 20:51 11.03.2022
3359 Rain 25 1011 89 10000 3.6 160 20:26 11.03.2022
3360 Clouds 25 1008 85 10000 5.14 130 19:35 11.03.2022
3361 Clouds 26 1008 88 10000 4.12 140 18:43 11.03.2022
3362 Clouds 26 1008 88 10000 3.09 150 17:26 11.03.2022
3363 Clouds 27 1011 89 10000 1.54 100 16:26 11.03.2022
3364 Clouds 27 1009 89 10000 1.03 100 15:51 11.03.2022
3365 Clear 28 1008 85 10000 0.51 210 13:45 11.03.2022
3366 Clear 29 1007 81 10000 1.54 230 12:41 11.03.2022
3367 Clear 29 1007 81 10000 1.54 230 12:20 11.03.2022
3368 Clear 28 1007 80 10000 0.51 210 11:28 11.03.2022
3369 Rain 30 1006 72 10000 2.57 210 09:36 11.03.2022
3370 Clouds 31 1006 73 10000 3.09 290 08:28 11.03.2022
3371 Rain 30 1006 77 10000 2.57 240 07:48 11.03.2022
3372 Rain 33 1005 67 10000 4.12 310 06:55 11.03.2022
3373 Clouds 31 1008 70 10000 3.6 310 04:44 11.03.2022
3374 Clouds 31 1009 82 10000 3.6 290 01:51 11.03.2022
3375 Clouds 28 1007 89 10000 1.54 290 22:33 10.03.2022
3376 Clouds 28 1007 89 10000 1.54 320 21:58 10.03.2022
3377 Clouds 28 1007 89 10000 2.57 320 21:26 10.03.2022
3378 Clouds 27 1007 90 10000 2.57 320 20:37 10.03.2022
3379 Clouds 27 1007 85 10000 2.06 350 19:22 10.03.2022
3380 Clouds 28 1007 86 10000 1.03 250 18:18 10.03.2022
3381 Clouds 28 1008 85 10000 1.54 260 16:53 10.03.2022
3382 Clouds 29 1008 82 10000 2.57 260 15:36 10.03.2022
3383 Clouds 28 1008 81 10000 1.54 250 14:19 10.03.2022
3384 Clouds 29 1007 75 10000 2.24 270 12:44 10.03.2022
3385 Clouds 30 1007 71 10000 2.06 320 11:37 10.03.2022
3386 Clouds 31 1006 59 10000 1.54 340 10:19 10.03.2022
3387 Clouds 34 1005 46 10000 4.12 350 08:40 10.03.2022
3388 Clouds 31 1007 74 10000 4.12 280 05:48 10.03.2022
3389 Clouds 32 1009 70 10000 3.6 340 03:33 10.03.2022
3390 Clouds 29 1009 80 10000 1.54 110 00:23 10.03.2022
3391 Clear 25 1007 90 10000 1.54 100 22:43 09.03.2022
3392 Clear 25 1007 92 10000 1.54 90 21:48 09.03.2022
3393 Clouds 25 1007 91 10000 1.03 50 20:53 09.03.2022
3394 Clouds 25 1006 90 10000 1.54 40 19:28 09.03.2022
3395 Clouds 26 1007 86 10000 0 0 17:57 09.03.2022
3396 Clouds 26 1007 85 10000 2.57 220 17:23 09.03.2022
3397 Clouds 27 1009 82 10000 2.57 220 15:41 09.03.2022
3398 Clouds 27 1009 79 10000 4.12 190 14:27 09.03.2022
3399 Clouds 28 1009 75 10000 3.09 190 13:50 09.03.2022
3400 Clouds 29 1008 73 10000 3.09 90 12:25 09.03.2022
3401 Clouds 31 1008 69 10000 5.66 100 11:48 09.03.2022
3402 Clouds 32 1006 65 10000 3.09 40 10:55 09.03.2022
3403 Clouds 34 1005 55 10000 4.12 30 09:28 09.03.2022
3404 Clouds 35 1005 52 10000 3.09 20 08:44 09.03.2022
3405 Clouds 35 1006 49 10000 3.09 30 05:56 09.03.2022
3406 Clear 29 1008 70 10000 2.06 100 00:58 09.03.2022
3407 Clear 26 1008 77 10000 2.57 100 23:48 08.03.2022
3408 Clear 25 1007 79 10000 3.58 130 22:46 08.03.2022
3409 Clear 25 1008 79 10000 3.09 140 21:47 08.03.2022
3410 Clear 25 1008 79 10000 4.12 150 21:19 08.03.2022
3411 Clouds 25 1007 76 10000 3.09 140 20:19 08.03.2022
3412 Rain 25 1008 77 10000 5.14 170 18:57 08.03.2022
3413 Rain 25 1008 79 10000 6.71 140 18:21 08.03.2022
3414 Rain 27 1008 84 10000 3.58 180 16:42 08.03.2022
3415 Clouds 28 1009 78 10000 5.66 170 14:55 08.03.2022
3416 Clouds 29 1008 83 10000 3.09 300 13:39 08.03.2022
3417 Clear 30 1007 75 10000 2.57 340 12:20 08.03.2022
3418 Rain 30 1007 71 10000 2.06 330 11:42 08.03.2022
3419 Rain 32 1006 64 10000 4.12 340 10:28 08.03.2022
3420 Clouds 33 1005 62 10000 3.6 320 08:56 08.03.2022
3421 Clouds 32 1006 66 10000 3.09 300 05:51 08.03.2022
3422 Clouds 32 1008 68 10000 2.06 300 02:37 08.03.2022
3423 Clouds 28 1006 89 10000 1.54 320 22:43 07.03.2022
3424 Clouds 28 1005 84 10000 1.54 300 21:44 07.03.2022
3425 Clouds 28 1006 85 10000 2.06 280 20:56 07.03.2022
3426 Clouds 28 1006 82 10000 2.57 330 20:29 07.03.2022
3427 Clouds 28 1005 84 10000 2.57 330 19:49 07.03.2022
3428 Clouds 29 1005 80 10000 2.06 340 18:57 07.03.2022
3429 Clouds 29 1006 80 10000 2.06 320 18:29 07.03.2022
3430 Clouds 28 1007 82 10000 2.24 340 17:24 07.03.2022
3431 Clouds 29 1007 81 10000 3.09 340 16:41 07.03.2022
3432 Clouds 29 1007 81 10000 3.6 340 14:51 07.03.2022
3433 Rain 29 1007 77 10000 2.06 340 12:34 07.03.2022
3434 Rain 30 1006 73 10000 2.57 10 11:26 07.03.2022
3435 Rain 31 1005 70 10000 3.09 20 10:30 07.03.2022
3436 Clouds 32 1005 68 10000 3.58 330 08:34 07.03.2022
3437 Clouds 32 1005 68 10000 3.58 330 08:34 07.03.2022
3438 Clouds 31 1008 74 10000 2.57 210 02:25 07.03.2022
3439 Clouds 30 1008 84 10000 1.54 220 00:20 07.03.2022
3440 Clouds 28 1007 94 10000 0 0 23:23 06.03.2022
3441 Clouds 27 1007 93 10000 0 0 22:27 06.03.2022
3442 Clouds 27 1007 93 10000 0 0 21:37 06.03.2022
3443 Clouds 27 1006 94 10000 0 0 20:29 06.03.2022
3444 Rain 27 1006 91 10000 0 0 19:39 06.03.2022
3445 Rain 27 1006 93 10000 1.03 130 18:50 06.03.2022
3446 Rain 27 1006 93 10000 0 0 17:46 06.03.2022
3447 Clouds 27 1006 90 10000 0 0 17:19 06.03.2022
3448 Clouds 29 1007 86 10000 1.54 280 16:39 06.03.2022
3449 Clouds 28 1007 89 10000 1.54 280 15:26 06.03.2022
3450 Rain 29 1007 89 10000 2.57 290 14:42 06.03.2022
3451 Rain 29 1007 86 10000 2.06 290 13:49 06.03.2022
3452 Clouds 29 1006 86 10000 3.09 290 12:40 06.03.2022
3453 Rain 30 1006 80 10000 3.6 270 11:46 06.03.2022
3454 Clouds 31 1005 76 10000 3.09 270 10:40 06.03.2022
3455 Clouds 32 1004 70 10000 3.6 300 09:18 06.03.2022
3456 Clouds 32 1003 66 10000 4.63 300 08:28 06.03.2022
3457 Clouds 32 1003 68 10000 4.63 290 07:26 06.03.2022
3458 Clouds 32 1007 71 10000 3.09 290 02:45 06.03.2022
3459 Rain 30 1007 81 10000 3.6 230 00:36 06.03.2022
3460 Clouds 30 1007 82 10000 3.6 230 00:18 06.03.2022
3461 Clouds 29 1006 89 10000 2.24 250 23:19 05.03.2022
3462 Clouds 29 1006 89 10000 2.57 250 22:34 05.03.2022
3463 Clouds 29 1006 86 10000 2.57 270 21:29 05.03.2022
3464 Clouds 29 1005 87 10000 4.63 280 20:32 05.03.2022
3465 Clouds 29 1005 89 10000 4.12 290 19:22 05.03.2022
3466 Clouds 29 1005 89 10000 4.63 310 18:39 05.03.2022
3467 Clouds 29 1005 87 10000 4.63 320 17:34 05.03.2022
3468 Clouds 29 1005 87 10000 5.14 310 16:19 05.03.2022
3469 Clouds 29 1006 88 10000 3.6 270 15:20 05.03.2022
3470 Clouds 29 1006 87 10000 2.57 270 14:36 05.03.2022
3471 Clouds 29 1005 86 10000 3.6 270 13:44 05.03.2022
3472 Clouds 29 1004 86 10000 3.6 280 12:45 05.03.2022
3473 Clouds 30 1004 85 10000 4.63 300 11:21 05.03.2022
3474 Clouds 30 1003 84 10000 5.14 290 10:52 05.03.2022
3475 Clouds 32 1003 74 10000 6.17 300 09:37 05.03.2022
3476 Clouds 32 1003 74 10000 6.71 300 08:31 05.03.2022
3477 Clouds 33 1003 72 10000 7.72 300 07:22 05.03.2022
3478 Clouds 33 1004 71 10000 4.63 310 05:39 05.03.2022
3479 Clouds 30 1007 84 10000 3.6 220 00:51 05.03.2022
3480 Clouds 28 1006 91 10000 2.57 230 23:21 04.03.2022
3481 Clouds 28 1005 94 10000 1.54 270 22:39 04.03.2022
3482 Clouds 28 1005 94 10000 2.06 260 21:43 04.03.2022
3483 Clear 28 1005 92 10000 2.24 290 20:45 04.03.2022
3484 Clouds 29 1005 85 10000 1.54 280 19:38 04.03.2022
3485 Clouds 28 1005 87 10000 2.06 250 18:59 04.03.2022
3486 Clouds 28 1005 87 10000 2.57 250 18:36 04.03.2022
3487 Clouds 29 1006 86 10000 2.57 270 17:29 04.03.2022
3488 Rain 29 1006 86 10000 2.06 260 16:26 04.03.2022
3489 Rain 29 1007 85 10000 0.51 260 15:27 04.03.2022
3490 Rain 29 1007 81 10000 3.6 260 13:38 04.03.2022
3491 Rain 29 1007 81 10000 4.02 270 12:48 04.03.2022
3492 Rain 29 1006 78 10000 4.47 260 11:37 04.03.2022
3493 Clouds 30 1005 77 10000 4.63 260 10:30 04.03.2022
3494 Rain 32 1005 75 10000 5.14 280 09:28 04.03.2022
3495 Clouds 33 1005 68 10000 6.71 270 07:49 04.03.2022
3496 Clouds 34 1006 62 10000 6.17 280 06:55 04.03.2022
3497 Clouds 32 1009 66 10000 4.63 250 02:52 04.03.2022
3498 Clouds 29 1008 84 10000 3.09 250 23:43 03.03.2022
3499 Clouds 28 1008 87 10000 3.6 270 22:19 03.03.2022
3500 Clouds 28 1007 84 10000 3.6 270 21:37 03.03.2022
3501 Clouds 28 1007 84 10000 2.57 270 20:56 03.03.2022
3502 Clouds 28 1007 84 10000 3.09 270 19:42 03.03.2022
3503 Clouds 28 1007 83 10000 3.09 270 18:44 03.03.2022
3504 Clouds 28 1008 84 10000 3.6 270 17:46 03.03.2022
3505 Clouds 28 1008 84 10000 3.6 270 17:26 03.03.2022
3506 Clouds 28 1008 85 10000 2.57 270 15:47 03.03.2022
3507 Clouds 28 1009 83 10000 2.57 240 14:52 03.03.2022
3508 Clouds 28 1009 83 10000 2.57 240 14:32 03.03.2022
3509 Clouds 29 1008 82 10000 3.09 250 12:52 03.03.2022
3510 Clouds 29 1007 81 10000 4.12 270 11:39 03.03.2022
3511 Clouds 29 1006 77 10000 5.14 270 10:40 03.03.2022
3512 Clouds 31 1005 72 10000 6.17 270 08:45 03.03.2022
3513 Clouds 32 1006 68 10000 7.2 300 07:25 03.03.2022
3514 Clouds 33 1006 67 10000 6.71 300 06:33 03.03.2022
3515 Clouds 30 1009 75 10000 3.6 270 01:21 03.03.2022
3516 Clouds 28 1008 85 10000 2.06 270 23:29 02.03.2022
3517 Clouds 27 1007 89 10000 2.24 270 22:50 02.03.2022
3518 Clouds 27 1007 89 10000 2.57 260 21:29 02.03.2022
3519 Clouds 27 1007 89 10000 3.09 280 20:44 02.03.2022
3520 Clouds 26 1006 90 10000 2.06 270 19:56 02.03.2022
3521 Clouds 26 1007 89 10000 1.54 260 19:34 02.03.2022
3522 Clouds 27 1007 88 10000 1.54 250 18:44 02.03.2022
3523 Clouds 27 1007 86 10000 2.57 260 17:57 02.03.2022
3524 Clouds 27 1007 89 10000 2.57 280 17:23 02.03.2022
3525 Clouds 27 1007 85 10000 2.57 280 16:45 02.03.2022
3526 Clouds 27 1008 85 10000 2.57 260 14:44 02.03.2022
3527 Clouds 28 1008 81 10000 2.06 260 13:24 02.03.2022
3528 Clouds 28 1007 81 10000 3.09 270 12:42 02.03.2022
3529 Clouds 29 1006 78 10000 3.6 270 11:40 02.03.2022
3530 Clouds 29 1006 77 10000 3.6 270 11:22 02.03.2022
3531 Clouds 31 1005 70 10000 5.66 280 09:42 02.03.2022
3532 Clouds 31 1005 68 10000 5.14 290 08:55 02.03.2022
3533 Clouds 32 1006 65 10000 6.71 300 07:38 02.03.2022
3534 Clouds 31 1006 70 10000 7.72 290 06:51 02.03.2022
3535 Clouds 31 1009 73 10000 6.17 300 02:35 02.03.2022
3536 Clouds 29 1008 83 10000 2.57 280 23:55 01.03.2022
3537 Clouds 27 1007 89 10000 2.57 270 22:46 01.03.2022
3538 Clouds 27 1007 89 10000 2.57 270 22:19 01.03.2022
3539 Clouds 27 1007 89 10000 2.57 270 21:25 01.03.2022
3540 Clouds 27 1006 88 10000 3.09 270 20:30 01.03.2022
3541 Clouds 27 1006 88 10000 3.09 270 20:30 01.03.2022
3542 Clouds 27 1006 88 10000 3.09 270 20:30 01.03.2022
3543 Clouds 27 1006 88 10000 2.06 270 19:38 01.03.2022
3544 Clouds 27 1007 87 10000 3.58 280 18:49 01.03.2022
3545 Clouds 27 1007 88 10000 3.6 280 18:20 01.03.2022
3546 Clouds 27 1008 89 10000 2.06 270 17:22 01.03.2022
3547 Clouds 26 1008 89 10000 2.57 270 16:33 01.03.2022
3548 Clouds 26 1008 89 10000 2.57 270 15:38 01.03.2022
3549 Clear 27 1009 88 10000 2.06 270 14:35 01.03.2022
3550 Clear 27 1008 88 10000 2.06 270 13:52 01.03.2022
3551 Clouds 27 1008 83 10000 3.58 270 13:24 01.03.2022
3552 Clouds 27 1007 81 10000 4.12 270 12:32 01.03.2022
3553 Clouds 29 1006 74 10000 4.12 280 10:36 01.03.2022
3554 Clouds 31 1006 68 10000 5.66 290 08:42 01.03.2022
3555 Clouds 31 1006 67 10000 5.66 290 07:52 01.03.2022
3556 Clouds 32 1007 67 10000 6.17 290 05:54 01.03.2022
3557 Clouds 29 1009 82 10000 4.63 280 02:44 01.03.2022
3558 Clouds 29 1009 83 10000 4.63 320 00:34 01.03.2022
3559 Clouds 28 1008 85 10000 4.12 330 23:30 28.02.2022
3560 Clouds 28 1007 89 10000 2.57 330 22:18 28.02.2022
3561 Clouds 28 1007 85 10000 3.6 340 21:37 28.02.2022
3562 Clouds 28 1005 88 10000 2.57 350 19:56 28.02.2022
3563 Clouds 27 1007 91 10000 2.57 350 19:36 28.02.2022
3564 Clouds 27 1006 89 10000 2.24 350 18:44 28.02.2022
3565 Clouds 27 1007 86 10000 2.06 350 17:33 28.02.2022
3566 Clouds 28 1008 87 10000 2.57 350 16:34 28.02.2022
3567 Rain 28 1008 88 10000 3.09 330 15:27 28.02.2022
3568 Clouds 28 1007 85 10000 3.09 350 14:32 28.02.2022
3569 Clouds 28 1007 88 10000 3.09 350 13:48 28.02.2022
3570 Clear 27 1007 85 10000 2.06 330 12:48 28.02.2022
3571 Clear 27 1006 84 10000 2.06 300 11:58 28.02.2022
3572 Clear 28 1006 82 10000 2.06 290 11:18 28.02.2022
3573 Clouds 29 1006 76 10000 3.09 300 10:21 28.02.2022
3574 Clouds 30 1006 70 10000 3.6 310 09:36 28.02.2022
3575 Clouds 30 1006 71 10000 4.12 300 08:44 28.02.2022
3576 Clouds 30 1007 68 10000 4.63 300 07:43 28.02.2022
3577 Clouds 31 1007 71 10000 5.14 310 05:25 28.02.2022
3578 Clouds 30 1008 76 10000 5.66 340 04:27 28.02.2022
3579 Rain 26 1008 89 10000 2.57 280 00:34 28.02.2022
3580 Clouds 26 1007 90 10000 5.14 340 22:38 27.02.2022
3581 Clouds 26 1007 94 10000 2.57 360 21:55 27.02.2022
3582 Clouds 26 1007 94 10000 1.03 10 21:35 27.02.2022
3583 Clouds 25 1006 94 10000 2.06 360 20:40 27.02.2022
3584 Clouds 25 1006 94 10000 1.54 360 19:59 27.02.2022
3585 Clouds 25 1006 94 10000 1.54 10 19:27 27.02.2022
3586 Clouds 25 1006 94 10000 2.06 360 18:56 27.02.2022
3587 Clouds 25 1007 94 10000 2.06 340 17:57 27.02.2022
3588 Clouds 25 1007 94 10000 2.57 340 17:26 27.02.2022
3589 Clouds 25 1006 94 10000 1.54 50 16:22 27.02.2022
3590 Clouds 25 1007 94 10000 2.06 40 14:28 27.02.2022
3591 Rain 25 1007 94 10000 1.54 70 12:35 27.02.2022
3592 Rain 25 1006 91 10000 0.51 10 11:36 27.02.2022
3593 Rain 25 1006 90 10000 2.57 300 10:36 27.02.2022
3594 Rain 26 1005 89 10000 8.49 300 09:52 27.02.2022
3595 Rain 26 1005 85 10000 8.75 300 09:21 27.02.2022
3596 Clouds 30 1004 76 10000 7.2 340 08:38 27.02.2022
3597 Clouds 31 1005 70 10000 5.36 340 05:43 27.02.2022
3598 Clouds 30 1007 70 10000 5.66 350 03:26 27.02.2022
3599 Clouds 28 1006 84 10000 4.63 360 23:51 26.02.2022
3600 Clouds 27 1006 89 10000 4.12 360 22:42 26.02.2022
3601 Rain 26 1005 86 10000 3.6 360 21:26 26.02.2022
3602 Clouds 26 1004 86 10000 3.09 360 20:37 26.02.2022
3603 Clouds 26 1005 89 10000 3.09 360 19:55 26.02.2022
3604 Clouds 26 1007 85 10000 3.09 350 19:33 26.02.2022
3605 Clouds 27 1005 81 10000 4.63 340 18:33 26.02.2022
3606 Rain 27 1006 81 10000 5.66 340 17:34 26.02.2022
3607 Rain 27 1006 84 10000 5.66 350 16:39 26.02.2022
3608 Rain 27 1007 85 10000 5.14 350 15:37 26.02.2022
3609 Rain 27 1007 85 10000 5.14 350 15:18 26.02.2022
3610 Clouds 27 1007 82 10000 5.66 350 14:41 26.02.2022
3611 Clouds 26 1008 88 10000 5.14 10 13:51 26.02.2022
3612 Rain 26 1006 92 10000 3.6 60 12:53 26.02.2022
3613 Clouds 26 1005 89 10000 3.6 40 11:52 26.02.2022
3614 Clouds 26 1005 89 10000 3.6 30 11:25 26.02.2022
3615 Clouds 28 1004 84 10000 3.6 360 09:44 26.02.2022
3616 Rain 28 1004 84 10000 4.12 360 08:28 26.02.2022
3617 Rain 27 1004 86 10000 4.63 60 06:31 26.02.2022
3618 Rain 25 1007 92 10000 2.68 150 23:53 25.02.2022
3619 Rain 25 1006 94 10000 2.57 100 22:43 25.02.2022
3620 Rain 25 1004 94 10000 3.6 30 21:33 25.02.2022
3621 Rain 25 1005 94 10000 3.09 50 20:56 25.02.2022
3622 Clouds 25 1004 94 10000 4.63 50 20:27 25.02.2022
3623 Rain 25 1004 94 10000 3.58 30 17:57 25.02.2022
3624 Rain 24 1005 94 10000 3.6 20 17:20 25.02.2022
3625 Rain 24 1006 94 8000 4.12 30 16:19 25.02.2022
3626 Rain 24 1006 94 8000 4.12 360 15:24 25.02.2022
3627 Rain 24 1006 94 8000 4.12 360 15:24 25.02.2022
3628 Rain 25 1007 94 5000 4.12 360 14:56 25.02.2022
3629 Rain 24 1006 96 5000 4.12 360 14:37 25.02.2022
3630 Rain 24 1006 99 9000 3.6 80 13:30 25.02.2022
3631 Rain 24 1006 94 8000 3.6 70 12:33 25.02.2022
3632 Rain 24 1004 94 10000 3.6 80 11:22 25.02.2022
3633 Rain 24 1004 97 10000 3.6 60 10:24 25.02.2022
3634 Rain 24 1004 97 10000 3.6 60 09:51 25.02.2022
3635 Rain 25 1004 94 10000 4.63 50 08:42 25.02.2022
3636 Rain 25 1004 93 10000 3.09 20 07:35 25.02.2022
3637 Rain 25 1005 92 10000 7.72 350 05:43 25.02.2022
3638 Rain 25 1007 94 10000 3.6 30 02:49 25.02.2022
3639 Drizzle 24 1006 94 10000 4.63 40 22:55 24.02.2022
3640 Clouds 24 1006 94 10000 5.66 40 21:51 24.02.2022
3641 Rain 24 1007 91 10000 7.15 30 21:31 24.02.2022
3642 Rain 24 1007 94 10000 7.2 30 20:53 24.02.2022
3643 Clouds 25 1006 93 10000 5.14 20 19:38 24.02.2022
3644 Rain 25 1006 94 10000 5.81 20 18:36 24.02.2022
3645 Rain 25 1006 94 10000 5.81 20 18:18 24.02.2022
3646 Clouds 25 1007 92 10000 6.17 30 17:33 24.02.2022
3647 Clouds 25 1007 91 10000 4.63 10 16:29 24.02.2022
3648 Rain 26 1008 92 10000 4.12 30 15:46 24.02.2022
3649 Rain 25 1008 94 10000 3.6 40 14:52 24.02.2022
3650 Rain 25 1008 94 10000 3.6 40 14:20 24.02.2022
3651 Rain 26 1008 94 10000 3.09 50 13:39 24.02.2022
3652 Rain 26 1008 94 10000 3.09 80 12:28 24.02.2022
3653 Rain 26 1006 93 10000 4.63 60 10:40 24.02.2022
3654 Rain 25 1006 94 10000 5.66 90 08:56 24.02.2022
3655 Rain 25 1006 95 10000 6.17 80 08:38 24.02.2022
3656 Rain 26 1007 93 10000 5.66 80 05:52 24.02.2022
3657 Rain 29 1008 79 10000 5.14 70 01:56 24.02.2022
3658 Clouds 26 1006 89 10000 2.57 30 22:38 23.02.2022
3659 Clouds 26 1006 89 10000 2.57 30 22:38 23.02.2022
3660 Rain 26 1006 88 10000 3.09 60 21:37 23.02.2022
3661 Clouds 26 1007 88 10000 4.47 40 20:31 23.02.2022
3662 Clouds 26 1007 89 10000 4.12 60 19:44 23.02.2022
3663 Clouds 26 1007 89 10000 3.6 60 18:32 23.02.2022
3664 Clouds 26 1008 88 10000 3.6 60 17:30 23.02.2022
3665 Clouds 26 1009 88 10000 2.06 80 14:34 23.02.2022
3666 Clouds 27 1008 84 10000 2.57 350 12:37 23.02.2022
3667 Clouds 27 1007 80 10000 3.6 350 11:24 23.02.2022
3668 Clouds 28 1007 79 10000 5.66 360 10:31 23.02.2022
3669 Rain 28 1008 75 10000 6.71 360 08:59 23.02.2022
3670 Rain 28 1006 74 10000 7.72 10 07:58 23.02.2022
3671 Rain 28 1008 75 10000 6.71 30 03:49 23.02.2022
3672 Rain 26 1009 90 10000 4.63 30 00:28 23.02.2022
3673 Rain 25 1007 94 10000 2.57 50 23:36 22.02.2022
3674 Rain 25 1008 94 10000 2.57 70 22:31 22.02.2022
3675 Rain 25 1006 94 10000 2.57 100 21:49 22.02.2022
3676 Clouds 25 1006 94 10000 2.57 100 21:30 22.02.2022
3677 Clouds 25 1006 94 10000 2.57 100 21:30 22.02.2022
3678 Clouds 25 1006 94 10000 4.12 70 20:52 22.02.2022
3679 Clouds 25 1005 90 10000 4.12 70 20:29 22.02.2022
3680 Clouds 24 1005 94 10000 3.6 70 19:42 22.02.2022
3681 Clouds 24 1005 94 10000 3.6 70 19:19 22.02.2022
3682 Rain 23 1006 94 10000 5.36 40 17:48 22.02.2022
3683 Rain 23 1007 94 10000 5.66 40 17:21 22.02.2022
3684 Rain 23 1009 94 10000 3.6 10 16:37 22.02.2022
3685 Rain 24 1009 94 4000 7.72 80 15:40 22.02.2022
3686 Rain 25 1008 92 10000 1.79 160 14:44 22.02.2022
3687 Rain 24 1007 94 3000 6.69 130 12:23 22.02.2022
3688 Clouds 31 1005 72 10000 2.57 310 10:50 22.02.2022
3689 Clouds 32 1004 66 10000 2.68 310 08:41 22.02.2022
3690 Clouds 32 1004 67 10000 1.54 310 07:26 22.02.2022
3691 Rain 31 1006 70 10000 1.54 340 04:59 22.02.2022
3692 Clouds 28 1008 89 10000 5.14 360 01:45 22.02.2022
3693 Clouds 25 1006 94 10000 2.06 30 22:46 21.02.2022
3694 Clouds 25 1005 94 10000 2.06 70 21:33 21.02.2022
3695 Clouds 25 1005 88 10000 2.57 90 20:35 21.02.2022
3696 Clouds 25 1005 88 10000 2.57 90 20:35 21.02.2022
3697 Clouds 25 1004 94 10000 0.51 80 18:46 21.02.2022
3698 Clouds 25 1006 94 10000 1.54 80 16:58 21.02.2022
3699 Rain 25 1009 94 10000 2.24 170 15:20 21.02.2022
3700 Rain 25 1007 95 10000 1.54 240 14:21 21.02.2022
3701 Rain 25 1007 95 10000 1.54 240 14:21 21.02.2022
3702 Rain 24 1007 97 4000 5.81 130 13:20 21.02.2022
3703 Rain 25 1007 88 10000 9.77 140 12:23 21.02.2022
3704 Clouds 26 1004 94 10000 1.54 170 11:19 21.02.2022
3705 Rain 27 1003 94 10000 1.03 30 09:34 21.02.2022
3706 Rain 32 1004 67 10000 5.66 290 05:35 21.02.2022
3707 Clouds 26 1007 92 10000 1.03 70 23:41 20.02.2022
3708 Clear 26 1004 93 10000 1.54 100 22:25 20.02.2022
3709 Clear 26 1004 94 10000 1.03 70 21:42 20.02.2022
3710 Clouds 26 1004 93 10000 1.54 80 20:53 20.02.2022
3711 Clouds 26 1004 93 10000 0.51 70 20:35 20.02.2022
3712 Clouds 26 1006 91 10000 1.54 160 19:32 20.02.2022
3713 Clouds 26 1006 93 10000 1.54 100 18:50 20.02.2022
3714 Clouds 26 1004 90 10000 1.54 60 18:31 20.02.2022
3715 Clouds 26 1004 90 10000 1.54 60 18:31 20.02.2022
3716 Clouds 26 1006 90 10000 0.51 40 17:48 20.02.2022
3717 Clear 26 1006 85 10000 1.54 330 15:37 20.02.2022
3718 Clear 25 1005 89 10000 1.03 140 14:42 20.02.2022
3719 Clear 25 1005 89 10000 1.54 30 13:23 20.02.2022
3720 Clouds 26 1006 89 10000 6.69 90 12:25 20.02.2022
3721 Clouds 30 1004 75 10000 1.54 300 10:38 20.02.2022
3722 Clouds 30 1004 74 10000 1.54 300 10:19 20.02.2022
3723 Clouds 32 1003 66 10000 2.57 340 08:26 20.02.2022
3724 Rain 27 1007 81 10000 1.54 110 00:54 20.02.2022
3725 Rain 27 1007 81 10000 1.54 110 00:54 20.02.2022
3726 Clear 26 1006 85 10000 0.51 50 00:29 20.02.2022
3727 Rain 24 1005 94 10000 0 0 22:47 19.02.2022
3728 Rain 25 1005 88 10000 0 0 22:22 19.02.2022
3729 Rain 24 1005 94 10000 2.06 190 20:51 19.02.2022
3730 Rain 25 1006 83 10000 3.09 160 19:53 19.02.2022
3731 Rain 25 1009 83 10000 5.14 170 19:28 19.02.2022
3732 Rain 25 1007 83 10000 5.66 160 18:33 19.02.2022
3733 Rain 25 1007 83 10000 2.57 70 17:35 19.02.2022
3734 Clouds 26 1007 87 10000 2.57 70 16:22 19.02.2022
3735 Clouds 27 1008 85 10000 1.54 220 14:56 19.02.2022
3736 Clouds 27 1008 85 10000 2.06 210 14:37 19.02.2022
3737 Clear 28 1007 84 10000 1.54 270 13:22 19.02.2022
3738 Rain 27 1006 79 10000 1.54 350 11:37 19.02.2022
3739 Clouds 31 1005 71 10000 2.57 340 09:45 19.02.2022
3740 Clouds 33 1005 58 10000 3.09 340 06:54 19.02.2022
3741 Clouds 32 1008 64 10000 1.03 30 03:38 19.02.2022
3742 Clouds 24 1007 88 10000 2.06 90 23:29 18.02.2022
3743 Clear 23 1007 94 10000 3.6 50 21:49 18.02.2022
3744 Clouds 23 1007 94 10000 2.06 100 20:42 18.02.2022
3745 Rain 23 1007 94 10000 2.06 170 19:52 18.02.2022
3746 Rain 23 1008 88 5000 7.72 130 18:50 18.02.2022
3747 Clouds 25 1009 88 10000 8.75 140 18:20 18.02.2022
3748 Clouds 26 1009 89 10000 2.57 150 17:38 18.02.2022
3749 Clouds 27 1008 86 10000 1.54 200 14:50 18.02.2022
3750 Clouds 28 1009 83 10000 2.57 250 13:55 18.02.2022
3751 Clouds 28 1009 82 10000 1.54 310 12:53 18.02.2022
3752 Clear 29 1007 72 10000 3.09 360 11:58 18.02.2022
3753 Clouds 29 1006 67 10000 2.68 360 11:22 18.02.2022
3754 Clouds 31 1005 66 10000 3.6 350 09:52 18.02.2022
3755 Clouds 30 1006 79 10000 2.57 340 06:54 18.02.2022
3756 Rain 31 1007 81 10000 2.57 310 05:39 18.02.2022
3757 Clouds 25 1007 94 10000 1.54 120 22:57 17.02.2022
3758 Clouds 25 1007 94 10000 1.54 100 21:44 17.02.2022
3759 Clouds 25 1008 94 10000 1.79 90 21:19 17.02.2022
3760 Clouds 25 1008 94 10000 2.06 90 20:36 17.02.2022
3761 Clouds 25 1007 94 10000 2.06 70 19:48 17.02.2022
3762 Clouds 25 1008 94 10000 1.54 100 18:41 17.02.2022
3763 Clouds 25 1008 91 10000 1.54 100 17:50 17.02.2022
3764 Clouds 25 1008 94 10000 1.54 130 16:25 17.02.2022
3765 Clear 26 1008 94 10000 1.03 150 15:30 17.02.2022
3766 Clear 26 1008 94 10000 1.54 150 14:25 17.02.2022
3767 Clear 26 1007 93 10000 0 0 12:35 17.02.2022
3768 Clouds 26 1006 89 10000 1.54 100 11:21 17.02.2022
3769 Clouds 27 1005 83 9000 3.09 100 08:45 17.02.2022
3770 Clouds 27 1008 84 10000 0.51 70 00:31 17.02.2022
3771 Clouds 25 1007 93 10000 0 0 23:19 16.02.2022
3772 Clouds 25 1006 83 10000 1.54 10 21:31 16.02.2022
3773 Rain 24 1005 94 10000 0 0 19:46 16.02.2022
3774 Rain 23 1006 94 10000 1.03 300 18:38 16.02.2022
3775 Thunderstorm 23 1007 94 5000 3.09 360 17:53 16.02.2022
3776 Clouds 28 1007 83 10000 2.06 280 15:38 16.02.2022
3777 Clouds 28 1007 82 10000 1.54 260 14:59 16.02.2022
3778 Clouds 28 1006 78 10000 2.06 280 12:35 16.02.2022
3779 Clouds 29 1005 76 10000 2.57 300 11:55 16.02.2022
3780 Clouds 29 1005 74 10000 2.57 310 11:24 16.02.2022
3781 Clouds 31 1007 64 10000 3.6 300 10:33 16.02.2022
3782 Clouds 32 1007 62 10000 4.12 340 07:21 16.02.2022
3783 Clouds 33 1005 59 10000 3.6 320 05:20 16.02.2022
3784 Clouds 29 1007 81 10000 0.51 150 23:44 15.02.2022
3785 Clouds 26 1006 90 10000 0.51 90 22:28 15.02.2022
3786 Clouds 26 1010 89 10000 1.03 110 21:46 15.02.2022
3787 Clouds 27 1010 89 10000 1.54 160 21:27 15.02.2022
3788 Clouds 26 1010 89 10000 1.03 50 20:56 15.02.2022
3789 Clouds 26 1006 88 10000 0 0 19:57 15.02.2022
3790 Clouds 27 1007 87 10000 0 0 18:52 15.02.2022
3791 Clouds 26 1007 88 10000 0 0 18:20 15.02.2022
3792 Clouds 27 1007 84 10000 1.03 50 17:49 15.02.2022
3793 Clouds 28 1007 80 10000 1.54 80 16:38 15.02.2022
3794 Clouds 28 1008 83 10000 1.03 350 15:26 15.02.2022
3795 Clear 28 1007 79 10000 1.03 360 13:27 15.02.2022
3796 Clouds 29 1006 70 10000 2.57 10 11:58 15.02.2022
3797 Clear 30 1006 69 10000 3.09 10 11:27 15.02.2022
3798 Clouds 32 1005 63 10000 4.47 340 09:31 15.02.2022
3799 Clear 34 1006 48 10000 5.14 60 06:52 15.02.2022
3800 Clear 33 1008 44 10000 5.66 120 04:54 15.02.2022
3801 Clouds 25 1010 94 10000 2.06 160 23:33 14.02.2022
3802 Clear 24 1008 94 10000 2.06 170 21:36 14.02.2022
3803 Clouds 24 1008 94 10000 1.54 130 20:37 14.02.2022
3804 Rain 24 1008 94 10000 2.24 160 19:34 14.02.2022
3805 Rain 24 1009 94 10000 2.57 160 18:44 14.02.2022
3806 Rain 23 1009 94 10000 2.06 180 18:22 14.02.2022
3807 Rain 23 1011 88 10000 1.54 100 17:26 14.02.2022
3808 Thunderstorm 22 1012 94 10000 2.57 60 16:24 14.02.2022
3809 Clouds 29 1010 79 10000 1.54 320 14:31 14.02.2022
3810 Clouds 29 1010 74 10000 0.51 290 13:33 14.02.2022
3811 Clear 29 1009 74 10000 1.03 290 12:52 14.02.2022
3812 Clouds 30 1008 72 10000 3.6 10 11:54 14.02.2022
3813 Clouds 31 1007 65 10000 2.57 330 10:56 14.02.2022
3814 Clouds 32 1007 62 10000 4.63 350 08:45 14.02.2022
3815 Clouds 32 1008 55 10000 4.63 350 07:32 14.02.2022
3816 Clouds 32 1009 60 10000 3.58 300 05:56 14.02.2022
3817 Clouds 25 1009 85 10000 2.06 100 22:43 13.02.2022
3818 Clouds 25 1009 84 10000 2.06 100 22:25 13.02.2022
3819 Clear 25 1008 84 10000 1.54 120 21:32 13.02.2022
3820 Clouds 25 1008 84 10000 0.51 150 20:40 13.02.2022
3821 Clouds 25 1007 82 10000 0 0 19:45 13.02.2022
3822 Clouds 26 1007 78 10000 1.54 130 18:54 13.02.2022
3823 Clouds 26 1008 83 10000 2.06 70 18:35 13.02.2022
3824 Clouds 26 1009 83 10000 3.09 70 16:38 13.02.2022
3825 Clouds 26 1010 86 10000 1.54 80 15:27 13.02.2022
3826 Clouds 26 1010 81 10000 1.03 200 14:37 13.02.2022
3827 Clouds 27 1008 79 10000 5.14 190 12:52 13.02.2022
3828 Clouds 28 1009 73 10000 0.51 350 12:18 13.02.2022
3829 Clouds 31 1006 62 10000 3.6 20 10:38 13.02.2022
3830 Clouds 33 1006 56 10000 4.12 40 09:49 13.02.2022
3831 Clouds 32 1005 70 10000 3.6 280 07:52 13.02.2022
3832 Clouds 29 1008 76 10000 1.03 90 00:36 13.02.2022
3833 Clouds 29 1008 78 10000 1.03 130 23:54 12.02.2022
3834 Clouds 25 1006 86 10000 0 0 22:34 12.02.2022
3835 Clouds 25 1006 86 10000 1.03 150 21:40 12.02.2022
3836 Clear 25 1006 86 10000 0.45 150 20:52 12.02.2022
3837 Clouds 25 1006 85 10000 1.54 150 19:48 12.02.2022
3838 Clouds 25 1007 85 10000 2.06 150 18:53 12.02.2022
3839 Clouds 25 1007 78 10000 1.03 170 18:35 12.02.2022
3840 Clear 25 1007 83 10000 2.06 150 17:38 12.02.2022
3841 Clouds 25 1006 81 10000 2.06 160 16:44 12.02.2022
3842 Clouds 25 1007 83 10000 2.57 170 15:52 12.02.2022
3843 Clear 25 1007 81 10000 2.06 140 15:20 12.02.2022
3844 Clouds 25 1007 83 10000 1.54 190 14:25 12.02.2022
3845 Clouds 30 1006 68 10000 3.09 50 11:26 12.02.2022
3846 Clouds 31 1004 59 10000 4.63 30 10:29 12.02.2022
3847 Clouds 32 1004 59 10000 6.17 40 09:36 12.02.2022
3848 Clouds 33 1004 62 10000 5.66 20 08:46 12.02.2022
3849 Clouds 33 1005 66 10000 4.63 350 06:52 12.02.2022
3850 Clouds 33 1006 64 10000 3.09 320 04:44 12.02.2022
3851 Clouds 32 1008 62 10000 1.03 50 02:19 12.02.2022
3852 Clouds 26 1008 89 10000 2.24 70 23:20 11.02.2022
3853 Clouds 26 1008 90 10000 1.54 130 22:21 11.02.2022
3854 Clouds 26 1008 89 10000 1.03 240 21:32 11.02.2022
3855 Clouds 26 1007 89 10000 1.54 240 20:26 11.02.2022
3856 Rain 27 1007 84 10000 4.92 240 19:28 11.02.2022
3857 Rain 28 1007 84 10000 2.24 360 18:29 11.02.2022
3858 Rain 29 1007 81 10000 2.57 10 17:27 11.02.2022
3859 Clouds 29 1008 83 10000 3.09 340 16:39 11.02.2022
3860 Clouds 29 1008 81 10000 3.09 340 15:19 11.02.2022
3861 Clear 29 1008 79 10000 2.06 330 14:37 11.02.2022
3862 Clear 29 1007 79 10000 2.68 10 14:19 11.02.2022
3863 Clear 29 1007 81 10000 3.09 10 13:40 11.02.2022
3864 Clear 30 1006 80 10000 3.6 10 12:45 11.02.2022
3865 Clouds 31 1005 77 10000 4.12 30 10:55 11.02.2022
3866 Clouds 32 1005 75 10000 4.63 350 09:32 11.02.2022
3867 Clear 33 1005 70 10000 6.17 310 08:31 11.02.2022
3868 Clouds 35 1005 49 10000 1.54 120 07:40 11.02.2022
3869 Clouds 34 1007 52 10000 4.12 110 05:34 11.02.2022
3870 Clouds 31 1009 70 10000 3.09 170 02:21 11.02.2022
3871 Clouds 28 1009 82 10000 3.6 120 23:45 10.02.2022
3872 Clear 26 1009 89 10000 2.06 150 22:25 10.02.2022
3873 Clouds 26 1009 89 10000 2.57 110 21:40 10.02.2022
3874 Clouds 26 1008 89 10000 2.06 110 20:48 10.02.2022
3875 Clouds 26 1007 89 10000 2.24 100 19:51 10.02.2022
3876 Clouds 26 1008 89 10000 2.24 100 19:22 10.02.2022
3877 Clouds 26 1008 89 10000 1.34 10 18:22 10.02.2022
3878 Clouds 27 1009 83 10000 2.24 360 17:21 10.02.2022
3879 Clouds 28 1009 84 10000 2.57 360 16:39 10.02.2022
3880 Clouds 28 1009 87 10000 3.6 350 15:39 10.02.2022
3881 Clouds 28 1009 87 10000 3.6 350 15:20 10.02.2022
3882 Clouds 28 1009 85 10000 2.06 100 14:34 10.02.2022
3883 Clouds 28 1009 84 10000 2.57 30 13:37 10.02.2022
3884 Clouds 28 1009 84 10000 2.57 30 13:18 10.02.2022
3885 Clouds 29 1008 77 10000 3.09 10 11:50 10.02.2022
3886 Clouds 29 1007 77 10000 2.57 10 11:28 10.02.2022
3887 Clouds 31 1007 69 10000 3.09 50 10:23 10.02.2022
3888 Clouds 31 1006 66 10000 3.6 60 09:44 10.02.2022
3889 Clouds 33 1005 60 10000 5.14 20 08:25 10.02.2022
3890 Clouds 33 1006 55 10000 3.6 50 06:32 10.02.2022
3891 Clouds 32 1010 69 10000 2.57 60 02:43 10.02.2022
3892 Clouds 29 1009 85 10000 2.06 60 00:52 10.02.2022
3893 Clouds 28 1009 89 10000 2.57 100 00:30 10.02.2022
3894 Clouds 27 1009 92 10000 2.57 90 23:58 09.02.2022
3895 Clouds 26 1008 90 10000 2.06 100 22:54 09.02.2022
3896 Clouds 26 1007 90 10000 1.34 100 22:30 09.02.2022
3897 Clear 26 1007 89 10000 1.54 100 21:46 09.02.2022
3898 Clear 26 1007 89 10000 1.54 360 21:26 09.02.2022
3899 Clouds 27 1006 89 10000 1.54 340 20:42 09.02.2022
3900 Clouds 27 1006 89 10000 1.54 340 20:21 09.02.2022
3901 Clouds 27 1006 89 10000 1.54 330 19:39 09.02.2022
3902 Clouds 26 1006 91 10000 2.06 340 18:30 09.02.2022
3903 Clouds 27 1007 85 10000 1.79 350 16:54 09.02.2022
3904 Clear 28 1007 82 10000 2.06 350 15:56 09.02.2022
3905 Clear 28 1007 81 10000 2.06 340 15:22 09.02.2022
3906 Clear 28 1007 86 10000 2.57 10 12:42 09.02.2022
3907 Clear 29 1005 81 10000 4.02 360 11:20 09.02.2022
3908 Clouds 31 1006 65 10000 5.14 350 10:33 09.02.2022
3909 Clouds 33 1004 52 10000 3.09 40 09:45 09.02.2022
3910 Clouds 33 1004 49 10000 3.6 40 09:20 09.02.2022
3911 Clouds 33 1004 52 10000 3.09 30 08:43 09.02.2022
3912 Clouds 33 1006 66 10000 5.66 350 05:55 09.02.2022
3913 Clouds 33 1009 58 10000 3.6 40 03:51 09.02.2022
3914 Clouds 31 1008 71 10000 2.57 110 01:55 09.02.2022
3915 Clouds 27 1007 89 10000 2.57 120 23:42 08.02.2022
3916 Clouds 27 1007 90 10000 2.57 120 23:18 08.02.2022
3917 Clouds 26 1007 93 10000 2.06 140 22:38 08.02.2022
3918 Clouds 26 1007 93 10000 2.06 140 22:18 08.02.2022
3919 Clouds 26 1006 93 10000 2.06 120 21:22 08.02.2022
3920 Clouds 26 1006 93 10000 2.06 140 20:56 08.02.2022
3921 Clouds 26 1006 93 10000 2.57 170 20:31 08.02.2022
3922 Clouds 26 1006 94 10000 1.03 250 18:55 08.02.2022
3923 Clouds 26 1006 93 10000 0 0 17:57 08.02.2022
3924 Clouds 26 1007 92 10000 0.51 270 16:55 08.02.2022
3925 Clouds 26 1007 90 10000 1.03 270 15:45 08.02.2022
3926 Clouds 27 1008 88 10000 2.57 250 14:58 08.02.2022
3927 Rain 27 1007 89 10000 1.54 240 13:39 08.02.2022
3928 Rain 27 1007 85 10000 2.57 280 12:21 08.02.2022
3929 Rain 28 1006 85 10000 3.09 270 10:48 08.02.2022
3930 Rain 29 1005 81 10000 5.14 300 09:47 08.02.2022
3931 Clouds 30 1005 75 10000 5.66 300 08:38 08.02.2022
3932 Rain 30 1008 77 10000 3.6 290 06:24 08.02.2022
3933 Rain 31 1007 70 10000 4.12 280 04:40 08.02.2022
3934 Rain 31 1007 70 10000 4.12 280 04:22 08.02.2022
3935 Clouds 31 1008 73 10000 4.12 200 03:36 08.02.2022
3936 Clouds 31 1008 73 10000 4.12 200 03:18 08.02.2022
3937 Clouds 29 1009 78 10000 4.12 240 02:59 08.02.2022
3938 Clouds 30 1009 75 10000 5.66 250 02:36 08.02.2022
3939 Rain 30 1009 76 10000 5.66 250 02:18 08.02.2022
3940 Clouds 30 1009 78 10000 3.6 260 01:44 08.02.2022
3941 Clouds 30 1009 80 10000 3.6 260 01:25 08.02.2022
3942 Clouds 28 1009 84 10000 3.09 280 00:55 08.02.2022
3943 Clouds 27 1009 89 10000 5.66 270 00:19 08.02.2022
3944 Clouds 27 1008 89 10000 2.06 240 23:43 07.02.2022
3945 Clouds 27 1008 89 10000 2.06 240 23:18 07.02.2022
3946 Clouds 27 1008 90 10000 2.57 250 22:59 07.02.2022
3947 Clouds 27 1007 90 10000 1.54 270 22:18 07.02.2022
3948 Clouds 27 1007 90 10000 1.54 250 21:49 07.02.2022
3949 Clouds 26 1007 92 10000 2.06 260 21:27 07.02.2022
3950 Clouds 27 1007 93 10000 1.54 260 20:43 07.02.2022
3951 Clouds 26 1007 93 10000 1.54 260 20:24 07.02.2022
3952 Clouds 27 1007 93 10000 2.06 260 19:47 07.02.2022
3953 Clouds 27 1007 93 10000 2.06 270 18:34 07.02.2022
3954 Clouds 27 1008 93 10000 2.57 270 16:53 07.02.2022
3955 Clouds 27 1009 93 10000 2.06 270 16:24 07.02.2022
3956 Clouds 27 1009 94 10000 2.06 260 15:48 07.02.2022
3957 Clouds 27 1009 90 10000 1.54 290 13:39 07.02.2022
3958 Clouds 27 1008 90 10000 1.54 290 13:21 07.02.2022
3959 Clouds 27 1008 85 10000 3.6 270 11:58 07.02.2022
3960 Clouds 27 1008 85 10000 3.6 260 11:38 07.02.2022
3961 Clouds 28 1007 82 10000 4.12 270 10:54 07.02.2022
3962 Clouds 28 1006 81 10000 4.12 280 10:36 07.02.2022
3963 Rain 29 1006 82 10000 4.12 300 09:53 07.02.2022
3964 Rain 29 1006 83 10000 4.63 290 09:18 07.02.2022
3965 Rain 30 1008 77 10000 5.66 290 08:44 07.02.2022
3966 Clouds 31 1007 73 10000 5.66 290 07:34 07.02.2022
3967 Rain 30 1007 81 10000 5.14 310 06:34 07.02.2022
3968 Rain 27 1009 89 10000 3.09 220 04:18 07.02.2022
3969 Clouds 30 1010 79 10000 2.57 270 00:54 07.02.2022
3970 Clouds 28 1009 83 10000 1.03 250 23:50 06.02.2022
3971 Clouds 27 1009 87 10000 1.03 250 23:19 06.02.2022
3972 Clouds 25 1008 91 10000 1.03 250 22:37 06.02.2022
3973 Clear 25 1007 90 10000 1.54 250 21:37 06.02.2022
3974 Clouds 25 1007 91 10000 1.03 300 20:58 06.02.2022
3975 Clouds 25 1007 90 10000 2.57 310 20:36 06.02.2022
3976 Clouds 26 1007 90 10000 2.57 290 19:50 06.02.2022
3977 Clouds 26 1007 94 10000 0 0 18:52 06.02.2022
3978 Clouds 26 1008 94 10000 0 0 18:26 06.02.2022
3979 Clouds 26 1008 95 10000 0 0 17:29 06.02.2022
3980 Clouds 26 1009 97 10000 0 0 16:50 06.02.2022
3981 Clear 26 1009 94 10000 0 0 15:50 06.02.2022
3982 Clear 26 1009 94 10000 0 0 15:28 06.02.2022
3983 Clear 26 1009 93 10000 1.03 280 14:59 06.02.2022
3984 Clear 26 1009 90 10000 1.54 270 13:57 06.02.2022
3985 Clear 26 1008 90 10000 1.54 280 13:20 06.02.2022
3986 Clouds 26 1008 89 10000 1.54 300 11:45 06.02.2022
3987 Clouds 28 1007 84 10000 1.54 310 10:33 06.02.2022
3988 Clouds 28 1007 82 10000 2.57 290 09:36 06.02.2022
3989 Clouds 28 1007 84 10000 3.6 310 08:41 06.02.2022
3990 Rain 27 1009 88 10000 2.57 290 06:31 06.02.2022
3991 Rain 26 1010 93 10000 2.06 290 05:27 06.02.2022
3992 Rain 28 1011 85 5000 3.6 280 02:25 06.02.2022
3993 Clouds 27 1009 92 10000 2.06 20 00:30 06.02.2022
3994 Clouds 26 1008 92 10000 1.03 110 23:38 05.02.2022
3995 Clouds 25 1007 94 10000 0 0 21:46 05.02.2022
3996 Clouds 25 1006 93 10000 1.54 120 20:39 05.02.2022
3997 Clouds 25 1007 92 10000 1.54 120 20:19 05.02.2022
3998 Clouds 25 1007 90 10000 1.54 110 19:41 05.02.2022
3999 Clouds 25 1007 90 10000 1.54 100 18:26 05.02.2022
4000 Clouds 26 1007 90 10000 2.06 100 17:34 05.02.2022
4001 Clouds 26 1008 89 10000 2.06 100 15:51 05.02.2022
4002 Clouds 26 1009 89 10000 2.06 110 15:29 05.02.2022
4003 Clouds 27 1008 82 10000 1.54 270 13:25 05.02.2022
4004 Clouds 27 1008 82 10000 1.54 270 13:25 05.02.2022
4005 Clouds 27 1008 82 10000 1.54 220 12:42 05.02.2022
4006 Rain 28 1007 81 10000 2.06 240 11:29 05.02.2022
4007 Rain 28 1007 78 10000 3.09 250 10:43 05.02.2022
4008 Rain 29 1006 80 10000 3.6 270 09:49 05.02.2022
4009 Clouds 30 1005 74 10000 5.66 300 08:34 05.02.2022
4010 Clouds 31 1005 70 10000 5.66 310 06:59 05.02.2022
4011 Clouds 31 1005 70 10000 5.66 300 06:27 05.02.2022
4012 Clouds 29 1008 74 10000 3.6 270 02:31 05.02.2022
4013 Clouds 28 1008 82 10000 2.06 270 01:18 05.02.2022
4014 Clouds 27 1008 88 10000 1.03 260 00:36 05.02.2022
4015 Rain 25 1008 94 10000 1.03 250 23:33 04.02.2022
4016 Clouds 24 1007 95 10000 3.6 290 22:39 04.02.2022
4017 Rain 24 1007 97 10000 2.06 280 21:36 04.02.2022
4018 Clouds 24 1007 97 10000 2.06 280 21:18 04.02.2022
4019 Rain 24 1006 95 10000 1.03 240 20:29 04.02.2022
4020 Rain 25 1007 94 10000 2.06 90 18:35 04.02.2022
4021 Clouds 25 1007 94 10000 1.54 350 16:20 04.02.2022
4022 Clouds 25 1007 94 10000 0 0 15:18 04.02.2022
4023 Clouds 25 1007 94 10000 1.54 350 14:40 04.02.2022
4024 Rain 26 1007 94 10000 1.54 30 12:43 04.02.2022
4025 Rain 26 1006 94 10000 1.03 30 11:44 04.02.2022
4026 Rain 26 1005 94 10000 1.03 360 10:53 04.02.2022
4027 Rain 26 1005 93 10000 1.54 340 09:35 04.02.2022
4028 Clouds 27 1005 88 8000 4.63 310 07:44 04.02.2022
4029 Rain 26 1007 89 10000 2.06 360 03:28 04.02.2022
4030 Rain 24 1007 94 10000 3.6 340 02:33 04.02.2022
4031 Clouds 26 1005 94 10000 3.09 340 23:34 03.02.2022
4032 Clouds 26 1004 94 10000 3.6 350 22:48 03.02.2022
4033 Clouds 26 1004 94 10000 2.57 340 21:51 03.02.2022
4034 Clouds 26 1004 93 10000 4.63 330 21:22 03.02.2022
4035 Rain 25 1003 97 10000 2.06 30 20:21 03.02.2022
4036 Rain 25 1004 94 10000 2.57 360 19:36 03.02.2022
4037 Clouds 25 1004 90 10000 3.09 10 18:50 03.02.2022
4038 Clouds 25 1004 88 10000 2.06 310 17:55 03.02.2022
4039 Clouds 26 1005 88 10000 2.57 300 16:48 03.02.2022
4040 Clouds 27 1006 85 10000 3.6 290 14:59 03.02.2022
4041 Clouds 27 1005 86 10000 5.14 310 13:19 03.02.2022
4042 Rain 27 1004 87 10000 5.14 310 11:47 03.02.2022
4043 Clouds 28 1003 84 10000 3.6 300 08:55 03.02.2022
4044 Clouds 29 1004 84 10000 4.63 290 07:41 03.02.2022
4045 Rain 27 1006 87 10000 3.6 280 00:35 03.02.2022
4046 Clouds 27 1006 93 10000 2.57 270 23:47 02.02.2022
4047 Clouds 25 1005 92 10000 3.6 270 22:38 02.02.2022
4048 Rain 26 1004 92 10000 3.6 290 21:45 02.02.2022
4049 Clouds 26 1004 90 10000 3.09 270 21:27 02.02.2022
4050 Clouds 26 1003 91 10000 2.57 280 20:20 02.02.2022
4051 Clouds 26 1003 92 10000 4.63 280 19:45 02.02.2022
4052 Clouds 26 1005 93 6000 4.12 270 18:55 02.02.2022
4053 Rain 27 1005 89 10000 6.17 300 18:23 02.02.2022
4054 Clouds 27 1005 88 10000 5.14 290 17:20 02.02.2022
4055 Clouds 27 1006 86 10000 5.14 280 16:48 02.02.2022
4056 Clouds 26 1005 92 10000 2.57 260 14:42 02.02.2022
4057 Clouds 25 1006 94 10000 3.09 320 12:29 02.02.2022
4058 Rain 25 1006 94 10000 1.54 270 11:42 02.02.2022
4059 Rain 25 1006 94 10000 1.54 270 11:23 02.02.2022
4060 Thunderstorm 24 1005 94 5000 6.17 280 08:26 02.02.2022
4061 Rain 25 1008 94 8000 4.63 280 01:37 02.02.2022
4062 Rain 24 1006 94 10000 3.09 10 22:29 01.02.2022
4063 Rain 26 1004 94 10000 1.03 300 20:49 01.02.2022
4064 Rain 25 1006 89 10000 2.06 270 18:55 01.02.2022
4065 Rain 24 1007 88 10000 4.63 280 16:46 01.02.2022
4066 Rain 25 1007 83 9000 7.72 300 15:44 01.02.2022
4067 Clouds 29 1006 79 10000 7.2 320 12:49 01.02.2022
4068 Clouds 29 1006 75 10000 7.2 320 11:51 01.02.2022
4069 Clouds 32 1004 62 10000 8.23 310 08:37 01.02.2022
4070 Clouds 28 1006 82 10000 5.14 320 00:28 01.02.2022
4071 Clouds 29 1005 84 10000 5.66 340 23:36 31.01.2022
4072 Clouds 28 1004 85 10000 6.17 340 22:33 31.01.2022
4073 Clouds 28 1004 89 10000 6.17 340 21:34 31.01.2022
4074 Clouds 28 1005 85 10000 4.63 330 20:34 31.01.2022
4075 Clouds 28 1004 83 10000 5.14 330 19:52 31.01.2022
4076 Clouds 28 1004 84 10000 5.66 330 18:31 31.01.2022
4077 Clouds 28 1004 89 10000 6.69 330 17:55 31.01.2022
4078 Clouds 28 1005 86 10000 5.14 340 16:58 31.01.2022
4079 Clouds 28 1006 86 10000 6.17 340 16:20 31.01.2022
4080 Clouds 29 1006 83 10000 5.14 330 14:49 31.01.2022
4081 Clouds 29 1005 81 10000 5.66 330 12:57 31.01.2022
4082 Clouds 29 1004 81 10000 5.66 340 12:37 31.01.2022
4083 Rain 29 1003 79 10000 5.66 330 10:58 31.01.2022
4084 Rain 29 1004 77 10000 5.66 330 10:38 31.01.2022
4085 Rain 29 1002 73 10000 6.17 330 09:36 31.01.2022
4086 Rain 30 1002 72 10000 7.72 330 08:54 31.01.2022
4087 Clouds 30 1002 73 10000 7.72 330 08:20 31.01.2022
4088 Clouds 31 1003 65 10000 10.8 320 07:29 31.01.2022
4089 Clouds 31 1004 66 10000 10.29 310 05:24 31.01.2022
4090 Clouds 30 1005 73 10000 9.77 310 00:23 31.01.2022
4091 Clouds 28 1003 77 10000 10.29 320 22:33 30.01.2022
4092 Clouds 28 1003 79 10000 8.23 320 21:45 30.01.2022
4093 Clouds 29 1003 77 10000 7.72 320 21:24 30.01.2022
4094 Clouds 29 1002 78 10000 8.75 320 20:51 30.01.2022
4095 Clouds 29 1002 77 10000 9.26 320 20:31 30.01.2022
4096 Clouds 29 1002 80 10000 8.75 320 19:56 30.01.2022
4097 Clouds 29 1003 80 10000 8.75 320 18:51 30.01.2022
4098 Clouds 28 1003 81 10000 8.23 320 18:22 30.01.2022
4099 Clouds 28 1004 82 10000 7.72 330 17:31 30.01.2022
4100 Clouds 28 1004 84 10000 6.69 330 16:42 30.01.2022
4101 Rain 28 1004 84 10000 6.69 330 16:23 30.01.2022
4102 Rain 28 1004 87 10000 6.69 320 15:54 30.01.2022
4103 Rain 27 1004 87 10000 8.75 320 15:33 30.01.2022
4104 Rain 27 1005 86 10000 8.23 310 14:47 30.01.2022
4105 Rain 25 1005 94 9000 5.66 330 13:47 30.01.2022
4106 Rain 25 1005 91 10000 9.77 280 12:46 30.01.2022
4107 Rain 27 1005 89 10000 6.17 300 10:47 30.01.2022
4108 Rain 27 1005 90 10000 7.72 300 10:25 30.01.2022
4109 Rain 27 1002 91 10000 5.14 280 09:22 30.01.2022
4110 Rain 26 1002 89 10000 8.75 290 07:59 30.01.2022
4111 Clouds 29 1005 80 10000 9.26 290 02:44 30.01.2022
4112 Clouds 29 1005 80 10000 9.26 290 02:44 30.01.2022
4113 Rain 28 1005 88 10000 8.23 300 01:54 30.01.2022
4114 Rain 25 1004 94 10000 4.12 210 23:49 29.01.2022
4115 Rain 26 1007 91 10000 4.12 280 22:50 29.01.2022
4116 Rain 26 1003 92 10000 7.72 310 21:29 29.01.2022
4117 Rain 25 1003 94 10000 2.57 260 20:53 29.01.2022
4118 Rain 25 1003 94 10000 3.6 260 19:52 29.01.2022
4119 Rain 25 1004 90 6000 7.2 240 19:31 29.01.2022
4120 Rain 26 1004 94 6000 8.23 290 18:44 29.01.2022
4121 Rain 24 1005 94 700 13.38 290 17:54 29.01.2022
4122 Rain 26 1008 94 4900 6.69 340 16:44 29.01.2022
4123 Rain 26 1009 94 10000 7.72 310 15:25 29.01.2022
4124 Rain 26 1006 94 10000 5.14 300 13:48 29.01.2022
4125 Rain 25 1006 94 10000 5.66 320 13:27 29.01.2022
4126 Rain 26 1006 94 5000 2.06 290 12:58 29.01.2022
4127 Rain 26 1008 88 3000 6.69 270 11:39 29.01.2022
4128 Clouds 26 1006 86 8000 8.23 290 10:32 29.01.2022
4129 Rain 27 1003 86 10000 6.69 270 07:57 29.01.2022
4130 Clouds 31 1010 70 10000 9.26 310 02:26 29.01.2022
4131 Clouds 30 1005 76 10000 8.75 300 00:31 29.01.2022
4132 Clouds 28 1005 84 10000 5.66 290 23:29 28.01.2022
4133 Clouds 27 1005 85 10000 6.17 290 22:46 28.01.2022
4134 Clouds 28 1005 83 10000 7.72 300 22:19 28.01.2022
4135 Rain 27 1004 89 10000 5.14 320 20:41 28.01.2022
4136 Rain 27 1006 87 10000 7.72 310 19:57 28.01.2022
4137 Rain 26 1005 90 10000 7.2 300 18:52 28.01.2022
4138 Rain 26 1006 90 10000 5.66 310 17:53 28.01.2022
4139 Rain 26 1007 92 10000 4.63 290 15:52 28.01.2022
4140 Rain 26 1007 89 5000 8.23 330 14:50 28.01.2022
4141 Rain 27 1006 92 10000 5.66 290 12:42 28.01.2022
4142 Rain 26 1006 91 10000 4.63 310 11:49 28.01.2022
4143 Rain 26 1005 94 10000 2.57 270 10:26 28.01.2022
4144 Rain 26 1005 94 10000 4.63 280 09:46 28.01.2022
4145 Rain 29 1005 82 10000 6.69 310 07:41 28.01.2022
4146 Thunderstorm 26 1007 94 5000 5.14 280 05:31 28.01.2022
4147 Clouds 32 1007 75 10000 5.66 330 03:51 28.01.2022
4148 Clouds 30 1007 76 10000 6.69 320 02:25 28.01.2022
4149 Clouds 30 1007 79 10000 4.63 340 01:37 28.01.2022
4150 Clouds 28 1007 83 10000 5.66 330 00:42 28.01.2022
4151 Clouds 27 1005 87 10000 5.14 340 22:20 27.01.2022
4152 Clear 27 1005 89 10000 5.14 340 21:34 27.01.2022
4153 Clouds 26 1005 90 10000 4.63 310 20:59 27.01.2022
4154 Rain 28 1005 85 10000 12.86 300 19:37 27.01.2022
4155 Clouds 28 1007 85 10000 4.12 320 18:19 27.01.2022
4156 Rain 28 1008 85 10000 4.12 310 16:45 27.01.2022
4157 Rain 29 1007 85 10000 3.6 330 13:57 27.01.2022
4158 Rain 28 1006 86 10000 3.09 320 12:49 27.01.2022
4159 Rain 28 1006 88 10000 4.12 320 11:53 27.01.2022
4160 Clouds 28 1004 91 10000 2.57 350 09:47 27.01.2022
4161 Clouds 30 1004 79 4000 6.69 310 08:40 27.01.2022
4162 Clouds 31 1005 74 10000 6.17 300 07:31 27.01.2022
4163 Clouds 32 1007 74 10000 5.66 330 03:19 27.01.2022
4164 Clouds 29 1008 84 10000 4.12 330 00:23 27.01.2022
4165 Clouds 28 1006 89 10000 3.6 330 22:27 26.01.2022
4166 Clouds 28 1007 87 10000 3.6 330 21:44 26.01.2022
4167 Clouds 28 1005 88 10000 3.09 330 20:43 26.01.2022
4168 Clouds 28 1007 87 10000 3.09 330 20:24 26.01.2022
4169 Clouds 28 1007 86 10000 4.12 340 19:30 26.01.2022
4170 Clouds 28 1005 86 10000 3.6 330 18:46 26.01.2022
4171 Clouds 28 1005 89 10000 3.6 330 17:53 26.01.2022
4172 Clouds 28 1006 89 10000 3.09 340 17:32 26.01.2022
4173 Clouds 28 1008 89 10000 3.09 330 16:47 26.01.2022
4174 Clouds 28 1007 89 10000 3.6 330 15:56 26.01.2022
4175 Clouds 28 1007 89 10000 3.09 310 14:32 26.01.2022
4176 Rain 27 1006 89 10000 2.06 320 12:18 26.01.2022
4177 Clouds 28 1006 85 10000 3.09 310 10:50 26.01.2022
4178 Clouds 29 1005 81 10000 4.63 300 09:52 26.01.2022
4179 Clouds 30 1005 78 10000 3.6 290 08:46 26.01.2022
4180 Rain 28 1006 81 10000 4.63 280 06:28 26.01.2022
4181 Rain 28 1006 81 10000 4.63 280 06:28 26.01.2022
4182 Clouds 30 1007 80 10000 5.66 330 00:21 26.01.2022
4183 Clouds 29 1006 84 10000 4.63 330 23:37 25.01.2022
4184 Clouds 28 1006 88 10000 4.63 340 22:48 25.01.2022
4185 Clouds 28 1005 88 10000 4.63 340 22:18 25.01.2022
4186 Clouds 28 1005 85 10000 5.14 340 21:23 25.01.2022
4187 Clouds 28 1004 86 10000 3.6 340 20:45 25.01.2022
4188 Clouds 28 1004 85 10000 5.14 340 19:54 25.01.2022
4189 Clouds 28 1004 86 10000 4.12 350 19:23 25.01.2022
4190 Clouds 28 1006 84 10000 3.6 350 17:56 25.01.2022
4191 Clouds 28 1006 83 10000 3.6 340 17:18 25.01.2022
4192 Clouds 28 1005 85 10000 4.12 340 16:34 25.01.2022
4193 Clouds 28 1005 84 10000 3.6 340 15:39 25.01.2022
4194 Clouds 28 1005 84 10000 3.6 340 15:18 25.01.2022
4195 Clouds 27 1005 92 10000 2.06 340 14:43 25.01.2022
4196 Clear 27 1004 86 10000 1.03 290 12:20 25.01.2022
4197 Clouds 30 1003 74 10000 4.63 300 09:24 25.01.2022
4198 Clouds 31 1003 73 10000 4.12 340 07:52 25.01.2022
4199 Clouds 31 1004 74 10000 4.63 330 06:55 25.01.2022
4200 Clouds 30 1005 75 10000 4.63 300 05:23 25.01.2022
4201 Clouds 30 1005 75 10000 4.63 300 05:23 25.01.2022
4202 Clouds 25 1006 93 10000 1.54 360 00:31 25.01.2022
4203 Rain 24 1006 100 10000 1.54 170 23:36 24.01.2022
4204 Rain 24 1006 100 10000 1.54 170 23:18 24.01.2022
4205 Rain 24 1005 100 10000 2.06 150 22:42 24.01.2022
4206 Rain 24 1005 98 10000 2.06 150 22:19 24.01.2022
4207 Rain 24 1005 98 10000 2.06 180 21:40 24.01.2022
4208 Rain 24 1005 100 10000 2.06 180 21:19 24.01.2022
4209 Rain 24 1005 98 10000 2.57 170 20:26 24.01.2022
4210 Rain 24 1005 98 10000 2.57 170 20:26 24.01.2022
4211 Rain 24 1005 98 10000 5.14 210 19:38 24.01.2022
4212 Rain 25 1003 91 10000 4.12 330 18:50 24.01.2022
4213 Rain 25 1004 94 6000 3.6 230 17:25 24.01.2022
4214 Rain 26 1004 95 10000 0 0 16:59 24.01.2022
4215 Rain 26 1005 94 9000 2.06 230 16:31 24.01.2022
4216 Rain 26 1006 94 10000 1.03 190 15:25 24.01.2022
4217 Clouds 25 1004 94 10000 1.54 250 13:58 24.01.2022
4218 Clear 26 1004 93 10000 1.54 260 12:34 24.01.2022
4219 Clouds 26 1003 93 10000 1.03 320 11:41 24.01.2022
4220 Rain 26 1002 91 10000 2.57 270 10:19 24.01.2022
4221 Rain 26 1002 90 10000 2.57 240 09:44 24.01.2022
4222 Rain 25 1005 90 10000 5.66 250 08:18 24.01.2022
4223 Clouds 29 1006 82 10000 2.57 280 01:39 24.01.2022
4224 Clouds 29 1006 84 10000 2.57 250 00:55 24.01.2022
4225 Clouds 28 1006 88 10000 0.51 250 00:30 24.01.2022
4226 Clouds 27 1005 90 10000 1.03 260 23:39 23.01.2022
4227 Clouds 26 1004 87 10000 3.09 280 22:20 23.01.2022
4228 Clouds 26 1003 87 10000 6.69 280 21:40 23.01.2022
4229 Clouds 26 1003 88 10000 6.69 280 21:20 23.01.2022
4230 Clouds 25 1003 89 10000 7.2 290 20:22 23.01.2022
4231 Clouds 25 1004 94 10000 5.14 300 18:56 23.01.2022
4232 Clouds 25 1004 94 10000 2.06 310 18:24 23.01.2022
4233 Rain 25 1006 91 10000 2.06 270 16:56 23.01.2022
4234 Clouds 25 1007 91 10000 3.09 270 15:56 23.01.2022
4235 Rain 25 1007 94 10000 3.6 230 14:52 23.01.2022
4236 Rain 25 1007 94 10000 3.6 230 14:18 23.01.2022
4237 Rain 26 1005 94 10000 1.03 190 12:46 23.01.2022
4238 Rain 25 1005 94 10000 1.03 190 12:20 23.01.2022
4239 Rain 26 1005 94 10000 5.14 300 11:26 23.01.2022
4240 Rain 26 1005 93 10000 1.54 350 10:57 23.01.2022
4241 Rain 26 1006 92 10000 0.51 60 10:25 23.01.2022
4242 Rain 26 1006 92 10000 1.03 70 09:31 23.01.2022
4243 Rain 26 1004 93 10000 1.54 110 08:49 23.01.2022
4244 Clouds 29 1008 78 10000 4.12 270 03:49 23.01.2022
4245 Clouds 27 1006 93 10000 1.54 210 01:38 23.01.2022
4246 Rain 26 1007 91 10000 1.54 230 00:47 23.01.2022
4247 Rain 26 1006 94 10000 4.12 240 23:59 22.01.2022
4248 Thunderstorm 25 1006 94 10000 3.6 230 22:53 22.01.2022
4249 Rain 25 1006 96 2000 3.6 290 22:33 22.01.2022
4250 Clouds 28 1004 84 10000 2.57 250 20:46 22.01.2022
4251 Clouds 28 1004 83 10000 4.12 270 19:46 22.01.2022
4252 Clouds 28 1005 85 10000 4.12 280 18:38 22.01.2022
4253 Clouds 28 1008 89 10000 4.12 280 17:49 22.01.2022
4254 Clouds 27 1005 92 10000 1.03 240 17:29 22.01.2022
4255 Clouds 27 1006 92 10000 1.03 270 16:54 22.01.2022
4256 Clouds 27 1007 90 10000 1.03 280 15:45 22.01.2022
4257 Rain 27 1006 90 10000 2.06 270 14:56 22.01.2022
4258 Rain 28 1010 89 10000 1.54 270 13:31 22.01.2022
4259 Rain 28 1006 86 10000 2.57 260 12:40 22.01.2022
4260 Rain 28 1006 86 10000 2.57 260 12:20 22.01.2022
4261 Rain 29 1005 82 10000 4.12 280 10:55 22.01.2022
4262 Rain 29 1004 81 10000 3.6 290 10:27 22.01.2022
4263 Rain 30 1004 77 10000 2.57 290 09:43 22.01.2022
4264 Clouds 30 1004 75 10000 3.6 300 08:51 22.01.2022
4265 Clouds 31 1004 76 10000 3.09 280 07:27 22.01.2022
4266 Clouds 32 1007 72 10000 3.6 310 03:26 22.01.2022
4267 Clouds 29 1006 82 10000 2.57 340 00:57 22.01.2022
4268 Clouds 27 1006 93 10000 0.51 340 23:21 21.01.2022
4269 Clouds 26 1010 90 8000 1.03 40 22:19 21.01.2022
4270 Clouds 26 1006 89 10000 1.54 330 19:55 21.01.2022
4271 Clouds 27 1009 85 10000 3.09 330 18:23 21.01.2022
4272 Clouds 28 1010 84 10000 3.09 340 16:58 21.01.2022
4273 Clouds 27 1007 90 10000 2.06 350 15:26 21.01.2022
4274 Clouds 28 1006 83 10000 3.09 320 13:18 21.01.2022
4275 Rain 28 1005 84 10000 3.09 350 12:26 21.01.2022
4276 Clouds 28 1005 84 10000 2.57 350 11:26 21.01.2022
4277 Rain 29 1005 83 10000 3.6 350 09:34 21.01.2022
4278 Clouds 29 1004 81 10000 3.6 340 08:21 21.01.2022
4279 Rain 28 1006 88 10000 2.57 60 04:37 21.01.2022
4280 Clouds 26 1006 91 10000 1.54 110 23:20 20.01.2022
4281 Clouds 25 1005 94 10000 2.06 120 21:50 20.01.2022
4282 Clouds 25 1004 94 10000 2.06 110 21:31 20.01.2022
4283 Clouds 25 1004 94 10000 1.54 80 20:31 20.01.2022
4284 Clouds 25 1004 94 10000 1.54 50 19:19 20.01.2022
4285 Rain 25 1005 94 10000 0.51 110 18:18 20.01.2022
4286 Clouds 25 1006 94 10000 2.57 130 16:40 20.01.2022
4287 Clouds 26 1007 94 10000 1.54 170 15:40 20.01.2022
4288 Clouds 26 1007 94 10000 2.06 170 14:40 20.01.2022
4289 Rain 26 1008 94 10000 2.06 200 13:32 20.01.2022
4290 Rain 26 1007 94 10000 1.54 310 12:31 20.01.2022
4291 Rain 26 1006 94 10000 1.03 310 11:36 20.01.2022
4292 Rain 26 1005 91 10000 1.54 350 10:37 20.01.2022
4293 Rain 27 1004 91 10000 2.57 330 09:29 20.01.2022
4294 Rain 26 1004 93 1000 4.12 20 07:33 20.01.2022
4295 Clouds 29 1006 81 10000 1.03 120 00:43 20.01.2022
4296 Clouds 26 1005 94 10000 1.54 120 22:52 19.01.2022
4297 Clouds 26 1005 94 10000 1.54 140 21:48 19.01.2022
4298 Clouds 26 1005 93 10000 1.03 140 21:23 19.01.2022
4299 Clouds 26 1004 93 10000 1.03 130 20:46 19.01.2022
4300 Clouds 26 1006 92 10000 1.54 90 19:42 19.01.2022
4301 Clouds 27 1007 86 10000 2.57 340 17:55 19.01.2022
4302 Clouds 27 1007 88 10000 3.09 330 17:35 19.01.2022
4303 Rain 27 1006 88 10000 3.6 320 16:46 19.01.2022
4304 Clouds 27 1006 88 10000 2.57 340 14:42 19.01.2022
4305 Rain 26 1005 92 10000 2.57 350 12:41 19.01.2022
4306 Clouds 25 1004 91 8000 1.54 350 11:39 19.01.2022
4307 Clouds 28 1005 82 10000 3.6 340 10:20 19.01.2022
4308 Clouds 30 1004 71 10000 3.6 310 09:34 19.01.2022
4309 Clouds 30 1004 76 10000 3.6 300 06:35 19.01.2022
4310 Rain 27 1009 85 2000 1.03 170 02:38 19.01.2022
4311 Clouds 27 1007 94 10000 2.06 140 23:19 18.01.2022
4312 Clouds 26 1004 94 10000 1.54 150 22:19 18.01.2022
4313 Clouds 27 1003 91 10000 1.54 190 20:55 18.01.2022
4314 Clouds 27 1003 90 10000 1.54 260 19:54 18.01.2022
4315 Clouds 27 1003 90 10000 1.03 250 19:36 18.01.2022
4316 Clouds 27 1003 90 10000 1.03 260 18:51 18.01.2022
4317 Clouds 28 1006 90 10000 1.03 260 17:58 18.01.2022
4318 Clouds 28 1005 86 10000 2.57 250 16:40 18.01.2022
4319 Clouds 28 1005 86 10000 2.57 260 15:41 18.01.2022
4320 Clouds 28 1005 86 10000 2.57 260 15:21 18.01.2022
4321 Rain 29 1005 85 10000 2.06 270 12:33 18.01.2022
4322 Clouds 29 1005 77 10000 3.6 260 10:47 18.01.2022
4323 Clouds 31 1004 71 10000 4.63 280 08:49 18.01.2022
4324 Rain 30 1004 75 10000 4.12 290 07:51 18.01.2022
4325 Clouds 30 1007 77 10000 4.63 310 02:33 18.01.2022
4326 Clouds 28 1006 87 10000 2.57 280 23:38 17.01.2022
4327 Clouds 27 1006 86 10000 2.57 270 22:26 17.01.2022
4328 Clouds 27 1005 86 10000 2.57 270 21:34 17.01.2022
4329 Rain 27 1010 86 10000 3.09 270 20:24 17.01.2022
4330 Clouds 27 1006 86 10000 3.6 270 18:30 17.01.2022
4331 Clouds 26 1006 90 10000 3.09 270 17:25 17.01.2022
4332 Clouds 26 1014 89 10000 1.54 270 16:40 17.01.2022
4333 Clouds 26 1007 89 10000 1.54 230 15:19 17.01.2022
4334 Clouds 26 1007 87 10000 1.54 230 14:55 17.01.2022
4335 Clouds 26 1007 87 10000 2.57 250 13:22 17.01.2022
4336 Clouds 27 1007 87 10000 4.63 230 12:55 17.01.2022
4337 Clouds 27 1007 86 10000 2.57 250 11:49 17.01.2022
4338 Clouds 29 1006 82 10000 3.09 280 10:21 17.01.2022
4339 Clouds 29 1006 81 10000 1.54 270 09:34 17.01.2022
4340 Rain 28 1006 84 10000 3.6 210 07:24 17.01.2022
4341 Rain 27 1008 85 5000 6.69 250 02:59 17.01.2022
4342 Clouds 29 1009 85 10000 1.03 80 00:55 17.01.2022
4343 Clouds 26 1007 93 10000 1.54 200 22:29 16.01.2022
4344 Clouds 27 1006 87 10000 2.57 250 20:36 16.01.2022
4345 Clouds 27 1006 90 10000 3.6 270 18:51 16.01.2022
4346 Rain 27 1006 91 10000 3.6 300 17:59 16.01.2022
4347 Rain 26 1007 94 10000 3.09 310 17:21 16.01.2022
4348 Rain 26 1006 94 10000 2.06 350 16:33 16.01.2022
4349 Rain 26 1008 96 10000 1.54 330 14:31 16.01.2022
4350 Rain 26 1008 94 10000 2.06 350 13:46 16.01.2022
4351 Clouds 26 1008 94 10000 0.51 280 12:48 16.01.2022
4352 Rain 26 1009 94 10000 1.54 280 11:42 16.01.2022
4353 Rain 26 1009 94 10000 2.57 280 10:54 16.01.2022
4354 Rain 26 1009 94 10000 4.12 270 10:19 16.01.2022
4355 Rain 26 1009 94 10000 4.12 270 10:19 16.01.2022
4356 Rain 26 1008 89 10000 2.57 280 09:51 16.01.2022
4357 Rain 26 1008 89 10000 2.57 280 09:22 16.01.2022
4358 Rain 26 1008 89 10000 2.57 280 09:22 16.01.2022
4359 Rain 25 1008 94 3000 2.57 260 07:33 16.01.2022
4360 Clouds 31 1009 70 10000 4.63 340 02:36 16.01.2022
4361 Clouds 30 1008 80 10000 4.12 350 23:49 15.01.2022
4362 Clouds 28 1007 89 10000 2.57 350 21:46 15.01.2022
4363 Clouds 28 1007 88 10000 2.57 350 21:19 15.01.2022
4364 Clouds 28 1007 86 10000 3.6 340 20:40 15.01.2022
4365 Clouds 28 1007 89 10000 3.6 350 19:29 15.01.2022
4366 Clouds 28 1007 89 10000 3.09 360 18:44 15.01.2022
4367 Clouds 28 1007 89 10000 3.09 360 17:25 15.01.2022
4368 Clouds 28 1008 87 10000 3.09 350 15:50 15.01.2022
4369 Clouds 29 1008 83 10000 4.12 330 13:55 15.01.2022
4370 Rain 30 1006 79 10000 5.14 300 11:46 15.01.2022
4371 Clouds 30 1008 76 10000 4.63 310 10:36 15.01.2022
4372 Clouds 32 1006 67 10000 6.17 310 07:48 15.01.2022
4373 Clouds 28 1008 87 10000 3.6 10 23:50 14.01.2022
4374 Clouds 26 1006 94 10000 2.06 60 21:52 14.01.2022
4375 Clouds 26 1007 94 10000 2.06 90 20:37 14.01.2022
4376 Clouds 26 1006 94 10000 2.06 70 19:58 14.01.2022
4377 Clouds 26 1006 93 10000 2.06 70 18:48 14.01.2022
4378 Clouds 26 1007 91 10000 2.06 70 17:57 14.01.2022
4379 Clouds 26 1007 93 10000 1.54 70 16:48 14.01.2022
4380 Clear 26 1008 93 10000 1.54 50 15:37 14.01.2022
4381 Rain 26 1008 93 10000 3.09 50 14:38 14.01.2022
4382 Rain 27 1008 90 10000 2.06 50 13:34 14.01.2022
4383 Rain 27 1007 89 10000 3.6 40 12:24 14.01.2022
4384 Rain 27 1007 85 10000 3.6 40 10:50 14.01.2022
4385 Rain 28 1006 83 10000 5.14 30 08:54 14.01.2022
4386 Rain 28 1006 83 10000 5.14 30 08:20 14.01.2022
4387 Clouds 32 1007 70 10000 5.66 20 03:55 14.01.2022
4388 Clouds 29 1007 86 10000 4.12 20 00:50 14.01.2022
4389 Clouds 26 1007 94 10000 2.06 10 22:46 13.01.2022
4390 Clouds 26 1005 94 10000 2.57 20 21:31 13.01.2022
4391 Clouds 26 1005 92 10000 3.09 20 20:56 13.01.2022
4392 Rain 27 1005 88 10000 1.54 360 19:32 13.01.2022
4393 Rain 27 1007 88 10000 3.09 280 18:57 13.01.2022
4394 Clouds 27 1006 88 10000 2.57 360 17:25 13.01.2022
4395 Clouds 27 1007 85 10000 2.06 350 16:19 13.01.2022
4396 Clouds 28 1007 84 10000 2.57 360 15:35 13.01.2022
4397 Clouds 28 1007 85 10000 4.12 360 13:48 13.01.2022
4398 Rain 28 1006 85 10000 4.12 360 12:25 13.01.2022
4399 Rain 26 1007 93 10000 3.09 330 09:38 13.01.2022
4400 Rain 27 1004 89 8000 5.66 330 08:57 13.01.2022
4401 Rain 29 1004 81 10000 6.69 340 08:26 13.01.2022
4402 Rain 27 1007 89 10000 6.69 340 07:22 13.01.2022
4403 Clouds 27 1007 88 10000 3.6 350 05:59 13.01.2022
4404 Rain 31 1009 72 10000 5.66 300 05:19 13.01.2022
4405 Clouds 31 1006 62 10000 6.17 320 01:53 13.01.2022
4406 Clouds 30 1006 79 10000 5.66 340 00:40 13.01.2022
4407 Clouds 29 1005 80 10000 6.69 340 23:45 12.01.2022
4408 Clouds 29 1005 81 10000 6.17 350 22:59 12.01.2022
4409 Rain 28 1004 78 10000 5.66 350 21:57 12.01.2022
4410 Rain 29 1003 76 10000 5.66 340 21:22 12.01.2022
4411 Rain 29 1003 76 10000 4.63 340 20:56 12.01.2022
4412 Rain 29 1007 77 10000 8.75 320 19:41 12.01.2022
4413 Clouds 29 1003 77 10000 5.66 320 18:30 12.01.2022
4414 Clouds 29 1003 77 10000 5.66 320 18:30 12.01.2022
4415 Clouds 28 1004 80 10000 4.63 310 17:20 12.01.2022
4416 Clouds 28 1005 80 10000 5.66 300 16:28 12.01.2022
4417 Clouds 28 1006 79 10000 4.63 290 14:48 12.01.2022
4418 Clouds 28 1006 78 10000 5.66 310 12:59 12.01.2022
4419 Clouds 28 1006 78 10000 5.66 310 12:59 12.01.2022
4420 Clouds 28 1005 80 10000 4.12 300 10:48 12.01.2022
4421 Clear 29 1004 74 10000 5.66 310 08:38 12.01.2022
4422 Clear 29 1004 73 10000 5.66 310 07:49 12.01.2022
4423 Clear 29 1004 73 10000 5.66 310 07:31 12.01.2022
4424 Rain 23 1010 94 10000 5.66 120 23:53 11.01.2022
4425 Rain 22 1009 94 2000 9.77 90 22:54 11.01.2022
4426 Thunderstorm 22 1008 94 600 10.8 90 22:22 11.01.2022
4427 Rain 29 1005 81 10000 6.17 290 20:54 11.01.2022
4428 Rain 29 1005 81 10000 6.69 290 19:50 11.01.2022
4429 Clouds 29 1005 79 10000 8.23 290 18:32 11.01.2022
4430 Clouds 29 1005 82 10000 7.72 300 17:26 11.01.2022
4431 Clouds 29 1006 81 10000 7.2 300 16:38 11.01.2022
4432 Clouds 29 1007 81 10000 7.2 300 15:47 11.01.2022
4433 Clouds 29 1007 82 10000 6.17 310 14:42 11.01.2022
4434 Clouds 30 1007 81 10000 6.17 300 13:56 11.01.2022
4435 Clouds 30 1007 80 10000 6.69 300 13:36 11.01.2022
4436 Clouds 30 1007 80 10000 5.66 290 12:48 11.01.2022
4437 Clouds 30 1007 80 10000 4.63 290 11:45 11.01.2022
4438 Clouds 32 1006 73 10000 7.72 300 09:58 11.01.2022
4439 Clouds 33 1007 64 10000 6.69 280 07:18 11.01.2022
4440 Clouds 31 1009 75 10000 4.63 270 00:33 11.01.2022
4441 Clouds 30 1009 79 10000 4.12 270 23:44 10.01.2022
4442 Clouds 30 1009 80 10000 4.12 270 23:24 10.01.2022
4443 Clouds 28 1008 82 10000 4.63 280 22:19 10.01.2022
4444 Clouds 28 1007 82 10000 4.63 290 21:54 10.01.2022
4445 Clouds 28 1007 82 10000 5.14 290 21:21 10.01.2022
4446 Clouds 28 1007 82 10000 4.63 300 20:57 10.01.2022
4447 Clouds 28 1007 82 10000 4.63 310 20:28 10.01.2022
4448 Clouds 28 1007 82 10000 4.63 300 19:44 10.01.2022
4449 Clouds 28 1007 83 10000 3.6 280 19:21 10.01.2022
4450 Clouds 27 1007 85 10000 3.09 290 18:50 10.01.2022
4451 Clouds 28 1008 84 10000 2.06 260 17:56 10.01.2022
4452 Clouds 28 1009 82 10000 2.57 250 16:42 10.01.2022
4453 Clear 29 1009 81 10000 2.06 260 15:49 10.01.2022
4454 Clear 29 1009 80 10000 3.09 270 14:34 10.01.2022
4455 Clear 29 1008 74 10000 3.6 270 12:22 10.01.2022
4456 Clouds 30 1008 71 10000 4.63 260 11:25 10.01.2022
4457 Clouds 32 1007 68 10000 5.66 280 09:53 10.01.2022
4458 Clouds 33 1007 65 10000 6.69 270 08:22 10.01.2022
4459 Clouds 33 1008 65 10000 6.69 280 05:50 10.01.2022
4460 Clouds 32 1010 73 10000 3.09 280 01:33 10.01.2022
4461 Clouds 30 1010 74 10000 1.03 280 00:29 10.01.2022
4462 Clouds 29 1009 75 10000 1.03 70 23:43 09.01.2022
4463 Clouds 26 1008 83 10000 1.03 70 22:42 09.01.2022
4464 Clear 26 1008 81 10000 0 0 21:47 09.01.2022
4465 Clear 26 1008 82 10000 0 0 21:24 09.01.2022
4466 Clear 26 1008 82 10000 0 0 21:24 09.01.2022
4467 Clouds 26 1008 83 10000 1.03 70 20:54 09.01.2022
4468 Clouds 26 1007 83 10000 2.57 70 20:36 09.01.2022
4469 Rain 26 1007 83 10000 2.57 70 20:18 09.01.2022
4470 Rain 26 1008 81 10000 4.63 60 19:37 09.01.2022
4471 Clouds 26 1008 81 10000 4.63 60 19:18 09.01.2022
4472 Clouds 27 1009 82 10000 2.57 70 18:37 09.01.2022
4473 Clouds 27 1008 79 10000 1.54 310 17:48 09.01.2022
4474 Clouds 27 1010 77 10000 0.51 200 17:26 09.01.2022
4475 Clouds 28 1009 79 10000 3.6 190 16:38 09.01.2022
4476 Clouds 29 1011 74 10000 4.12 200 15:38 09.01.2022
4477 Clouds 29 1010 77 10000 4.12 210 14:41 09.01.2022
4478 Clouds 29 1010 77 10000 4.12 210 14:21 09.01.2022
4479 Clouds 29 1009 80 10000 3.09 250 13:41 09.01.2022
4480 Clouds 29 1007 71 10000 3.6 270 11:56 09.01.2022
4481 Clouds 30 1007 72 10000 4.12 280 11:25 09.01.2022
4482 Clouds 32 1005 66 10000 4.63 300 09:55 09.01.2022
4483 Clouds 33 1005 58 10000 3.6 280 08:56 09.01.2022
4484 Clouds 32 1007 63 10000 4.12 290 06:21 09.01.2022
4485 Clouds 30 1010 68 10000 4.12 330 01:28 09.01.2022
4486 Clouds 29 1010 73 10000 3.09 360 00:37 09.01.2022
4487 Clouds 27 1010 81 10000 1.03 350 23:30 08.01.2022
4488 Clouds 25 1009 88 10000 2.06 30 22:44 08.01.2022
4489 Clouds 25 1009 88 10000 3.6 10 21:27 08.01.2022
4490 Clouds 24 1009 94 10000 5.14 30 20:43 08.01.2022
4491 Clouds 24 1009 94 10000 5.14 30 20:21 08.01.2022
4492 Clouds 28 1009 82 10000 2.57 320 19:22 08.01.2022
4493 Clouds 29 1008 82 10000 4.63 300 17:31 08.01.2022
4494 Clouds 28 1008 82 10000 4.12 290 16:42 08.01.2022
4495 Clear 28 1009 85 10000 3.6 290 15:28 08.01.2022
4496 Clouds 29 1009 81 10000 5.14 300 13:58 08.01.2022
4497 Clouds 30 1007 75 10000 3.09 290 11:41 08.01.2022
4498 Clouds 31 1007 67 10000 4.63 290 10:33 08.01.2022
4499 Clouds 32 1006 65 10000 5.66 300 09:57 08.01.2022
4500 Clouds 33 1005 62 10000 5.14 290 09:34 08.01.2022
4501 Clouds 34 1008 62 10000 6.17 300 06:18 08.01.2022
4502 Clouds 32 1010 68 10000 5.14 260 01:41 08.01.2022
4503 Clouds 30 1009 81 10000 3.09 260 23:31 07.01.2022
4504 Clouds 28 1009 85 10000 3.6 260 21:49 07.01.2022
4505 Clouds 28 1008 84 10000 2.57 270 20:34 07.01.2022
4506 Clouds 28 1007 85 10000 3.09 290 19:27 07.01.2022
4507 Clouds 28 1007 85 10000 3.09 290 19:27 07.01.2022
4508 Clouds 28 1007 85 10000 3.6 290 18:49 07.01.2022
4509 Clouds 28 1008 85 10000 3.6 280 18:21 07.01.2022
4510 Clouds 28 1008 84 10000 2.57 270 17:24 07.01.2022
4511 Clear 28 1010 81 10000 3.6 280 14:56 07.01.2022
4512 Clear 29 1010 77 10000 4.12 280 13:52 07.01.2022
4513 Clouds 29 1009 79 10000 4.12 280 12:51 07.01.2022
4514 Clouds 30 1008 75 10000 4.63 280 11:28 07.01.2022
4515 Clouds 32 1008 62 10000 4.63 250 04:54 07.01.2022
4516 Clear 32 1009 62 10000 5.14 270 02:53 07.01.2022
4517 Clear 31 1009 65 10000 4.63 270 01:49 07.01.2022
4518 Clear 30 1009 74 10000 5.14 280 01:26 07.01.2022
4519 Clear 30 1008 75 10000 6.17 300 00:31 07.01.2022
4520 Clear 26 1008 89 10000 3.6 280 22:33 06.01.2022
4521 Clouds 24 1008 94 10000 3.09 360 20:51 06.01.2022
4522 Rain 24 1009 94 10000 4.63 10 20:18 06.01.2022
4523 Rain 24 1010 94 10000 3.6 40 19:39 06.01.2022
4524 Thunderstorm 24 1011 94 1300 5.66 150 17:52 06.01.2022
4525 Rain 23 1010 100 900 11.32 140 17:28 06.01.2022
4526 Rain 28 1010 81 10000 2.57 140 16:38 06.01.2022
4527 Clouds 29 1010 81 10000 0.51 330 15:44 06.01.2022
4528 Clouds 28 1010 81 10000 0.51 330 15:23 06.01.2022
4529 Clouds 28 1009 81 10000 1.03 330 14:20 06.01.2022
4530 Clouds 29 1008 78 10000 2.57 290 13:41 06.01.2022
4531 Clear 29 1007 77 10000 4.63 290 12:28 06.01.2022
4532 Clear 29 1007 77 10000 3.09 290 11:31 06.01.2022
4533 Clouds 29 1007 74 10000 4.12 280 10:59 06.01.2022
4534 Clouds 33 1007 58 10000 5.14 240 06:54 06.01.2022
4535 Clear 30 1008 66 10000 4.12 310 00:35 06.01.2022
4536 Clear 27 1008 82 10000 2.06 280 23:34 05.01.2022
4537 Clear 25 1008 89 10000 2.57 290 22:48 05.01.2022
4538 Clear 25 1007 86 10000 1.54 280 22:29 05.01.2022
4539 Clear 25 1007 82 10000 3.09 320 21:43 05.01.2022
4540 Clouds 26 1007 82 10000 4.63 340 20:44 05.01.2022
4541 Rain 26 1008 83 10000 3.6 340 19:46 05.01.2022
4542 Clouds 26 1009 88 10000 5.66 310 18:27 05.01.2022
4543 Rain 25 1008 90 10000 2.57 40 16:58 05.01.2022
4544 Rain 25 1007 89 10000 6.69 10 16:22 05.01.2022
4545 Rain 24 1008 84 10000 6.69 10 15:20 05.01.2022
4546 Thunderstorm 24 1009 81 10000 10.8 120 13:37 05.01.2022
4547 Thunderstorm 27 1009 81 10000 7.2 50 12:46 05.01.2022
4548 Clouds 31 1004 72 10000 6.17 290 08:47 05.01.2022
4549 Rain 31 1004 74 10000 5.66 300 07:20 05.01.2022
4550 Clouds 31 1007 74 10000 4.63 290 01:58 05.01.2022
4551 Clouds 30 1007 80 10000 3.09 260 23:44 04.01.2022
4552 Clouds 29 1007 83 10000 2.06 240 23:26 04.01.2022
4553 Clouds 27 1007 81 10000 3.09 260 22:21 04.01.2022
4554 Clouds 29 1006 84 10000 2.57 260 20:46 04.01.2022
4555 Clouds 29 1007 84 10000 4.12 280 18:46 04.01.2022
4556 Clouds 29 1005 82 10000 3.09 320 17:37 04.01.2022
4557 Clouds 29 1006 82 10000 4.12 310 16:39 04.01.2022
4558 Clouds 29 1007 82 10000 4.12 310 16:20 04.01.2022
4559 Clouds 30 1007 81 10000 5.66 320 14:46 04.01.2022
4560 Clouds 30 1007 81 10000 5.66 320 14:23 04.01.2022
4561 Clouds 30 1005 82 10000 4.12 310 12:37 04.01.2022
4562 Clouds 31 1004 76 10000 4.63 300 10:29 04.01.2022
4563 Clouds 32 1003 66 10000 4.63 310 08:59 04.01.2022
4564 Clouds 33 1005 66 10000 4.12 300 06:46 04.01.2022
4565 Clouds 27 1007 89 10000 1.03 90 00:50 04.01.2022
4566 Clouds 26 1008 87 10000 2.06 100 00:31 04.01.2022
4567 Clear 25 1006 94 10000 1.03 110 22:30 03.01.2022
4568 Clear 25 1006 94 10000 0 0 21:41 03.01.2022
4569 Clouds 25 1006 94 10000 1.03 110 20:51 03.01.2022
4570 Clouds 25 1005 94 10000 1.03 150 19:44 03.01.2022
4571 Clouds 25 1005 94 10000 0.51 130 18:33 03.01.2022
4572 Clouds 25 1006 94 10000 1.03 100 17:40 03.01.2022
4573 Clouds 25 1007 94 10000 2.57 80 16:56 03.01.2022
4574 Rain 25 1005 94 10000 2.06 340 14:54 03.01.2022
4575 Clear 24 1004 94 10000 1.03 20 13:53 03.01.2022
4576 Rain 24 1006 94 10000 1.54 80 12:33 03.01.2022
4577 Rain 24 1007 88 10000 3.6 150 11:31 03.01.2022
4578 Rain 24 1008 94 10000 6.69 180 09:49 03.01.2022
4579 Rain 24 1009 94 1500 8.23 140 08:28 03.01.2022
4580 Clouds 33 1005 65 10000 7.2 290 06:47 03.01.2022
4581 Clouds 30 1007 75 10000 4.12 270 23:47 02.01.2022
4582 Clouds 30 1007 77 10000 4.12 270 23:18 02.01.2022
4583 Clouds 29 1006 81 10000 3.09 270 22:42 02.01.2022
4584 Clouds 29 1005 81 10000 4.12 270 21:32 02.01.2022
4585 Clouds 29 1004 84 10000 3.6 270 20:31 02.01.2022
4586 Clouds 29 1004 84 10000 3.6 270 20:30 02.01.2022
4587 Clouds 29 1004 84 10000 3.6 270 20:30 02.01.2022
4588 Clouds 29 1004 84 10000 3.6 270 20:30 02.01.2022
4589 Clouds 29 1006 84 10000 3.09 280 19:31 02.01.2022
4590 Clouds 29 1006 84 10000 3.6 280 18:56 02.01.2022
4591 Clouds 29 1005 84 10000 3.6 270 17:59 02.01.2022
4592 Clouds 29 1006 84 10000 3.09 270 17:39 02.01.2022
4593 Clouds 29 1005 84 10000 3.09 270 17:21 02.01.2022
4594 Clouds 29 1006 83 10000 2.57 280 16:28 02.01.2022
4595 Clouds 29 1008 78 10000 4.12 290 15:18 02.01.2022
4596 Clouds 29 1007 81 10000 3.6 280 13:38 02.01.2022
4597 Clouds 30 1006 80 10000 3.6 290 12:32 02.01.2022
4598 Clouds 29 1006 81 10000 4.12 280 11:49 02.01.2022
4599 Clouds 30 1005 75 10000 4.63 280 10:55 02.01.2022
4600 Clouds 31 1005 71 10000 5.66 300 09:58 02.01.2022
4601 Clouds 34 1005 62 10000 7.2 300 07:35 02.01.2022
4602 Clouds 32 1008 70 10000 4.63 260 02:56 02.01.2022
4603 Clouds 30 1008 79 10000 2.57 270 23:45 01.01.2022
4604 Clouds 30 1008 79 10000 2.57 270 23:24 01.01.2022
4605 Clouds 28 1008 82 10000 2.57 270 22:25 01.01.2022
4606 Clouds 28 1007 81 10000 2.57 270 21:54 01.01.2022
4607 Clouds 28 1007 82 10000 2.57 270 21:36 01.01.2022
4608 Clouds 29 1008 81 10000 3.6 280 20:27 01.01.2022
4609 Clouds 29 1007 81 10000 3.6 280 19:36 01.01.2022
4610 Clouds 28 1007 83 10000 3.09 280 18:51 01.01.2022
4611 Clouds 29 1008 82 10000 3.09 280 17:38 01.01.2022
4612 Clouds 29 1009 84 10000 2.57 280 16:35 01.01.2022
4613 Clouds 29 1009 81 10000 2.57 280 15:42 01.01.2022
4614 Clouds 29 1009 82 10000 2.57 280 14:39 01.01.2022
4615 Clouds 29 1008 78 10000 2.57 270 13:41 01.01.2022
4616 Clouds 30 1008 77 10000 3.09 280 12:25 01.01.2022
4617 Clouds 30 1007 77 10000 3.6 270 11:25 01.01.2022
4618 Clouds 30 1007 75 10000 3.6 270 10:56 01.01.2022
4619 Clouds 31 1006 71 10000 6.17 290 09:48 01.01.2022
4620 Clouds 32 1006 67 10000 7.2 300 08:39 01.01.2022
4621 Clouds 33 1006 62 10000 7.2 300 07:57 01.01.2022
4622 Clouds 33 1006 62 10000 6.69 310 07:38 01.01.2022
4623 Clouds 33 1007 62 10000 7.2 300 06:44 01.01.2022
4624 Clouds 33 1008 61 10000 6.17 310 04:40 01.01.2022
4625 Clouds 32 1010 63 10000 5.66 310 03:52 01.01.2022
4626 Clouds 30 1009 76 10000 3.09 280 23:55 31.12.2021
4627 Clouds 28 1008 84 10000 2.57 270 22:30 31.12.2021
4628 Clouds 28 1008 85 10000 3.09 280 21:47 31.12.2021
4629 Clouds 27 1007 85 10000 2.57 280 19:48 31.12.2021
4630 Clouds 28 1007 84 10000 2.57 270 19:28 31.12.2021
4631 Clouds 28 1009 84 10000 3.09 290 17:56 31.12.2021
4632 Clouds 28 1009 84 10000 2.57 280 17:28 31.12.2021
4633 Clouds 28 1009 82 10000 2.06 260 16:52 31.12.2021
4634 Clouds 28 1008 83 10000 2.57 270 16:18 31.12.2021
4635 Clouds 29 1009 85 10000 2.06 270 15:50 31.12.2021
4636 Clouds 29 1009 84 10000 2.06 270 15:27 31.12.2021
4637 Clouds 29 1009 85 10000 2.06 270 14:41 31.12.2021
4638 Clouds 29 1008 85 10000 2.06 270 13:55 31.12.2021
4639 Clouds 29 1008 82 10000 2.06 270 12:53 31.12.2021
4640 Clouds 29 1008 79 10000 3.09 260 12:26 31.12.2021
4641 Clouds 29 1007 78 10000 3.6 270 11:42 31.12.2021
4642 Clouds 30 1007 77 10000 4.12 270 10:56 31.12.2021
4643 Clouds 30 1006 76 10000 5.14 270 10:28 31.12.2021
4644 Clouds 31 1006 74 10000 5.14 290 09:35 31.12.2021
4645 Clouds 32 1007 67 10000 6.17 300 08:54 31.12.2021
4646 Clouds 32 1007 66 10000 6.17 300 08:23 31.12.2021
4647 Clouds 34 1007 64 10000 6.17 300 06:24 31.12.2021
4648 Clouds 30 1008 80 10000 4.63 300 23:19 30.12.2021
4649 Clouds 29 1008 81 10000 5.66 300 22:32 30.12.2021
4650 Clouds 29 1007 82 10000 4.12 280 21:40 30.12.2021
4651 Clouds 28 1007 82 10000 4.12 280 21:20 30.12.2021
4652 Clouds 28 1007 81 10000 6.17 290 20:40 30.12.2021
4653 Clouds 29 1007 84 10000 3.09 270 19:58 30.12.2021
4654 Clouds 29 1008 84 10000 3.09 270 19:34 30.12.2021
4655 Clouds 29 1007 81 10000 4.12 280 18:29 30.12.2021
4656 Clouds 28 1007 84 10000 3.6 270 17:34 30.12.2021
4657 Clouds 28 1008 85 10000 2.57 270 15:54 30.12.2021
4658 Clouds 28 1008 83 10000 3.09 280 15:22 30.12.2021
4659 Clear 28 1008 81 10000 2.57 280 14:36 30.12.2021
4660 Clear 29 1007 80 10000 3.6 280 13:31 30.12.2021
4661 Clouds 29 1007 80 10000 3.6 290 11:58 30.12.2021
4662 Clouds 30 1006 70 10000 4.12 270 10:40 30.12.2021
4663 Clouds 32 1006 63 10000 6.17 270 09:50 30.12.2021
4664 Clouds 32 1006 63 10000 6.17 270 09:50 30.12.2021
4665 Clouds 33 1005 61 10000 7.2 270 07:42 30.12.2021
4666 Clouds 33 1006 66 10000 7.2 270 06:38 30.12.2021
4667 Clouds 32 1008 69 10000 7.72 290 03:41 30.12.2021
4668 Clouds 32 1008 68 10000 6.17 290 02:38 30.12.2021
4669 Clouds 30 1008 81 10000 4.63 280 23:41 29.12.2021
4670 Clouds 29 1008 81 10000 4.12 280 22:59 29.12.2021
4671 Clouds 28 1007 82 10000 3.09 270 22:18 29.12.2021
4672 Clouds 28 1007 81 10000 3.6 280 21:27 29.12.2021
4673 Clouds 28 1008 80 10000 5.14 280 20:31 29.12.2021
4674 Clouds 29 1006 80 10000 4.12 270 19:44 29.12.2021
4675 Clouds 29 1008 80 10000 4.63 280 18:45 29.12.2021
4676 Clouds 29 1013 81 10000 4.63 270 17:54 29.12.2021
4677 Clouds 29 1013 81 10000 4.63 270 17:27 29.12.2021
4678 Clouds 29 1008 83 10000 5.66 280 16:24 29.12.2021
4679 Clouds 29 1008 82 10000 5.66 280 15:45 29.12.2021
4680 Clouds 29 1007 79 10000 7.2 300 13:55 29.12.2021
4681 Clouds 29 1007 78 10000 6.69 300 12:36 29.12.2021
4682 Clouds 30 1006 78 10000 5.14 290 11:35 29.12.2021
4683 Clouds 31 1006 75 10000 7.2 290 09:58 29.12.2021
4684 Clouds 32 1005 68 10000 7.72 290 07:51 29.12.2021
4685 Clouds 32 1005 69 10000 8.75 290 06:38 29.12.2021
4686 Clouds 32 1005 69 10000 8.75 290 06:18 29.12.2021
4687 Clouds 32 1005 68 10000 7.72 290 05:36 29.12.2021
4688 Rain 32 1007 70 10000 8.75 290 02:46 29.12.2021
4689 Clouds 30 1007 80 10000 7.72 300 00:23 29.12.2021
4690 Clouds 29 1006 81 10000 7.2 290 23:34 28.12.2021
4691 Clouds 29 1006 78 10000 7.72 290 22:42 28.12.2021
4692 Clouds 29 1006 78 10000 7.72 290 22:24 28.12.2021
4693 Clouds 28 1005 78 10000 7.2 290 21:37 28.12.2021
4694 Clouds 27 1004 79 10000 3.6 300 20:39 28.12.2021
4695 Clouds 26 1004 82 10000 5.14 300 19:24 28.12.2021
4696 Clouds 26 1004 85 10000 3.6 290 18:39 28.12.2021
4697 Clouds 25 1005 83 10000 3.6 270 17:59 28.12.2021
4698 Clouds 25 1014 88 10000 3.6 260 16:34 28.12.2021
4699 Rain 24 1005 88 10000 3.09 260 15:50 28.12.2021
4700 Rain 25 1006 78 10000 3.6 250 15:21 28.12.2021
4701 Rain 26 1007 80 10000 2.57 210 14:48 28.12.2021
4702 Rain 26 1007 80 10000 2.57 210 14:21 28.12.2021
4703 Clouds 27 1007 83 10000 3.6 270 13:42 28.12.2021
4704 Clouds 27 1007 83 10000 3.6 270 13:42 28.12.2021
4705 Clouds 29 1005 84 10000 3.6 270 13:24 28.12.2021
4706 Clouds 29 1005 80 10000 2.57 240 12:49 28.12.2021
4707 Clouds 29 1005 71 10000 5.66 260 11:46 28.12.2021
4708 Clouds 32 1002 58 10000 8.75 260 08:35 28.12.2021
4709 Clouds 31 1003 59 10000 7.2 230 06:42 28.12.2021
4710 Clouds 26 1004 78 10000 6.17 230 00:34 28.12.2021
4711 Clouds 25 1006 81 10000 5.66 230 23:24 27.12.2021
4712 Clouds 23 1001 86 10000 6.17 230 21:42 27.12.2021
4713 Clouds 23 1001 86 10000 6.17 230 21:21 27.12.2021
4714 Clouds 23 1000 89 10000 6.17 230 20:24 27.12.2021
4715 Clouds 24 1000 89 10000 6.17 240 19:41 27.12.2021
4716 Clouds 24 1000 90 10000 3.09 260 18:52 27.12.2021
4717 Clouds 24 1003 90 10000 3.6 180 17:49 27.12.2021
4718 Clouds 24 1004 94 10000 4.12 210 16:55 27.12.2021
4719 Rain 24 1001 94 10000 4.63 210 15:52 27.12.2021
4720 Drizzle 24 1001 94 3800 5.66 210 14:33 27.12.2021
4721 Rain 25 1001 94 6000 4.63 260 13:40 27.12.2021
4722 Rain 25 1001 91 10000 4.63 260 12:47 27.12.2021
4723 Rain 26 998 90 10000 5.14 280 10:32 27.12.2021
4724 Rain 26 998 87 10000 5.14 280 09:57 27.12.2021
4725 Clouds 28 998 85 10000 8.75 300 08:39 27.12.2021
4726 Clouds 28 1001 85 10000 8.75 310 07:32 27.12.2021
4727 Rain 27 1003 87 10000 8.75 330 02:24 27.12.2021
4728 Rain 25 1000 94 9000 7.72 320 23:58 26.12.2021
4729 Rain 25 1000 94 9000 7.72 320 23:58 26.12.2021
4730 Rain 26 1001 94 2000 8.23 330 23:40 26.12.2021
4731 Rain 26 1003 94 10000 6.69 340 22:36 26.12.2021
4732 Rain 25 1000 94 3000 5.14 330 21:29 26.12.2021
4733 Rain 26 999 92 10000 5.66 320 19:49 26.12.2021
4734 Clouds 26 1004 90 3700 6.69 260 18:25 26.12.2021
4735 Clouds 26 1003 89 10000 6.69 300 17:30 26.12.2021
4736 Rain 26 1002 93 9000 6.69 270 14:32 26.12.2021
4737 Rain 27 1005 87 9000 8.23 270 13:43 26.12.2021
4738 Clouds 27 1002 87 10000 9.26 300 13:20 26.12.2021
4739 Clouds 26 1002 93 10000 6.17 280 12:33 26.12.2021
4740 Clouds 26 1001 90 10000 10.29 290 10:44 26.12.2021
4741 Rain 27 1000 91 10000 5.66 270 09:28 26.12.2021
4742 Rain 26 1002 93 8000 9.26 280 08:44 26.12.2021
4743 Rain 27 1003 93 10000 8.75 290 07:59 26.12.2021
4744 Rain 26 1000 93 7000 5.14 320 01:36 26.12.2021
4745 Rain 26 1004 94 1500 7.2 310 23:58 25.12.2021
4746 Rain 26 1004 94 8000 8.75 340 23:28 25.12.2021
4747 Rain 25 999 91 10000 7.72 330 22:28 25.12.2021
4748 Rain 25 1003 93 3000 9.26 310 21:18 25.12.2021
4749 Rain 25 998 96 2600 10.29 310 19:28 25.12.2021
4750 Rain 26 998 94 2700 9.26 340 18:57 25.12.2021
4751 Rain 26 999 91 10000 13.38 310 18:25 25.12.2021
4752 Rain 26 999 91 10000 8.23 360 16:46 25.12.2021
4753 Rain 25 1005 92 8000 6.69 10 15:26 25.12.2021
4754 Rain 26 1001 93 10000 5.14 340 13:43 25.12.2021
4755 Rain 26 1000 90 10000 8.75 350 12:18 25.12.2021
4756 Rain 25 1003 94 3000 3.6 70 10:32 25.12.2021
4757 Rain 25 1002 94 8000 8.75 110 09:48 25.12.2021
4758 Rain 26 1000 94 6000 8.75 100 05:39 25.12.2021
4759 Rain 25 1002 93 10000 9.26 120 01:34 25.12.2021
4760 Rain 25 1003 93 10000 7.72 120 00:18 25.12.2021
4761 Rain 24 1002 94 10000 4.63 140 21:46 24.12.2021
4762 Rain 24 1002 98 8000 3.6 140 19:26 24.12.2021
4763 Rain 24 1003 97 10000 4.63 140 18:34 24.12.2021
4764 Rain 24 1004 97 10000 5.66 120 16:40 24.12.2021
4765 Rain 24 1005 97 10000 5.66 140 15:49 24.12.2021
4766 Rain 24 1005 97 10000 5.66 150 15:20 24.12.2021
4767 Rain 24 1006 94 10000 4.63 140 14:33 24.12.2021
4768 Rain 24 1005 94 10000 5.14 140 13:50 24.12.2021
4769 Rain 23 1005 94 10000 4.63 150 13:32 24.12.2021
4770 Rain 24 1005 94 9000 5.66 110 12:39 24.12.2021
4771 Rain 23 1006 90 2000 10.8 100 11:42 24.12.2021
4772 Rain 24 1006 90 2000 10.8 100 11:24 24.12.2021
4773 Rain 26 1004 94 10000 2.57 130 10:33 24.12.2021
4774 Rain 26 1003 93 10000 2.06 100 08:40 24.12.2021
4775 Rain 25 1004 94 10000 2.06 90 07:58 24.12.2021
4776 Rain 25 1004 94 10000 2.06 90 07:58 24.12.2021
4777 Rain 25 1004 94 10000 3.09 60 06:59 24.12.2021
4778 Rain 26 1007 94 10000 3.09 130 00:22 24.12.2021
4779 Rain 25 1006 94 10000 1.54 90 23:49 23.12.2021
4780 Rain 25 1006 91 10000 3.09 130 22:51 23.12.2021
4781 Rain 25 1006 91 10000 3.09 130 22:24 23.12.2021
4782 Clouds 26 1006 91 10000 3.6 110 21:39 23.12.2021
4783 Clouds 26 1005 93 10000 2.06 140 20:30 23.12.2021
4784 Clouds 25 1006 93 10000 1.54 110 19:30 23.12.2021
4785 Rain 26 1005 90 10000 2.06 130 18:27 23.12.2021
4786 Rain 25 1005 90 10000 2.06 150 17:46 23.12.2021
4787 Clouds 26 1006 94 10000 1.03 120 16:27 23.12.2021
4788 Clouds 26 1006 89 10000 2.06 120 15:49 23.12.2021
4789 Clouds 26 1006 89 10000 2.06 120 15:30 23.12.2021
4790 Clear 26 1006 91 10000 0 0 14:42 23.12.2021
4791 Clear 26 1006 94 10000 0.51 180 13:49 23.12.2021
4792 Clear 27 1006 89 10000 1.54 170 11:59 23.12.2021
4793 Rain 27 1005 85 10000 1.03 150 09:55 23.12.2021
4794 Clouds 27 1005 85 10000 1.54 170 09:34 23.12.2021
4795 Rain 27 1006 83 10000 2.06 140 08:41 23.12.2021
4796 Rain 25 1004 88 10000 0.51 80 06:20 23.12.2021
4797 Clouds 32 1007 63 10000 2.57 280 03:22 23.12.2021
4798 Clouds 27 1006 91 10000 2.06 110 22:54 22.12.2021
4799 Clouds 26 1006 94 10000 2.06 110 22:22 22.12.2021
4800 Clouds 27 1005 94 10000 1.54 110 21:48 22.12.2021
4801 Clouds 27 1005 94 10000 1.54 150 21:25 22.12.2021
4802 Rain 27 1005 91 10000 1.03 300 20:41 22.12.2021
4803 Rain 27 1005 94 10000 1.03 300 19:57 22.12.2021
4804 Clouds 27 1005 94 10000 1.03 300 18:56 22.12.2021
4805 Clouds 26 1006 94 10000 0 0 17:38 22.12.2021
4806 Clouds 27 1007 91 10000 1.54 300 16:32 22.12.2021
4807 Clouds 27 1008 90 10000 2.06 330 15:21 22.12.2021
4808 Clouds 28 1007 89 10000 2.06 330 12:59 22.12.2021
4809 Clouds 28 1006 83 10000 2.06 330 11:58 22.12.2021
4810 Rain 27 1005 85 10000 2.06 340 09:53 22.12.2021
4811 Clouds 28 1005 78 10000 3.09 160 08:58 22.12.2021
4812 Thunderstorm 24 1005 83 10000 5.66 250 07:22 22.12.2021
4813 Clouds 33 1006 61 10000 3.09 310 05:40 22.12.2021
4814 Clouds 34 1006 60 10000 3.09 310 05:21 22.12.2021
4815 Clouds 33 1007 65 10000 3.09 300 04:43 22.12.2021
4816 Clouds 33 1007 63 10000 3.6 280 04:19 22.12.2021
4817 Clouds 33 1008 62 10000 0.51 150 03:32 22.12.2021
4818 Clouds 30 1007 81 10000 2.57 120 23:57 21.12.2021
4819 Clouds 28 1007 89 10000 1.54 120 22:49 21.12.2021
4820 Clouds 27 1007 90 10000 1.54 120 22:27 21.12.2021
4821 Clouds 27 1007 90 10000 1.54 140 21:43 21.12.2021
4822 Clouds 27 1006 90 10000 1.54 190 20:53 21.12.2021
4823 Clouds 27 1007 90 10000 1.54 210 20:20 21.12.2021
4824 Clouds 27 1006 90 10000 2.06 220 19:41 21.12.2021
4825 Clouds 27 1007 90 10000 1.54 220 18:38 21.12.2021
4826 Clouds 27 1007 90 10000 1.54 230 17:59 21.12.2021
4827 Clouds 27 1007 89 10000 1.03 270 17:40 21.12.2021
4828 Clouds 27 1008 85 10000 0 0 15:47 21.12.2021
4829 Clouds 27 1008 85 10000 0 0 15:19 21.12.2021
4830 Clouds 28 1008 80 10000 2.57 280 13:47 21.12.2021
4831 Clouds 29 1008 80 10000 2.57 280 13:29 21.12.2021
4832 Clouds 30 1007 75 10000 3.6 280 10:55 21.12.2021
4833 Clouds 31 1006 69 10000 4.63 260 09:57 21.12.2021
4834 Clouds 32 1006 65 10000 5.66 290 09:18 21.12.2021
4835 Clouds 33 1007 63 10000 6.17 300 07:54 21.12.2021
4836 Clouds 33 1007 62 10000 6.17 300 07:25 21.12.2021
4837 Clouds 33 1009 57 10000 3.09 210 04:56 21.12.2021
4838 Clouds 31 1010 64 10000 1.54 60 02:39 21.12.2021
4839 Clouds 27 1011 78 10000 2.06 110 23:58 20.12.2021
4840 Clouds 26 1010 88 10000 1.54 110 23:24 20.12.2021
4841 Clouds 23 1010 94 10000 2.06 60 22:28 20.12.2021
4842 Clear 23 1009 94 10000 1.03 10 21:43 20.12.2021
4843 Clear 23 1009 94 10000 0.51 10 21:23 20.12.2021
4844 Clouds 23 1009 94 10000 1.54 40 20:42 20.12.2021
4845 Clouds 24 1010 88 10000 2.06 210 19:50 20.12.2021
4846 Clouds 24 1011 88 10000 1.03 210 19:30 20.12.2021
4847 Clouds 23 1009 94 10000 1.54 160 18:53 20.12.2021
4848 Clouds 23 1011 94 10000 2.57 140 17:52 20.12.2021
4849 Clouds 23 1011 94 10000 2.57 150 17:23 20.12.2021
4850 Clouds 23 1012 94 10000 3.09 150 16:38 20.12.2021
4851 Clouds 23 1011 93 10000 2.57 150 15:48 20.12.2021
4852 Clouds 23 1009 89 10000 2.57 130 14:42 20.12.2021
4853 Clouds 23 1009 90 10000 4.12 110 12:51 20.12.2021
4854 Clouds 24 1009 93 10000 6.69 140 11:19 20.12.2021
4855 Clear 25 1007 94 10000 5.14 340 09:47 20.12.2021
4856 Rain 23 1009 97 10000 3.6 330 08:58 20.12.2021
4857 Rain 23 1009 94 10000 0.51 270 08:40 20.12.2021
4858 Rain 23 1010 94 5000 2.06 120 07:49 20.12.2021
4859 Rain 23 1011 94 8000 4.63 140 07:25 20.12.2021
4860 Clouds 34 1011 59 10000 3.09 300 03:43 20.12.2021
4861 Clouds 31 1010 71 10000 3.6 310 23:58 19.12.2021
4862 Clouds 30 1009 76 10000 3.6 320 22:45 19.12.2021
4863 Clouds 29 1008 78 10000 2.57 340 21:50 19.12.2021
4864 Clouds 29 1008 78 10000 2.57 330 21:29 19.12.2021
4865 Clouds 29 1008 81 10000 3.6 300 20:30 19.12.2021
4866 Clouds 29 1010 80 10000 3.6 320 19:46 19.12.2021
4867 Clouds 29 1009 78 10000 2.57 310 18:58 19.12.2021
4868 Clouds 29 1009 80 10000 2.57 310 18:29 19.12.2021
4869 Clouds 29 1010 78 10000 2.06 330 17:51 19.12.2021
4870 Clouds 29 1010 79 10000 2.57 320 17:18 19.12.2021
4871 Clouds 29 1011 78 10000 2.57 300 16:26 19.12.2021
4872 Clouds 30 1011 76 10000 3.6 310 15:31 19.12.2021
4873 Clouds 30 1012 76 10000 3.09 300 14:59 19.12.2021
4874 Clouds 30 1011 78 10000 3.09 300 14:36 19.12.2021
4875 Clouds 30 1011 75 10000 2.57 300 13:22 19.12.2021
4876 Clouds 30 1011 75 10000 3.6 310 12:33 19.12.2021
4877 Clouds 30 1008 74 10000 3.6 320 11:44 19.12.2021
4878 Clouds 30 1007 74 10000 3.6 320 11:18 19.12.2021
4879 Clouds 31 1007 75 10000 5.14 340 10:25 19.12.2021
4880 Clouds 34 1007 55 10000 5.66 340 09:37 19.12.2021
4881 Clear 35 1007 43 10000 5.14 340 07:50 19.12.2021
4882 Clouds 34 1012 55 10000 4.63 340 04:45 19.12.2021
4883 Clouds 32 1014 66 10000 2.57 360 01:19 19.12.2021
4884 Clouds 31 1013 70 10000 3.09 10 00:52 19.12.2021
4885 Clouds 28 1009 84 10000 1.54 20 22:36 18.12.2021
4886 Clouds 27 1009 84 10000 2.06 10 21:57 18.12.2021
4887 Clouds 28 1009 83 10000 2.57 10 21:35 18.12.2021
4888 Clouds 28 1008 81 10000 1.54 360 20:44 18.12.2021
4889 Clouds 28 1008 80 10000 2.06 10 19:54 18.12.2021
4890 Clouds 28 1008 80 10000 2.06 360 19:20 18.12.2021
4891 Clouds 29 1008 80 10000 2.57 10 18:21 18.12.2021
4892 Clouds 29 1009 77 10000 2.57 10 17:48 18.12.2021
4893 Clouds 29 1010 77 10000 2.06 350 16:26 18.12.2021
4894 Clouds 30 1010 74 10000 2.57 340 15:26 18.12.2021
4895 Clouds 30 1010 74 10000 2.57 330 14:32 18.12.2021
4896 Clouds 31 1009 71 10000 2.06 300 13:21 18.12.2021
4897 Clouds 32 1007 63 10000 3.09 340 11:22 18.12.2021
4898 Clouds 33 1006 58 10000 3.09 330 09:40 18.12.2021
4899 Clouds 34 1006 52 10000 2.57 350 08:46 18.12.2021
4900 Clouds 35 1006 46 10000 3.09 350 08:19 18.12.2021
4901 Clouds 33 1009 58 10000 4.12 340 02:51 18.12.2021
4902 Clouds 30 1012 80 10000 1.54 160 00:28 18.12.2021
4903 Clouds 29 1008 85 10000 1.54 140 23:44 17.12.2021
4904 Clear 26 1007 91 10000 1.03 90 21:56 17.12.2021
4905 Clear 26 1007 91 10000 1.03 90 21:56 17.12.2021
4906 Clouds 26 1007 91 10000 1.54 70 21:18 17.12.2021
4907 Clouds 26 1007 91 10000 2.06 100 20:38 17.12.2021
4908 Clouds 27 1006 92 10000 1.03 110 19:19 17.12.2021
4909 Clouds 27 1007 90 10000 1.54 130 18:38 17.12.2021
4910 Clouds 27 1008 86 10000 2.06 170 17:31 17.12.2021
4911 Clouds 28 1008 85 10000 1.54 130 16:46 17.12.2021
4912 Clouds 28 1007 85 10000 3.09 30 16:22 17.12.2021
4913 Clouds 28 1008 84 10000 2.06 30 15:21 17.12.2021
4914 Clouds 28 1008 84 10000 2.06 30 15:21 17.12.2021
4915 Clear 27 1008 85 10000 2.06 130 14:39 17.12.2021
4916 Rain 28 1008 83 10000 2.06 190 12:46 17.12.2021
4917 Rain 29 1006 78 10000 1.54 270 11:34 17.12.2021
4918 Rain 30 1006 72 10000 1.54 250 10:37 17.12.2021
4919 Clouds 31 1006 70 10000 2.57 320 09:31 17.12.2021
4920 Clouds 31 1006 66 10000 4.63 290 08:30 17.12.2021
4921 Clouds 33 1006 57 10000 2.06 260 05:58 17.12.2021
4922 Clouds 32 1011 63 10000 4.12 190 02:53 17.12.2021
4923 Clouds 29 1008 81 10000 2.06 140 23:23 16.12.2021
4924 -273 0 0 0 0 0 22:24 16.12.2021
4925 -273 0 0 0 0 0 22:24 16.12.2021
4926 Clouds 28 1007 85 10000 1.54 110 22:24 16.12.2021
4927 Clouds 28 1007 85 10000 1.54 110 22:24 16.12.2021
4928 Clouds 28 1007 85 10000 1.54 110 22:23 16.12.2021
4929 Clouds 28 1007 85 10000 1.54 110 22:23 16.12.2021
4930 Clouds 28 1006 85 10000 0.51 250 21:44 16.12.2021
4931 Clouds 28 1006 85 10000 2.57 280 20:55 16.12.2021
4932 Clouds 28 1005 85 10000 1.03 300 20:27 16.12.2021
4933 Clouds 28 1005 86 10000 0 0 19:31 16.12.2021
4934 Clouds 28 1006 83 10000 0 0 18:36 16.12.2021
4935 Clouds 28 1006 83 10000 0 0 17:48 16.12.2021
4936 Clouds 29 1006 82 10000 1.54 260 16:44 16.12.2021
4937 Clouds 29 1007 79 10000 2.06 250 16:18 16.12.2021
4938 Clouds 30 1007 78 10000 3.09 250 14:23 16.12.2021
4939 Clouds 31 1007 76 10000 3.09 250 12:30 16.12.2021
4940 Clouds 31 1005 70 10000 3.6 270 11:19 16.12.2021
4941 Clouds 32 1005 69 10000 3.6 260 10:44 16.12.2021
4942 Clouds 32 1004 70 10000 4.12 260 09:51 16.12.2021
4943 Clouds 35 1005 49 10000 6.17 300 07:19 16.12.2021
4944 Clouds 35 1006 52 10000 6.17 300 06:18 16.12.2021
4945 Clouds 32 1008 71 10000 3.09 310 00:35 16.12.2021
4946 Clouds 30 1008 82 10000 2.57 320 23:21 15.12.2021
4947 Clouds 28 1007 90 10000 1.03 290 22:22 15.12.2021
4948 Clouds 27 1007 89 10000 1.54 280 21:46 15.12.2021
4949 Clouds 28 1007 89 10000 1.54 280 21:26 15.12.2021
4950 Clouds 29 1006 86 10000 2.57 300 19:55 15.12.2021
4951 Clouds 29 1006 83 10000 2.57 280 19:19 15.12.2021
4952 Clouds 29 1006 83 10000 2.57 300 18:26 15.12.2021
4953 Clouds 29 1007 83 10000 3.09 300 17:47 15.12.2021
4954 Clouds 29 1007 85 10000 3.09 300 17:27 15.12.2021
4955 Clouds 29 1008 82 10000 3.6 300 16:25 15.12.2021
4956 Clouds 29 1008 82 10000 3.09 290 15:42 15.12.2021
4957 Clouds 30 1008 82 10000 3.09 290 15:24 15.12.2021
4958 Clouds 30 1008 78 10000 3.09 280 13:58 15.12.2021
4959 Clouds 31 1006 77 10000 3.6 280 11:57 15.12.2021
4960 Clouds 32 1005 66 10000 4.12 290 10:23 15.12.2021
4961 Clouds 34 1005 62 10000 5.14 270 08:34 15.12.2021
4962 Clouds 35 1006 59 10000 6.17 310 05:59 15.12.2021
4963 Clouds 32 1009 71 10000 2.57 260 00:47 15.12.2021
4964 Clouds 29 1008 81 10000 1.03 70 23:41 14.12.2021
4965 Clouds 28 1008 83 10000 1.54 180 22:47 14.12.2021
4966 Clouds 27 1007 81 10000 2.06 80 21:48 14.12.2021
4967 Clear 28 1008 77 10000 1.54 300 20:26 14.12.2021
4968 Clouds 27 1006 80 10000 6.17 350 19:40 14.12.2021
4969 Clouds 29 1006 83 10000 2.57 330 18:42 14.12.2021
4970 Clouds 30 1006 81 10000 3.6 320 17:58 14.12.2021
4971 Clouds 30 1006 81 10000 4.63 320 17:27 14.12.2021
4972 Clouds 30 1007 81 10000 4.63 310 16:38 14.12.2021
4973 Clouds 30 1007 74 10000 3.6 310 14:52 14.12.2021
4974 Clear 28 1007 74 10000 1.54 290 13:31 14.12.2021
4975 Clouds 29 1006 65 10000 7.2 50 11:57 14.12.2021
4976 Clouds 30 1006 64 10000 7.72 80 11:23 14.12.2021
4977 Clouds 33 1004 63 10000 4.63 280 09:56 14.12.2021
4978 Clouds 33 1004 60 10000 5.14 270 09:34 14.12.2021
4979 Clouds 34 1004 59 10000 6.17 290 08:23 14.12.2021
4980 Clouds 33 1004 62 10000 6.69 300 07:43 14.12.2021
4981 Clouds 32 1008 67 10000 2.57 290 02:25 14.12.2021
4982 Clouds 30 1006 77 10000 2.57 250 22:50 13.12.2021
4983 Clouds 29 1005 77 10000 4.12 270 21:52 13.12.2021
4984 Clouds 29 1005 79 10000 4.63 290 20:59 13.12.2021
4985 Clouds 29 1005 79 10000 4.12 300 20:34 13.12.2021
4986 Clouds 29 1005 79 10000 5.14 300 19:52 13.12.2021
4987 Clouds 29 1007 77 10000 6.17 300 17:56 13.12.2021
4988 Clouds 30 1007 77 10000 5.66 300 17:24 13.12.2021
4989 Clear 30 1007 77 10000 5.66 300 15:50 13.12.2021
4990 Clear 30 1007 77 10000 5.66 300 15:19 13.12.2021
4991 Clear 30 1006 76 10000 5.14 310 13:38 13.12.2021
4992 Clear 30 1006 74 10000 5.66 300 12:42 13.12.2021
4993 Clear 30 1005 74 10000 4.63 290 11:54 13.12.2021
4994 Clear 30 1005 74 10000 5.14 300 11:35 13.12.2021
4995 Clear 30 1005 76 10000 5.66 300 10:43 13.12.2021
4996 Rain 28 1004 83 10000 4.12 170 08:57 13.12.2021
4997 Clouds 32 1004 54 10000 3.6 20 07:46 13.12.2021
4998 Clouds 34 1007 61 10000 6.69 300 05:35 13.12.2021
4999 Clouds 32 1007 71 10000 4.63 260 00:43 13.12.2021
5000 Clouds 30 1006 80 10000 3.6 270 22:22 12.12.2021
5001 Clouds 29 1005 83 10000 5.14 280 21:38 12.12.2021
5002 Clouds 29 1005 78 10000 4.12 290 19:47 12.12.2021
5003 Clouds 30 1007 80 10000 3.6 270 18:35 12.12.2021
5004 Clouds 30 1007 80 10000 3.6 270 17:26 12.12.2021
5005 Clouds 30 1006 79 10000 3.6 270 16:27 12.12.2021
5006 Clouds 29 1006 82 10000 2.57 270 15:41 12.12.2021
5007 Clouds 29 1006 82 10000 2.57 270 15:22 12.12.2021
5008 Clouds 30 1007 79 10000 2.57 250 14:30 12.12.2021
5009 Clouds 30 1007 79 10000 2.57 250 14:30 12.12.2021
5010 Clouds 29 1007 81 10000 2.57 300 13:22 12.12.2021
5011 Clouds 28 1006 75 10000 1.54 270 12:27 12.12.2021
5012 Clouds 28 1006 75 10000 2.06 230 11:44 12.12.2021
5013 Clouds 28 1006 75 10000 2.06 230 11:44 12.12.2021
5014 Clouds 28 1006 73 10000 1.54 220 11:20 12.12.2021
5015 Clouds 29 1005 72 10000 3.6 260 10:22 12.12.2021
5016 Clouds 30 1005 73 10000 3.6 270 08:58 12.12.2021
5017 Clouds 33 1008 61 10000 7.2 290 07:32 12.12.2021
5018 Clouds 34 1009 64 10000 6.69 300 05:57 12.12.2021
5019 Clouds 32 1007 67 10000 5.66 300 04:55 12.12.2021
5020 Clouds 32 1008 67 10000 2.57 280 03:27 12.12.2021
5021 Clouds 29 1008 84 10000 2.06 160 23:39 11.12.2021
5022 Clouds 27 1007 93 10000 0 0 22:22 11.12.2021
5023 Clouds 27 1007 92 10000 0 0 21:51 11.12.2021
5024 Clouds 27 1008 89 10000 1.54 280 20:29 11.12.2021
5025 Clouds 28 1006 85 10000 1.54 270 19:21 11.12.2021
5026 Clouds 28 1006 85 10000 2.06 270 18:52 11.12.2021
5027 Clouds 28 1006 86 10000 3.09 290 18:19 11.12.2021
5028 Clouds 28 1008 83 10000 3.6 290 17:20 11.12.2021
5029 Clouds 28 1007 82 10000 2.57 310 15:52 11.12.2021
5030 Clouds 29 1008 80 10000 2.57 310 15:18 11.12.2021
5031 Clouds 29 1007 78 10000 2.06 340 12:49 11.12.2021
5032 Clouds 29 1006 62 10000 2.06 50 11:25 11.12.2021
5033 Clouds 30 1006 66 10000 3.6 10 09:45 11.12.2021
5034 Clouds 33 1005 58 10000 3.6 340 07:49 11.12.2021
5035 Clear 29 1009 74 10000 1.03 150 02:20 11.12.2021
5036 Clear 27 1008 80 10000 1.54 60 23:50 10.12.2021
5037 Clouds 26 1007 84 10000 3.6 30 23:20 10.12.2021
5038 Clouds 23 1007 88 10000 5.14 110 21:56 10.12.2021
5039 Rain 23 1008 94 10000 3.09 140 20:57 10.12.2021
5040 Rain 23 1009 94 5000 7.72 150 19:21 10.12.2021
5041 Clouds 25 1008 89 10000 3.6 70 18:19 10.12.2021
5042 Clouds 26 1008 78 10000 7.72 90 16:56 10.12.2021
5043 Clouds 27 1008 77 10000 4.12 160 16:28 10.12.2021
5044 Clouds 28 1009 79 10000 2.06 200 15:40 10.12.2021
5045 Clouds 28 1009 79 10000 2.06 200 15:21 10.12.2021
5046 Clouds 29 1008 75 10000 3.09 270 13:51 10.12.2021
5047 Clouds 29 1008 79 10000 3.09 280 13:26 10.12.2021
5048 Clouds 29 1007 79 10000 3.6 300 12:36 10.12.2021
5049 Clouds 29 1006 78 10000 4.12 310 11:28 10.12.2021
5050 Clouds 30 1005 74 10000 4.63 310 10:26 10.12.2021
5051 Clouds 30 1005 74 10000 3.6 360 08:57 10.12.2021
5052 Clouds 31 1005 65 10000 3.09 270 06:50 10.12.2021
5053 Clouds 33 1008 64 10000 0.51 330 02:48 10.12.2021
5054 Clouds 33 1008 64 10000 0.51 330 02:48 10.12.2021
5055 Clouds 30 1009 75 10000 2.57 160 00:32 10.12.2021
5056 Clouds 27 1009 85 10000 3.09 160 23:22 09.12.2021
5057 Clouds 25 1008 91 10000 1.54 120 22:26 09.12.2021
5058 Clouds 25 1008 90 10000 1.03 120 21:59 09.12.2021
5059 Clouds 25 1008 90 10000 2.57 140 21:18 09.12.2021
5060 Clouds 25 1008 89 10000 4.12 120 20:22 09.12.2021
5061 Clouds 25 1008 90 10000 4.12 120 19:21 09.12.2021
5062 Clouds 26 1007 90 10000 3.6 100 18:48 09.12.2021
5063 Clouds 26 1007 91 10000 2.06 110 17:56 09.12.2021
5064 Clouds 26 1007 94 10000 0 0 17:26 09.12.2021
5065 Clouds 26 1007 94 10000 0.51 90 16:55 09.12.2021
5066 Clouds 26 1008 94 10000 0 0 15:57 09.12.2021
5067 Clouds 27 1008 93 10000 1.54 330 14:50 09.12.2021
5068 Clouds 27 1009 90 10000 1.54 360 13:25 09.12.2021
5069 Clear 27 1007 93 10000 0.51 330 12:42 09.12.2021
5070 Clear 27 1007 87 10000 1.54 330 11:24 09.12.2021
5071 Clouds 29 1006 81 10000 1.03 70 09:44 09.12.2021
5072 Rain 26 1006 94 10000 5.66 250 06:50 09.12.2021
5073 Rain 32 1008 67 10000 2.06 310 03:43 09.12.2021
5074 Clouds 29 1009 79 10000 3.6 130 23:45 08.12.2021
5075 Clouds 27 1009 87 10000 3.6 150 23:21 08.12.2021
5076 Clouds 27 1008 89 10000 2.06 130 22:49 08.12.2021
5077 Clouds 26 1007 90 10000 1.54 140 21:46 08.12.2021
5078 Clouds 26 1007 90 10000 1.54 140 21:27 08.12.2021
5079 Clouds 27 1007 86 10000 1.54 150 20:18 08.12.2021
5080 Clouds 26 1007 88 10000 1.03 300 19:36 08.12.2021
5081 Clouds 27 1007 87 10000 1.03 290 18:53 08.12.2021
5082 Clouds 27 1008 81 10000 2.06 290 17:47 08.12.2021
5083 Clouds 29 1009 81 10000 1.54 240 15:58 08.12.2021
5084 Clouds 29 1009 81 10000 2.06 210 15:29 08.12.2021
5085 Clouds 28 1009 81 10000 1.54 250 14:50 08.12.2021
5086 Clouds 29 1008 76 10000 1.54 330 12:32 08.12.2021
5087 Clouds 30 1007 72 10000 3.6 90 10:32 08.12.2021
5088 Clouds 31 1006 63 10000 3.6 90 09:30 08.12.2021
5089 Clouds 31 1007 68 10000 2.57 330 07:29 08.12.2021
5090 Clouds 33 1009 64 10000 3.6 320 04:57 08.12.2021
5091 Clouds 26 1010 89 10000 5.14 90 23:34 07.12.2021
5092 Clouds 25 1008 87 10000 2.06 100 21:55 07.12.2021
5093 Clouds 25 1008 87 10000 2.06 130 21:23 07.12.2021
5094 Clouds 26 1008 89 10000 2.57 140 20:24 07.12.2021
5095 Clouds 26 1008 89 10000 1.03 230 18:55 07.12.2021
5096 Clouds 26 1009 85 10000 1.54 230 17:53 07.12.2021
5097 Clouds 26 1008 85 10000 1.54 190 17:20 07.12.2021
5098 Clouds 26 1009 89 10000 1.03 100 16:34 07.12.2021
5099 Clear 27 1008 84 10000 1.54 140 15:35 07.12.2021
5100 Clear 27 1008 78 10000 1.03 360 14:36 07.12.2021
5101 Clear 27 1008 78 10000 1.03 360 13:18 07.12.2021
5102 Clear 27 1007 77 10000 2.06 30 12:21 07.12.2021
5103 Clouds 29 1006 76 10000 0.51 240 10:43 07.12.2021
5104 Clouds 30 1005 74 10000 4.63 290 08:42 07.12.2021
5105 Clouds 32 1006 59 10000 5.14 320 06:22 07.12.2021
5106 Clouds 33 1007 61 10000 4.12 330 05:42 07.12.2021
5107 Rain 25 1008 73 10000 7.72 70 23:58 06.12.2021
5108 Rain 28 1007 90 10000 2.57 70 22:58 06.12.2021
5109 Clouds 27 1011 91 10000 1.54 50 22:38 06.12.2021
5110 Clouds 27 1011 93 10000 1.03 10 21:54 06.12.2021
5111 Clouds 27 1006 87 10000 0.51 10 20:44 06.12.2021
5112 Clouds 27 1006 86 10000 1.54 10 20:26 06.12.2021
5113 Clouds 28 1005 86 10000 2.57 350 19:23 06.12.2021
5114 Clouds 28 1005 85 10000 2.57 360 18:29 06.12.2021
5115 Clouds 28 1005 84 10000 2.57 10 17:51 06.12.2021
5116 Clouds 28 1006 85 10000 2.57 30 16:56 06.12.2021
5117 Clouds 28 1006 84 10000 1.54 60 15:45 06.12.2021
5118 Clouds 28 1006 87 10000 1.54 20 13:47 06.12.2021
5119 Clouds 29 1005 81 10000 1.03 350 12:40 06.12.2021
5120 Clouds 29 1005 78 10000 2.06 360 11:54 06.12.2021
5121 Clouds 32 1004 68 10000 3.6 290 09:35 06.12.2021
5122 Clouds 32 1004 64 10000 2.57 350 06:43 06.12.2021
5123 Clouds 27 1006 88 10000 3.09 360 23:52 05.12.2021
5124 Clouds 25 1006 88 10000 1.03 100 21:53 05.12.2021
5125 Clear 25 1006 88 10000 1.54 130 21:25 05.12.2021
5126 Clouds 25 1006 92 10000 3.6 110 20:20 05.12.2021
5127 Clouds 25 1006 92 10000 3.6 100 19:49 05.12.2021
5128 Clouds 24 1006 93 10000 3.6 110 19:21 05.12.2021
5129 Rain 24 1006 92 10000 4.63 160 18:20 05.12.2021
5130 Rain 25 1007 89 10000 7.2 160 17:49 05.12.2021
5131 Rain 25 1007 85 10000 3.6 180 16:57 05.12.2021
5132 Clouds 25 1007 87 10000 3.6 110 16:28 05.12.2021
5133 Clouds 25 1007 88 10000 2.57 70 15:58 05.12.2021
5134 Rain 25 1011 85 10000 8.75 90 14:45 05.12.2021
5135 Clouds 25 1011 84 10000 8.75 90 14:27 05.12.2021
5136 Clouds 26 1011 81 10000 6.17 110 13:28 05.12.2021
5137 Rain 27 1010 85 10000 1.03 190 12:40 05.12.2021
5138 Clouds 27 1007 86 10000 1.03 190 12:21 05.12.2021
5139 Rain 27 1005 84 10000 3.6 230 11:35 05.12.2021
5140 Rain 27 1005 84 10000 2.57 220 10:21 05.12.2021
5141 Rain 26 1003 88 10000 1.54 250 08:50 05.12.2021
5142 Clouds 34 1006 59 10000 4.12 310 04:56 05.12.2021
5143 Clouds 32 1008 65 10000 2.06 280 01:23 05.12.2021
5144 Clouds 27 1007 91 10000 1.03 150 22:32 04.12.2021
5145 Clouds 27 1006 89 10000 1.03 100 21:36 04.12.2021
5146 Rain 28 1006 86 10000 1.03 210 20:32 04.12.2021
5147 Clouds 28 1006 88 10000 2.06 140 19:33 04.12.2021
5148 Clouds 28 1006 87 10000 1.54 150 18:43 04.12.2021
5149 Clouds 29 1007 79 10000 1.03 300 17:47 04.12.2021
5150 Clouds 29 1007 78 10000 1.03 300 17:20 04.12.2021
5151 Clouds 30 1007 77 10000 2.06 320 16:46 04.12.2021
5152 Clouds 30 1008 76 10000 2.57 340 16:27 04.12.2021
5153 Clear 30 1008 77 10000 3.09 310 12:44 04.12.2021
5154 Clouds 30 1007 77 10000 3.6 330 11:34 04.12.2021
5155 Clouds 31 1006 70 10000 4.63 330 10:57 04.12.2021
5156 Clouds 33 1005 62 10000 4.12 310 09:40 04.12.2021
5157 Clouds 33 1005 58 10000 4.12 300 08:29 04.12.2021
5158 Clouds 34 1007 59 10000 3.09 350 04:43 04.12.2021
5159 Clouds 31 1009 75 10000 1.54 60 00:56 04.12.2021
5160 Clouds 29 1009 89 10000 1.54 70 23:43 03.12.2021
5161 Clouds 27 1008 97 10000 1.54 90 22:53 03.12.2021
5162 Clouds 27 1008 98 10000 1.54 100 21:54 03.12.2021
5163 Clear 27 1007 98 10000 1.54 100 21:23 03.12.2021
5164 Clouds 27 1007 98 10000 0.51 80 20:42 03.12.2021
5165 Clouds 27 1009 98 10000 1.54 90 19:28 03.12.2021
5166 Clouds 27 1008 94 10000 2.06 90 18:23 03.12.2021
5167 Clouds 27 1009 94 10000 1.54 110 17:31 03.12.2021
5168 Clouds 28 1009 89 10000 1.54 340 13:40 03.12.2021
5169 Rain 27 1009 94 10000 1.54 20 12:44 03.12.2021
5170 Thunderstorm 28 1008 78 10000 4.63 20 11:23 03.12.2021
5171 Clouds 30 1008 79 10000 3.09 260 09:25 03.12.2021
5172 Rain 29 1008 78 10000 2.06 270 08:20 03.12.2021
5173 Thunderstorm 33 1006 66 7000 1.54 0 06:44 03.12.2021
5174 Clouds 32 1011 75 10000 1.54 280 01:43 03.12.2021
5175 Clouds 32 1009 77 10000 0.51 150 00:34 03.12.2021
5176 Clouds 30 1009 88 10000 1.03 170 23:40 02.12.2021
5177 Clouds 27 1007 95 10000 0 0 21:42 02.12.2021
5178 Clouds 28 1007 92 10000 0 0 20:49 02.12.2021
5179 Clouds 28 1007 92 10000 0 0 20:29 02.12.2021
5180 Clouds 27 1007 89 10000 0 0 19:23 02.12.2021
5181 Clouds 28 1007 83 10000 1.03 90 17:30 02.12.2021
5182 Rain 29 1008 76 10000 2.06 240 15:42 02.12.2021
5183 Rain 29 1008 76 10000 2.06 260 14:57 02.12.2021
5184 Rain 29 1008 74 10000 1.54 240 13:54 02.12.2021
5185 Clouds 29 1008 80 10000 2.06 240 12:52 02.12.2021
5186 Clear 30 1008 78 10000 3.09 250 11:55 02.12.2021
5187 Clouds 30 1006 64 10000 5.14 310 09:29 02.12.2021
5188 Clouds 31 1005 64 10000 5.66 340 08:27 02.12.2021
5189 Clouds 34 1008 59 10000 3.6 220 03:33 02.12.2021
5190 Clouds 31 1010 75 10000 3.09 220 00:51 02.12.2021
5191 Clouds 29 1008 87 10000 2.06 230 22:41 01.12.2021
5192 Clouds 29 1008 88 10000 2.06 230 22:23 01.12.2021
5193 Clouds 29 1007 84 10000 3.6 270 20:36 01.12.2021
5194 Clouds 29 1007 84 10000 3.6 270 20:36 01.12.2021
5195 Clouds 29 1006 85 10000 3.09 270 19:51 01.12.2021
5196 Clouds 29 1006 83 10000 3.09 280 19:21 01.12.2021
5197 Clouds 29 1008 87 10000 2.57 290 17:45 01.12.2021
5198 Clouds 29 1008 87 10000 2.57 290 17:45 01.12.2021
5199 Clouds 29 1007 98 10000 3.6 290 16:40 01.12.2021
5200 Clear 29 1008 81 10000 2.57 290 14:50 01.12.2021
5201 Clear 28 1008 78 10000 2.06 260 13:44 01.12.2021
5202 Clear 27 1008 83 10000 1.03 180 12:30 01.12.2021
5203 Clouds 28 1006 74 10000 4.63 240 10:42 01.12.2021
5204 Clouds 27 1005 100 10000 3.09 330 08:58 01.12.2021
5205 Clouds 28 1005 100 10000 5.14 310 08:26 01.12.2021
5206 Thunderstorm 25 1006 94 6000 7.2 180 07:33 01.12.2021
5207 Clouds 34 1008 61 10000 4.63 320 04:22 01.12.2021
5208 Clouds 33 1009 64 10000 4.12 310 03:41 01.12.2021
5209 Clouds 32 1009 68 10000 2.06 260 00:52 01.12.2021
5210 Clouds 31 1009 73 10000 1.54 280 23:45 30.11.2021
5211 Clouds 28 1008 89 10000 0 0 22:49 30.11.2021
5212 Clouds 27 1007 86 10000 0.51 10 21:28 30.11.2021
5213 Clouds 28 1007 85 10000 1.03 10 20:37 30.11.2021
5214 Clouds 28 1006 84 10000 2.06 330 19:53 30.11.2021
5215 Clouds 28 1006 82 10000 2.57 290 19:30 30.11.2021
5216 Clouds 29 1005 79 10000 3.6 300 18:35 30.11.2021
5217 Clouds 29 1007 81 10000 3.6 290 16:35 30.11.2021
5218 Clouds 29 1007 80 10000 3.09 270 15:18 30.11.2021
5219 Clear 29 1007 79 10000 3.09 270 14:20 30.11.2021
5220 Clear 29 1007 78 10000 3.6 280 13:25 30.11.2021
5221 Clear 29 1006 78 10000 3.6 290 12:45 30.11.2021
5222 Clear 29 1005 78 10000 4.63 280 11:27 30.11.2021
5223 Clear 30 1005 77 10000 5.14 280 10:56 30.11.2021
5224 Clouds 30 1005 78 10000 5.14 270 10:31 30.11.2021
5225 Clouds 33 1004 68 10000 6.69 320 08:52 30.11.2021
5226 Clouds 34 1004 58 10000 7.72 310 08:20 30.11.2021
5227 Clouds 34 1004 57 10000 7.72 310 07:47 30.11.2021
5228 Clouds 32 1009 62 10000 3.09 220 02:41 30.11.2021
5229 Clouds 32 1009 69 10000 3.6 200 01:41 30.11.2021
5230 Clouds 30 1009 72 10000 3.6 200 00:19 30.11.2021
5231 Clouds 28 1008 79 10000 2.57 140 23:24 29.11.2021
5232 Clouds 27 1008 83 10000 3.09 110 22:55 29.11.2021
5233 Clouds 27 1008 85 10000 3.6 110 22:33 29.11.2021
5234 Clear 27 1006 84 10000 0 0 21:29 29.11.2021
5235 Clouds 27 1006 84 10000 0 0 20:59 29.11.2021
5236 Clouds 27 1006 84 10000 0 0 20:32 29.11.2021
5237 Clouds 27 1006 82 10000 1.03 250 19:55 29.11.2021
5238 Clouds 28 1006 79 10000 2.06 250 19:35 29.11.2021
5239 Clouds 29 1006 76 10000 2.57 260 18:51 29.11.2021
5240 Clouds 29 1006 70 10000 3.31 262 17:49 29.11.2021
5241 Clouds 29 1006 69 10000 4.28 249 17:18 29.11.2021
5242 Clouds 29 1007 68 10000 4.33 244 16:29 29.11.2021
5243 Clouds 29 1007 68 10000 4.33 244 15:50 29.11.2021
5244 Clouds 30 1008 67 10000 4.04 248 14:43 29.11.2021
5245 Clouds 30 1008 66 10000 3.98 256 13:33 29.11.2021
5246 Clouds 30 1007 64 10000 4.31 268 12:37 29.11.2021
5247 Clouds 30 1006 64 10000 4.41 285 11:40 29.11.2021
5248 Clouds 30 1006 64 10000 4.8 295 10:51 29.11.2021
5249 Clouds 33 1005 55 10000 4.63 280 09:34 29.11.2021
5250 Clouds 32 1006 58 10000 4.63 360 06:20 29.11.2021
5251 Clouds 32 1010 55 10000 1.54 20 02:28 29.11.2021
5252 Clouds 30 1009 70 10000 2.06 140 00:42 29.11.2021
5253 Clouds 30 1009 70 10000 2.06 170 23:44 28.11.2021
5254 Clouds 29 1009 74 10000 1.54 130 23:23 28.11.2021
5255 Clouds 26 1007 89 10000 3.09 120 21:49 28.11.2021
5256 Clouds 27 1007 83 10000 1.03 260 21:23 28.11.2021
5257 Clouds 26 1006 89 10000 0 0 20:34 28.11.2021
5258 Clouds 26 1006 94 10000 0 0 19:25 28.11.2021
5259 Clouds 27 1006 83 10000 0 0 18:35 28.11.2021
5260 Clouds 27 1006 83 10000 0.51 260 17:55 28.11.2021
5261 Clouds 27 1007 89 10000 1.03 260 17:31 28.11.2021
5262 Clouds 28 1007 78 10000 2.06 280 16:40 28.11.2021
5263 Clouds 28 1007 78 10000 2.06 280 16:18 28.11.2021
5264 Clouds 28 1008 78 10000 1.03 310 15:31 28.11.2021
5265 Clouds 28 1008 78 10000 1.54 320 14:46 28.11.2021
5266 Clear 28 1008 78 10000 2.57 20 13:22 28.11.2021
5267 Clear 29 1008 74 10000 2.06 360 12:48 28.11.2021
5268 Clouds 30 1007 70 10000 3.6 360 11:18 28.11.2021
5269 Clouds 30 1007 70 10000 5.14 30 10:21 28.11.2021
5270 Clouds 32 1006 51 10000 5.14 10 09:38 28.11.2021
5271 Clouds 31 1006 58 10000 5.14 20 07:49 28.11.2021
5272 Clouds 28 1010 78 10000 3.6 100 00:20 28.11.2021
5273 Clouds 25 1008 88 10000 2.57 130 21:20 27.11.2021
5274 Clouds 25 1007 100 10000 0 0 19:47 27.11.2021
5275 Clouds 25 1007 94 10000 0 0 17:27 27.11.2021
5276 Clouds 25 1008 94 10000 0.51 190 15:58 27.11.2021
5277 Clear 25 1008 94 10000 0 0 13:58 27.11.2021
5278 Clouds 26 1008 94 10000 0.51 190 12:57 27.11.2021
5279 Clear 27 1007 83 10000 1.03 90 10:52 27.11.2021
5280 Clouds 27 1007 83 10000 3.09 150 09:53 27.11.2021
5281 Clouds 28 1006 78 10000 3.09 180 08:44 27.11.2021
5282 Rain 26 1007 89 10000 1.03 240 06:34 27.11.2021
5283 Rain 24 1011 88 10000 0 0 01:59 27.11.2021
5284 Rain 23 1010 100 8000 2.57 110 23:39 26.11.2021
5285 Clouds 25 1009 78 10000 3.6 100 22:26 26.11.2021
5286 Clouds 25 1008 83 10000 6.69 100 21:39 26.11.2021
5287 Clouds 25 1008 83 10000 6.69 100 21:18 26.11.2021
5288 Rain 25 1007 83 10000 7.72 100 20:40 26.11.2021
5289 Clouds 26 1007 83 10000 6.17 100 19:55 26.11.2021
5290 Clouds 26 1007 83 10000 1.03 360 18:44 26.11.2021
5291 Clouds 26 1007 83 10000 2.06 350 17:24 26.11.2021
5292 Clouds 26 1008 89 10000 2.57 40 16:29 26.11.2021
5293 Clouds 28 1009 74 10000 5.66 90 14:25 26.11.2021
5294 Clouds 30 1007 70 10000 2.57 320 13:31 26.11.2021
5295 Clouds 29 1006 61 10000 3.6 100 10:43 26.11.2021
5296 Clouds 33 1005 52 10000 6.69 300 09:41 26.11.2021
5297 Rain 34 1004 52 10000 6.69 300 08:50 26.11.2021
5298 Clouds 34 1004 54 10000 6.69 300 08:19 26.11.2021
5299 Clouds 34 1005 57 10000 5.66 290 06:30 26.11.2021
5300 Clouds 34 1006 52 10000 3.6 300 04:52 26.11.2021
5301 Clouds 33 1008 58 10000 3.09 290 03:34 26.11.2021
5302 Clouds 28 1008 75 10000 2.57 100 23:30 25.11.2021
5303 Clouds 26 1007 85 10000 2.57 90 22:25 25.11.2021
5304 Clouds 25 1006 88 10000 2.57 90 20:43 25.11.2021
5305 Clouds 25 1006 85 10000 1.54 100 19:21 25.11.2021
5306 Clouds 26 1006 83 10000 1.03 80 18:25 25.11.2021
5307 Clouds 26 1007 89 10000 1.54 130 17:27 25.11.2021
5308 Clouds 26 1007 89 10000 2.57 150 16:45 25.11.2021
5309 Clear 27 1007 78 10000 1.03 160 16:00 25.11.2021
5310 Clouds 27 1007 79 10000 3.09 140 14:31 25.11.2021
5311 Clear 27 1007 73 10000 1.03 80 12:57 25.11.2021
5312 Clear 28 1006 71 10000 1.54 30 11:57 25.11.2021
5313 Clear 29 1006 68 10000 1.54 80 10:49 25.11.2021
5314 Clouds 28 1007 74 10000 8.75 170 08:28 25.11.2021
5315 Clouds 33 1007 55 10000 4.63 330 03:18 25.11.2021
5316 Clouds 33 1008 58 10000 4.12 310 02:43 25.11.2021
5317 Clouds 27 1007 88 10000 1.03 350 22:41 24.11.2021
5318 Clouds 27 1007 82 10000 1.03 330 21:57 24.11.2021
5319 Clouds 27 1006 82 10000 1.54 330 21:22 24.11.2021
5320 Clouds 28 1006 84 10000 1.54 320 20:28 24.11.2021
5321 Clouds 28 1006 78 10000 2.06 300 19:40 24.11.2021
5322 Clouds 29 1006 76 10000 2.57 300 18:29 24.11.2021
5323 Clouds 29 1007 75 10000 3.6 300 16:48 24.11.2021
5324 Clouds 29 1007 74 10000 3.6 330 15:22 24.11.2021
5325 Clouds 30 1007 73 10000 3.6 300 14:31 24.11.2021
5326 Clouds 30 1007 77 10000 3.6 310 13:51 24.11.2021
5327 Clouds 30 1006 75 10000 4.63 330 11:49 24.11.2021
5328 Clouds 31 1005 68 10000 4.12 310 11:19 24.11.2021
5329 Clouds 32 1005 62 10000 3.6 300 10:38 24.11.2021
5330 Clouds 33 1005 59 10000 3.09 300 09:40 24.11.2021
5331 Clouds 34 1004 55 10000 5.14 300 07:42 24.11.2021
5332 Clouds 34 1005 59 10000 5.14 300 06:21 24.11.2021
5333 Clouds 33 1008 62 10000 3.6 320 03:47 24.11.2021
5334 Clouds 30 1008 81 10000 0.51 70 23:42 23.11.2021
5335 Clouds 28 1007 87 10000 1.03 40 22:39 23.11.2021
5336 Clouds 28 1007 87 10000 1.03 160 21:46 23.11.2021
5337 Clouds 29 1010 79 10000 1.54 240 20:47 23.11.2021
5338 Clouds 29 1007 78 10000 2.06 290 19:37 23.11.2021
5339 Clouds 29 1006 78 10000 3.09 310 18:37 23.11.2021
5340 Clouds 29 1006 78 10000 3.09 320 17:57 23.11.2021
5341 Clouds 29 1007 78 10000 3.09 300 16:54 23.11.2021
5342 Clouds 29 1007 78 10000 3.09 300 16:54 23.11.2021
5343 Clouds 29 1007 78 10000 3.09 290 15:41 23.11.2021
5344 Clouds 29 1007 78 10000 3.09 290 15:19 23.11.2021
5345 Clouds 29 1007 78 10000 3.09 290 13:43 23.11.2021
5346 Clouds 31 1006 70 10000 4.12 260 10:41 23.11.2021
5347 Clouds 31 1005 70 10000 5.14 280 09:57 23.11.2021
5348 Clouds 33 1004 61 10000 5.66 300 08:43 23.11.2021
5349 Clouds 33 1006 58 10000 5.66 310 05:57 23.11.2021
5350 Clouds 33 1008 62 10000 3.6 330 03:42 23.11.2021
5351 Clouds 32 1009 64 10000 2.06 340 00:28 23.11.2021
5352 Clouds 30 1008 78 10000 1.03 330 23:20 22.11.2021
5353 Clouds 27 1008 89 10000 0.51 330 22:32 22.11.2021
5354 Clouds 26 1007 90 10000 0 0 21:46 22.11.2021
5355 Clouds 27 1007 89 10000 1.54 330 21:26 22.11.2021
5356 Clouds 26 1007 89 10000 1.03 320 20:49 22.11.2021
5357 Clouds 26 1007 89 10000 1.03 320 20:49 22.11.2021
5358 Clouds 28 1006 85 10000 1.54 330 19:26 22.11.2021
5359 Clouds 28 1006 82 10000 2.57 330 18:58 22.11.2021
5360 Clouds 28 1006 82 10000 2.57 310 18:35 22.11.2021
5361 Clouds 29 1007 81 10000 3.6 310 16:56 22.11.2021
5362 Clouds 29 1008 75 10000 4.63 320 15:42 22.11.2021
5363 Clouds 29 1008 74 10000 4.63 320 12:56 22.11.2021
5364 Clouds 30 1007 72 10000 4.63 300 11:41 22.11.2021
5365 Clear 31 1007 66 10000 5.14 290 10:38 22.11.2021
5366 Clouds 32 1006 58 10000 6.17 300 09:24 22.11.2021
5367 Clouds 32 1006 59 10000 5.66 290 08:36 22.11.2021
5368 Clouds 33 1008 52 10000 4.63 320 04:32 22.11.2021
5369 Clouds 29 1009 79 10000 1.03 350 23:23 21.11.2021
5370 Clouds 28 1009 88 10000 1.03 290 22:46 21.11.2021
5371 Clouds 27 1007 90 10000 1.54 330 21:40 21.11.2021
5372 Clouds 27 1007 90 10000 4.63 310 20:41 21.11.2021
5373 Clouds 26 1007 93 10000 1.03 10 19:46 21.11.2021
5374 Clouds 27 1008 87 10000 2.57 330 17:59 21.11.2021
5375 Clouds 27 1008 85 10000 5.66 10 17:37 21.11.2021
5376 Clouds 29 1009 81 10000 4.12 280 15:25 21.11.2021
5377 Clouds 29 1010 80 9000 4.12 270 14:44 21.11.2021
5378 Clouds 30 1009 77 10000 4.12 280 13:40 21.11.2021
5379 Clouds 30 1009 76 10000 4.63 260 12:35 21.11.2021
5380 Clouds 30 1007 74 10000 4.63 270 11:42 21.11.2021
5381 Clouds 30 1007 74 10000 5.14 280 10:55 21.11.2021
5382 Clouds 31 1006 67 10000 4.63 290 10:18 21.11.2021
5383 Clouds 34 1006 49 10000 4.12 330 08:40 21.11.2021
5384 Clouds 34 1006 49 10000 4.12 330 08:20 21.11.2021
5385 Clear 35 1006 46 10000 5.66 330 07:41 21.11.2021
5386 Clear 34 1007 49 10000 5.14 330 05:49 21.11.2021
5387 Clouds 35 1008 49 10000 5.14 340 05:19 21.11.2021
5388 Clouds 34 1009 52 10000 4.63 10 03:18 21.11.2021
5389 Clouds 33 1010 53 10000 4.12 20 02:50 21.11.2021
5390 Clouds 32 1010 63 10000 4.12 50 00:56 21.11.2021
5391 Clouds 30 1010 74 10000 1.54 110 23:43 20.11.2021
5392 Clouds 28 1008 84 10000 1.54 70 21:40 20.11.2021
5393 Clouds 28 1008 84 10000 1.54 70 20:54 20.11.2021
5394 Clouds 29 1007 81 10000 1.54 20 18:46 20.11.2021
5395 Clouds 29 1007 84 10000 2.57 20 18:26 20.11.2021
5396 Clouds 29 1009 78 10000 1.54 10 17:26 20.11.2021
5397 Clouds 30 1010 76 10000 2.57 10 16:46 20.11.2021
5398 Clouds 30 1009 76 10000 2.57 10 14:46 20.11.2021
5399 Clouds 30 1009 79 10000 2.57 10 14:24 20.11.2021
5400 Clouds 30 1008 77 10000 2.06 330 12:22 20.11.2021
5401 Clouds 31 1007 66 10000 4.63 360 10:35 20.11.2021
5402 Clouds 33 1006 62 10000 5.14 20 09:39 20.11.2021
5403 Clouds 33 1006 62 10000 5.14 20 09:39 20.11.2021
5404 Clouds 35 1006 52 10000 6.17 20 07:37 20.11.2021
5405 Clouds 35 1008 45 10000 7.72 50 05:28 20.11.2021
5406 Clouds 35 1008 48 10000 7.2 60 04:50 20.11.2021
5407 Clouds 33 1010 62 10000 4.12 70 01:58 20.11.2021
5408 Clouds 31 1010 71 10000 4.12 100 00:40 20.11.2021
5409 Clouds 29 1009 80 10000 3.6 100 23:41 19.11.2021
5410 Clouds 28 1008 84 10000 3.09 90 22:21 19.11.2021
5411 Clouds 27 1007 85 10000 1.54 120 20:58 19.11.2021
5412 Clouds 27 1007 86 10000 1.54 130 20:36 19.11.2021
5413 Clouds 27 1009 83 10000 1.54 100 19:55 19.11.2021
5414 Clouds 27 1009 85 10000 1.03 80 18:54 19.11.2021
5415 Clouds 28 1009 82 10000 1.54 80 18:24 19.11.2021
5416 Rain 29 1008 81 10000 1.54 70 17:36 19.11.2021
5417 Clear 29 1008 80 10000 2.57 360 15:58 19.11.2021
5418 Clear 30 1008 75 10000 3.09 40 13:55 19.11.2021
5419 Clouds 31 1006 67 10000 3.6 60 10:28 19.11.2021
5420 Clouds 32 1005 65 10000 4.63 20 09:38 19.11.2021
5421 Clouds 32 1006 64 10000 3.09 30 08:24 19.11.2021
5422 Clouds 34 1008 56 10000 3.6 50 04:53 19.11.2021
5423 Clouds 30 1009 66 10000 3.6 80 02:40 19.11.2021
5424 Clouds 27 1010 69 10000 8.75 40 23:52 18.11.2021
5425 Clouds 27 1012 89 10000 0 0 22:21 18.11.2021
5426 Clouds 27 1007 86 10000 0.51 350 20:50 18.11.2021
5427 Clouds 27 1007 86 10000 0 0 20:31 18.11.2021
5428 Clouds 27 1007 85 10000 0 0 19:55 18.11.2021
5429 Clouds 27 1007 83 10000 0 0 19:34 18.11.2021
5430 Clouds 28 1007 82 10000 1.54 350 18:34 18.11.2021
5431 Clouds 28 1007 81 10000 1.03 330 17:51 18.11.2021
5432 Clouds 28 1008 78 10000 1.54 360 16:45 18.11.2021
5433 Clouds 28 1008 78 10000 1.54 360 16:45 18.11.2021
5434 Clear 29 1007 74 10000 2.06 340 15:51 18.11.2021
5435 Clouds 29 1011 80 10000 1.03 280 13:59 18.11.2021
5436 Clear 30 1006 72 10000 2.06 240 12:34 18.11.2021
5437 Clear 30 1006 71 10000 3.09 260 11:43 18.11.2021
5438 Clear 30 1006 71 10000 3.09 260 11:25 18.11.2021
5439 Clouds 31 1005 67 10000 4.12 280 10:19 18.11.2021
5440 Clouds 34 1006 55 10000 5.66 300 07:39 18.11.2021
5441 Clouds 35 1007 54 10000 5.66 320 05:59 18.11.2021
5442 Clouds 35 1011 53 10000 4.63 300 05:39 18.11.2021
5443 Clouds 33 1013 55 10000 2.06 30 01:24 18.11.2021
5444 Clouds 29 1009 71 10000 1.54 130 23:25 17.11.2021
5445 Clouds 26 1008 84 10000 2.57 140 22:34 17.11.2021
5446 Clouds 25 1008 86 10000 2.57 140 21:55 17.11.2021
5447 Clouds 26 1008 84 10000 2.06 150 21:35 17.11.2021
5448 Clouds 26 1007 89 10000 0.51 320 19:27 17.11.2021
5449 Clouds 27 1008 78 10000 2.06 350 17:31 17.11.2021
5450 Clouds 28 1009 73 10000 3.09 340 15:23 17.11.2021
5451 Clear 29 1009 65 10000 2.06 290 12:51 17.11.2021
5452 Clear 30 1008 64 10000 2.06 270 12:25 17.11.2021
5453 Clear 30 1008 60 10000 2.57 300 10:51 17.11.2021
5454 Clear 33 1007 50 10000 3.6 310 09:29 17.11.2021
5455 Clear 34 1007 46 10000 4.63 310 07:46 17.11.2021
5456 Clear 34 1008 47 10000 5.66 310 06:42 17.11.2021
5457 Clear 34 1011 39 10000 2.57 70 02:47 17.11.2021
5458 Clouds 29 1011 66 10000 1.54 140 23:46 16.11.2021
5459 Clouds 24 1010 83 10000 1.03 130 22:20 16.11.2021
5460 Clouds 25 1008 73 10000 1.54 150 20:19 16.11.2021
5461 Clouds 25 1008 73 10000 2.57 150 19:37 16.11.2021
5462 Clouds 25 1008 78 10000 1.03 40 18:43 16.11.2021
5463 Clouds 25 1008 78 10000 1.03 40 17:44 16.11.2021
5464 Clouds 25 1009 73 10000 1.03 40 16:59 16.11.2021
5465 Clouds 26 1009 69 10000 1.03 50 16:19 16.11.2021
5466 Clear 26 1009 61 10000 1.03 30 15:42 16.11.2021
5467 Clear 28 1009 54 10000 1.54 10 13:42 16.11.2021
5468 Clear 31 1008 46 10000 3.6 360 10:22 16.11.2021
5469 Clear 32 1008 43 10000 4.63 360 09:39 16.11.2021
5470 Clear 35 1007 31 10000 6.17 300 07:41 16.11.2021
5471 Clear 37 1008 18 10000 3.09 140 06:43 16.11.2021
5472 Clouds 26 1010 50 10000 3.6 130 23:26 15.11.2021
5473 Clouds 25 1009 66 10000 3.09 150 22:41 15.11.2021
5474 Clouds 24 1009 86 10000 2.57 150 21:57 15.11.2021
5475 Clear 24 1009 87 10000 2.06 150 21:31 15.11.2021
5476 Clouds 25 1008 91 10000 2.86 142 20:43 15.11.2021
5477 Clouds 25 1008 87 10000 2.29 140 19:26 15.11.2021
5478 Clouds 26 1008 83 10000 2.49 163 17:33 15.11.2021
5479 Clear 26 1009 78 10000 0 0 15:52 15.11.2021
5480 Clear 26 1009 78 10000 1.03 270 15:33 15.11.2021
5481 Clear 28 1009 70 10000 1.54 270 14:27 15.11.2021
5482 Clear 28 1009 67 10000 1.54 290 12:38 15.11.2021
5483 Clear 30 1007 53 10000 1.54 350 10:33 15.11.2021
5484 Clouds 33 1007 47 10000 2.57 350 09:22 15.11.2021
5485 Clear 35 1007 24 10000 3.09 210 07:23 15.11.2021
5486 Clouds 31 1011 64 10000 3.09 120 00:56 15.11.2021
5487 Clouds 27 1011 81 10000 1.54 140 22:44 14.11.2021
5488 Clouds 26 1011 82 10000 1.54 130 22:19 14.11.2021
5489 Clouds 27 1008 79 10000 2.57 45 19:22 14.11.2021
5490 Clouds 26 1008 81 10000 2.57 45 18:55 14.11.2021
5491 Clouds 26 1008 80 10000 2.57 45 18:36 14.11.2021
5492 Clouds 26 1008 80 10000 2.89 41 18:18 14.11.2021
5493 Clouds 27 1008 80 10000 2.89 41 17:58 14.11.2021
5494 Clouds 28 1009 76 10000 2.89 41 17:40 14.11.2021
5495 Clouds 28 1009 76 10000 2.97 7 17:22 14.11.2021
5496 Clouds 29 1009 73 10000 2.24 360 16:59 14.11.2021
5497 Clouds 29 1010 73 10000 2.24 360 16:40 14.11.2021
5498 Clouds 29 1010 73 10000 2.24 360 16:19 14.11.2021
5499 Clouds 29 1010 73 10000 3.09 360 15:20 14.11.2021
5500 Clear 30 1010 73 10000 3.6 10 14:45 14.11.2021
5501 Clear 29 1010 73 10000 3.09 20 14:22 14.11.2021
5502 Clear 29 1010 73 10000 2.06 20 13:52 14.11.2021
5503 Clear 29 1009 74 10000 2.06 10 13:27 14.11.2021
5504 Clear 29 1009 69 10000 1.54 20 12:23 14.11.2021
5505 Clear 30 1008 68 10000 2.06 30 11:28 14.11.2021
5506 Clouds 30 1008 69 10000 3.6 10 10:39 14.11.2021
5507 Clouds 31 1008 68 10000 3.6 20 09:41 14.11.2021
5508 Clouds 32 1008 65 10000 4.12 360 08:51 14.11.2021
5509 Clouds 34 1009 47 10000 5.66 110 04:47 14.11.2021
5510 Clear 26 1010 86 10000 1.54 90 23:27 13.11.2021
5511 Clouds 25 1009 88 10000 0 360 22:21 13.11.2021
5512 Rain 25 1008 89 10000 0 0 21:36 13.11.2021
5513 Rain 24 1008 90 10000 4.92 93 20:46 13.11.2021
5514 Rain 24 1008 91 10000 3.68 92 19:32 13.11.2021
5515 Rain 25 1008 90 10000 3.59 81 18:32 13.11.2021
5516 Rain 25 1008 90 10000 3.59 81 18:32 13.11.2021
5517 Rain 24 1009 92 10000 0.45 252 17:41 13.11.2021
5518 Rain 23 1009 78 10000 4.59 52 16:29 13.11.2021
5519 Clouds 26 1009 92 10000 5.22 51 14:45 13.11.2021
5520 Clouds 26 1010 92 10000 5.4 54 13:56 13.11.2021
5521 Rain 26 1009 93 10000 1.2 113 12:43 13.11.2021
5522 Rain 26 1008 93 10000 4.35 175 11:57 13.11.2021
5523 Rain 29 1009 74 10000 3.3 141 11:24 13.11.2021
5524 Rain 29 1009 74 10000 3.3 141 10:39 13.11.2021
5525 Rain 31 1007 64 10000 2.76 16 09:49 13.11.2021
5526 Thunderstorm 24 1008 94 400 6.69 130 09:31 13.11.2021
5527 Thunderstorm 26 1007 83 800 6.17 130 08:49 13.11.2021
5528 Clouds 35 1005 49 10000 6.17 350 07:54 13.11.2021
5529 Clear 34 1007 46 10000 3.6 310 04:43 13.11.2021
5530 Clear 35 1008 43 10000 4.63 310 04:20 13.11.2021
5531 Clouds 31 1009 71 10000 4.12 230 00:18 13.11.2021
5532 Clouds 29 1008 84 10000 2.57 220 22:34 12.11.2021
5533 Clouds 29 1008 84 10000 2.57 220 22:34 12.11.2021
5534 Clouds 29 1007 83 10000 2.06 250 20:49 12.11.2021
5535 Clouds 29 1006 83 10000 2.57 270 19:33 12.11.2021
5536 Clouds 29 1006 82 10000 2.57 270 18:59 12.11.2021
5537 Clouds 29 1007 82 10000 2.57 270 18:20 12.11.2021
5538 Clear 29 1008 75 10000 2.57 270 15:55 12.11.2021
5539 Clear 30 1008 74 10000 3.6 270 13:46 12.11.2021
5540 Clouds 30 1007 71 10000 3.6 280 11:26 12.11.2021
5541 Clouds 31 1006 69 10000 4.12 290 10:43 12.11.2021
5542 Clouds 33 1005 59 10000 5.14 280 08:59 12.11.2021
5543 Clouds 34 1005 59 10000 5.66 280 08:29 12.11.2021
5544 Clouds 31 1009 72 10000 3.6 270 00:37 12.11.2021
5545 Clouds 30 1008 75 10000 2.57 280 23:30 11.11.2021
5546 Clouds 29 1007 81 10000 2.57 280 22:27 11.11.2021
5547 Clouds 29 1006 82 10000 4.63 300 21:26 11.11.2021
5548 Clouds 29 1006 81 10000 4.12 290 20:18 11.11.2021
5549 Clouds 29 1004 80 10000 4.12 280 18:42 11.11.2021
5550 Clouds 29 1007 78 10000 3.6 280 17:42 11.11.2021
5551 Clouds 29 1008 78 10000 4.12 300 15:51 11.11.2021
5552 Clouds 30 1008 78 10000 2.57 280 14:44 11.11.2021
5553 Clouds 30 1008 78 10000 3.09 280 14:25 11.11.2021
5554 Clouds 30 1007 78 10000 3.6 290 13:36 11.11.2021
5555 Clouds 30 1007 78 10000 3.09 280 12:30 11.11.2021
5556 Clouds 30 1005 71 10000 4.12 270 10:24 11.11.2021
5557 Clouds 32 1004 69 10000 6.69 300 09:23 11.11.2021
5558 Clouds 34 1005 59 10000 7.72 310 07:34 11.11.2021
5559 Clouds 32 1008 70 10000 4.12 310 00:43 11.11.2021
5560 Clouds 30 1007 79 10000 3.09 300 22:46 10.11.2021
5561 Clouds 27 1007 85 10000 3.09 300 21:56 10.11.2021
5562 Clouds 28 1006 83 10000 2.57 300 21:18 10.11.2021
5563 Clouds 27 1007 88 10000 3.09 300 20:35 10.11.2021
5564 Clouds 28 1007 83 10000 2.57 290 19:46 10.11.2021
5565 Clouds 29 1006 75 10000 3.09 280 17:39 10.11.2021
5566 Clouds 29 1006 76 10000 2.57 270 16:21 10.11.2021
5567 Clouds 28 1007 81 10000 2.06 270 14:25 10.11.2021
5568 Clouds 28 1007 84 10000 3.09 270 13:40 10.11.2021
5569 Clouds 28 1007 90 10000 1.54 10 12:39 10.11.2021
5570 Clouds 29 1005 77 10000 4.12 350 10:20 10.11.2021
5571 Clouds 32 1005 63 10000 5.66 290 08:45 10.11.2021
5572 Clouds 33 1005 60 10000 5.66 280 07:22 10.11.2021
5573 Clouds 33 1006 64 10000 6.17 300 05:59 10.11.2021
5574 Clouds 33 1007 58 10000 5.66 290 04:59 10.11.2021
5575 Clouds 29 1008 83 10000 2.06 320 22:54 09.11.2021
5576 Clouds 27 1007 92 10000 2.06 310 21:47 09.11.2021
5577 Clouds 27 1006 87 10000 2.06 320 20:20 09.11.2021
5578 Clouds 27 1007 85 10000 1.54 320 19:20 09.11.2021
5579 Clouds 27 1006 82 10000 0 0 17:30 09.11.2021
5580 Clouds 28 1007 75 10000 1.54 230 15:38 09.11.2021
5581 Clouds 29 1007 78 10000 2.06 290 13:59 09.11.2021
5582 Rain 29 1006 81 10000 3.09 310 12:50 09.11.2021
5583 Rain 29 1006 77 10000 1.54 340 11:38 09.11.2021
5584 Rain 29 1006 75 10000 2.06 320 10:43 09.11.2021
5585 Rain 28 1005 69 10000 0.51 190 09:24 09.11.2021
5586 Rain 27 1006 78 10000 5.66 140 08:19 09.11.2021
5587 Clouds 34 1007 62 10000 6.17 300 05:45 09.11.2021
5588 Clouds 32 1009 64 10000 2.57 260 02:19 09.11.2021
5589 Clouds 32 1009 66 10000 1.03 170 01:39 09.11.2021
5590 Clouds 29 1008 78 10000 1.54 120 23:35 08.11.2021
5591 Clouds 27 1008 87 10000 1.54 70 22:49 08.11.2021
5592 Clouds 26 1008 89 10000 2.06 80 21:46 08.11.2021
5593 Clouds 26 1008 89 10000 2.06 80 21:46 08.11.2021
5594 Clouds 26 1007 89 10000 1.03 70 20:47 08.11.2021
5595 Clouds 26 1007 85 10000 1.54 90 19:48 08.11.2021
5596 Clouds 27 1007 89 10000 2.06 150 18:25 08.11.2021
5597 Clouds 27 1008 85 10000 1.54 120 16:21 08.11.2021
5598 Clouds 29 1009 81 10000 1.54 140 14:58 08.11.2021
5599 Clouds 29 1009 81 10000 1.54 180 14:37 08.11.2021
5600 Clouds 29 1008 81 10000 1.54 170 13:24 08.11.2021
5601 Clear 29 1007 80 10000 2.06 180 11:56 08.11.2021
5602 Rain 30 1006 75 10000 2.06 190 10:50 08.11.2021
5603 Clouds 32 1006 58 10000 3.6 270 09:39 08.11.2021
5604 Clouds 32 1006 58 10000 4.12 290 08:54 08.11.2021
5605 Clouds 33 1005 57 10000 5.14 290 07:29 08.11.2021
5606 Clouds 32 1008 63 10000 3.6 330 03:56 08.11.2021
5607 Clouds 32 1009 62 10000 2.06 340 03:28 08.11.2021
5608 Clouds 31 1009 67 10000 1.03 340 23:46 07.11.2021
5609 Clouds 26 1008 89 10000 1.54 350 21:48 07.11.2021
5610 Clouds 27 1007 88 10000 1.03 350 20:54 07.11.2021
5611 Clouds 28 1006 80 10000 2.57 360 19:30 07.11.2021
5612 Clouds 28 1006 83 10000 2.06 350 18:22 07.11.2021
5613 Clouds 28 1007 84 10000 1.54 360 16:54 07.11.2021
5614 Clouds 28 1007 85 10000 0 0 15:48 07.11.2021
5615 Clouds 28 1007 82 10000 0.51 280 14:29 07.11.2021
5616 Clouds 28 1007 79 10000 2.06 270 13:26 07.11.2021
5617 Clouds 29 1006 74 10000 3.09 310 11:43 07.11.2021
5618 Clouds 32 1007 62 10000 3.09 280 09:52 07.11.2021
5619 Clouds 33 1005 52 10000 3.09 310 07:54 07.11.2021
5620 Clouds 29 1009 78 10000 2.57 120 02:38 07.11.2021
5621 Rain 23 1010 88 8000 4.63 40 23:38 06.11.2021
5622 Rain 26 1008 89 10000 3.6 360 22:48 06.11.2021
5623 Clouds 26 1007 93 10000 1.54 60 21:33 06.11.2021
5624 Rain 26 1006 94 10000 0.51 210 20:50 06.11.2021
5625 Rain 26 1006 92 5000 2.57 260 18:56 06.11.2021
5626 Clouds 28 1007 82 10000 3.09 310 16:47 06.11.2021
5627 Clouds 28 1007 82 10000 3.09 310 16:47 06.11.2021
5628 Clouds 28 1007 82 10000 3.09 310 16:47 06.11.2021
5629 Clouds 28 1007 82 10000 3.09 310 16:47 06.11.2021
5630 Clouds 28 1007 82 10000 3.09 310 16:47 06.11.2021
5631 Clouds 28 1007 82 10000 2.57 310 15:20 06.11.2021
5632 Clouds 28 1006 78 10000 2.57 310 13:38 06.11.2021
5633 Clear 28 1005 77 10000 2.57 290 11:53 06.11.2021
5634 Clouds 31 1004 66 10000 3.09 290 09:33 06.11.2021
5635 Clouds 31 1004 65 10000 2.57 320 07:55 06.11.2021
5636 Clouds 30 1010 76 10000 3.6 190 02:36 06.11.2021
5637 Rain 26 1009 89 10000 1.03 140 23:37 05.11.2021
5638 Rain 26 1008 94 10000 3.09 100 22:39 05.11.2021
5639 Rain 25 1008 91 6000 2.06 150 21:50 05.11.2021
5640 Thunderstorm 26 1007 87 10000 2.57 60 20:20 05.11.2021
5641 Thunderstorm 26 1007 82 10000 4.12 20 19:48 05.11.2021
5642 Clouds 27 1007 90 10000 1.54 170 18:41 05.11.2021
5643 Clouds 28 1008 87 10000 0.51 190 17:30 05.11.2021
5644 Clouds 29 1008 81 10000 1.54 230 15:43 05.11.2021
5645 Rain 29 1008 84 10000 2.57 270 13:55 05.11.2021
5646 Rain 29 1007 78 10000 2.57 270 11:31 05.11.2021
5647 Clouds 32 1010 67 10000 3.6 310 08:41 05.11.2021
5648 Clouds 32 1006 65 10000 4.12 330 07:39 05.11.2021
5649 Clouds 32 1006 65 10000 4.12 330 07:39 05.11.2021
5650 Clouds 32 1008 65 10000 4.12 320 05:33 05.11.2021
5651 Clouds 32 1008 65 10000 4.12 320 05:33 05.11.2021
5652 Rain 32 1010 64 10000 1.03 360 02:26 05.11.2021
5653 Clouds 31 1011 71 10000 1.54 150 00:52 05.11.2021
5654 Clear 26 1010 94 10000 1.54 150 23:24 04.11.2021
5655 Rain 26 1009 89 10000 1.03 180 22:20 04.11.2021
5656 Rain 25 1009 94 10000 0 0 21:43 04.11.2021
5657 Clouds 25 1009 88 10000 1.03 180 20:53 04.11.2021
5658 Rain 25 1008 88 10000 1.54 220 20:22 04.11.2021
5659 Rain 25 1008 94 10000 0 0 19:47 04.11.2021
5660 Rain 24 1009 94 10000 1.54 310 18:52 04.11.2021
5661 Drizzle 24 1009 100 10000 2.06 340 18:18 04.11.2021
5662 Thunderstorm 24 1010 94 10000 2.06 90 16:53 04.11.2021
5663 Clouds 27 1011 89 10000 0.51 10 15:18 04.11.2021
5664 Clouds 30 1009 77 10000 1.03 290 12:53 04.11.2021
5665 Clouds 31 1007 62 10000 2.57 360 09:42 04.11.2021
5666 Clouds 29 1007 74 10000 1.54 280 08:31 04.11.2021
5667 Clouds 26 1008 83 10000 4.63 220 07:35 04.11.2021
5668 Clouds 34 1008 50 10000 6.69 360 06:18 04.11.2021
5669 Rain 28 1011 85 10000 2.57 130 22:53 03.11.2021
5670 Clouds 28 1010 89 10000 2.06 140 21:50 03.11.2021
5671 Clouds 28 1010 90 10000 1.03 100 21:30 03.11.2021
5672 Clouds 28 1009 94 10000 1.03 100 20:37 03.11.2021
5673 Clouds 28 1009 94 10000 1.03 100 20:18 03.11.2021
5674 Clouds 27 1009 89 2300 6.69 70 19:19 03.11.2021
5675 Clouds 29 1010 82 10000 1.54 60 18:25 03.11.2021
5676 Clouds 29 1011 84 10000 1.54 110 17:36 03.11.2021
5677 Clouds 29 1011 81 10000 1.03 340 16:27 03.11.2021
5678 Clouds 29 1011 80 10000 2.06 310 15:44 03.11.2021
5679 Clouds 30 1011 77 10000 3.09 320 14:25 03.11.2021
5680 Clear 30 1010 65 10000 3.09 40 12:33 03.11.2021
5681 Clouds 31 1008 64 10000 2.06 350 11:27 03.11.2021
5682 Clouds 31 1008 60 10000 3.09 10 10:49 03.11.2021
5683 Clouds 31 1008 60 10000 3.09 10 10:49 03.11.2021
5684 Clouds 31 1008 60 10000 3.09 10 10:49 03.11.2021
5685 Clouds 33 1007 57 10000 4.63 360 09:31 03.11.2021
5686 Clouds 33 1007 57 10000 4.63 360 09:31 03.11.2021
5687 Clouds 34 1007 52 10000 5.14 350 08:24 03.11.2021
5688 Clouds 35 1008 55 10000 5.14 10 07:39 03.11.2021
5689 Clouds 34 1010 59 10000 5.14 30 05:35 03.11.2021
5690 Clouds 28 1013 83 10000 5.14 50 03:19 03.11.2021
5691 Clouds 30 1017 75 10000 3.09 70 23:57 02.11.2021
5692 Clouds 27 1012 85 10000 2.57 100 22:48 02.11.2021
5693 Clouds 26 1011 85 10000 2.06 110 21:45 02.11.2021
5694 Clouds 27 1015 81 10000 2.57 80 20:34 02.11.2021
5695 Clouds 28 1010 81 10000 3.09 100 19:54 02.11.2021
5696 Clouds 28 1010 85 10000 2.57 110 19:18 02.11.2021
5697 Clouds 27 1010 87 10000 2.06 130 18:26 02.11.2021
5698 Clouds 28 1011 87 10000 1.54 130 17:43 02.11.2021
5699 Clouds 28 1011 84 10000 1.54 10 16:33 02.11.2021
5700 Clouds 28 1011 83 10000 2.06 340 15:48 02.11.2021
5701 Clouds 29 1011 84 10000 2.57 350 14:31 02.11.2021
5702 Clouds 29 1011 79 10000 1.03 330 13:28 02.11.2021
5703 Clouds 29 1010 78 10000 2.06 360 12:43 02.11.2021
5704 Clouds 29 1010 78 10000 2.57 360 11:38 02.11.2021
5705 Clouds 30 1009 77 10000 1.54 350 10:54 02.11.2021
5706 Clouds 30 1009 72 10000 3.6 360 10:30 02.11.2021
5707 Clouds 33 1009 60 10000 3.6 20 08:45 02.11.2021
5708 Clouds 33 1008 59 10000 3.6 50 07:36 02.11.2021
5709 Clear 28 1012 83 10000 1.54 110 03:51 02.11.2021
5710 Rain 26 1013 89 10000 0.51 160 02:35 02.11.2021
5711 Rain 24 1012 88 10000 3.6 150 23:20 01.11.2021
5712 Thunderstorm 25 1011 89 2000 10.29 60 21:27 01.11.2021
5713 Clouds 28 1009 82 10000 1.03 340 20:39 01.11.2021
5714 Clouds 28 1013 82 10000 1.03 360 19:58 01.11.2021
5715 Clouds 28 1009 82 10000 1.03 360 19:30 01.11.2021
5716 Clouds 28 1010 78 10000 1.54 340 18:23 01.11.2021
5717 Clouds 29 1010 76 10000 1.54 300 17:35 01.11.2021
5718 Clouds 29 1011 75 10000 1.03 290 16:50 01.11.2021
5719 Clouds 29 1011 75 10000 2.57 290 15:55 01.11.2021
5720 Clouds 30 1012 74 10000 3.09 300 15:27 01.11.2021
5721 Clouds 30 1011 72 10000 3.09 310 14:43 01.11.2021
5722 Clear 30 1011 70 10000 3.6 310 14:23 01.11.2021
5723 Clear 30 1011 70 10000 3.6 320 13:49 01.11.2021
5724 Clear 30 1010 72 10000 3.6 330 12:33 01.11.2021
5725 Rain 32 1008 59 10000 2.57 10 10:36 01.11.2021
5726 Thunderstorm 33 1008 53 10000 3.6 360 09:43 01.11.2021
5727 Clouds 35 1007 49 10000 4.12 350 07:50 01.11.2021
5728 Clouds 35 1007 49 10000 4.12 350 07:30 01.11.2021
5729 Clouds 34 1011 46 10000 2.57 90 03:45 01.11.2021
5730 Clear 30 1012 56 10000 4.63 130 00:41 01.11.2021
5731 Clear 26 1011 74 10000 3.6 130 22:31 31.10.2021
5732 Clouds 26 1010 76 10000 3.6 150 20:50 31.10.2021
5733 Clouds 26 1010 76 10000 3.09 140 19:20 31.10.2021
5734 Clouds 26 1011 74 10000 4.12 150 18:38 31.10.2021
5735 Clouds 26 1011 70 10000 3.6 150 17:31 31.10.2021
5736 Clear 27 1012 70 10000 5.66 140 15:50 31.10.2021
5737 Clear 27 1013 75 10000 5.14 150 13:58 31.10.2021
5738 Clear 28 1013 75 10000 3.09 180 12:49 31.10.2021
5739 Clear 29 1011 72 10000 4.63 200 11:40 31.10.2021
5740 Clear 30 1010 67 10000 4.63 200 10:42 31.10.2021
5741 Clear 34 1009 36 10000 3.09 290 09:21 31.10.2021
5742 Clear 34 1009 36 10000 3.09 290 09:21 31.10.2021
5743 Clear 34 1009 40 10000 3.6 270 08:19 31.10.2021
5744 Clouds 30 1015 71 10000 3.09 70 00:58 31.10.2021
5745 Clouds 26 1012 85 10000 1.54 70 22:45 30.10.2021
5746 Clouds 26 1010 85 10000 1.03 360 21:35 30.10.2021
5747 Clouds 27 1012 80 10000 0.51 360 20:33 30.10.2021
5748 Clouds 28 1011 75 10000 2.06 320 18:45 30.10.2021
5749 Clouds 29 1011 71 10000 2.57 320 17:25 30.10.2021
5750 Clear 30 1012 67 10000 3.6 350 14:50 30.10.2021
5751 Clear 30 1011 67 10000 3.09 330 13:39 30.10.2021
5752 Clear 30 1011 67 10000 3.09 330 13:21 30.10.2021
5753 Clear 31 1009 65 10000 3.6 340 11:58 30.10.2021
5754 Clouds 31 1009 64 10000 4.63 340 11:39 30.10.2021
5755 Clear 34 1008 53 10000 3.6 300 10:32 30.10.2021
5756 Clouds 34 1009 46 10000 2.57 310 08:52 30.10.2021
5757 Clouds 35 1009 46 10000 4.63 330 07:19 30.10.2021
5758 Clouds 34 1011 57 10000 4.63 310 05:39 30.10.2021
5759 Clouds 31 1013 74 10000 1.54 50 00:47 30.10.2021
5760 Clouds 28 1012 85 10000 1.03 80 22:43 29.10.2021
5761 Clouds 28 1012 85 10000 1.03 80 22:20 29.10.2021
5762 Clouds 28 1010 85 10000 0 0 20:46 29.10.2021
5763 Clouds 28 1010 83 10000 0.51 300 19:56 29.10.2021
5764 Clouds 29 1010 82 10000 2.06 250 18:33 29.10.2021
5765 Clouds 30 1012 73 10000 2.57 330 16:52 29.10.2021
5766 Clouds 29 1011 75 10000 3.6 320 14:36 29.10.2021
5767 Rain 31 1009 66 10000 4.12 330 11:56 29.10.2021
5768 Clouds 32 1008 58 10000 4.12 300 10:44 29.10.2021
5769 Clouds 34 1008 52 10000 4.63 310 08:38 29.10.2021
5770 Clouds 29 1012 73 10000 0 0 00:37 29.10.2021
5771 Clouds 28 1011 81 10000 1.54 330 23:25 28.10.2021
5772 Clouds 27 1010 80 10000 0.51 330 22:18 28.10.2021
5773 Clouds 28 1010 77 10000 1.54 330 20:54 28.10.2021
5774 Clouds 29 1009 74 10000 2.57 310 19:51 28.10.2021
5775 Clouds 29 1010 73 10000 2.06 340 18:26 28.10.2021
5776 Clouds 29 1010 71 10000 3.09 330 17:18 28.10.2021
5777 Rain 30 1011 71 10000 4.63 330 15:48 28.10.2021
5778 Clear 30 1010 70 10000 5.14 330 14:25 28.10.2021
5779 Clear 30 1010 65 10000 4.12 310 13:29 28.10.2021
5780 Rain 30 1009 71 10000 6.17 300 12:41 28.10.2021
5781 Clouds 32 1008 62 10000 5.14 330 10:57 28.10.2021
5782 Clouds 34 1007 55 10000 5.14 340 09:39 28.10.2021
5783 Clouds 34 1007 55 10000 5.14 340 09:20 28.10.2021
5784 Clear 34 1007 52 10000 5.14 340 08:35 28.10.2021
5785 Clouds 35 1008 46 10000 4.63 330 07:40 28.10.2021
5786 Clouds 29 1011 74 10000 1.03 180 00:21 28.10.2021
5787 Clouds 27 1011 87 10000 3.6 130 22:31 27.10.2021
5788 Clouds 28 1010 86 10000 1.54 150 21:34 27.10.2021
5789 Clouds 28 1012 81 10000 2.06 150 20:54 27.10.2021
5790 Clouds 28 1012 79 10000 1.54 210 20:34 27.10.2021
5791 Clouds 29 1012 77 10000 1.03 300 19:42 27.10.2021
5792 Clouds 29 1010 78 10000 2.06 310 18:53 27.10.2021
5793 Clouds 29 1012 76 10000 2.57 320 16:38 27.10.2021
5794 Clouds 29 1012 76 10000 2.57 320 16:18 27.10.2021
5795 Clouds 29 1012 76 10000 3.09 320 15:21 27.10.2021
5796 Clouds 30 1010 71 10000 4.12 320 12:57 27.10.2021
5797 Rain 33 1009 56 10000 2.57 310 10:59 27.10.2021
5798 Clouds 33 1009 52 10000 3.6 310 10:01 27.10.2021
5799 Clouds 33 1009 58 10000 3.6 320 08:58 27.10.2021
5800 Thunderstorm 31 1010 66 10000 4.12 350 07:36 27.10.2021
5801 Clouds 33 1011 55 10000 4.63 300 05:35 27.10.2021
5802 Clouds 31 1013 62 10000 1.03 340 01:18 27.10.2021
5803 Clouds 31 1012 69 10000 0 0 00:33 27.10.2021
5804 Clouds 28 1011 81 10000 2.06 70 23:51 26.10.2021
5805 Clouds 27 1011 85 10000 1.03 30 22:42 26.10.2021
5806 Clouds 27 1011 85 10000 1.03 30 22:19 26.10.2021
5807 Clear 28 1010 81 10000 1.54 320 20:59 26.10.2021
5808 Clouds 28 1010 78 10000 2.06 330 19:33 26.10.2021
5809 Clouds 29 1010 77 10000 3.09 340 18:53 26.10.2021
5810 Clouds 29 1011 71 10000 3.6 340 16:58 26.10.2021
5811 Clouds 29 1011 74 10000 3.09 330 15:34 26.10.2021
5812 Clear 31 1009 64 10000 3.09 300 11:50 26.10.2021
5813 Clouds 33 1008 56 10000 3.6 310 10:46 26.10.2021
5814 Clouds 34 1008 49 10000 5.14 350 08:24 26.10.2021
5815 Clouds 34 1009 49 10000 4.63 350 07:21 26.10.2021
5816 Clouds 26 1013 78 10000 1.54 100 23:53 25.10.2021
5817 Clouds 26 1013 79 10000 2.06 60 23:20 25.10.2021
5818 Clouds 26 1011 79 10000 0.51 110 22:21 25.10.2021
5819 Clouds 26 1010 79 10000 1.54 80 21:40 25.10.2021
5820 Clouds 26 1010 78 10000 1.54 110 20:19 25.10.2021
5821 Clouds 26 1010 78 10000 1.54 160 19:42 25.10.2021
5822 Clouds 26 1010 78 10000 1.54 160 19:20 25.10.2021
5823 Clouds 27 1010 76 10000 1.54 120 18:33 25.10.2021
5824 Clouds 28 1011 76 10000 0 0 16:38 25.10.2021
5825 Clear 28 1010 71 10000 0.51 260 14:45 25.10.2021
5826 Clear 29 1009 69 10000 2.06 200 12:31 25.10.2021
5827 Clear 32 1008 54 10000 2.57 260 10:30 25.10.2021
5828 Clouds 33 1008 48 10000 5.66 310 08:54 25.10.2021
5829 Clouds 33 1009 49 10000 4.63 320 06:26 25.10.2021
5830 Clouds 31 1012 66 10000 2.06 280 02:44 25.10.2021
5831 Clouds 30 1012 74 10000 0.51 230 00:48 25.10.2021
5832 Clouds 28 1011 84 10000 1.03 150 23:47 24.10.2021
5833 Clouds 27 1011 89 10000 1.03 150 23:19 24.10.2021
5834 Clouds 27 1010 85 10000 1.03 330 22:37 24.10.2021
5835 Clouds 27 1010 85 10000 1.03 330 22:18 24.10.2021
5836 Clouds 28 1010 81 10000 1.54 330 20:46 24.10.2021
5837 Clouds 28 1011 80 10000 1.54 330 20:27 24.10.2021
5838 Clouds 28 1011 81 10000 1.54 340 19:22 24.10.2021
5839 Clouds 28 1010 78 10000 1.54 360 18:27 24.10.2021
5840 Clouds 28 1011 77 10000 2.57 300 17:35 24.10.2021
5841 Clouds 29 1010 78 10000 3.6 310 15:55 24.10.2021
5842 Clouds 29 1011 80 10000 4.12 310 14:25 24.10.2021
5843 Clouds 30 1010 71 10000 5.14 300 12:58 24.10.2021
5844 Clouds 31 1009 60 10000 4.12 340 11:44 24.10.2021
5845 Clouds 33 1009 52 10000 4.63 340 10:56 24.10.2021
5846 Clouds 34 1009 40 10000 5.14 310 09:59 24.10.2021
5847 Clouds 34 1009 46 10000 6.17 330 07:41 24.10.2021
5848 Clouds 28 1012 78 10000 2.06 50 00:57 24.10.2021
5849 Clouds 26 1011 84 10000 2.57 110 23:47 23.10.2021
5850 Clear 26 1010 78 10000 2.57 20 22:18 23.10.2021
5851 Clouds 26 1011 83 10000 1.54 310 20:36 23.10.2021
5852 Clouds 24 1012 88 10000 3.09 190 18:59 23.10.2021
5853 Clouds 26 1012 73 10000 8.23 110 18:26 23.10.2021
5854 Clouds 29 1011 81 10000 1.03 340 17:43 23.10.2021
5855 Clouds 29 1012 79 10000 2.57 280 16:23 23.10.2021
5856 Clouds 29 1011 75 10000 4.12 290 14:27 23.10.2021
5857 Clouds 33 1013 54 10000 3.6 340 03:34 23.10.2021
5858 Clouds 30 1012 73 10000 4.12 350 00:19 23.10.2021
5859 Clouds 27 1011 84 10000 2.06 360 22:53 22.10.2021
5860 Clouds 28 1010 80 10000 2.57 330 20:37 22.10.2021
5861 Clouds 28 1011 78 10000 2.06 300 18:44 22.10.2021
5862 Clouds 29 1012 79 10000 3.6 330 17:43 22.10.2021
5863 Clouds 29 1011 78 10000 4.12 300 15:26 22.10.2021
5864 Clear 30 1011 78 10000 2.57 300 13:52 22.10.2021
5865 Clear 31 1008 69 10000 3.09 300 11:24 22.10.2021
5866 Clear 32 1008 62 10000 2.57 310 10:41 22.10.2021
5867 Clouds 32 1008 64 10000 2.57 310 09:56 22.10.2021
5868 Clouds 33 1008 62 10000 4.12 350 08:36 22.10.2021
5869 Clouds 33 1009 58 10000 4.12 340 07:22 22.10.2021
5870 Clouds 32 1013 64 10000 3.6 280 02:57 22.10.2021
5871 Clouds 29 1010 78 10000 4.12 280 23:57 21.10.2021
5872 Clouds 29 1010 80 10000 3.09 270 23:38 21.10.2021
5873 Clouds 29 1009 82 10000 4.12 290 21:52 21.10.2021
5874 Clouds 29 1008 82 10000 5.66 310 20:42 21.10.2021
5875 Clouds 29 1008 82 10000 5.66 310 20:19 21.10.2021
5876 Clouds 29 1008 82 10000 6.17 320 19:29 21.10.2021
5877 Clouds 29 1008 82 10000 6.17 330 18:46 21.10.2021
5878 Clouds 29 1009 82 10000 5.66 320 18:18 21.10.2021
5879 Clouds 29 1009 82 10000 4.63 320 17:37 21.10.2021
5880 Clouds 29 1010 81 10000 5.14 310 15:54 21.10.2021
5881 Clouds 29 1010 82 10000 5.66 310 15:20 21.10.2021
5882 Clouds 30 1010 77 10000 4.12 290 14:38 21.10.2021
5883 Clear 29 1009 76 10000 4.12 300 13:19 21.10.2021
5884 Clear 31 1008 71 10000 4.63 280 11:24 21.10.2021
5885 Clear 33 1007 58 10000 5.66 320 08:55 21.10.2021
5886 Dust 34 1010 59 10000 5.66 320 07:29 21.10.2021
5887 Clouds 33 1011 62 10000 5.14 300 03:31 21.10.2021
5888 Clouds 29 1009 83 10000 3.6 270 23:29 20.10.2021
5889 Clouds 28 1008 84 10000 4.12 290 22:18 20.10.2021
5890 Clouds 28 1008 85 10000 3.09 310 21:38 20.10.2021
5891 Clouds 28 1009 82 10000 3.6 330 20:54 20.10.2021
5892 Clouds 28 1009 82 10000 3.6 310 20:33 20.10.2021
5893 Clouds 28 1009 82 10000 3.09 310 19:57 20.10.2021
5894 Clear 29 1008 81 10000 2.57 300 18:54 20.10.2021
5895 Clear 29 1010 77 10000 2.57 290 17:50 20.10.2021
5896 Clear 29 1010 73 10000 4.63 300 15:39 20.10.2021
5897 Clouds 33 1008 42 10000 5.66 300 10:43 20.10.2021
5898 Clear 35 1008 36 10000 6.69 300 08:53 20.10.2021
5899 Clouds 34 1012 49 10000 4.63 310 04:50 20.10.2021
5900 Clouds 30 1013 75 10000 2.57 270 00:47 20.10.2021
5901 Clouds 30 1013 76 10000 2.06 270 00:18 20.10.2021
5902 Clouds 29 1011 82 10000 1.54 270 21:44 19.10.2021
5903 Clouds 29 1012 81 10000 2.57 250 20:54 19.10.2021
5904 Clouds 29 1012 82 10000 2.06 270 20:25 19.10.2021
5905 Clouds 28 1012 82 10000 2.06 280 19:41 19.10.2021
5906 Clouds 28 1012 82 10000 2.06 280 19:19 19.10.2021
5907 Clouds 29 1012 81 10000 1.54 280 17:59 19.10.2021
5908 Clouds 29 1013 79 10000 3.09 280 15:48 19.10.2021
5909 Clouds 29 1013 79 10000 3.09 250 15:20 19.10.2021
5910 Clouds 30 1014 77 10000 4.12 220 14:27 19.10.2021
5911 Clouds 30 1012 76 10000 4.12 270 13:35 19.10.2021
5912 Clouds 30 1011 71 10000 4.63 280 11:37 19.10.2021
5913 Clouds 31 1010 64 10000 5.66 250 10:36 19.10.2021
5914 Clouds 34 1010 46 10000 5.66 300 08:58 19.10.2021
5915 Clouds 34 1011 52 10000 6.69 310 07:20 19.10.2021
5916 Clouds 29 1013 80 10000 0.51 80 00:26 19.10.2021
5917 Clouds 27 1013 87 10000 1.54 70 23:51 18.10.2021
5918 Clouds 26 1012 86 10000 0 0 23:20 18.10.2021
5919 Clouds 26 1012 86 10000 0 0 22:54 18.10.2021
5920 Rain 27 1013 85 10000 1.54 330 21:54 18.10.2021
5921 Clouds 27 1011 83 10000 1.54 340 20:42 18.10.2021
5922 Clouds 27 1011 82 10000 1.54 340 20:19 18.10.2021
5923 Clouds 28 1013 81 10000 1.03 360 19:30 18.10.2021
5924 Clouds 28 1012 82 10000 1.03 290 18:58 18.10.2021
5925 Clouds 28 1013 78 10000 2.57 280 15:56 18.10.2021
5926 Clouds 29 1012 74 10000 2.57 280 14:30 18.10.2021
5927 Clouds 30 1010 66 10000 2.57 270 11:20 18.10.2021
5928 Clouds 33 1010 60 10000 4.12 310 09:37 18.10.2021
5929 Clouds 33 1011 55 10000 3.09 290 05:32 18.10.2021
5930 Clouds 27 1011 83 10000 0 0 23:51 17.10.2021
5931 Clouds 27 1010 82 10000 0 0 22:23 17.10.2021
5932 Clouds 27 1009 82 10000 1.03 330 21:42 17.10.2021
5933 Clouds 27 1010 82 10000 2.06 330 20:49 17.10.2021
5934 Clouds 27 1010 85 10000 1.54 290 19:56 17.10.2021
5935 Clouds 27 1011 82 10000 1.03 290 19:37 17.10.2021
5936 Clouds 28 1012 80 10000 0.89 290 18:28 17.10.2021
5937 Clouds 29 1013 74 10000 2.57 290 15:57 17.10.2021
5938 Clouds 29 1012 75 10000 2.57 280 14:38 17.10.2021
5939 Clouds 29 1011 74 10000 3.09 300 13:59 17.10.2021
5940 Clear 29 1011 74 10000 3.09 290 13:30 17.10.2021
5941 Clouds 31 1009 66 10000 5.14 340 11:27 17.10.2021
5942 Clouds 33 1008 55 10000 4.63 330 09:56 17.10.2021
5943 Clouds 33 1010 52 10000 4.63 340 08:29 17.10.2021
5944 Clouds 31 1012 61 10000 3.09 40 02:57 17.10.2021
5945 Clouds 29 1011 71 10000 2.06 10 00:30 17.10.2021
5946 Clouds 26 1009 81 10000 1.54 350 22:47 16.10.2021
5947 Clouds 27 1008 81 10000 2.06 10 20:45 16.10.2021
5948 Clouds 27 1009 81 10000 2.06 30 20:26 16.10.2021
5949 Clouds 27 1009 79 10000 1.54 60 19:40 16.10.2021
5950 Clouds 27 1009 79 10000 1.54 60 19:19 16.10.2021
5951 Clouds 27 1009 79 10000 1.54 60 19:19 16.10.2021
5952 Clouds 26 1009 81 10000 1.54 20 18:44 16.10.2021
5953 Clouds 26 1009 81 10000 1.54 20 18:23 16.10.2021
5954 Clouds 28 1010 75 10000 1.54 40 17:33 16.10.2021
5955 Clear 28 1010 73 10000 3.09 360 16:20 16.10.2021
5956 Clouds 29 1008 73 10000 5.14 320 13:26 16.10.2021
5957 Clouds 32 1007 61 10000 6.69 360 11:24 16.10.2021
5958 Clouds 33 1007 50 10000 6.17 30 09:35 16.10.2021
5959 Clouds 34 1009 56 10000 4.12 10 04:33 16.10.2021
5960 Clouds 29 1010 80 10000 3.6 70 00:51 16.10.2021
5961 Clouds 26 1009 86 10000 1.54 130 23:27 15.10.2021
5962 Clouds 26 1008 90 10000 1.54 90 22:21 15.10.2021
5963 Clouds 26 1007 89 10000 1.54 70 21:41 15.10.2021
5964 Clouds 27 1007 89 10000 1.54 70 20:54 15.10.2021
5965 Clouds 27 1007 89 10000 1.54 70 20:35 15.10.2021
5966 Clouds 26 1007 90 10000 1.54 10 19:20 15.10.2021
5967 Clouds 26 1007 86 10000 1.03 360 18:22 15.10.2021
5968 Clouds 26 1007 86 10000 1.03 360 18:22 15.10.2021
5969 Clear 28 1008 78 10000 2.57 280 15:49 15.10.2021
5970 Clear 29 1008 75 10000 3.09 310 14:26 15.10.2021
5971 Clear 30 1007 73 10000 4.63 310 12:26 15.10.2021
5972 Clouds 30 1007 67 10000 4.12 330 11:19 15.10.2021
5973 Clouds 31 1006 63 10000 6.69 310 10:31 15.10.2021
5974 Clouds 34 1006 59 10000 8.23 300 08:21 15.10.2021
5975 Clouds 34 1009 52 10000 3.6 310 04:46 15.10.2021
5976 Clouds 29 1010 76 10000 3.09 240 00:25 15.10.2021
5977 Clouds 27 1009 83 10000 1.54 280 23:26 14.10.2021
5978 Clouds 27 1008 83 10000 2.57 310 22:22 14.10.2021
5979 Clouds 27 1008 85 10000 2.57 320 21:37 14.10.2021
5980 Clouds 27 1008 81 10000 2.57 330 20:21 14.10.2021
5981 Clouds 28 1008 80 10000 3.09 340 19:46 14.10.2021
5982 Clouds 28 1008 82 10000 4.12 340 18:44 14.10.2021
5983 Clear 29 1010 77 10000 3.09 320 16:59 14.10.2021
5984 Clear 29 1010 80 10000 3.09 330 16:32 14.10.2021
5985 Clear 29 1009 81 10000 3.6 300 14:55 14.10.2021
5986 Clear 29 1009 77 10000 3.6 300 14:27 14.10.2021
5987 Clouds 29 1009 78 10000 4.12 300 13:34 14.10.2021
5988 Clear 31 1008 69 10000 1.03 330 11:35 14.10.2021
5989 Clouds 30 1008 51 10000 6.69 100 09:28 14.10.2021
5990 Clouds 34 1008 49 10000 5.81 320 06:21 14.10.2021
5991 Clouds 29 1009 83 10000 1.34 350 00:43 14.10.2021
5992 Clear 26 1008 89 10000 1.54 330 22:46 13.10.2021
5993 Clouds 27 1007 83 10000 1.03 330 21:37 13.10.2021
5994 Clouds 26 1007 88 10000 2.06 350 20:45 13.10.2021
5995 Clouds 27 1007 82 10000 1.03 240 19:41 13.10.2021
5996 Clouds 27 1007 84 10000 0.51 220 18:48 13.10.2021
5997 Clouds 27 1008 78 10000 1.54 220 17:28 13.10.2021
5998 Clouds 29 1009 76 10000 3.09 260 14:55 13.10.2021
5999 Clouds 29 1009 76 10000 3.09 250 14:34 13.10.2021
6000 Clouds 29 1008 73 10000 3.6 280 12:48 13.10.2021
6001 Clear 30 1007 67 10000 3.6 280 11:51 13.10.2021
6002 Clouds 32 1006 54 10000 5.14 290 10:21 13.10.2021
6003 Clouds 33 1006 43 10000 4.63 300 07:54 13.10.2021
6004 Clouds 32 1009 58 10000 3.6 310 05:40 13.10.2021
6005 Rain 31 1010 64 10000 3.6 340 02:23 13.10.2021
6006 Clouds 27 1009 83 10000 2.06 10 23:51 12.10.2021
6007 Clouds 26 1008 88 10000 2.57 360 23:27 12.10.2021
6008 Clear 26 1008 88 10000 2.06 30 22:41 12.10.2021
6009 Clouds 26 1007 85 10000 2.06 360 20:55 12.10.2021
6010 Clouds 26 1007 85 10000 1.54 350 20:31 12.10.2021
6011 Clouds 27 1007 81 10000 1.54 350 19:45 12.10.2021
6012 Clouds 27 1008 81 10000 2.06 330 18:26 12.10.2021
6013 Clouds 28 1009 78 10000 2.06 320 17:29 12.10.2021
6014 Clear 28 1009 78 10000 2.57 300 16:24 12.10.2021
6015 Clouds 28 1009 78 10000 3.09 300 15:35 12.10.2021
6016 Clouds 29 1009 74 10000 3.6 290 13:46 12.10.2021
6017 Clear 29 1008 71 10000 4.12 300 13:19 12.10.2021
6018 Clear 30 1007 67 10000 5.14 310 11:31 12.10.2021
6019 Clear 30 1007 67 10000 5.14 310 11:30 12.10.2021
6020 Clouds 32 1006 61 10000 5.14 320 09:41 12.10.2021
6021 Clouds 34 1006 49 10000 3.6 330 08:31 12.10.2021
6022 Clouds 31 1007 53 10000 2.57 140 06:46 12.10.2021
6023 Clouds 33 1009 55 10000 5.14 350 04:49 12.10.2021
6024 Clouds 33 1009 54 10000 4.63 330 04:28 12.10.2021
6025 Clouds 26 1008 92 10000 2.57 70 23:56 11.10.2021
6026 Clouds 26 1008 90 10000 2.06 70 23:36 11.10.2021
6027 Clouds 26 1007 90 10000 2.06 70 22:51 11.10.2021
6028 Clouds 26 1007 89 10000 2.06 70 21:27 11.10.2021
6029 Clouds 26 1007 82 10000 1.03 90 20:28 11.10.2021
6030 Clouds 26 1007 82 10000 2.06 100 19:35 11.10.2021
6031 Clouds 27 1008 82 10000 1.03 320 18:23 11.10.2021
6032 Clouds 28 1009 82 10000 1.54 270 16:41 11.10.2021
6033 Clouds 28 1009 82 10000 1.54 270 16:20 11.10.2021
6034 Clouds 29 1009 81 10000 2.06 240 15:44 11.10.2021
6035 Clouds 29 1009 77 10000 2.06 270 14:53 11.10.2021
6036 Clouds 29 1009 78 10000 3.09 280 14:19 11.10.2021
6037 Clouds 29 1008 75 10000 3.09 280 13:35 11.10.2021
6038 Clouds 30 1007 70 10000 4.63 320 11:18 11.10.2021
6039 Clouds 32 1006 60 10000 5.66 350 09:46 11.10.2021
6040 Clouds 34 1006 52 10000 4.63 330 08:31 11.10.2021
6041 Clouds 29 1009 74 10000 3.09 30 01:45 11.10.2021
6042 Clouds 29 1009 75 10000 3.09 20 00:58 11.10.2021
6043 Clouds 29 1009 78 10000 2.06 20 00:39 11.10.2021
6044 Clouds 27 1008 81 10000 1.54 360 22:41 10.10.2021
6045 Clouds 28 1009 80 10000 1.03 340 21:49 10.10.2021
6046 Clouds 28 1009 81 10000 1.54 340 21:19 10.10.2021
6047 Clouds 28 1007 80 10000 1.54 350 20:39 10.10.2021
6048 Clouds 28 1007 81 10000 1.54 350 20:19 10.10.2021
6049 Clouds 28 1007 76 10000 2.57 330 19:41 10.10.2021
6050 Clouds 28 1007 75 10000 3.09 300 18:57 10.10.2021
6051 Clouds 28 1008 75 10000 2.06 320 18:20 10.10.2021
6052 Clouds 28 1008 77 10000 2.57 330 15:49 10.10.2021
6053 Clouds 28 1008 74 10000 2.06 260 14:57 10.10.2021
6054 Clouds 29 1007 72 10000 2.57 300 13:41 10.10.2021
6055 Clear 30 1007 67 10000 2.57 260 12:43 10.10.2021
6056 Clouds 31 1006 56 10000 4.63 20 11:31 10.10.2021
6057 Clouds 33 1006 48 10000 5.14 10 10:29 10.10.2021
6058 Clouds 34 1006 46 10000 4.63 340 09:19 10.10.2021
6059 Clouds 33 1006 52 10000 4.63 340 08:50 10.10.2021
6060 Clouds 31 1010 64 10000 4.12 300 04:50 10.10.2021
6061 Clouds 31 1011 65 10000 1.54 350 02:20 10.10.2021
6062 Clouds 29 1013 73 10000 2.57 360 00:47 10.10.2021
6063 Clouds 26 1012 82 10000 1.54 330 23:45 09.10.2021
6064 Clouds 26 1012 81 10000 1.54 360 22:20 09.10.2021
6065 Clouds 27 1009 80 10000 2.57 340 21:30 09.10.2021
6066 Clouds 27 1008 80 10000 2.57 320 20:19 09.10.2021
6067 Clouds 27 1009 82 10000 2.06 290 19:41 09.10.2021
6068 Clouds 27 1009 82 10000 2.06 270 18:48 09.10.2021
6069 Clouds 27 1009 82 10000 2.06 290 18:26 09.10.2021
6070 Clouds 28 1009 80 10000 3.6 290 16:21 09.10.2021
6071 Clear 28 1009 75 10000 3.6 290 14:37 09.10.2021
6072 Clouds 28 1009 78 10000 4.63 300 13:39 09.10.2021
6073 Clouds 29 1008 72 10000 4.12 10 12:35 09.10.2021
6074 Clouds 31 1007 59 10000 4.63 20 10:47 09.10.2021
6075 Clouds 32 1007 57 10000 5.14 20 10:21 09.10.2021
6076 Clouds 33 1007 50 10000 5.14 10 09:23 09.10.2021
6077 Clouds 34 1007 49 10000 6.17 30 08:20 09.10.2021
6078 Clouds 34 1007 49 10000 6.17 30 08:20 09.10.2021
6079 Clouds 34 1008 59 10000 5.66 350 06:46 09.10.2021
6080 Clouds 33 1012 54 10000 5.14 350 04:55 09.10.2021
6081 Clouds 31 1014 59 10000 2.06 30 02:46 09.10.2021
6082 Clouds 29 1010 77 10000 1.54 20 00:43 09.10.2021
6083 Clouds 26 1010 82 10000 1.54 10 23:35 08.10.2021
6084 Clouds 26 1010 81 10000 2.57 360 22:47 08.10.2021
6085 Clouds 27 1010 84 10000 2.57 360 21:45 08.10.2021
6086 Clouds 27 1009 82 10000 2.57 340 20:30 08.10.2021
6087 Clouds 28 1010 80 10000 3.09 320 18:23 08.10.2021
6088 Clouds 28 1010 78 10000 4.12 310 17:18 08.10.2021
6089 Clouds 28 1010 78 10000 4.12 310 17:18 08.10.2021
6090 Clear 28 1010 78 10000 3.6 310 16:44 08.10.2021
6091 Clear 28 1010 75 10000 4.63 300 16:22 08.10.2021
6092 Clear 29 1009 70 10000 4.63 330 13:48 08.10.2021
6093 Clear 30 1008 60 10000 4.63 10 11:56 08.10.2021
6094 Clear 32 1007 54 10000 5.66 20 10:47 08.10.2021
6095 Clear 33 1007 51 10000 6.17 10 09:48 08.10.2021
6096 Clouds 33 1009 52 10000 3.09 290 06:49 08.10.2021
6097 Clouds 25 1010 89 10000 1.03 60 23:28 07.10.2021
6098 Clear 25 1009 88 10000 1.03 70 22:55 07.10.2021
6099 Clouds 25 1009 90 10000 1.54 60 21:30 07.10.2021
6100 Clouds 26 1009 89 10000 1.54 40 20:42 07.10.2021
6101 Clouds 26 1009 87 10000 0 0 19:38 07.10.2021
6102 Clouds 26 1009 86 10000 0 0 18:54 07.10.2021
6103 Clouds 27 1010 82 10000 1.03 260 17:34 07.10.2021
6104 Clouds 28 1010 81 10000 2.06 260 16:42 07.10.2021
6105 Clouds 29 1010 78 10000 3.09 270 14:56 07.10.2021
6106 Clouds 29 1009 76 10000 4.12 270 13:44 07.10.2021
6107 Clouds 29 1009 76 10000 5.14 270 13:20 07.10.2021
6108 Clear 30 1007 67 10000 6.17 280 11:26 07.10.2021
6109 Clear 31 1007 52 10000 5.66 310 10:47 07.10.2021
6110 Clear 34 1006 40 10000 4.63 350 09:47 07.10.2021
6111 Clear 36 1007 19 10000 6.17 340 08:55 07.10.2021
6112 Clear 36 1007 19 10000 5.66 20 08:20 07.10.2021
6113 Clear 35 1007 29 10000 4.63 360 07:39 07.10.2021
6114 Clear 34 1008 38 10000 5.14 350 06:47 07.10.2021
6115 Clouds 29 1012 75 10000 1.03 100 00:55 07.10.2021
6116 Clouds 26 1012 94 10000 1.54 80 23:25 06.10.2021
6117 Clouds 26 1011 90 10000 1.54 190 22:40 06.10.2021
6118 Clouds 26 1008 88 10000 1.54 210 21:40 06.10.2021
6119 Clouds 26 1008 87 10000 2.06 210 20:33 06.10.2021
6120 Clouds 27 1008 86 10000 2.06 220 19:23 06.10.2021
6121 Clouds 27 1009 82 10000 3.09 260 17:41 06.10.2021
6122 Clouds 28 1009 80 10000 3.09 260 15:44 06.10.2021
6123 Clear 28 1009 81 10000 3.09 280 14:53 06.10.2021
6124 Clear 28 1008 78 10000 4.63 300 13:31 06.10.2021
6125 Clear 28 1008 78 10000 4.63 300 12:47 06.10.2021
6126 Clear 29 1007 78 10000 4.12 300 12:28 06.10.2021
6127 Clear 29 1006 74 10000 4.63 300 11:38 06.10.2021
6128 Clouds 32 1006 60 10000 4.63 310 09:40 06.10.2021
6129 Clouds 33 1006 57 10000 4.12 310 08:59 06.10.2021
6130 Clouds 33 1006 59 10000 4.63 300 08:31 06.10.2021
6131 Clouds 33 1008 52 10000 4.63 310 06:18 06.10.2021
6132 Clouds 31 1011 62 10000 2.57 340 02:52 06.10.2021
6133 Clouds 29 1009 81 10000 1.54 330 00:24 06.10.2021
6134 Clouds 27 1009 88 10000 1.54 340 23:51 05.10.2021
6135 Clouds 26 1008 89 10000 1.54 330 23:30 05.10.2021
6136 Clouds 27 1008 89 10000 1.54 340 22:35 05.10.2021
6137 Clouds 27 1007 85 10000 2.06 320 21:57 05.10.2021
6138 Clouds 27 1007 86 10000 2.57 320 21:20 05.10.2021
6139 Clouds 27 1006 87 10000 2.57 320 20:31 05.10.2021
6140 Clouds 27 1006 86 10000 2.57 320 19:51 05.10.2021
6141 Clouds 27 1007 86 10000 2.57 320 19:24 05.10.2021
6142 Clouds 27 1007 86 10000 2.57 320 18:21 05.10.2021
6143 Clear 28 1007 83 10000 3.09 300 15:36 05.10.2021
6144 Clear 28 1007 82 10000 3.6 320 13:52 05.10.2021
6145 Clear 28 1006 78 10000 3.6 320 13:23 05.10.2021
6146 Clear 29 1006 75 10000 3.6 320 12:34 05.10.2021
6147 Clear 29 1005 72 10000 3.09 330 11:41 05.10.2021
6148 Clouds 31 1006 61 10000 3.6 310 10:37 05.10.2021
6149 Clouds 32 1006 59 10000 4.63 310 07:59 05.10.2021
6150 Clouds 30 1009 74 10000 2.06 30 01:46 05.10.2021
6151 Clouds 27 1007 86 10000 1.03 330 22:56 04.10.2021
6152 Clouds 28 1006 85 10000 3.6 280 21:27 04.10.2021
6153 Clouds 28 1006 86 10000 4.12 290 18:51 04.10.2021
6154 Clouds 28 1007 86 10000 4.63 300 17:29 04.10.2021
6155 Clear 28 1007 85 10000 3.09 280 15:33 04.10.2021
6156 Clear 28 1007 85 10000 3.09 280 14:46 04.10.2021
6157 Clear 28 1007 85 10000 3.6 280 14:18 04.10.2021
6158 Clear 28 1006 84 10000 3.6 280 13:32 04.10.2021
6159 Clouds 28 1006 81 10000 3.6 270 12:50 04.10.2021
6160 Clouds 29 1005 77 10000 4.12 270 11:34 04.10.2021
6161 Clouds 30 1004 74 10000 5.14 280 10:47 04.10.2021
6162 Clouds 31 1003 68 10000 6.69 290 09:44 04.10.2021
6163 Clouds 33 1005 62 10000 7.2 300 07:53 04.10.2021
6164 Clouds 33 1005 62 10000 7.2 290 06:50 04.10.2021
6165 Clouds 27 1007 86 10000 2.57 270 23:38 03.10.2021
6166 Clouds 27 1006 88 10000 3.09 290 21:56 03.10.2021
6167 Clouds 27 1006 88 10000 3.09 300 21:34 03.10.2021
6168 Clouds 27 1006 89 10000 3.6 280 20:49 03.10.2021
6169 Clouds 27 1005 88 10000 3.6 310 19:49 03.10.2021
6170 Clouds 27 1006 86 10000 3.6 330 18:29 03.10.2021
6171 Clouds 27 1006 84 10000 3.6 330 17:37 03.10.2021
6172 Clouds 27 1008 82 10000 2.57 290 15:30 03.10.2021
6173 Clear 27 1007 82 10000 4.12 300 14:31 03.10.2021
6174 Clear 27 1007 82 10000 4.12 300 14:31 03.10.2021
6175 Clouds 27 1007 81 10000 4.63 290 13:36 03.10.2021
6176 Clouds 28 1006 81 10000 4.63 290 12:47 03.10.2021
6177 Clouds 28 1006 77 10000 5.14 300 11:37 03.10.2021
6178 Clouds 30 1005 71 10000 6.17 300 10:21 03.10.2021
6179 Clouds 32 1007 65 10000 7.2 290 06:42 03.10.2021
6180 Clouds 27 1007 89 10000 2.57 270 22:59 02.10.2021
6181 Clouds 27 1006 90 10000 3.09 270 21:59 02.10.2021
6182 Clouds 26 1006 89 10000 3.6 270 20:33 02.10.2021
6183 Clouds 26 1006 89 10000 3.6 290 18:57 02.10.2021
6184 Clouds 26 1006 89 10000 3.6 290 18:20 02.10.2021
6185 Clouds 27 1007 89 10000 2.57 290 17:38 02.10.2021
6186 Clear 26 1008 89 10000 2.57 280 16:39 02.10.2021
6187 Clouds 29 1006 75 10000 2.57 290 07:51 02.10.2021
6188 Clouds 28 1010 74 10000 2.57 280 15:37 30.09.2021
6189 Clear 28 1010 70 10000 2.57 270 14:22 30.09.2021
6190 Clouds 29 1009 65 10000 2.57 290 11:58 30.09.2021
6191 Clouds 30 1008 58 10000 4.12 340 10:55 30.09.2021
6192 Clouds 32 1008 54 10000 4.63 360 10:25 30.09.2021
6193 Clouds 33 1008 49 10000 5.14 340 08:31 30.09.2021
6194 Clouds 32 1009 51 10000 4.12 340 07:36 30.09.2021
6195 Clouds 32 1011 48 10000 5.14 320 05:25 30.09.2021
6196 Clouds 32 1011 48 10000 5.14 320 05:25 30.09.2021
6197 Clouds 31 1013 65 10000 3.6 60 02:33 30.09.2021
6198 Clouds 27 1012 80 10000 3.6 30 00:31 30.09.2021
6199 Clouds 26 1010 90 10000 0.51 360 22:41 29.09.2021
6200 Clouds 26 1010 88 10000 0 0 21:28 29.09.2021
6201 Clouds 26 1010 85 10000 2.57 350 20:30 29.09.2021
6202 Clouds 27 1010 81 10000 1.03 270 19:56 29.09.2021
6203 Clouds 27 1011 78 10000 1.54 280 18:54 29.09.2021
6204 Clouds 27 1011 77 10000 2.06 270 17:58 29.09.2021
6205 Clouds 28 1012 76 10000 2.57 280 16:55 29.09.2021
6206 Clouds 28 1012 76 10000 2.57 270 16:22 29.09.2021
6207 Clouds 28 1014 77 10000 1.54 330 14:42 29.09.2021
6208 Clouds 29 1014 77 10000 1.54 330 14:18 29.09.2021
6209 Clear 28 1011 74 10000 2.06 330 13:27 29.09.2021
6210 Clear 29 1010 66 10000 3.6 360 12:38 29.09.2021
6211 Clear 31 1009 57 10000 5.14 360 10:57 29.09.2021
6212 Clouds 31 1008 56 10000 6.17 350 10:25 29.09.2021
6213 Clear 34 1008 45 10000 5.14 50 09:39 29.09.2021
6214 Clouds 33 1009 49 10000 4.63 350 07:48 29.09.2021
6215 Clouds 33 1011 56 10000 4.63 310 05:50 29.09.2021
6216 Clouds 25 1011 89 10000 1.03 30 23:36 28.09.2021
6217 Clouds 24 1011 89 10000 0 0 22:24 28.09.2021
6218 Clouds 25 1010 88 10000 1.54 20 21:45 28.09.2021
6219 Clouds 25 1010 84 10000 1.54 30 20:44 28.09.2021
6220 Clouds 26 1010 83 10000 1.54 350 19:47 28.09.2021
6221 Clouds 26 1011 79 10000 2.06 350 18:53 28.09.2021
6222 Clouds 26 1011 80 10000 2.06 340 18:27 28.09.2021
6223 Clouds 28 1015 76 10000 3.6 350 16:42 28.09.2021
6224 Clouds 28 1011 75 10000 4.63 290 14:52 28.09.2021
6225 Clouds 29 1014 74 10000 3.6 290 13:22 28.09.2021
6226 Clouds 29 1013 73 10000 4.12 290 12:22 28.09.2021
6227 Clouds 29 1009 72 10000 4.63 300 11:47 28.09.2021
6228 Clouds 29 1008 71 10000 5.14 300 11:25 28.09.2021
6229 Clouds 32 1007 51 10000 5.66 30 10:26 28.09.2021
6230 Clear 33 1007 45 10000 5.66 30 09:25 28.09.2021
6231 Clouds 33 1007 50 10000 5.14 10 08:43 28.09.2021
6232 Clouds 32 1008 53 10000 5.14 350 07:49 28.09.2021
6233 Clouds 32 1008 55 10000 5.14 340 06:23 28.09.2021
6234 Clouds 29 1011 65 10000 2.06 40 01:29 28.09.2021
6235 Clouds 28 1011 80 10000 1.03 90 00:28 28.09.2021
6236 Clouds 26 1011 89 10000 1.03 90 23:48 27.09.2021
6237 Clouds 26 1010 89 10000 1.54 70 23:23 27.09.2021
6238 Clouds 25 1014 92 10000 0 0 22:20 27.09.2021
6239 Clouds 25 1009 90 10000 0 0 20:54 27.09.2021
6240 Clouds 25 1013 90 10000 0 0 20:24 27.09.2021
6241 Clouds 25 1009 86 10000 1.03 340 19:36 27.09.2021
6242 Clouds 26 1010 86 10000 1.03 330 18:52 27.09.2021
6243 Clouds 26 1010 86 10000 1.03 330 18:52 27.09.2021
6244 Clouds 27 1010 81 10000 2.06 320 17:36 27.09.2021
6245 Clouds 27 1011 80 10000 2.57 300 16:53 27.09.2021
6246 Clouds 27 1011 79 10000 2.57 310 16:33 27.09.2021
6247 Clouds 27 1011 81 10000 2.06 280 15:36 27.09.2021
6248 Clouds 27 1010 78 10000 3.09 280 13:44 27.09.2021
6249 Clouds 28 1009 77 10000 4.12 280 12:22 27.09.2021
6250 Clouds 29 1008 64 10000 4.12 300 10:48 27.09.2021
6251 Clouds 32 1007 56 10000 3.6 300 09:40 27.09.2021
6252 Clouds 31 1008 55 10000 5.14 320 07:44 27.09.2021
6253 Clouds 30 1012 64 10000 1.03 290 03:31 27.09.2021
6254 Clouds 25 1011 88 10000 2.57 110 23:42 26.09.2021
6255 Clouds 24 1009 92 10000 2.06 110 21:55 26.09.2021
6256 Clouds 24 1010 89 10000 1.54 130 21:27 26.09.2021
6257 Clouds 24 1010 89 10000 1.54 130 21:27 26.09.2021
6258 Clouds 25 1009 85 10000 1.03 130 20:25 26.09.2021
6259 Clouds 25 1009 84 10000 1.54 230 19:54 26.09.2021
6260 Clouds 26 1010 81 10000 1.54 270 19:25 26.09.2021
6261 Clouds 26 1010 81 10000 1.54 270 19:25 26.09.2021
6262 Clouds 26 1010 81 10000 1.54 270 19:25 26.09.2021
6263 Clouds 26 1010 81 10000 1.54 270 19:25 26.09.2021
6264 Clouds 26 1010 81 10000 1.54 270 19:25 26.09.2021
6265 Clouds 26 1010 82 10000 2.06 260 18:41 26.09.2021
6266 Clouds 27 1010 80 10000 2.06 240 17:38 26.09.2021
6267 Clouds 27 1010 80 10000 2.06 240 17:20 26.09.2021
6268 Clouds 27 1011 80 10000 2.06 250 16:22 26.09.2021
6269 Clouds 26 1010 78 10000 2.57 270 15:27 26.09.2021
6270 Clear 27 1010 74 10000 3.09 270 14:22 26.09.2021
6271 Clear 27 1009 69 10000 0.51 270 13:42 26.09.2021
6272 Clear 28 1009 62 10000 1.54 320 12:31 26.09.2021
6273 Clear 28 1009 59 10000 2.06 330 11:56 26.09.2021
6274 Clear 29 1008 55 10000 2.57 350 11:23 26.09.2021
6275 Clear 32 1007 43 10000 5.66 10 09:51 26.09.2021
6276 Clouds 32 1008 54 10000 6.17 360 08:41 26.09.2021
6277 Clouds 26 1012 78 10000 3.09 110 00:30 26.09.2021
6278 Clouds 25 1012 83 10000 1.54 90 23:46 25.09.2021
6279 Clouds 25 1011 84 10000 2.06 80 22:39 25.09.2021
6280 Clouds 25 1011 85 10000 2.06 80 22:19 25.09.2021
6281 Clouds 25 1011 85 10000 2.06 80 22:19 25.09.2021
6282 Clouds 25 1013 85 10000 2.06 90 21:45 25.09.2021
6283 Clouds 25 1011 85 10000 1.54 40 20:52 25.09.2021
6284 Clouds 25 1011 85 10000 1.54 40 20:52 25.09.2021
6285 Clouds 26 1011 81 10000 0.51 230 19:41 25.09.2021
6286 Clouds 26 1011 84 10000 1.54 230 18:28 25.09.2021
6287 Clouds 26 1011 80 10000 1.03 230 17:45 25.09.2021
6288 Clear 27 1011 77 10000 5.14 300 14:39 25.09.2021
6289 Clear 27 1010 78 10000 4.12 310 13:55 25.09.2021
6290 Clouds 28 1010 66 10000 2.57 340 12:46 25.09.2021
6291 Clouds 28 1009 60 10000 4.63 10 11:27 25.09.2021
6292 Clear 30 1008 53 10000 5.14 360 10:20 25.09.2021
6293 Clear 31 1008 51 10000 5.14 360 09:22 25.09.2021
6294 Clear 32 1009 51 10000 4.12 360 07:48 25.09.2021
6295 Clouds 26 1013 79 10000 4.63 110 00:52 25.09.2021
6296 Clouds 22 1012 89 10000 2.57 110 23:25 24.09.2021
6297 Clouds 22 1012 91 10000 2.06 100 21:34 24.09.2021
6298 Clouds 23 1012 85 10000 1.54 80 20:32 24.09.2021
6299 Clouds 23 1012 83 10000 1.54 30 19:32 24.09.2021
6300 Clouds 23 1012 83 10000 1.54 30 19:32 24.09.2021
6301 Clouds 24 1012 85 10000 1.03 360 18:21 24.09.2021
6302 Clouds 25 1013 81 10000 1.54 360 17:53 24.09.2021
6303 Clouds 25 1013 81 10000 2.06 360 17:34 24.09.2021
6304 Clouds 26 1014 77 10000 2.57 340 15:59 24.09.2021
6305 Clouds 27 1011 71 10000 5.14 330 13:28 24.09.2021
6306 Clear 27 1011 66 10000 4.12 10 12:43 24.09.2021
6307 Clear 28 1011 65 10000 4.63 10 12:25 24.09.2021
6308 Clear 29 1009 54 10000 5.66 360 10:56 24.09.2021
6309 Clouds 30 1009 52 10000 6.17 10 09:57 24.09.2021
6310 Clouds 32 1009 49 10000 6.17 10 08:23 24.09.2021
6311 Clouds 31 1010 53 10000 6.69 360 07:30 24.09.2021
6312 Clouds 31 1011 45 10000 4.63 20 05:57 24.09.2021
6313 Clouds 30 1013 51 10000 2.06 110 04:51 24.09.2021
6314 Clear 21 1012 73 10000 1.54 90 22:44 23.09.2021
6315 Clouds 22 1012 73 10000 0.51 170 21:59 23.09.2021
6316 Clouds 22 1012 73 10000 0.51 170 21:20 23.09.2021
6317 Clouds 22 1012 73 10000 0.51 170 21:20 23.09.2021
6318 Clouds 23 1012 64 10000 1.54 200 20:32 23.09.2021
6319 Clouds 23 1013 66 10000 1.54 190 18:55 23.09.2021
6320 Clear 25 1014 64 10000 1.54 330 16:47 23.09.2021
6321 Clear 25 1014 62 10000 3.6 330 15:20 23.09.2021
6322 Clear 25 1013 62 10000 2.57 340 14:58 23.09.2021
6323 Clear 25 1013 55 10000 1.03 360 13:36 23.09.2021
6324 Clear 25 1013 54 10000 1.03 360 13:18 23.09.2021
6325 Clear 26 1012 47 10000 0.51 360 12:45 23.09.2021
6326 Clear 26 1012 46 10000 2.57 10 12:21 23.09.2021
6327 Clear 29 1010 36 10000 6.17 20 10:41 23.09.2021
6328 Clear 29 1010 37 10000 6.17 20 10:19 23.09.2021
6329 Clear 29 1010 37 10000 6.17 20 10:19 23.09.2021
6330 Clear 31 1010 35 10000 5.66 10 09:47 23.09.2021
6331 Clear 33 1012 10 10000 4.63 20 06:25 23.09.2021
6332 Clear 22 1015 24 10000 3.6 140 00:28 23.09.2021
6333 Clear 20 1014 28 10000 3.6 130 22:54 22.09.2021
6334 Clear 20 1014 28 10000 3.6 140 22:22 22.09.2021
6335 Clouds 21 1013 27 10000 3.09 140 21:44 22.09.2021
6336 Clouds 22 1013 23 10000 4.12 130 20:58 22.09.2021
6337 Clouds 21 1013 28 10000 2.57 110 20:27 22.09.2021
6338 Clouds 22 1013 26 10000 2.57 70 19:27 22.09.2021
6339 Clouds 25 1014 19 10000 4.63 130 18:35 22.09.2021
6340 Rain 24 1014 30 10000 0.45 235 17:38 22.09.2021
6341 Clear 27 1014 26 10000 5.91 131 15:53 22.09.2021
6342 Clear 25 1014 65 10000 1.54 240 14:37 22.09.2021
6343 Smoke 27 1013 54 10000 1.54 290 13:24 22.09.2021
6344 Smoke 29 1011 44 10000 3.09 360 11:20 22.09.2021
6345 Clear 30 1010 39 10000 6.17 360 10:18 22.09.2021
6346 Smoke 35 1010 13 10000 3.6 110 08:52 22.09.2021
6347 Clear 34 1010 13 10000 4.12 110 07:49 22.09.2021
6348 Clear 34 1011 10 10000 4.63 140 06:56 22.09.2021
6349 Clear 34 1012 13 10000 6.69 130 05:49 22.09.2021
6350 Clear 32 1013 10 10000 6.17 140 05:23 22.09.2021
6351 Clear 31 1015 18 10000 8.23 130 03:34 22.09.2021
6352 Clear 24 1014 50 10000 4.12 120 00:19 22.09.2021
6353 Clear 24 1013 57 10000 3.09 110 22:28 21.09.2021
6354 Clear 24 1012 65 10000 3.6 110 21:31 21.09.2021
6355 Clouds 24 1012 84 10000 5.66 125 19:38 21.09.2021
6356 Clouds 25 1013 83 10000 2.57 170 19:20 21.09.2021
6357 Clear 26 1013 78 10000 0 0 16:59 21.09.2021
6358 Clear 26 1013 78 10000 0 0 16:27 21.09.2021
6359 Clear 26 1014 78 10000 1.03 140 15:31 21.09.2021
6360 Clear 27 1013 76 10000 1.54 150 14:56 21.09.2021
6361 Clear 28 1012 63 10000 1.03 280 13:40 21.09.2021
6362 Clear 28 1012 63 10000 2.06 290 12:58 21.09.2021
6363 Clouds 31 1009 43 10000 3.23 299 11:19 21.09.2021
6364 Clear 31 1009 51 10000 5.14 300 09:54 21.09.2021
6365 Clear 33 1009 46 10000 7.2 310 07:51 21.09.2021
6366 Clouds 37 1010 18 10000 7.2 120 06:18 21.09.2021
6367 Clear 24 1012 83 10000 0 0 23:58 20.09.2021
6368 Clouds 24 1011 78 10000 1.54 70 21:58 20.09.2021
6369 Clouds 24 1011 78 10000 2.06 80 21:32 20.09.2021
6370 Clouds 24 1011 73 10000 1.54 90 20:29 20.09.2021
6371 Clouds 24 1011 73 10000 1.54 60 19:28 20.09.2021
6372 Clouds 25 1013 69 10000 1.54 100 17:39 20.09.2021
6373 Clear 25 1013 72 10000 1.54 90 16:33 20.09.2021
6374 Clear 25 1013 70 10000 1.03 80 15:49 20.09.2021
6375 Clear 25 1013 70 10000 0 0 15:22 20.09.2021
6376 Clear 26 1012 61 10000 0 0 13:43 20.09.2021
6377 Clear 27 1011 58 10000 2.06 360 12:35 20.09.2021
6378 Clear 29 1010 54 10000 4.12 10 11:23 20.09.2021
6379 Clear 31 1009 50 10000 7.2 10 09:57 20.09.2021
6380 Clear 31 1009 50 10000 6.69 10 09:36 20.09.2021
6381 Clear 31 1009 53 10000 8.75 360 08:58 20.09.2021
6382 Clear 36 1010 25 10000 7.2 130 06:55 20.09.2021
6383 Clear 23 1014 81 10000 2.06 140 23:45 19.09.2021
6384 Clear 22 1013 83 10000 1.03 130 22:26 19.09.2021
6385 Clouds 23 1012 83 10000 0 0 21:40 19.09.2021
6386 Clouds 24 1013 73 10000 1.54 130 20:34 19.09.2021
6387 Clouds 24 1013 77 10000 1.54 140 19:22 19.09.2021
6388 Clouds 25 1014 73 10000 0 0 18:29 19.09.2021
6389 Clouds 25 1014 73 10000 1.03 160 17:22 19.09.2021
6390 Clear 26 1014 74 10000 1.54 170 15:55 19.09.2021
6391 Clear 25 1014 75 10000 0 0 15:29 19.09.2021
6392 Clear 27 1013 68 10000 0.51 160 14:46 19.09.2021
6393 Clear 27 1012 64 10000 4.63 40 13:24 19.09.2021
6394 Clear 28 1012 62 10000 5.14 40 12:50 19.09.2021
6395 Clear 29 1011 55 10000 7.72 40 11:28 19.09.2021
6396 Clear 29 1011 54 10000 7.72 40 10:47 19.09.2021
6397 Clear 31 1011 51 10000 7.72 30 09:40 19.09.2021
6398 Clear 32 1011 46 10000 8.23 20 08:35 19.09.2021
6399 Clear 34 1012 34 10000 5.14 60 06:42 19.09.2021
6400 Clear 23 1014 86 10000 2.06 140 23:43 18.09.2021
6401 Clear 23 1013 88 10000 1.54 130 22:23 18.09.2021
6402 Clouds 24 1013 85 10000 1.54 150 20:52 18.09.2021
6403 Clouds 24 1013 85 10000 1.54 150 20:52 18.09.2021
6404 Clouds 23 1013 87 10000 1.54 100 20:32 18.09.2021
6405 Clouds 25 1013 82 10000 1.03 70 19:39 18.09.2021
6406 Clouds 25 1013 81 10000 1.03 70 19:20 18.09.2021
6407 Clouds 24 1014 82 10000 1.54 80 18:32 18.09.2021
6408 Clouds 26 1014 77 10000 1.54 40 17:34 18.09.2021
6409 Clouds 26 1014 75 10000 1.54 10 16:20 18.09.2021
6410 Clear 26 1013 73 10000 2.57 40 13:49 18.09.2021
6411 Clear 27 1013 70 10000 2.06 40 13:29 18.09.2021
6412 Clear 27 1012 68 10000 1.54 30 12:49 18.09.2021
6413 Clear 28 1011 62 10000 3.6 30 11:40 18.09.2021
6414 Clear 31 1010 51 10000 6.17 20 10:32 18.09.2021
6415 Clear 30 1010 56 10000 6.69 10 09:28 18.09.2021
6416 Clear 31 1010 54 10000 6.69 10 08:57 18.09.2021
6417 Clouds 32 1014 51 10000 0.89 228 03:51 18.09.2021
6418 Clouds 27 1014 78 10000 3.84 83 00:41 18.09.2021
6419 Clouds 24 1014 87 10000 2.94 82 23:48 17.09.2021
6420 Clouds 23 1013 92 10000 2.49 82 22:38 17.09.2021
6421 Clouds 24 1012 92 10000 1.54 60 22:19 17.09.2021
6422 Clouds 24 1012 93 10000 0.51 340 20:47 17.09.2021
6423 Clouds 25 1012 86 10000 1.54 340 19:22 17.09.2021
6424 Clouds 26 1013 78 10000 1.54 320 17:21 17.09.2021
6425 Clear 27 1013 78 10000 2.57 290 16:24 17.09.2021
6426 Clear 27 1012 61 10000 0 0 13:21 17.09.2021
6427 Clear 31 1009 43 10000 6.17 30 10:53 17.09.2021
6428 Clouds 32 1009 50 10000 6.69 360 08:46 17.09.2021
6429 Clear 33 1010 50 10000 6.69 300 06:53 17.09.2021
6430 Clear 27 1014 74 10000 2.06 120 01:26 17.09.2021
6431 Clear 24 1013 88 10000 1.54 150 23:25 16.09.2021
6432 Clear 24 1012 94 10000 2.06 120 22:25 16.09.2021
6433 Clouds 23 1012 94 10000 1.54 110 21:43 16.09.2021
6434 Clouds 24 1012 91 10000 1.54 100 21:22 16.09.2021
6435 Clouds 24 1012 91 10000 1.54 140 20:18 16.09.2021
6436 Clouds 24 1012 91 10000 1.54 140 20:18 16.09.2021
6437 Clouds 24 1013 97 10000 0 0 18:20 16.09.2021
6438 Clouds 24 1013 94 10000 0.51 250 17:33 16.09.2021
6439 Clouds 28 1013 80 10000 3.6 280 14:56 16.09.2021
6440 Clouds 28 1012 75 10000 2.57 340 13:56 16.09.2021
6441 Clouds 28 1011 67 10000 2.57 10 12:49 16.09.2021
6442 Clouds 29 1010 65 10000 4.63 30 12:28 16.09.2021
6443 Clouds 30 1009 59 10000 6.17 30 11:25 16.09.2021
6444 Clear 31 1008 56 10000 6.69 30 10:33 16.09.2021
6445 Clear 32 1008 54 10000 6.17 20 09:57 16.09.2021
6446 Clear 34 1009 47 10000 6.69 20 08:42 16.09.2021
6447 Clear 34 1009 47 10000 6.69 20 08:42 16.09.2021
6448 Clouds 33 1010 46 10000 7.2 10 07:36 16.09.2021
6449 Clear 34 1010 48 10000 5.66 20 06:46 16.09.2021
6450 Clear 34 1012 38 10000 5.14 70 05:26 16.09.2021
6451 Clouds 29 1014 69 10000 3.09 40 01:41 16.09.2021
6452 Clear 24 1013 91 10000 0 0 23:47 15.09.2021
6453 Clear 24 1012 90 10000 0 0 22:47 15.09.2021
6454 Clear 24 1012 90 10000 0 0 22:47 15.09.2021
6455 Clouds 25 1012 87 10000 1.03 310 21:48 15.09.2021
6456 Clouds 24 1011 89 10000 1.03 30 21:29 15.09.2021
6457 Clouds 26 1012 82 10000 2.57 20 19:58 15.09.2021
6458 Clouds 26 1012 81 10000 2.57 30 19:27 15.09.2021
6459 Clouds 26 1013 83 10000 4.12 360 18:20 15.09.2021
6460 Clouds 27 1013 84 10000 2.06 190 16:59 15.09.2021
6461 Clouds 28 1013 81 10000 3.6 200 15:46 15.09.2021
6462 Clouds 28 1013 83 10000 3.09 210 14:45 15.09.2021
6463 Clouds 28 1013 83 10000 3.09 210 14:45 15.09.2021
6464 Clear 28 1012 78 10000 3.09 210 13:52 15.09.2021
6465 Clear 28 1012 78 10000 3.09 210 13:30 15.09.2021
6466 Clear 29 1011 70 10000 2.57 230 12:48 15.09.2021
6467 Clouds 30 1010 66 10000 5.66 300 11:52 15.09.2021
6468 Clouds 30 1010 66 10000 5.66 300 11:52 15.09.2021
6469 Clouds 30 1010 66 10000 5.66 300 11:32 15.09.2021
6470 Clouds 30 1010 66 10000 2.06 290 10:55 15.09.2021
6471 Clouds 31 1009 62 10000 5.14 300 09:30 15.09.2021
6472 Clouds 32 1009 62 10000 5.66 320 08:20 15.09.2021
6473 Clouds 32 1013 64 10000 3.6 300 04:55 15.09.2021
6474 Clouds 25 1014 98 10000 1.03 260 23:54 14.09.2021
6475 Clouds 25 1012 94 10000 1.03 260 21:42 14.09.2021
6476 Clouds 25 1012 94 10000 0.51 260 20:39 14.09.2021
6477 Clouds 26 1012 94 10000 1.03 260 19:42 14.09.2021
6478 Clouds 26 1013 90 10000 1.54 260 17:40 14.09.2021
6479 Clouds 26 1013 90 10000 1.54 260 17:40 14.09.2021
6480 Clouds 27 1013 89 10000 1.54 260 16:59 14.09.2021
6481 Clear 26 1013 90 10000 2.06 280 15:37 14.09.2021
6482 Clear 26 1012 87 10000 2.06 260 14:31 14.09.2021
6483 Clear 27 1012 81 10000 3.6 240 12:45 14.09.2021
6484 Clouds 30 1010 70 10000 4.63 300 10:54 14.09.2021
6485 Clouds 31 1010 66 10000 4.63 350 09:51 14.09.2021
6486 Clouds 31 1010 65 10000 3.09 350 08:41 14.09.2021
6487 Clouds 25 1012 94 10000 2.57 20 06:24 14.09.2021
6488 Clouds 26 1014 93 10000 1.03 90 00:33 14.09.2021
6489 Clouds 26 1013 94 10000 2.06 110 22:53 13.09.2021
6490 Clouds 26 1012 94 10000 1.03 300 22:24 13.09.2021
6491 Clouds 25 1012 94 10000 1.03 300 21:51 13.09.2021
6492 Clouds 26 1012 91 10000 1.03 300 20:50 13.09.2021
6493 Clouds 26 1012 94 10000 1.03 200 19:22 13.09.2021
6494 Clouds 26 1012 94 10000 2.06 220 18:39 13.09.2021
6495 Clouds 26 1013 90 10000 1.54 230 16:50 13.09.2021
6496 Clear 27 1013 89 10000 2.06 260 15:31 13.09.2021
6497 Clear 27 1011 83 10000 4.12 270 12:26 13.09.2021
6498 Clouds 29 1010 74 10000 3.6 320 10:58 13.09.2021
6499 Clouds 29 1010 78 10000 2.06 310 09:40 13.09.2021
6500 Clouds 30 1013 69 10000 3.6 300 04:59 13.09.2021
6501 Clouds 25 1012 94 10000 1.54 120 23:41 12.09.2021
6502 Clouds 25 1011 90 10000 0 0 22:25 12.09.2021
6503 Clouds 25 1011 90 10000 1.54 200 21:37 12.09.2021
6504 Clouds 26 1011 86 10000 1.54 240 20:29 12.09.2021
6505 Clouds 26 1011 86 10000 1.54 210 19:51 12.09.2021
6506 Clouds 26 1011 86 10000 1.54 250 19:19 12.09.2021
6507 Clouds 26 1011 83 10000 2.06 270 18:20 12.09.2021
6508 Clouds 27 1012 81 10000 3.09 260 16:32 12.09.2021
6509 Clear 27 1011 82 10000 3.09 270 14:54 12.09.2021
6510 Clear 27 1011 80 10000 2.57 280 13:20 12.09.2021
6511 Clear 29 1008 60 10000 3.09 10 11:31 12.09.2021
6512 Clouds 32 1008 54 10000 5.14 20 09:27 12.09.2021
6513 Clouds 32 1008 54 10000 5.66 360 08:38 12.09.2021
6514 Clouds 29 1013 74 10000 1.54 160 01:50 12.09.2021
6515 Clouds 24 1011 91 10000 1.54 140 23:28 11.09.2021
6516 Clouds 24 1011 90 10000 1.54 160 21:50 11.09.2021
6517 Clear 25 1010 87 10000 1.54 200 20:31 11.09.2021
6518 Clear 25 1011 86 10000 2.06 240 19:21 11.09.2021
6519 Clouds 27 1012 81 10000 2.06 250 17:34 11.09.2021
6520 Clouds 27 1012 81 10000 3.09 270 15:48 11.09.2021
6521 Clouds 27 1011 78 10000 1.54 350 13:49 11.09.2021
6522 Clear 27 1010 72 10000 1.03 330 12:50 11.09.2021
6523 Clear 29 1009 65 10000 4.63 10 11:19 11.09.2021
6524 Clear 32 1008 50 10000 6.69 10 09:38 11.09.2021
6525 Clear 32 1009 48 10000 6.69 350 07:45 11.09.2021
6526 Clear 32 1010 52 10000 5.66 340 06:50 11.09.2021
6527 Clear 24 1012 88 10000 1.03 350 23:37 10.09.2021
6528 Clear 23 1012 91 10000 1.03 350 22:24 10.09.2021
6529 Clouds 23 1012 91 10000 0.51 350 21:54 10.09.2021
6530 Clouds 24 1012 88 10000 0 0 19:58 10.09.2021
6531 Clouds 25 1013 87 10000 1.03 350 18:27 10.09.2021
6532 Clouds 25 1014 84 10000 2.06 340 16:51 10.09.2021
6533 Clear 26 1012 78 10000 1.54 10 14:41 10.09.2021
6534 Clear 28 1011 65 10000 3.09 360 11:56 10.09.2021
6535 Clear 33 1011 43 10000 5.14 50 08:36 10.09.2021
6536 Clear 34 1011 37 10000 4.63 70 07:49 10.09.2021
6537 Clear 24 1015 69 10000 4.63 130 00:42 10.09.2021
6538 Clear 23 1014 83 10000 3.09 90 22:31 09.09.2021
6539 Clouds 24 1013 87 10000 2.57 100 21:45 09.09.2021
6540 Clouds 24 1014 90 10000 2.06 90 20:46 09.09.2021
6541 Clouds 25 1014 83 10000 1.54 80 19:54 09.09.2021
6542 Clouds 24 1014 87 10000 1.54 50 18:31 09.09.2021
6543 Clear 25 1014 79 10000 1.54 70 16:40 09.09.2021
6544 Clear 25 1014 79 10000 1.03 70 15:36 09.09.2021
6545 Clear 27 1012 67 10000 3.6 30 12:48 09.09.2021
6546 Smoke 28 1011 63 10000 5.14 30 11:41 09.09.2021
6547 Smoke 32 1011 45 10000 6.69 60 09:50 09.09.2021
6548 Clear 33 1011 38 10000 5.14 60 08:47 09.09.2021
6549 Clear 33 1011 38 10000 5.14 60 08:47 09.09.2021
6550 Clear 33 1013 31 10000 7.72 80 06:26 09.09.2021
6551 Clear 28 1016 35 10000 8.23 110 02:19 09.09.2021
6552 Clear 24 1014 46 10000 6.17 110 22:40 08.09.2021
6553 Clouds 25 1014 45 10000 6.17 120 21:31 08.09.2021
6554 Clouds 25 1014 55 10000 5.66 110 19:56 08.09.2021
6555 Clouds 26 1014 55 10000 5.66 100 18:58 08.09.2021
6556 Clouds 25 1014 58 10000 4.12 100 18:29 08.09.2021
6557 Clouds 26 1014 53 10000 4.63 90 17:55 08.09.2021
6558 Clear 27 1015 52 10000 4.63 70 16:28 08.09.2021
6559 Clear 28 1014 50 10000 3.09 60 14:25 08.09.2021
6560 Clear 28 1013 46 10000 2.57 60 12:46 08.09.2021
6561 Clear 29 1012 45 10000 3.09 50 12:26 08.09.2021
6562 Clear 31 1011 39 10000 2.57 90 11:29 08.09.2021
6563 Clear 33 1011 26 10000 6.69 100 10:33 08.09.2021
6564 Clear 33 1011 26 10000 6.69 120 09:59 08.09.2021
6565 Clear 34 1011 25 10000 7.2 120 08:31 08.09.2021
6566 Clear 34 1011 22 10000 8.23 110 07:32 08.09.2021
6567 Clear 31 1014 30 10000 9.77 110 04:19 08.09.2021
6568 Clear 24 1013 43 10000 4.12 130 22:43 07.09.2021
6569 Clear 24 1013 47 10000 3.6 110 21:52 07.09.2021
6570 Clouds 24 1013 40 10000 2.57 110 19:52 07.09.2021
6571 Clouds 24 1014 38 10000 4.12 130 18:45 07.09.2021
6572 Clouds 25 1014 43 10000 3.6 130 17:49 07.09.2021
6573 Clear 25 1015 65 10000 2.06 230 16:33 07.09.2021
6574 Clear 26 1014 61 10000 2.06 230 15:35 07.09.2021
6575 Clear 26 1014 61 10000 2.06 240 14:41 07.09.2021
6576 Clear 26 1013 57 10000 1.54 320 12:38 07.09.2021
6577 Clear 30 1012 37 10000 5.14 310 11:36 07.09.2021
6578 Clear 32 1011 24 10000 4.12 120 10:40 07.09.2021
6579 Clear 32 1012 25 10000 5.66 110 08:25 07.09.2021
6580 Clear 32 1013 25 10000 6.17 100 06:45 07.09.2021
6581 Smoke 31 1014 25 10000 7.2 130 05:24 07.09.2021
6582 Clear 25 1016 27 10000 7.72 150 02:32 07.09.2021
6583 Clear 23 1015 33 10000 6.17 150 00:43 07.09.2021
6584 Clear 23 1015 39 10000 5.66 140 23:34 06.09.2021
6585 Clear 23 1014 39 10000 5.14 140 22:53 06.09.2021
6586 Clear 23 1014 40 10000 4.63 130 22:32 06.09.2021
6587 Clear 24 1013 40 10000 4.63 140 20:55 06.09.2021
6588 Clouds 25 1013 42 10000 4.12 140 19:23 06.09.2021
6589 Clouds 24 1013 46 10000 3.6 130 18:46 06.09.2021
6590 Clouds 24 1013 47 10000 3.6 140 18:23 06.09.2021
6591 Clouds 25 1014 47 10000 3.09 140 17:36 06.09.2021
6592 Clear 25 1014 73 10000 1.03 220 15:52 06.09.2021
6593 Clear 26 1014 66 10000 0 0 13:48 06.09.2021
6594 Clear 26 1013 63 10000 1.54 320 12:47 06.09.2021
6595 Clear 30 1011 48 10000 4.63 360 10:45 06.09.2021
6596 Clear 33 1011 29 10000 6.17 100 07:59 06.09.2021
6597 Clear 30 1015 34 10000 6.17 140 04:48 06.09.2021
6598 Clouds 24 1014 45 10000 7.2 140 23:35 05.09.2021
6599 Clouds 24 1014 45 10000 5.14 140 22:48 05.09.2021
6600 Clouds 25 1013 61 10000 4.63 160 21:58 05.09.2021
6601 Clouds 25 1013 79 10000 2.57 100 21:30 05.09.2021
6602 Clouds 25 1013 81 10000 1.54 100 20:33 05.09.2021
6603 Clouds 25 1013 83 10000 0.51 110 18:46 05.09.2021
6604 Clouds 26 1014 78 10000 1.54 100 17:31 05.09.2021
6605 Smoke 27 1014 76 10000 2.57 180 15:28 05.09.2021
6606 Smoke 27 1014 69 10000 2.06 160 14:19 05.09.2021
6607 Smoke 28 1012 64 10000 2.06 300 12:29 05.09.2021
6608 Smoke 31 1010 49 10000 5.66 30 10:53 05.09.2021
6609 Clouds 31 1010 49 10000 6.69 30 10:23 05.09.2021
6610 Clear 32 1009 48 10000 7.2 30 09:21 05.09.2021
6611 Clear 33 1010 50 10000 4.63 30 07:51 05.09.2021
6612 Clouds 28 1013 78 10000 3.6 80 01:22 05.09.2021
6613 Clouds 25 1013 88 10000 1.54 70 00:27 05.09.2021
6614 Clouds 24 1012 89 10000 0.51 70 23:39 04.09.2021
6615 Clouds 24 1012 89 10000 1.03 70 22:36 04.09.2021
6616 Clouds 25 1012 85 10000 4.12 60 21:56 04.09.2021
6617 Clouds 27 1012 84 10000 2.57 330 19:41 04.09.2021
6618 Clouds 27 1012 83 10000 0.51 350 18:43 04.09.2021
6619 Clouds 26 1012 79 10000 0.51 190 16:22 04.09.2021
6620 Clear 28 1011 67 10000 2.06 190 13:22 04.09.2021
6621 Clouds 29 1009 62 10000 6.17 20 11:19 04.09.2021
6622 Clouds 32 1008 53 10000 6.17 30 09:19 04.09.2021
6623 Clouds 33 1010 46 10000 4.12 80 05:50 04.09.2021
6624 Clouds 26 1012 86 10000 1.03 80 00:25 04.09.2021
6625 Clouds 25 1011 86 10000 1.54 90 23:31 03.09.2021
6626 Clouds 25 1010 86 10000 1.03 100 22:35 03.09.2021
6627 Clouds 25 1011 86 10000 0 0 21:35 03.09.2021
6628 Clouds 25 1011 86 10000 0 0 21:35 03.09.2021
6629 Clouds 26 1010 82 10000 0.51 60 20:42 03.09.2021
6630 Clouds 26 1011 83 10000 1.54 60 19:50 03.09.2021
6631 Clouds 27 1011 78 10000 2.57 50 19:18 03.09.2021
6632 Clouds 28 1012 74 10000